Wetterdaten: Donnerstag, 08.08.2019
Datum Zeit Temp. A. Feuchte A. Luftdruck Regen Wind Richtung Richtung Sonnenschein ET UV Solar Taupunkt Windchill Windböen
08.08.2019 00:00 15,2 °C 93 % 1011,1 hPa 0,0 mm 1,5 km/h (1 Bft) S-SW 201 ° 0 min 0,000 mm 0,0 UV-I 0 W/m² 14,1 °C 15,2 °C 6,4 km/h (2 Bft)
08.08.2019 00:01 15,2 °C 93 % 1011,1 hPa 0,0 mm 0,7 km/h (0 Bft) SW 233 ° 0 min 0,000 mm 0,0 UV-I 0 W/m² 14,1 °C 15,2 °C 3,2 km/h (1 Bft)
08.08.2019 00:02 15,2 °C 93 % 1011,1 hPa 0,2 mm 4,6 km/h (1 Bft) SW 227 ° 0 min 0,000 mm 0,0 UV-I 0 W/m² 14,1 °C 15,2 °C 11,3 km/h (2 Bft)
08.08.2019 00:03 15,2 °C 93 % 1011,2 hPa 0,0 mm 2,7 km/h (1 Bft) W-NW 299 ° 0 min 0,000 mm 0,0 UV-I 0 W/m² 14,1 °C 15,2 °C 4,8 km/h (1 Bft)
08.08.2019 00:04 15,2 °C 93 % 1011,2 hPa 0,0 mm 2,6 km/h (1 Bft) S 188 ° 0 min 0,000 mm 0,0 UV-I 0 W/m² 14,1 °C 15,2 °C 4,8 km/h (1 Bft)
08.08.2019 00:05 15,2 °C 93 % 1011,1 hPa 0,0 mm 1,8 km/h (1 Bft) W-SW 238 ° 0 min 0,000 mm 0,0 UV-I 0 W/m² 14,1 °C 15,2 °C 4,8 km/h (1 Bft)
08.08.2019 00:06 15,2 °C 93 % 1011,1 hPa 0,0 mm 2,4 km/h (1 Bft) SW 229 ° 0 min 0,000 mm 0,0 UV-I 0 W/m² 14,1 °C 15,2 °C 4,8 km/h (1 Bft)
08.08.2019 00:07 15,2 °C 93 % 1011,1 hPa 0,0 mm 4,0 km/h (1 Bft) S-SW 213 ° 0 min 0,000 mm 0,0 UV-I 0 W/m² 14,1 °C 15,2 °C 6,4 km/h (2 Bft)
08.08.2019 00:08 15,2 °C 93 % 1011,1 hPa 0,0 mm 0,3 km/h (0 Bft) SW 214 ° 0 min 0,000 mm 0,0 UV-I 0 W/m² 14,1 °C 15,2 °C 3,2 km/h (1 Bft)
08.08.2019 00:09 15,2 °C 93 % 1011,1 hPa 0,2 mm 0,5 km/h (0 Bft) W-NW 287 ° 0 min 0,000 mm 0,0 UV-I 0 W/m² 14,1 °C 15,2 °C 3,2 km/h (1 Bft)
08.08.2019 00:10 15,2 °C 93 % 1011,1 hPa 0,0 mm 4,3 km/h (1 Bft) W 265 ° 0 min 0,000 mm 0,0 UV-I 0 W/m² 14,1 °C 15,2 °C 6,4 km/h (2 Bft)
08.08.2019 00:11 15,2 °C 93 % 1011,1 hPa 0,0 mm 3,0 km/h (1 Bft) W-SW 250 ° 0 min 0,000 mm 0,0 UV-I 0 W/m² 14,1 °C 15,2 °C 9,7 km/h (2 Bft)
08.08.2019 00:12 15,2 °C 93 % 1011,1 hPa 0,0 mm 2,2 km/h (1 Bft) W-NW 284 ° 0 min 0,000 mm 0,0 UV-I 0 W/m² 14,1 °C 15,2 °C 4,8 km/h (1 Bft)
08.08.2019 00:13 15,2 °C 93 % 1011,1 hPa 0,0 mm 4,7 km/h (1 Bft) W-SW 238 ° 0 min 0,000 mm 0,0 UV-I 0 W/m² 14,1 °C 15,2 °C 11,3 km/h (2 Bft)
08.08.2019 00:14 15,2 °C 93 % 1011,0 hPa 0,0 mm 2,1 km/h (1 Bft) S-SW 211 ° 0 min 0,000 mm 0,0 UV-I 0 W/m² 14,1 °C 15,2 °C 4,8 km/h (1 Bft)
08.08.2019 00:15 15,2 °C 93 % 1011,1 hPa 0,0 mm 3,4 km/h (1 Bft) W-SW 248 ° 0 min 0,000 mm 0,0 UV-I 0 W/m² 14,1 °C 15,2 °C 8,0 km/h (2 Bft)
08.08.2019 00:16 15,2 °C 93 % 1011,1 hPa 0,0 mm 7,4 km/h (2 Bft) S 185 ° 0 min 0,000 mm 0,0 UV-I 0 W/m² 14,1 °C 15,2 °C 12,9 km/h (3 Bft)
08.08.2019 00:17 15,2 °C 93 % 1011,0 hPa 0,2 mm 2,0 km/h (1 Bft) W-SW 250 ° 0 min 0,000 mm 0,0 UV-I 0 W/m² 14,1 °C 15,2 °C 6,4 km/h (2 Bft)
08.08.2019 00:18 15,2 °C 93 % 1011,0 hPa 0,0 mm 0,8 km/h (0 Bft) S-SW 193 ° 0 min 0,000 mm 0,0 UV-I 0 W/m² 14,1 °C 15,2 °C 4,8 km/h (1 Bft)
08.08.2019 00:19 15,2 °C 93 % 1011,0 hPa 0,0 mm 2,0 km/h (1 Bft) S-SW 192 ° 0 min 0,000 mm 0,0 UV-I 0 W/m² 14,1 °C 15,2 °C 4,8 km/h (1 Bft)
08.08.2019 00:20 15,2 °C 93 % 1010,9 hPa 0,0 mm 1,9 km/h (1 Bft) SW 217 ° 0 min 0,000 mm 0,0 UV-I 0 W/m² 14,1 °C 15,2 °C 6,4 km/h (2 Bft)
08.08.2019 00:21 15,2 °C 93 % 1010,9 hPa 0,0 mm 3,2 km/h (1 Bft) S 184 ° 0 min 0,000 mm 0,0 UV-I 0 W/m² 14,1 °C 15,2 °C 8,0 km/h (2 Bft)
08.08.2019 00:22 15,2 °C 93 % 1010,9 hPa 0,0 mm 5,0 km/h (1 Bft) S-SW 198 ° 0 min 0,000 mm 0,0 UV-I 0 W/m² 14,1 °C 15,2 °C 9,7 km/h (2 Bft)
08.08.2019 00:23 15,2 °C 93 % 1011,0 hPa 0,0 mm 4,4 km/h (1 Bft) W-SW 257 ° 0 min 0,000 mm 0,0 UV-I 0 W/m² 14,1 °C 15,2 °C 9,7 km/h (2 Bft)
08.08.2019 00:24 15,2 °C 93 % 1010,9 hPa 0,0 mm 2,5 km/h (1 Bft) W-SW 248 ° 0 min 0,000 mm 0,0 UV-I 0 W/m² 14,1 °C 15,2 °C 6,4 km/h (2 Bft)
08.08.2019 00:25 15,2 °C 93 % 1010,9 hPa 0,2 mm 2,5 km/h (1 Bft) W 270 ° 0 min 0,000 mm 0,0 UV-I 0 W/m² 14,1 °C 15,2 °C 6,4 km/h (2 Bft)
08.08.2019 00:26 15,2 °C 93 % 1011,0 hPa 0,0 mm 1,0 km/h (0 Bft) W 264 ° 0 min 0,000 mm 0,0 UV-I 0 W/m² 14,1 °C 15,2 °C 4,8 km/h (1 Bft)
08.08.2019 00:27 15,2 °C 93 % 1011,1 hPa 0,0 mm 1,4 km/h (1 Bft) SW 233 ° 0 min 0,000 mm 0,0 UV-I 0 W/m² 14,1 °C 15,2 °C 3,2 km/h (1 Bft)
08.08.2019 00:28 15,2 °C 93 % 1011,1 hPa 0,0 mm 0,4 km/h (0 Bft) S-SW 211 ° 0 min 0,000 mm 0,0 UV-I 0 W/m² 14,1 °C 15,2 °C 1,6 km/h (1 Bft)
08.08.2019 00:29 15,2 °C 93 % 1011,0 hPa 0,0 mm 2,6 km/h (1 Bft) W-SW 250 ° 0 min 0,000 mm 0,0 UV-I 0 W/m² 14,1 °C 15,2 °C 6,4 km/h (2 Bft)
08.08.2019 00:30 15,2 °C 93 % 1011,0 hPa 0,0 mm 3,4 km/h (1 Bft) S-SW 211 ° 0 min 0,000 mm 0,0 UV-I 0 W/m² 14,1 °C 15,2 °C 8,0 km/h (2 Bft)
08.08.2019 00:31 15,2 °C 93 % 1011,0 hPa 0,0 mm 1,1 km/h (1 Bft) S-SW 210 ° 0 min 0,000 mm 0,0 UV-I 0 W/m² 14,1 °C 15,2 °C 3,2 km/h (1 Bft)
08.08.2019 00:32 15,2 °C 93 % 1011,0 hPa 0,0 mm 3,6 km/h (1 Bft) S-SW 197 ° 0 min 0,000 mm 0,0 UV-I 0 W/m² 14,1 °C 15,2 °C 8,0 km/h (2 Bft)
08.08.2019 00:33 15,1 °C 93 % 1010,9 hPa 0,0 mm 3,5 km/h (1 Bft) S 182 ° 0 min 0,000 mm 0,0 UV-I 0 W/m² 14,0 °C 15,1 °C 6,4 km/h (2 Bft)
08.08.2019 00:34 15,1 °C 93 % 1010,9 hPa 0,2 mm 4,6 km/h (1 Bft) S 188 ° 0 min 0,000 mm 0,0 UV-I 0 W/m² 14,0 °C 15,1 °C 9,7 km/h (2 Bft)
08.08.2019 00:35 15,1 °C 93 % 1010,9 hPa 0,0 mm 1,3 km/h (1 Bft) S 186 ° 0 min 0,000 mm 0,0 UV-I 0 W/m² 14,0 °C 15,1 °C 4,8 km/h (1 Bft)
08.08.2019 00:36 15,1 °C 93 % 1010,9 hPa 0,0 mm 0,3 km/h (0 Bft) S 186 ° 0 min 0,000 mm 0,0 UV-I 0 W/m² 14,0 °C 15,1 °C 1,6 km/h (1 Bft)
08.08.2019 00:37 15,1 °C 93 % 1010,9 hPa 0,0 mm 2,7 km/h (1 Bft) W-SW 240 ° 0 min 0,000 mm 0,0 UV-I 0 W/m² 14,0 °C 15,1 °C 9,7 km/h (2 Bft)
08.08.2019 00:38 15,0 °C 93 % 1010,9 hPa 0,0 mm 4,2 km/h (1 Bft) S 184 ° 0 min 0,000 mm 0,0 UV-I 0 W/m² 13,9 °C 15,0 °C 6,4 km/h (2 Bft)
08.08.2019 00:39 14,9 °C 93 % 1011,0 hPa 0,0 mm 2,4 km/h (1 Bft) S-SW 206 ° 0 min 0,000 mm 0,0 UV-I 0 W/m² 13,8 °C 14,9 °C 6,4 km/h (2 Bft)
08.08.2019 00:40 14,9 °C 93 % 1010,9 hPa 0,0 mm 0,9 km/h (0 Bft) S 178 ° 0 min 0,000 mm 0,0 UV-I 0 W/m² 13,8 °C 14,9 °C 3,2 km/h (1 Bft)
08.08.2019 00:41 14,9 °C 93 % 1010,9 hPa 0,0 mm 1,6 km/h (1 Bft) S-SO 150 ° 0 min 0,000 mm 0,0 UV-I 0 W/m² 13,8 °C 14,9 °C 3,2 km/h (1 Bft)
08.08.2019 00:42 14,9 °C 93 % 1010,9 hPa 0,0 mm 0,1 km/h (0 Bft) S-SO 150 ° 0 min 0,000 mm 0,0 UV-I 0 W/m² 13,8 °C 14,9 °C 1,6 km/h (1 Bft)
08.08.2019 00:43 14,8 °C 93 % 1010,9 hPa 0,0 mm 1,6 km/h (1 Bft) S-SO 150 ° 0 min 0,000 mm 0,0 UV-I 0 W/m² 13,7 °C 14,8 °C 3,2 km/h (1 Bft)
08.08.2019 00:44 14,8 °C 93 % 1010,8 hPa 0,0 mm 2,7 km/h (1 Bft) S-SW 192 ° 0 min 0,000 mm 0,0 UV-I 0 W/m² 13,7 °C 14,8 °C 4,8 km/h (1 Bft)
08.08.2019 00:45 14,8 °C 93 % 1010,8 hPa 0,0 mm 1,8 km/h (1 Bft) S-SW 202 ° 0 min 0,000 mm 0,0 UV-I 0 W/m² 13,7 °C 14,8 °C 4,8 km/h (1 Bft)
08.08.2019 00:46 14,7 °C 93 % 1010,8 hPa 0,0 mm 1,3 km/h (1 Bft) S-SW 202 ° 0 min 0,000 mm 0,0 UV-I 0 W/m² 13,6 °C 14,7 °C 3,2 km/h (1 Bft)
08.08.2019 00:47 14,7 °C 93 % 1010,8 hPa 0,0 mm 0,6 km/h (0 Bft) S-SW 202 ° 0 min 0,000 mm 0,0 UV-I 0 W/m² 13,6 °C 14,7 °C 3,2 km/h (1 Bft)
08.08.2019 00:48 14,7 °C 93 % 1010,8 hPa 0,0 mm 1,4 km/h (1 Bft) S-SW 200 ° 0 min 0,000 mm 0,0 UV-I 0 W/m² 13,6 °C 14,7 °C 3,2 km/h (1 Bft)
08.08.2019 00:49 14,7 °C 93 % 1010,7 hPa 0,2 mm 0,3 km/h (0 Bft) S-SW 200 ° 0 min 0,000 mm 0,0 UV-I 0 W/m² 13,6 °C 14,7 °C 1,6 km/h (1 Bft)
08.08.2019 00:50 14,7 °C 93 % 1010,7 hPa 0,0 mm 0,0 km/h (0 Bft) S-SW 200 ° 0 min 0,000 mm 0,0 UV-I 0 W/m² 13,6 °C 14,7 °C 0,0 km/h (0 Bft)
08.08.2019 00:51 14,6 °C 94 % 1010,7 hPa 0,0 mm 0,1 km/h (0 Bft) S-SW 200 ° 0 min 0,000 mm 0,0 UV-I 0 W/m² 13,6 °C 14,6 °C 1,6 km/h (1 Bft)
08.08.2019 00:52 14,6 °C 94 % 1010,7 hPa 0,0 mm 0,0 km/h (0 Bft) S-SW 200 ° 0 min 0,000 mm 0,0 UV-I 0 W/m² 13,6 °C 14,6 °C 0,0 km/h (0 Bft)
08.08.2019 00:53 14,6 °C 94 % 1010,7 hPa 0,0 mm 0,0 km/h (0 Bft) S-SW 200 ° 0 min 0,000 mm 0,0 UV-I 0 W/m² 13,6 °C 14,6 °C 0,0 km/h (0 Bft)
08.08.2019 00:54 14,6 °C 94 % 1010,8 hPa 0,0 mm 0,0 km/h (0 Bft) S-SW 200 ° 0 min 0,000 mm 0,0 UV-I 0 W/m² 13,6 °C 14,6 °C 0,0 km/h (0 Bft)
08.08.2019 00:55 14,6 °C 94 % 1010,8 hPa 0,0 mm 0,0 km/h (0 Bft) S-SW 200 ° 0 min 0,000 mm 0,0 UV-I 0 W/m² 13,6 °C 14,6 °C 0,0 km/h (0 Bft)
08.08.2019 00:56 14,5 °C 94 % 1010,8 hPa 0,0 mm 0,0 km/h (0 Bft) S-SW 200 ° 0 min 0,000 mm 0,0 UV-I 0 W/m² 13,5 °C 14,5 °C 0,0 km/h (0 Bft)
08.08.2019 00:57 14,4 °C 94 % 1010,8 hPa 0,0 mm 0,0 km/h (0 Bft) S-SW 200 ° 0 min 0,000 mm 0,0 UV-I 0 W/m² 13,4 °C 14,4 °C 0,0 km/h (0 Bft)
08.08.2019 00:58 14,4 °C 94 % 1010,8 hPa 0,0 mm 0,1 km/h (0 Bft) S-SW 200 ° 0 min 0,000 mm 0,0 UV-I 0 W/m² 13,4 °C 14,4 °C 1,6 km/h (1 Bft)
08.08.2019 00:59 14,4 °C 94 % 1010,7 hPa 0,0 mm 0,0 km/h (0 Bft) S-SW 200 ° 0 min 0,000 mm 0,0 UV-I 0 W/m² 13,4 °C 14,4 °C 0,0 km/h (0 Bft)
08.08.2019 01:00 14,4 °C 94 % 1010,7 hPa 0,0 mm 0,6 km/h (0 Bft) S-SW 200 ° 0 min 0,000 mm 0,0 UV-I 0 W/m² 13,4 °C 14,4 °C 1,6 km/h (1 Bft)
08.08.2019 01:01 14,4 °C 94 % 1010,7 hPa 0,0 mm 0,7 km/h (0 Bft) S-SW 200 ° 0 min 0,000 mm 0,0 UV-I 0 W/m² 13,4 °C 14,4 °C 1,6 km/h (1 Bft)
08.08.2019 01:02 14,4 °C 94 % 1010,7 hPa 0,0 mm 1,7 km/h (1 Bft) S-SW 200 ° 0 min 0,000 mm 0,0 UV-I 0 W/m² 13,4 °C 14,4 °C 3,2 km/h (1 Bft)
08.08.2019 01:03 14,4 °C 94 % 1010,7 hPa 0,0 mm 0,6 km/h (0 Bft) S-SW 200 ° 0 min 0,000 mm 0,0 UV-I 0 W/m² 13,4 °C 14,4 °C 1,6 km/h (1 Bft)
08.08.2019 01:04 14,4 °C 94 % 1010,8 hPa 0,0 mm 0,0 km/h (0 Bft) S-SW 200 ° 0 min 0,000 mm 0,0 UV-I 0 W/m² 13,4 °C 14,4 °C 0,0 km/h (0 Bft)
08.08.2019 01:05 14,4 °C 94 % 1010,7 hPa 0,0 mm 0,0 km/h (0 Bft) S-SW 200 ° 0 min 0,000 mm 0,0 UV-I 0 W/m² 13,4 °C 14,4 °C 0,0 km/h (0 Bft)
08.08.2019 01:06 14,3 °C 94 % 1010,7 hPa 0,0 mm 0,0 km/h (0 Bft) S-SW 200 ° 0 min 0,000 mm 0,0 UV-I 0 W/m² 13,3 °C 14,3 °C 0,0 km/h (0 Bft)
08.08.2019 01:07 14,3 °C 94 % 1010,8 hPa 0,0 mm 0,0 km/h (0 Bft) S-SW 200 ° 0 min 0,000 mm 0,0 UV-I 0 W/m² 13,3 °C 14,3 °C 0,0 km/h (0 Bft)
08.08.2019 01:08 14,3 °C 94 % 1010,8 hPa 0,0 mm 0,6 km/h (0 Bft) S-SW 200 ° 0 min 0,000 mm 0,0 UV-I 0 W/m² 13,3 °C 14,3 °C 3,2 km/h (1 Bft)
08.08.2019 01:09 14,3 °C 94 % 1010,8 hPa 0,0 mm 0,0 km/h (0 Bft) S-SW 200 ° 0 min 0,000 mm 0,0 UV-I 0 W/m² 13,3 °C 14,3 °C 0,0 km/h (0 Bft)
08.08.2019 01:10 14,3 °C 94 % 1010,9 hPa 0,0 mm 0,0 km/h (0 Bft) S-SW 200 ° 0 min 0,000 mm 0,0 UV-I 0 W/m² 13,3 °C 14,3 °C 0,0 km/h (0 Bft)
08.08.2019 01:11 14,3 °C 94 % 1010,8 hPa 0,0 mm 1,3 km/h (1 Bft) S-SW 200 ° 0 min 0,000 mm 0,0 UV-I 0 W/m² 13,3 °C 14,3 °C 3,2 km/h (1 Bft)
08.08.2019 01:12 14,3 °C 94 % 1010,7 hPa 0,0 mm 2,4 km/h (1 Bft) S-SW 200 ° 0 min 0,000 mm 0,0 UV-I 0 W/m² 13,3 °C 14,3 °C 3,2 km/h (1 Bft)
08.08.2019 01:13 14,3 °C 94 % 1010,8 hPa 0,0 mm 0,1 km/h (0 Bft) S-SW 200 ° 0 min 0,000 mm 0,0 UV-I 0 W/m² 13,3 °C 14,3 °C 1,6 km/h (1 Bft)
08.08.2019 01:14 14,2 °C 94 % 1010,8 hPa 0,0 mm 0,0 km/h (0 Bft) S-SW 200 ° 0 min 0,000 mm 0,0 UV-I 0 W/m² 13,2 °C 14,2 °C 0,0 km/h (0 Bft)
08.08.2019 01:15 14,2 °C 94 % 1010,8 hPa 0,0 mm 0,0 km/h (0 Bft) S-SW 200 ° 0 min 0,000 mm 0,0 UV-I 0 W/m² 13,2 °C 14,2 °C 0,0 km/h (0 Bft)
08.08.2019 01:16 14,2 °C 94 % 1010,8 hPa 0,0 mm 0,0 km/h (0 Bft) S-SW 200 ° 0 min 0,000 mm 0,0 UV-I 0 W/m² 13,2 °C 14,2 °C 0,0 km/h (0 Bft)
08.08.2019 01:17 14,2 °C 94 % 1010,8 hPa 0,0 mm 0,0 km/h (0 Bft) S-SW 200 ° 0 min 0,000 mm 0,0 UV-I 0 W/m² 13,2 °C 14,2 °C 0,0 km/h (0 Bft)
08.08.2019 01:18 14,2 °C 94 % 1010,8 hPa 0,0 mm 0,0 km/h (0 Bft) S-SW 200 ° 0 min 0,000 mm 0,0 UV-I 0 W/m² 13,2 °C 14,2 °C 0,0 km/h (0 Bft)
08.08.2019 01:19 14,2 °C 94 % 1010,8 hPa 0,0 mm 0,0 km/h (0 Bft) S-SW 200 ° 0 min 0,000 mm 0,0 UV-I 0 W/m² 13,2 °C 14,2 °C 0,0 km/h (0 Bft)
08.08.2019 01:20 14,2 °C 94 % 1010,9 hPa 0,0 mm 0,0 km/h (0 Bft) S-SW 200 ° 0 min 0,000 mm 0,0 UV-I 0 W/m² 13,2 °C 14,2 °C 0,0 km/h (0 Bft)
08.08.2019 01:21 14,2 °C 94 % 1010,9 hPa 0,0 mm 0,0 km/h (0 Bft) S-SW 200 ° 0 min 0,000 mm 0,0 UV-I 0 W/m² 13,2 °C 14,2 °C 0,0 km/h (0 Bft)
08.08.2019 01:22 14,1 °C 94 % 1010,8 hPa 0,0 mm 0,9 km/h (0 Bft) S-SW 193 ° 0 min 0,000 mm 0,0 UV-I 0 W/m² 13,1 °C 14,1 °C 3,2 km/h (1 Bft)
08.08.2019 01:23 14,1 °C 94 % 1010,8 hPa 0,0 mm 0,8 km/h (0 Bft) S-SW 193 ° 0 min 0,000 mm 0,0 UV-I 0 W/m² 13,1 °C 14,1 °C 3,2 km/h (1 Bft)
08.08.2019 01:24 14,2 °C 94 % 1010,8 hPa 0,0 mm 0,2 km/h (0 Bft) S-SW 193 ° 0 min 0,000 mm 0,0 UV-I 0 W/m² 13,2 °C 14,2 °C 1,6 km/h (1 Bft)
08.08.2019 01:25 14,2 °C 94 % 1010,8 hPa 0,0 mm 0,0 km/h (0 Bft) S-SW 193 ° 0 min 0,000 mm 0,0 UV-I 0 W/m² 13,2 °C 14,2 °C 0,0 km/h (0 Bft)
08.08.2019 01:26 14,1 °C 94 % 1010,8 hPa 0,0 mm 0,0 km/h (0 Bft) S-SW 193 ° 0 min 0,000 mm 0,0 UV-I 0 W/m² 13,1 °C 14,1 °C 0,0 km/h (0 Bft)
08.08.2019 01:27 14,1 °C 94 % 1010,9 hPa 0,0 mm 0,2 km/h (0 Bft) S-SW 193 ° 0 min 0,000 mm 0,0 UV-I 0 W/m² 13,1 °C 14,1 °C 1,6 km/h (1 Bft)
08.08.2019 01:28 14,1 °C 94 % 1010,8 hPa 0,0 mm 0,0 km/h (0 Bft) S-SW 193 ° 0 min 0,000 mm 0,0 UV-I 0 W/m² 13,1 °C 14,1 °C 0,0 km/h (0 Bft)
08.08.2019 01:29 14,1 °C 94 % 1010,8 hPa 0,0 mm 0,0 km/h (0 Bft) S-SW 193 ° 0 min 0,000 mm 0,0 UV-I 0 W/m² 13,1 °C 14,1 °C 0,0 km/h (0 Bft)
08.08.2019 01:30 14,1 °C 94 % 1010,8 hPa 0,0 mm 0,0 km/h (0 Bft) S-SW 193 ° 0 min 0,000 mm 0,0 UV-I 0 W/m² 13,1 °C 14,1 °C 0,0 km/h (0 Bft)
08.08.2019 01:31 14,1 °C 94 % 1010,9 hPa 0,0 mm 0,0 km/h (0 Bft) S-SW 193 ° 0 min 0,000 mm 0,0 UV-I 0 W/m² 13,1 °C 14,1 °C 0,0 km/h (0 Bft)
08.08.2019 01:32 14,1 °C 94 % 1010,8 hPa 0,0 mm 0,0 km/h (0 Bft) S-SW 193 ° 0 min 0,000 mm 0,0 UV-I 0 W/m² 13,1 °C 14,1 °C 0,0 km/h (0 Bft)
08.08.2019 01:33 14,1 °C 94 % 1010,8 hPa 0,0 mm 0,0 km/h (0 Bft) S-SW 193 ° 0 min 0,000 mm 0,0 UV-I 0 W/m² 13,1 °C 14,1 °C 0,0 km/h (0 Bft)
08.08.2019 01:34 14,1 °C 94 % 1010,8 hPa 0,0 mm 0,4 km/h (0 Bft) S-SW 193 ° 0 min 0,000 mm 0,0 UV-I 0 W/m² 13,1 °C 14,1 °C 1,6 km/h (1 Bft)
08.08.2019 01:35 14,1 °C 95 % 1010,8 hPa 0,0 mm 0,1 km/h (0 Bft) S-SW 193 ° 0 min 0,000 mm 0,0 UV-I 0 W/m² 13,3 °C 14,1 °C 1,6 km/h (1 Bft)
08.08.2019 01:36 14,1 °C 95 % 1010,8 hPa 0,0 mm 1,0 km/h (0 Bft) S-SW 193 ° 0 min 0,000 mm 0,0 UV-I 0 W/m² 13,3 °C 14,1 °C 3,2 km/h (1 Bft)
08.08.2019 01:37 14,1 °C 95 % 1010,8 hPa 0,0 mm 0,0 km/h (0 Bft) S-SW 193 ° 0 min 0,000 mm 0,0 UV-I 0 W/m² 13,3 °C 14,1 °C 0,0 km/h (0 Bft)
08.08.2019 01:38 14,1 °C 95 % 1010,8 hPa 0,0 mm 0,3 km/h (0 Bft) S-SW 193 ° 0 min 0,000 mm 0,0 UV-I 0 W/m² 13,3 °C 14,1 °C 1,6 km/h (1 Bft)
08.08.2019 01:39 14,1 °C 95 % 1010,8 hPa 0,0 mm 0,2 km/h (0 Bft) S-SW 193 ° 0 min 0,000 mm 0,0 UV-I 0 W/m² 13,3 °C 14,1 °C 1,6 km/h (1 Bft)
08.08.2019 01:40 14,0 °C 95 % 1010,8 hPa 0,0 mm 0,0 km/h (0 Bft) S-SW 193 ° 0 min 0,000 mm 0,0 UV-I 0 W/m² 13,2 °C 14,0 °C 0,0 km/h (0 Bft)
08.08.2019 01:41 14,0 °C 95 % 1010,8 hPa 0,0 mm 0,0 km/h (0 Bft) S-SW 193 ° 0 min 0,000 mm 0,0 UV-I 0 W/m² 13,2 °C 14,0 °C 0,0 km/h (0 Bft)
08.08.2019 01:42 14,0 °C 95 % 1010,8 hPa 0,0 mm 0,0 km/h (0 Bft) S-SW 193 ° 0 min 0,000 mm 0,0 UV-I 0 W/m² 13,2 °C 14,0 °C 0,0 km/h (0 Bft)
08.08.2019 01:43 14,0 °C 95 % 1010,8 hPa 0,0 mm 0,0 km/h (0 Bft) S-SW 193 ° 0 min 0,000 mm 0,0 UV-I 0 W/m² 13,2 °C 14,0 °C 0,0 km/h (0 Bft)
08.08.2019 01:44 14,0 °C 95 % 1010,8 hPa 0,0 mm 0,1 km/h (0 Bft) S-SW 193 ° 0 min 0,000 mm 0,0 UV-I 0 W/m² 13,2 °C 14,0 °C 1,6 km/h (1 Bft)
08.08.2019 01:45 14,0 °C 95 % 1010,8 hPa 0,0 mm 0,2 km/h (0 Bft) S-SW 193 ° 0 min 0,000 mm 0,0 UV-I 0 W/m² 13,2 °C 14,0 °C 1,6 km/h (1 Bft)
08.08.2019 01:46 13,9 °C 95 % 1010,8 hPa 0,0 mm 0,3 km/h (0 Bft) S-SW 193 ° 0 min 0,000 mm 0,0 UV-I 0 W/m² 13,1 °C 13,9 °C 1,6 km/h (1 Bft)
08.08.2019 01:47 13,9 °C 95 % 1010,8 hPa 0,0 mm 0,0 km/h (0 Bft) S-SW 193 ° 0 min 0,000 mm 0,0 UV-I 0 W/m² 13,1 °C 13,9 °C 0,0 km/h (0 Bft)
08.08.2019 01:48 13,9 °C 95 % 1010,8 hPa 0,0 mm 0,0 km/h (0 Bft) S-SW 193 ° 0 min 0,000 mm 0,0 UV-I 0 W/m² 13,1 °C 13,9 °C 0,0 km/h (0 Bft)
08.08.2019 01:49 13,9 °C 95 % 1010,8 hPa 0,0 mm 0,0 km/h (0 Bft) S-SW 193 ° 0 min 0,000 mm 0,0 UV-I 0 W/m² 13,1 °C 13,9 °C 0,0 km/h (0 Bft)
08.08.2019 01:50 13,9 °C 95 % 1010,8 hPa 0,0 mm 0,0 km/h (0 Bft) S-SW 193 ° 0 min 0,000 mm 0,0 UV-I 0 W/m² 13,1 °C 13,9 °C 0,0 km/h (0 Bft)
08.08.2019 01:51 13,9 °C 95 % 1010,8 hPa 0,0 mm 0,0 km/h (0 Bft) S-SW 193 ° 0 min 0,000 mm 0,0 UV-I 0 W/m² 13,1 °C 13,9 °C 0,0 km/h (0 Bft)
08.08.2019 01:52 13,9 °C 95 % 1010,8 hPa 0,0 mm 0,5 km/h (0 Bft) S-SW 193 ° 0 min 0,000 mm 0,0 UV-I 0 W/m² 13,1 °C 13,9 °C 3,2 km/h (1 Bft)
08.08.2019 01:53 14,0 °C 95 % 1010,8 hPa 0,0 mm 1,0 km/h (0 Bft) S-SW 193 ° 0 min 0,000 mm 0,0 UV-I 0 W/m² 13,2 °C 14,0 °C 3,2 km/h (1 Bft)
08.08.2019 01:54 14,0 °C 95 % 1010,8 hPa 0,0 mm 0,0 km/h (0 Bft) S-SW 193 ° 0 min 0,000 mm 0,0 UV-I 0 W/m² 13,2 °C 14,0 °C 0,0 km/h (0 Bft)
08.08.2019 01:55 14,0 °C 95 % 1010,8 hPa 0,0 mm 0,0 km/h (0 Bft) S-SW 193 ° 0 min 0,000 mm 0,0 UV-I 0 W/m² 13,2 °C 14,0 °C 0,0 km/h (0 Bft)
08.08.2019 01:56 14,0 °C 95 % 1010,8 hPa 0,0 mm 0,0 km/h (0 Bft) S-SW 193 ° 0 min 0,000 mm 0,0 UV-I 0 W/m² 13,2 °C 14,0 °C 0,0 km/h (0 Bft)
08.08.2019 01:57 14,0 °C 95 % 1010,8 hPa 0,0 mm 0,0 km/h (0 Bft) S-SW 193 ° 0 min 0,000 mm 0,0 UV-I 0 W/m² 13,2 °C 14,0 °C 0,0 km/h (0 Bft)
08.08.2019 01:58 14,1 °C 95 % 1010,8 hPa 0,0 mm 0,0 km/h (0 Bft) S-SW 193 ° 0 min 0,000 mm 0,0 UV-I 0 W/m² 13,3 °C 14,1 °C 0,0 km/h (0 Bft)
08.08.2019 01:59 14,0 °C 95 % 1010,8 hPa 0,0 mm 0,0 km/h (0 Bft) S-SW 193 ° 0 min 0,000 mm 0,0 UV-I 0 W/m² 13,2 °C 14,0 °C 0,0 km/h (0 Bft)
08.08.2019 02:00 14,0 °C 95 % 1010,8 hPa 0,0 mm 0,0 km/h (0 Bft) S-SW 193 ° 0 min 0,000 mm 0,0 UV-I 0 W/m² 13,2 °C 14,0 °C 0,0 km/h (0 Bft)
08.08.2019 02:01 14,0 °C 95 % 1010,8 hPa 0,0 mm 0,0 km/h (0 Bft) S-SW 193 ° 0 min 0,000 mm 0,0 UV-I 0 W/m² 13,2 °C 14,0 °C 0,0 km/h (0 Bft)
08.08.2019 02:02 14,1 °C 95 % 1010,8 hPa 0,0 mm 0,7 km/h (0 Bft) S-SW 193 ° 0 min 0,000 mm 0,0 UV-I 0 W/m² 13,3 °C 14,1 °C 3,2 km/h (1 Bft)
08.08.2019 02:03 14,1 °C 95 % 1010,8 hPa 0,0 mm 2,2 km/h (1 Bft) S 186 ° 0 min 0,000 mm 0,0 UV-I 0 W/m² 13,3 °C 14,1 °C 4,8 km/h (1 Bft)
08.08.2019 02:04 14,1 °C 95 % 1010,8 hPa 0,0 mm 0,5 km/h (0 Bft) S 186 ° 0 min 0,000 mm 0,0 UV-I 0 W/m² 13,3 °C 14,1 °C 1,6 km/h (1 Bft)
08.08.2019 02:05 14,1 °C 95 % 1010,8 hPa 0,0 mm 0,0 km/h (0 Bft) S 186 ° 0 min 0,000 mm 0,0 UV-I 0 W/m² 13,3 °C 14,1 °C 0,0 km/h (0 Bft)
08.08.2019 02:06 14,1 °C 95 % 1010,8 hPa 0,0 mm 0,5 km/h (0 Bft) S 186 ° 0 min 0,000 mm 0,0 UV-I 0 W/m² 13,3 °C 14,1 °C 1,6 km/h (1 Bft)
08.08.2019 02:07 14,1 °C 95 % 1010,8 hPa 0,0 mm 0,6 km/h (0 Bft) S 186 ° 0 min 0,000 mm 0,0 UV-I 0 W/m² 13,3 °C 14,1 °C 1,6 km/h (1 Bft)
08.08.2019 02:08 14,1 °C 95 % 1010,8 hPa 0,0 mm 0,0 km/h (0 Bft) S 186 ° 0 min 0,000 mm 0,0 UV-I 0 W/m² 13,3 °C 14,1 °C 0,0 km/h (0 Bft)
08.08.2019 02:09 14,1 °C 95 % 1010,8 hPa 0,0 mm 0,0 km/h (0 Bft) S 186 ° 0 min 0,000 mm 0,0 UV-I 0 W/m² 13,3 °C 14,1 °C 0,0 km/h (0 Bft)
08.08.2019 02:10 14,1 °C 95 % 1010,8 hPa 0,0 mm 0,0 km/h (0 Bft) S 186 ° 0 min 0,000 mm 0,0 UV-I 0 W/m² 13,3 °C 14,1 °C 0,0 km/h (0 Bft)
08.08.2019 02:11 14,1 °C 95 % 1010,8 hPa 0,0 mm 0,5 km/h (0 Bft) SW 217 ° 0 min 0,000 mm 0,0 UV-I 0 W/m² 13,3 °C 14,1 °C 1,6 km/h (1 Bft)
08.08.2019 02:12 14,1 °C 95 % 1010,8 hPa 0,0 mm 0,1 km/h (0 Bft) SW 217 ° 0 min 0,000 mm 0,0 UV-I 0 W/m² 13,3 °C 14,1 °C 1,6 km/h (1 Bft)
08.08.2019 02:13 14,1 °C 95 % 1010,8 hPa 0,0 mm 0,0 km/h (0 Bft) SW 217 ° 0 min 0,000 mm 0,0 UV-I 0 W/m² 13,3 °C 14,1 °C 0,0 km/h (0 Bft)
08.08.2019 02:14 14,1 °C 95 % 1010,8 hPa 0,0 mm 0,0 km/h (0 Bft) SW 217 ° 0 min 0,000 mm 0,0 UV-I 0 W/m² 13,3 °C 14,1 °C 0,0 km/h (0 Bft)
08.08.2019 02:15 14,1 °C 95 % 1010,8 hPa 0,0 mm 0,0 km/h (0 Bft) SW 217 ° 0 min 0,000 mm 0,0 UV-I 0 W/m² 13,3 °C 14,1 °C 0,0 km/h (0 Bft)
08.08.2019 02:16 14,1 °C 95 % 1010,8 hPa 0,0 mm 0,0 km/h (0 Bft) SW 217 ° 0 min 0,000 mm 0,0 UV-I 0 W/m² 13,3 °C 14,1 °C 0,0 km/h (0 Bft)
08.08.2019 02:17 14,1 °C 95 % 1010,8 hPa 0,0 mm 0,0 km/h (0 Bft) SW 217 ° 0 min 0,000 mm 0,0 UV-I 0 W/m² 13,3 °C 14,1 °C 0,0 km/h (0 Bft)
08.08.2019 02:18 14,1 °C 95 % 1010,8 hPa 0,0 mm 0,0 km/h (0 Bft) SW 217 ° 0 min 0,000 mm 0,0 UV-I 0 W/m² 13,3 °C 14,1 °C 0,0 km/h (0 Bft)
08.08.2019 02:19 14,1 °C 95 % 1010,7 hPa 0,0 mm 0,0 km/h (0 Bft) SW 217 ° 0 min 0,000 mm 0,0 UV-I 0 W/m² 13,3 °C 14,1 °C 0,0 km/h (0 Bft)
08.08.2019 02:20 14,1 °C 95 % 1010,7 hPa 0,0 mm 0,4 km/h (0 Bft) SW 217 ° 0 min 0,000 mm 0,0 UV-I 0 W/m² 13,3 °C 14,1 °C 1,6 km/h (1 Bft)
08.08.2019 02:21 14,1 °C 95 % 1010,7 hPa 0,0 mm 0,1 km/h (0 Bft) SW 217 ° 0 min 0,000 mm 0,0 UV-I 0 W/m² 13,3 °C 14,1 °C 1,6 km/h (1 Bft)
08.08.2019 02:22 14,1 °C 95 % 1010,7 hPa 0,0 mm 1,6 km/h (1 Bft) S 182 ° 0 min 0,000 mm 0,0 UV-I 0 W/m² 13,3 °C 14,1 °C 3,2 km/h (1 Bft)
08.08.2019 02:23 14,1 °C 95 % 1010,7 hPa 0,0 mm 2,9 km/h (1 Bft) S 181 ° 0 min 0,000 mm 0,0 UV-I 0 W/m² 13,3 °C 14,1 °C 6,4 km/h (2 Bft)
08.08.2019 02:24 14,1 °C 95 % 1010,7 hPa 0,0 mm 1,0 km/h (0 Bft) S 181 ° 0 min 0,000 mm 0,0 UV-I 0 W/m² 13,3 °C 14,1 °C 3,2 km/h (1 Bft)
08.08.2019 02:25 14,1 °C 95 % 1010,7 hPa 0,0 mm 0,3 km/h (0 Bft) S 181 ° 0 min 0,000 mm 0,0 UV-I 0 W/m² 13,3 °C 14,1 °C 3,2 km/h (1 Bft)
08.08.2019 02:26 14,1 °C 95 % 1010,7 hPa 0,0 mm 4,2 km/h (1 Bft) S-SW 200 ° 0 min 0,000 mm 0,0 UV-I 0 W/m² 13,3 °C 14,1 °C 6,4 km/h (2 Bft)
08.08.2019 02:27 14,1 °C 95 % 1010,7 hPa 0,0 mm 1,8 km/h (1 Bft) S-SW 198 ° 0 min 0,000 mm 0,0 UV-I 0 W/m² 13,3 °C 14,1 °C 4,8 km/h (1 Bft)
08.08.2019 02:28 14,1 °C 95 % 1010,7 hPa 0,0 mm 0,5 km/h (0 Bft) S-SW 200 ° 0 min 0,000 mm 0,0 UV-I 0 W/m² 13,3 °C 14,1 °C 1,6 km/h (1 Bft)
08.08.2019 02:29 14,2 °C 95 % 1010,7 hPa 0,0 mm 0,5 km/h (0 Bft) S-SW 196 ° 0 min 0,000 mm 0,0 UV-I 0 W/m² 13,4 °C 14,2 °C 3,2 km/h (1 Bft)
08.08.2019 02:30 14,2 °C 95 % 1010,7 hPa 0,0 mm 0,8 km/h (0 Bft) S-SW 196 ° 0 min 0,000 mm 0,0 UV-I 0 W/m² 13,4 °C 14,2 °C 1,6 km/h (1 Bft)
08.08.2019 02:31 14,2 °C 95 % 1010,7 hPa 0,0 mm 0,1 km/h (0 Bft) S-SW 196 ° 0 min 0,000 mm 0,0 UV-I 0 W/m² 13,4 °C 14,2 °C 1,6 km/h (1 Bft)
08.08.2019 02:32 14,2 °C 95 % 1010,7 hPa 0,0 mm 0,0 km/h (0 Bft) S-SW 196 ° 0 min 0,000 mm 0,0 UV-I 0 W/m² 13,4 °C 14,2 °C 0,0 km/h (0 Bft)
08.08.2019 02:33 14,2 °C 95 % 1010,7 hPa 0,0 mm 1,4 km/h (1 Bft) S-SW 196 ° 0 min 0,000 mm 0,0 UV-I 0 W/m² 13,4 °C 14,2 °C 3,2 km/h (1 Bft)
08.08.2019 02:34 14,1 °C 95 % 1010,7 hPa 0,0 mm 1,1 km/h (1 Bft) S-SW 196 ° 0 min 0,000 mm 0,0 UV-I 0 W/m² 13,3 °C 14,1 °C 3,2 km/h (1 Bft)
08.08.2019 02:35 14,2 °C 95 % 1010,7 hPa 0,0 mm 2,4 km/h (1 Bft) S-SW 213 ° 0 min 0,000 mm 0,0 UV-I 0 W/m² 13,4 °C 14,2 °C 4,8 km/h (1 Bft)
08.08.2019 02:36 14,2 °C 95 % 1010,7 hPa 0,0 mm 0,1 km/h (0 Bft) S-SW 213 ° 0 min 0,000 mm 0,0 UV-I 0 W/m² 13,4 °C 14,2 °C 1,6 km/h (1 Bft)
08.08.2019 02:37 14,2 °C 95 % 1010,7 hPa 0,0 mm 0,0 km/h (0 Bft) S-SW 213 ° 0 min 0,000 mm 0,0 UV-I 0 W/m² 13,4 °C 14,2 °C 0,0 km/h (0 Bft)
08.08.2019 02:38 14,1 °C 95 % 1010,7 hPa 0,0 mm 0,0 km/h (0 Bft) S-SW 213 ° 0 min 0,000 mm 0,0 UV-I 0 W/m² 13,3 °C 14,1 °C 0,0 km/h (0 Bft)
08.08.2019 02:39 14,1 °C 95 % 1010,7 hPa 0,0 mm 0,0 km/h (0 Bft) S-SW 213 ° 0 min 0,000 mm 0,0 UV-I 0 W/m² 13,3 °C 14,1 °C 0,0 km/h (0 Bft)
08.08.2019 02:40 14,1 °C 95 % 1010,7 hPa 0,0 mm 0,0 km/h (0 Bft) S-SW 213 ° 0 min 0,000 mm 0,0 UV-I 0 W/m² 13,3 °C 14,1 °C 0,0 km/h (0 Bft)
08.08.2019 02:41 14,1 °C 95 % 1010,7 hPa 0,0 mm 0,0 km/h (0 Bft) S-SW 213 ° 0 min 0,000 mm 0,0 UV-I 0 W/m² 13,3 °C 14,1 °C 0,0 km/h (0 Bft)
08.08.2019 02:42 14,1 °C 95 % 1010,6 hPa 0,0 mm 1,2 km/h (1 Bft) S-SW 200 ° 0 min 0,000 mm 0,0 UV-I 0 W/m² 13,3 °C 14,1 °C 3,2 km/h (1 Bft)
08.08.2019 02:43 14,1 °C 95 % 1010,7 hPa 0,0 mm 0,7 km/h (0 Bft) S-SW 200 ° 0 min 0,000 mm 0,0 UV-I 0 W/m² 13,3 °C 14,1 °C 3,2 km/h (1 Bft)
08.08.2019 02:44 14,1 °C 95 % 1010,7 hPa 0,0 mm 0,3 km/h (0 Bft) S-SW 200 ° 0 min 0,000 mm 0,0 UV-I 0 W/m² 13,3 °C 14,1 °C 1,6 km/h (1 Bft)
08.08.2019 02:45 14,1 °C 95 % 1010,6 hPa 0,0 mm 0,9 km/h (0 Bft) S-SW 198 ° 0 min 0,000 mm 0,0 UV-I 0 W/m² 13,3 °C 14,1 °C 4,8 km/h (1 Bft)
08.08.2019 02:46 14,1 °C 95 % 1010,6 hPa 0,0 mm 0,0 km/h (0 Bft) S-SW 198 ° 0 min 0,000 mm 0,0 UV-I 0 W/m² 13,3 °C 14,1 °C 0,0 km/h (0 Bft)
08.08.2019 02:47 14,1 °C 95 % 1010,6 hPa 0,0 mm 0,0 km/h (0 Bft) S-SW 198 ° 0 min 0,000 mm 0,0 UV-I 0 W/m² 13,3 °C 14,1 °C 0,0 km/h (0 Bft)
08.08.2019 02:48 14,1 °C 95 % 1010,6 hPa 0,0 mm 0,0 km/h (0 Bft) S-SW 198 ° 0 min 0,000 mm 0,0 UV-I 0 W/m² 13,3 °C 14,1 °C 0,0 km/h (0 Bft)
08.08.2019 02:49 14,1 °C 95 % 1010,7 hPa 0,0 mm 0,5 km/h (0 Bft) S 171 ° 0 min 0,000 mm 0,0 UV-I 0 W/m² 13,3 °C 14,1 °C 1,6 km/h (1 Bft)
08.08.2019 02:50 14,1 °C 95 % 1010,6 hPa 0,0 mm 0,0 km/h (0 Bft) S 171 ° 0 min 0,000 mm 0,0 UV-I 0 W/m² 13,3 °C 14,1 °C 0,0 km/h (0 Bft)
08.08.2019 02:51 14,0 °C 95 % 1010,6 hPa 0,0 mm 0,0 km/h (0 Bft) S 171 ° 0 min 0,000 mm 0,0 UV-I 0 W/m² 13,2 °C 14,0 °C 0,0 km/h (0 Bft)
08.08.2019 02:52 13,9 °C 95 % 1010,6 hPa 0,0 mm 0,2 km/h (0 Bft) S 171 ° 0 min 0,000 mm 0,0 UV-I 0 W/m² 13,1 °C 13,9 °C 1,6 km/h (1 Bft)
08.08.2019 02:53 13,9 °C 95 % 1010,6 hPa 0,0 mm 0,1 km/h (0 Bft) S 171 ° 0 min 0,000 mm 0,0 UV-I 0 W/m² 13,1 °C 13,9 °C 1,6 km/h (1 Bft)
08.08.2019 02:54 13,9 °C 95 % 1010,6 hPa 0,0 mm 0,0 km/h (0 Bft) S 171 ° 0 min 0,000 mm 0,0 UV-I 0 W/m² 13,1 °C 13,9 °C 0,0 km/h (0 Bft)
08.08.2019 02:55 13,9 °C 95 % 1010,6 hPa 0,0 mm 0,0 km/h (0 Bft) S 171 ° 0 min 0,000 mm 0,0 UV-I 0 W/m² 13,1 °C 13,9 °C 0,0 km/h (0 Bft)
08.08.2019 02:56 13,9 °C 95 % 1010,6 hPa 0,0 mm 0,0 km/h (0 Bft) S 171 ° 0 min 0,000 mm 0,0 UV-I 0 W/m² 13,1 °C 13,9 °C 0,0 km/h (0 Bft)
08.08.2019 02:57 13,8 °C 95 % 1010,6 hPa 0,0 mm 0,0 km/h (0 Bft) S 171 ° 0 min 0,000 mm 0,0 UV-I 0 W/m² 13,0 °C 13,8 °C 0,0 km/h (0 Bft)
08.08.2019 02:58 13,8 °C 95 % 1010,6 hPa 0,0 mm 0,0 km/h (0 Bft) S 171 ° 0 min 0,000 mm 0,0 UV-I 0 W/m² 13,0 °C 13,8 °C 0,0 km/h (0 Bft)
08.08.2019 02:59 13,8 °C 95 % 1010,6 hPa 0,0 mm 0,1 km/h (0 Bft) S 171 ° 0 min 0,000 mm 0,0 UV-I 0 W/m² 13,0 °C 13,8 °C 1,6 km/h (1 Bft)
08.08.2019 03:00 13,8 °C 95 % 1010,6 hPa 0,0 mm 0,0 km/h (0 Bft) S 171 ° 0 min 0,000 mm 0,0 UV-I 0 W/m² 13,0 °C 13,8 °C 0,0 km/h (0 Bft)
08.08.2019 03:01 13,8 °C 95 % 1010,6 hPa 0,0 mm 0,0 km/h (0 Bft) S 171 ° 0 min 0,000 mm 0,0 UV-I 0 W/m² 13,0 °C 13,8 °C 0,0 km/h (0 Bft)
08.08.2019 03:02 13,9 °C 95 % 1010,6 hPa 0,0 mm 0,3 km/h (0 Bft) S 171 ° 0 min 0,000 mm 0,0 UV-I 0 W/m² 13,1 °C 13,9 °C 1,6 km/h (1 Bft)
08.08.2019 03:03 13,9 °C 95 % 1010,6 hPa 0,0 mm 0,0 km/h (0 Bft) S 171 ° 0 min 0,000 mm 0,0 UV-I 0 W/m² 13,1 °C 13,9 °C 0,0 km/h (0 Bft)
08.08.2019 03:04 13,8 °C 95 % 1010,6 hPa 0,0 mm 0,1 km/h (0 Bft) S-SW 192 ° 0 min 0,000 mm 0,0 UV-I 0 W/m² 13,0 °C 13,8 °C 1,6 km/h (1 Bft)
08.08.2019 03:05 13,8 °C 95 % 1010,7 hPa 0,0 mm 1,1 km/h (1 Bft) W-SW 239 ° 0 min 0,000 mm 0,0 UV-I 0 W/m² 13,0 °C 13,8 °C 3,2 km/h (1 Bft)
08.08.2019 03:06 13,8 °C 95 % 1010,7 hPa 0,0 mm 0,0 km/h (0 Bft) W-SW 240 ° 0 min 0,000 mm 0,0 UV-I 0 W/m² 13,0 °C 13,8 °C 0,0 km/h (0 Bft)
08.08.2019 03:07 13,7 °C 95 % 1010,7 hPa 0,0 mm 0,0 km/h (0 Bft) W-SW 239 ° 0 min 0,000 mm 0,0 UV-I 0 W/m² 12,9 °C 13,7 °C 0,0 km/h (0 Bft)
08.08.2019 03:08 13,7 °C 95 % 1010,7 hPa 0,0 mm 0,0 km/h (0 Bft) W-SW 239 ° 0 min 0,000 mm 0,0 UV-I 0 W/m² 12,9 °C 13,7 °C 0,0 km/h (0 Bft)
08.08.2019 03:09 13,7 °C 95 % 1010,7 hPa 0,0 mm 0,2 km/h (0 Bft) W-SW 240 ° 0 min 0,000 mm 0,0 UV-I 0 W/m² 12,9 °C 13,7 °C 1,6 km/h (1 Bft)
08.08.2019 03:10 13,7 °C 95 % 1010,7 hPa 0,0 mm 0,0 km/h (0 Bft) W-SW 240 ° 0 min 0,000 mm 0,0 UV-I 0 W/m² 12,9 °C 13,7 °C 0,0 km/h (0 Bft)
08.08.2019 03:11 13,7 °C 95 % 1010,7 hPa 0,0 mm 0,0 km/h (0 Bft) W-SW 240 ° 0 min 0,000 mm 0,0 UV-I 0 W/m² 12,9 °C 13,7 °C 0,0 km/h (0 Bft)
08.08.2019 03:12 13,7 °C 95 % 1010,6 hPa 0,0 mm 0,0 km/h (0 Bft) W-SW 240 ° 0 min 0,000 mm 0,0 UV-I 0 W/m² 12,9 °C 13,7 °C 0,0 km/h (0 Bft)
08.08.2019 03:13 13,7 °C 95 % 1010,7 hPa 0,0 mm 0,0 km/h (0 Bft) W-SW 240 ° 0 min 0,000 mm 0,0 UV-I 0 W/m² 12,9 °C 13,7 °C 0,0 km/h (0 Bft)
08.08.2019 03:14 13,7 °C 95 % 1010,7 hPa 0,0 mm 0,5 km/h (0 Bft) W-SW 241 ° 0 min 0,000 mm 0,0 UV-I 0 W/m² 12,9 °C 13,7 °C 4,8 km/h (1 Bft)
08.08.2019 03:15 13,8 °C 95 % 1010,7 hPa 0,0 mm 2,1 km/h (1 Bft) SW 224 ° 0 min 0,000 mm 0,0 UV-I 0 W/m² 13,0 °C 13,8 °C 4,8 km/h (1 Bft)
08.08.2019 03:16 13,8 °C 95 % 1010,7 hPa 0,0 mm 2,9 km/h (1 Bft) W-SW 246 ° 0 min 0,000 mm 0,0 UV-I 0 W/m² 13,0 °C 13,8 °C 6,4 km/h (2 Bft)
08.08.2019 03:17 13,8 °C 95 % 1010,7 hPa 0,0 mm 1,3 km/h (1 Bft) W-SW 239 ° 0 min 0,000 mm 0,0 UV-I 0 W/m² 13,0 °C 13,8 °C 3,2 km/h (1 Bft)
08.08.2019 03:18 13,9 °C 95 % 1010,8 hPa 0,0 mm 0,1 km/h (0 Bft) W-SW 238 ° 0 min 0,000 mm 0,0 UV-I 0 W/m² 13,1 °C 13,9 °C 1,6 km/h (1 Bft)
08.08.2019 03:19 13,8 °C 95 % 1010,7 hPa 0,0 mm 1,9 km/h (1 Bft) S-SW 208 ° 0 min 0,000 mm 0,0 UV-I 0 W/m² 13,0 °C 13,8 °C 4,8 km/h (1 Bft)
08.08.2019 03:20 13,8 °C 95 % 1010,8 hPa 0,0 mm 0,2 km/h (0 Bft) S-SW 208 ° 0 min 0,000 mm 0,0 UV-I 0 W/m² 13,0 °C 13,8 °C 1,6 km/h (1 Bft)
08.08.2019 03:21 13,8 °C 95 % 1010,8 hPa 0,0 mm 0,0 km/h (0 Bft) S-SW 208 ° 0 min 0,000 mm 0,0 UV-I 0 W/m² 13,0 °C 13,8 °C 0,0 km/h (0 Bft)
08.08.2019 03:22 13,8 °C 95 % 1010,7 hPa 0,0 mm 1,6 km/h (1 Bft) S-SW 200 ° 0 min 0,000 mm 0,0 UV-I 0 W/m² 13,0 °C 13,8 °C 4,8 km/h (1 Bft)
08.08.2019 03:23 13,8 °C 95 % 1010,8 hPa 0,0 mm 2,7 km/h (1 Bft) S-SW 196 ° 0 min 0,000 mm 0,0 UV-I 0 W/m² 13,0 °C 13,8 °C 4,8 km/h (1 Bft)
08.08.2019 03:24 13,8 °C 95 % 1010,8 hPa 0,0 mm 0,9 km/h (0 Bft) S-SO 152 ° 0 min 0,000 mm 0,0 UV-I 0 W/m² 13,0 °C 13,8 °C 3,2 km/h (1 Bft)
08.08.2019 03:25 13,9 °C 95 % 1010,7 hPa 0,0 mm 2,9 km/h (1 Bft) SW 229 ° 0 min 0,000 mm 0,0 UV-I 0 W/m² 13,1 °C 13,9 °C 6,4 km/h (2 Bft)
08.08.2019 03:26 13,9 °C 95 % 1010,8 hPa 0,0 mm 2,5 km/h (1 Bft) SW 216 ° 0 min 0,000 mm 0,0 UV-I 0 W/m² 13,1 °C 13,9 °C 4,8 km/h (1 Bft)
08.08.2019 03:27 13,9 °C 95 % 1010,8 hPa 0,0 mm 5,8 km/h (2 Bft) S-SW 204 ° 0 min 0,000 mm 0,0 UV-I 0 W/m² 13,1 °C 13,9 °C 9,7 km/h (2 Bft)
08.08.2019 03:28 13,9 °C 95 % 1010,8 hPa 0,0 mm 2,9 km/h (1 Bft) S 182 ° 0 min 0,000 mm 0,0 UV-I 0 W/m² 13,1 °C 13,9 °C 6,4 km/h (2 Bft)
08.08.2019 03:29 13,9 °C 95 % 1010,9 hPa 0,0 mm 0,9 km/h (0 Bft) S 182 ° 0 min 0,000 mm 0,0 UV-I 0 W/m² 13,1 °C 13,9 °C 3,2 km/h (1 Bft)
08.08.2019 03:30 14,0 °C 95 % 1010,9 hPa 0,0 mm 0,8 km/h (0 Bft) S 182 ° 0 min 0,000 mm 0,0 UV-I 0 W/m² 13,2 °C 14,0 °C 3,2 km/h (1 Bft)
08.08.2019 03:31 14,0 °C 95 % 1010,9 hPa 0,0 mm 0,0 km/h (0 Bft) S 182 ° 0 min 0,000 mm 0,0 UV-I 0 W/m² 13,2 °C 14,0 °C 0,0 km/h (0 Bft)
08.08.2019 03:32 14,0 °C 94 % 1010,9 hPa 0,0 mm 0,3 km/h (0 Bft) S 182 ° 0 min 0,000 mm 0,0 UV-I 0 W/m² 13,0 °C 14,0 °C 1,6 km/h (1 Bft)
08.08.2019 03:33 14,0 °C 94 % 1010,9 hPa 0,0 mm 0,0 km/h (0 Bft) S 182 ° 0 min 0,000 mm 0,0 UV-I 0 W/m² 13,0 °C 14,0 °C 0,0 km/h (0 Bft)
08.08.2019 03:34 14,0 °C 94 % 1011,0 hPa 0,0 mm 0,0 km/h (0 Bft) S 182 ° 0 min 0,000 mm 0,0 UV-I 0 W/m² 13,0 °C 14,0 °C 0,0 km/h (0 Bft)
08.08.2019 03:35 14,0 °C 94 % 1011,0 hPa 0,0 mm 0,0 km/h (0 Bft) S 182 ° 0 min 0,000 mm 0,0 UV-I 0 W/m² 13,0 °C 14,0 °C 0,0 km/h (0 Bft)
08.08.2019 03:36 14,1 °C 94 % 1011,0 hPa 0,0 mm 1,0 km/h (0 Bft) S 182 ° 0 min 0,000 mm 0,0 UV-I 0 W/m² 13,1 °C 14,1 °C 3,2 km/h (1 Bft)
08.08.2019 03:37 14,1 °C 94 % 1011,0 hPa 0,0 mm 0,1 km/h (0 Bft) S 182 ° 0 min 0,000 mm 0,0 UV-I 0 W/m² 13,1 °C 14,1 °C 1,6 km/h (1 Bft)
08.08.2019 03:38 14,1 °C 94 % 1011,0 hPa 0,0 mm 2,7 km/h (1 Bft) S 180 ° 0 min 0,000 mm 0,0 UV-I 0 W/m² 13,1 °C 14,1 °C 4,8 km/h (1 Bft)
08.08.2019 03:39 14,1 °C 94 % 1011,0 hPa 0,0 mm 0,2 km/h (0 Bft) S 180 ° 0 min 0,000 mm 0,0 UV-I 0 W/m² 13,1 °C 14,1 °C 3,2 km/h (1 Bft)
08.08.2019 03:40 14,1 °C 94 % 1011,0 hPa 0,0 mm 5,5 km/h (1 Bft) S 185 ° 0 min 0,000 mm 0,0 UV-I 0 W/m² 13,1 °C 14,1 °C 6,4 km/h (2 Bft)
08.08.2019 03:41 14,2 °C 94 % 1011,0 hPa 0,0 mm 4,0 km/h (1 Bft) S-SW 200 ° 0 min 0,000 mm 0,0 UV-I 0 W/m² 13,2 °C 14,2 °C 8,0 km/h (2 Bft)
08.08.2019 03:42 14,2 °C 94 % 1011,0 hPa 0,0 mm 1,8 km/h (1 Bft) S-SW 198 ° 0 min 0,000 mm 0,0 UV-I 0 W/m² 13,2 °C 14,2 °C 4,8 km/h (1 Bft)
08.08.2019 03:43 14,2 °C 94 % 1011,0 hPa 0,0 mm 0,5 km/h (0 Bft) S-SW 198 ° 0 min 0,000 mm 0,0 UV-I 0 W/m² 13,2 °C 14,2 °C 1,6 km/h (1 Bft)
08.08.2019 03:44 14,1 °C 94 % 1011,0 hPa 0,0 mm 0,0 km/h (0 Bft) S-SW 198 ° 0 min 0,000 mm 0,0 UV-I 0 W/m² 13,1 °C 14,1 °C 0,0 km/h (0 Bft)
08.08.2019 03:45 14,1 °C 94 % 1011,0 hPa 0,0 mm 0,0 km/h (0 Bft) S-SW 198 ° 0 min 0,000 mm 0,0 UV-I 0 W/m² 13,1 °C 14,1 °C 0,0 km/h (0 Bft)
08.08.2019 03:46 14,0 °C 94 % 1011,0 hPa 0,0 mm 0,2 km/h (0 Bft) S-SW 198 ° 0 min 0,000 mm 0,0 UV-I 0 W/m² 13,0 °C 14,0 °C 1,6 km/h (1 Bft)
08.08.2019 03:47 14,0 °C 94 % 1011,0 hPa 0,0 mm 0,0 km/h (0 Bft) S-SW 198 ° 0 min 0,000 mm 0,0 UV-I 0 W/m² 13,0 °C 14,0 °C 0,0 km/h (0 Bft)
08.08.2019 03:48 13,9 °C 94 % 1011,0 hPa 0,0 mm 0,0 km/h (0 Bft) S-SW 198 ° 0 min 0,000 mm 0,0 UV-I 0 W/m² 12,9 °C 13,9 °C 0,0 km/h (0 Bft)
08.08.2019 03:49 13,9 °C 94 % 1011,0 hPa 0,0 mm 0,0 km/h (0 Bft) S-SW 198 ° 0 min 0,000 mm 0,0 UV-I 0 W/m² 12,9 °C 13,9 °C 0,0 km/h (0 Bft)
08.08.2019 03:50 13,8 °C 94 % 1011,1 hPa 0,0 mm 0,0 km/h (0 Bft) S-SW 198 ° 0 min 0,000 mm 0,0 UV-I 0 W/m² 12,9 °C 13,8 °C 0,0 km/h (0 Bft)
08.08.2019 03:51 13,8 °C 94 % 1011,1 hPa 0,0 mm 0,0 km/h (0 Bft) S-SW 198 ° 0 min 0,000 mm 0,0 UV-I 0 W/m² 12,9 °C 13,8 °C 0,0 km/h (0 Bft)
08.08.2019 03:52 13,8 °C 94 % 1011,0 hPa 0,0 mm 0,0 km/h (0 Bft) S-SW 198 ° 0 min 0,000 mm 0,0 UV-I 0 W/m² 12,9 °C 13,8 °C 0,0 km/h (0 Bft)
08.08.2019 03:53 13,8 °C 94 % 1011,0 hPa 0,0 mm 0,0 km/h (0 Bft) S-SW 198 ° 0 min 0,000 mm 0,0 UV-I 0 W/m² 12,9 °C 13,8 °C 0,0 km/h (0 Bft)
08.08.2019 03:54 13,8 °C 94 % 1011,0 hPa 0,0 mm 0,0 km/h (0 Bft) S-SW 198 ° 0 min 0,000 mm 0,0 UV-I 0 W/m² 12,9 °C 13,8 °C 0,0 km/h (0 Bft)
08.08.2019 03:55 13,8 °C 94 % 1011,0 hPa 0,0 mm 0,0 km/h (0 Bft) S-SW 198 ° 0 min 0,000 mm 0,0 UV-I 0 W/m² 12,9 °C 13,8 °C 0,0 km/h (0 Bft)
08.08.2019 03:56 13,7 °C 94 % 1011,0 hPa 0,0 mm 0,0 km/h (0 Bft) S-SW 198 ° 0 min 0,000 mm 0,0 UV-I 0 W/m² 12,8 °C 13,7 °C 0,0 km/h (0 Bft)
08.08.2019 03:57 13,7 °C 94 % 1011,1 hPa 0,0 mm 0,0 km/h (0 Bft) S-SW 198 ° 0 min 0,000 mm 0,0 UV-I 0 W/m² 12,8 °C 13,7 °C 0,0 km/h (0 Bft)
08.08.2019 03:58 13,7 °C 94 % 1011,1 hPa 0,0 mm 0,0 km/h (0 Bft) S-SW 198 ° 0 min 0,000 mm 0,0 UV-I 0 W/m² 12,8 °C 13,7 °C 0,0 km/h (0 Bft)
08.08.2019 03:59 13,7 °C 94 % 1011,1 hPa 0,0 mm 0,0 km/h (0 Bft) S-SW 198 ° 0 min 0,000 mm 0,0 UV-I 0 W/m² 12,8 °C 13,7 °C 0,0 km/h (0 Bft)
08.08.2019 04:00 13,7 °C 94 % 1011,1 hPa 0,0 mm 0,0 km/h (0 Bft) S-SW 198 ° 0 min 0,000 mm 0,0 UV-I 0 W/m² 12,8 °C 13,7 °C 0,0 km/h (0 Bft)
08.08.2019 04:01 13,7 °C 94 % 1011,1 hPa 0,0 mm 0,0 km/h (0 Bft) S-SW 198 ° 0 min 0,000 mm 0,0 UV-I 0 W/m² 12,8 °C 13,7 °C 0,0 km/h (0 Bft)
08.08.2019 04:02 13,7 °C 95 % 1011,1 hPa 0,0 mm 0,0 km/h (0 Bft) N 0 ° 0 min 0,000 mm 0,0 UV-I 0 W/m² 12,9 °C 13,7 °C 0,0 km/h (0 Bft)
08.08.2019 04:03 13,7 °C 95 % 1011,1 hPa 0,0 mm 0,0 km/h (0 Bft) N 0 ° 0 min 0,000 mm 0,0 UV-I 0 W/m² 12,9 °C 13,7 °C 0,0 km/h (0 Bft)
08.08.2019 04:04 13,7 °C 95 % 1011,2 hPa 0,0 mm 0,0 km/h (0 Bft) N 0 ° 0 min 0,000 mm 0,0 UV-I 0 W/m² 12,9 °C 13,7 °C 0,0 km/h (0 Bft)
08.08.2019 04:05 13,7 °C 95 % 1011,2 hPa 0,0 mm 0,0 km/h (0 Bft) N 0 ° 0 min 0,000 mm 0,0 UV-I 0 W/m² 12,9 °C 13,7 °C 0,0 km/h (0 Bft)
08.08.2019 04:06 13,7 °C 94 % 1011,2 hPa 0,0 mm 0,0 km/h (0 Bft) N 0 ° 0 min 0,000 mm 0,0 UV-I 0 W/m² 12,8 °C 13,7 °C 0,0 km/h (0 Bft)
08.08.2019 04:07 13,7 °C 95 % 1011,1 hPa 0,0 mm 0,0 km/h (0 Bft) N 0 ° 0 min 0,000 mm 0,0 UV-I 0 W/m² 12,9 °C 13,7 °C 0,0 km/h (0 Bft)
08.08.2019 04:08 13,6 °C 95 % 1011,1 hPa 0,0 mm 0,0 km/h (0 Bft) N 0 ° 0 min 0,000 mm 0,0 UV-I 0 W/m² 12,8 °C 13,6 °C 0,0 km/h (0 Bft)
08.08.2019 04:10 13,7 °C 95 % 1011,1 hPa 0,0 mm 0,0 km/h (0 Bft) S-SW 198 ° 0 min 0,000 mm 0,0 UV-I 0 W/m² 12,9 °C 13,7 °C 0,0 km/h (0 Bft)
08.08.2019 04:11 13,6 °C 95 % 1011,1 hPa 0,0 mm 0,0 km/h (0 Bft) S-SW 198 ° 0 min 0,000 mm 0,0 UV-I 0 W/m² 12,8 °C 13,6 °C 0,0 km/h (0 Bft)
08.08.2019 04:12 13,6 °C 95 % 1011,1 hPa 0,0 mm 0,0 km/h (0 Bft) S-SW 198 ° 0 min 0,000 mm 0,0 UV-I 0 W/m² 12,8 °C 13,6 °C 0,0 km/h (0 Bft)
08.08.2019 04:13 13,6 °C 95 % 1011,1 hPa 0,0 mm 0,0 km/h (0 Bft) S-SW 198 ° 0 min 0,000 mm 0,0 UV-I 0 W/m² 12,8 °C 13,6 °C 0,0 km/h (0 Bft)
08.08.2019 04:14 13,6 °C 95 % 1011,1 hPa 0,0 mm 0,0 km/h (0 Bft) S-SW 198 ° 0 min 0,000 mm 0,0 UV-I 0 W/m² 12,8 °C 13,6 °C 0,0 km/h (0 Bft)
08.08.2019 04:15 13,6 °C 95 % 1011,1 hPa 0,0 mm 0,0 km/h (0 Bft) S-SW 198 ° 0 min 0,000 mm 0,0 UV-I 0 W/m² 12,8 °C 13,6 °C 0,0 km/h (0 Bft)
08.08.2019 04:16 13,6 °C 95 % 1011,1 hPa 0,0 mm 0,0 km/h (0 Bft) S-SW 198 ° 0 min 0,000 mm 0,0 UV-I 0 W/m² 12,8 °C 13,6 °C 0,0 km/h (0 Bft)
08.08.2019 04:17 13,5 °C 95 % 1011,1 hPa 0,0 mm 0,0 km/h (0 Bft) S-SW 198 ° 0 min 0,000 mm 0,0 UV-I 0 W/m² 12,7 °C 13,5 °C 0,0 km/h (0 Bft)
08.08.2019 04:18 13,5 °C 95 % 1011,1 hPa 0,0 mm 0,0 km/h (0 Bft) S-SW 198 ° 0 min 0,000 mm 0,0 UV-I 0 W/m² 12,7 °C 13,5 °C 0,0 km/h (0 Bft)
08.08.2019 04:19 13,5 °C 95 % 1011,1 hPa 0,0 mm 0,0 km/h (0 Bft) S-SW 198 ° 0 min 0,000 mm 0,0 UV-I 0 W/m² 12,7 °C 13,5 °C 0,0 km/h (0 Bft)
08.08.2019 04:20 13,4 °C 95 % 1011,0 hPa 0,0 mm 0,0 km/h (0 Bft) S-SW 198 ° 0 min 0,000 mm 0,0 UV-I 0 W/m² 12,6 °C 13,4 °C 0,0 km/h (0 Bft)
08.08.2019 04:21 13,4 °C 95 % 1011,0 hPa 0,0 mm 0,0 km/h (0 Bft) S-SW 198 ° 0 min 0,000 mm 0,0 UV-I 0 W/m² 12,6 °C 13,4 °C 0,0 km/h (0 Bft)
08.08.2019 04:22 13,4 °C 95 % 1011,0 hPa 0,0 mm 0,0 km/h (0 Bft) S-SW 198 ° 0 min 0,000 mm 0,0 UV-I 0 W/m² 12,6 °C 13,4 °C 0,0 km/h (0 Bft)
08.08.2019 04:23 13,4 °C 95 % 1011,0 hPa 0,0 mm 0,0 km/h (0 Bft) S-SW 198 ° 0 min 0,000 mm 0,0 UV-I 0 W/m² 12,6 °C 13,4 °C 0,0 km/h (0 Bft)
08.08.2019 04:24 13,5 °C 95 % 1011,0 hPa 0,0 mm 0,0 km/h (0 Bft) S-SW 198 ° 0 min 0,000 mm 0,0 UV-I 0 W/m² 12,7 °C 13,5 °C 0,0 km/h (0 Bft)
08.08.2019 04:25 13,4 °C 95 % 1011,0 hPa 0,0 mm 0,0 km/h (0 Bft) S-SW 198 ° 0 min 0,000 mm 0,0 UV-I 0 W/m² 12,6 °C 13,4 °C 0,0 km/h (0 Bft)
08.08.2019 04:26 13,4 °C 95 % 1011,0 hPa 0,0 mm 0,0 km/h (0 Bft) S-SW 198 ° 0 min 0,000 mm 0,0 UV-I 0 W/m² 12,6 °C 13,4 °C 0,0 km/h (0 Bft)
08.08.2019 04:27 13,4 °C 95 % 1011,0 hPa 0,0 mm 0,0 km/h (0 Bft) S-SW 198 ° 0 min 0,000 mm 0,0 UV-I 0 W/m² 12,6 °C 13,4 °C 0,0 km/h (0 Bft)
08.08.2019 04:28 13,4 °C 95 % 1011,0 hPa 0,0 mm 0,0 km/h (0 Bft) S-SW 198 ° 0 min 0,000 mm 0,0 UV-I 0 W/m² 12,6 °C 13,4 °C 0,0 km/h (0 Bft)
08.08.2019 04:29 13,4 °C 95 % 1011,0 hPa 0,0 mm 0,0 km/h (0 Bft) S-SW 198 ° 0 min 0,000 mm 0,0 UV-I 0 W/m² 12,6 °C 13,4 °C 0,0 km/h (0 Bft)
08.08.2019 04:30 13,4 °C 95 % 1011,0 hPa 0,0 mm 0,0 km/h (0 Bft) S-SW 198 ° 0 min 0,000 mm 0,0 UV-I 0 W/m² 12,6 °C 13,4 °C 0,0 km/h (0 Bft)
08.08.2019 04:31 13,4 °C 95 % 1011,0 hPa 0,0 mm 0,0 km/h (0 Bft) S-SW 198 ° 0 min 0,000 mm 0,0 UV-I 0 W/m² 12,6 °C 13,4 °C 0,0 km/h (0 Bft)
08.08.2019 04:32 13,4 °C 95 % 1011,0 hPa 0,0 mm 0,0 km/h (0 Bft) S-SW 198 ° 0 min 0,000 mm 0,0 UV-I 0 W/m² 12,6 °C 13,4 °C 0,0 km/h (0 Bft)
08.08.2019 04:33 13,3 °C 95 % 1011,0 hPa 0,0 mm 0,0 km/h (0 Bft) S-SW 198 ° 0 min 0,000 mm 0,0 UV-I 0 W/m² 12,5 °C 13,3 °C 0,0 km/h (0 Bft)
08.08.2019 04:34 13,3 °C 95 % 1011,0 hPa 0,0 mm 0,0 km/h (0 Bft) S-SW 198 ° 0 min 0,000 mm 0,0 UV-I 0 W/m² 12,5 °C 13,3 °C 0,0 km/h (0 Bft)
08.08.2019 04:35 13,3 °C 95 % 1011,0 hPa 0,0 mm 0,0 km/h (0 Bft) S-SW 198 ° 0 min 0,000 mm 0,0 UV-I 0 W/m² 12,5 °C 13,3 °C 0,0 km/h (0 Bft)
08.08.2019 04:36 13,3 °C 95 % 1011,0 hPa 0,0 mm 0,0 km/h (0 Bft) S-SW 198 ° 0 min 0,000 mm 0,0 UV-I 0 W/m² 12,5 °C 13,3 °C 0,0 km/h (0 Bft)
08.08.2019 04:37 13,3 °C 95 % 1011,0 hPa 0,0 mm 0,0 km/h (0 Bft) S-SW 198 ° 0 min 0,000 mm 0,0 UV-I 0 W/m² 12,5 °C 13,3 °C 0,0 km/h (0 Bft)
08.08.2019 04:38 13,3 °C 95 % 1010,9 hPa 0,0 mm 0,0 km/h (0 Bft) S-SW 198 ° 0 min 0,000 mm 0,0 UV-I 0 W/m² 12,5 °C 13,3 °C 0,0 km/h (0 Bft)
08.08.2019 04:39 13,3 °C 95 % 1011,0 hPa 0,0 mm 0,0 km/h (0 Bft) S-SW 198 ° 0 min 0,000 mm 0,0 UV-I 0 W/m² 12,5 °C 13,3 °C 0,0 km/h (0 Bft)
08.08.2019 04:40 13,3 °C 95 % 1011,0 hPa 0,0 mm 0,0 km/h (0 Bft) S-SW 198 ° 0 min 0,000 mm 0,0 UV-I 0 W/m² 12,5 °C 13,3 °C 0,0 km/h (0 Bft)
08.08.2019 04:41 13,4 °C 95 % 1011,0 hPa 0,0 mm 0,0 km/h (0 Bft) S-SW 198 ° 0 min 0,000 mm 0,0 UV-I 0 W/m² 12,6 °C 13,4 °C 0,0 km/h (0 Bft)
08.08.2019 04:42 13,4 °C 95 % 1011,0 hPa 0,0 mm 0,0 km/h (0 Bft) S-SW 198 ° 0 min 0,000 mm 0,0 UV-I 0 W/m² 12,6 °C 13,4 °C 0,0 km/h (0 Bft)
08.08.2019 04:43 13,4 °C 95 % 1011,0 hPa 0,0 mm 0,0 km/h (0 Bft) S-SW 198 ° 0 min 0,000 mm 0,0 UV-I 0 W/m² 12,6 °C 13,4 °C 0,0 km/h (0 Bft)
08.08.2019 04:44 13,4 °C 95 % 1011,0 hPa 0,0 mm 0,0 km/h (0 Bft) S-SW 198 ° 0 min 0,000 mm 0,0 UV-I 0 W/m² 12,6 °C 13,4 °C 0,0 km/h (0 Bft)
08.08.2019 04:45 13,3 °C 95 % 1011,0 hPa 0,0 mm 0,0 km/h (0 Bft) S-SW 198 ° 0 min 0,000 mm 0,0 UV-I 0 W/m² 12,5 °C 13,3 °C 0,0 km/h (0 Bft)
08.08.2019 04:46 13,3 °C 95 % 1011,0 hPa 0,0 mm 0,0 km/h (0 Bft) S-SW 198 ° 0 min 0,000 mm 0,0 UV-I 0 W/m² 12,5 °C 13,3 °C 0,0 km/h (0 Bft)
08.08.2019 04:47 13,3 °C 95 % 1011,1 hPa 0,0 mm 0,0 km/h (0 Bft) S-SW 198 ° 0 min 0,000 mm 0,0 UV-I 0 W/m² 12,5 °C 13,3 °C 0,0 km/h (0 Bft)
08.08.2019 04:48 13,3 °C 95 % 1011,1 hPa 0,0 mm 0,0 km/h (0 Bft) S-SW 198 ° 0 min 0,000 mm 0,0 UV-I 0 W/m² 12,5 °C 13,3 °C 0,0 km/h (0 Bft)
08.08.2019 04:49 13,3 °C 95 % 1011,1 hPa 0,0 mm 0,0 km/h (0 Bft) S-SW 198 ° 0 min 0,000 mm 0,0 UV-I 0 W/m² 12,5 °C 13,3 °C 0,0 km/h (0 Bft)
08.08.2019 04:50 13,2 °C 95 % 1011,0 hPa 0,0 mm 0,0 km/h (0 Bft) S-SW 198 ° 0 min 0,000 mm 0,0 UV-I 0 W/m² 12,4 °C 13,2 °C 0,0 km/h (0 Bft)
08.08.2019 04:51 13,2 °C 95 % 1011,0 hPa 0,0 mm 0,0 km/h (0 Bft) S-SW 198 ° 0 min 0,000 mm 0,0 UV-I 0 W/m² 12,4 °C 13,2 °C 0,0 km/h (0 Bft)
08.08.2019 04:52 13,2 °C 95 % 1011,0 hPa 0,0 mm 0,0 km/h (0 Bft) S-SW 198 ° 0 min 0,000 mm 0,0 UV-I 0 W/m² 12,4 °C 13,2 °C 0,0 km/h (0 Bft)
08.08.2019 04:53 13,3 °C 95 % 1011,0 hPa 0,0 mm 0,0 km/h (0 Bft) S-SW 198 ° 0 min 0,000 mm 0,0 UV-I 0 W/m² 12,5 °C 13,3 °C 0,0 km/h (0 Bft)
08.08.2019 04:54 13,3 °C 95 % 1011,0 hPa 0,0 mm 0,0 km/h (0 Bft) S-SW 198 ° 0 min 0,000 mm 0,0 UV-I 0 W/m² 12,5 °C 13,3 °C 0,0 km/h (0 Bft)
08.08.2019 04:55 13,3 °C 95 % 1011,0 hPa 0,0 mm 0,0 km/h (0 Bft) S-SW 198 ° 0 min 0,000 mm 0,0 UV-I 0 W/m² 12,5 °C 13,3 °C 0,0 km/h (0 Bft)
08.08.2019 04:56 13,3 °C 95 % 1011,0 hPa 0,0 mm 0,0 km/h (0 Bft) S-SW 198 ° 0 min 0,000 mm 0,0 UV-I 0 W/m² 12,5 °C 13,3 °C 0,0 km/h (0 Bft)
08.08.2019 04:57 13,3 °C 95 % 1011,0 hPa 0,0 mm 0,0 km/h (0 Bft) S-SW 198 ° 0 min 0,000 mm 0,0 UV-I 0 W/m² 12,5 °C 13,3 °C 0,0 km/h (0 Bft)
08.08.2019 04:58 13,3 °C 95 % 1011,0 hPa 0,0 mm 0,0 km/h (0 Bft) S-SW 198 ° 0 min 0,000 mm 0,0 UV-I 0 W/m² 12,5 °C 13,3 °C 0,0 km/h (0 Bft)
08.08.2019 04:59 13,3 °C 95 % 1011,0 hPa 0,0 mm 0,0 km/h (0 Bft) S-SW 198 ° 0 min 0,000 mm 0,0 UV-I 0 W/m² 12,5 °C 13,3 °C 0,0 km/h (0 Bft)
08.08.2019 05:00 13,3 °C 95 % 1011,0 hPa 0,0 mm 0,0 km/h (0 Bft) S-SW 198 ° 0 min 0,000 mm 0,0 UV-I 0 W/m² 12,5 °C 13,3 °C 0,0 km/h (0 Bft)
08.08.2019 05:01 13,3 °C 95 % 1011,0 hPa 0,0 mm 0,0 km/h (0 Bft) S-SW 198 ° 0 min 0,000 mm 0,0 UV-I 0 W/m² 12,5 °C 13,3 °C 0,0 km/h (0 Bft)
08.08.2019 05:02 13,3 °C 95 % 1010,9 hPa 0,0 mm 0,0 km/h (0 Bft) S-SW 198 ° 0 min 0,000 mm 0,0 UV-I 0 W/m² 12,5 °C 13,3 °C 0,0 km/h (0 Bft)
08.08.2019 05:03 13,3 °C 95 % 1010,9 hPa 0,0 mm 0,0 km/h (0 Bft) S-SW 198 ° 0 min 0,000 mm 0,0 UV-I 0 W/m² 12,5 °C 13,3 °C 0,0 km/h (0 Bft)
08.08.2019 05:04 13,4 °C 95 % 1011,0 hPa 0,0 mm 0,0 km/h (0 Bft) S-SW 198 ° 0 min 0,000 mm 0,0 UV-I 0 W/m² 12,6 °C 13,4 °C 0,0 km/h (0 Bft)
08.08.2019 05:05 13,4 °C 95 % 1011,0 hPa 0,0 mm 0,0 km/h (0 Bft) S-SW 198 ° 0 min 0,000 mm 0,0 UV-I 0 W/m² 12,6 °C 13,4 °C 0,0 km/h (0 Bft)
08.08.2019 05:06 13,4 °C 95 % 1010,9 hPa 0,0 mm 0,0 km/h (0 Bft) S-SW 198 ° 0 min 0,000 mm 0,0 UV-I 0 W/m² 12,6 °C 13,4 °C 0,0 km/h (0 Bft)
08.08.2019 05:07 13,4 °C 95 % 1010,9 hPa 0,0 mm 0,0 km/h (0 Bft) S-SW 198 ° 0 min 0,000 mm 0,0 UV-I 0 W/m² 12,6 °C 13,4 °C 0,0 km/h (0 Bft)
08.08.2019 05:08 13,4 °C 95 % 1011,0 hPa 0,0 mm 0,0 km/h (0 Bft) S-SW 198 ° 0 min 0,000 mm 0,0 UV-I 0 W/m² 12,6 °C 13,4 °C 0,0 km/h (0 Bft)
08.08.2019 05:09 13,4 °C 95 % 1011,0 hPa 0,0 mm 0,0 km/h (0 Bft) S-SW 198 ° 0 min 0,000 mm 0,0 UV-I 0 W/m² 12,6 °C 13,4 °C 0,0 km/h (0 Bft)
08.08.2019 05:10 13,4 °C 95 % 1011,0 hPa 0,0 mm 0,0 km/h (0 Bft) S-SW 198 ° 0 min 0,000 mm 0,0 UV-I 0 W/m² 12,6 °C 13,4 °C 0,0 km/h (0 Bft)
08.08.2019 05:11 13,4 °C 95 % 1011,0 hPa 0,0 mm 0,0 km/h (0 Bft) S-SW 198 ° 0 min 0,000 mm 0,0 UV-I 0 W/m² 12,6 °C 13,4 °C 0,0 km/h (0 Bft)
08.08.2019 05:12 13,5 °C 95 % 1011,0 hPa 0,0 mm 0,0 km/h (0 Bft) S-SW 198 ° 0 min 0,000 mm 0,0 UV-I 0 W/m² 12,7 °C 13,5 °C 0,0 km/h (0 Bft)
08.08.2019 05:13 13,4 °C 95 % 1011,0 hPa 0,0 mm 0,0 km/h (0 Bft) S-SW 198 ° 0 min 0,000 mm 0,0 UV-I 0 W/m² 12,6 °C 13,4 °C 0,0 km/h (0 Bft)
08.08.2019 05:14 13,4 °C 95 % 1010,9 hPa 0,0 mm 0,0 km/h (0 Bft) S-SW 198 ° 0 min 0,000 mm 0,0 UV-I 0 W/m² 12,6 °C 13,4 °C 0,0 km/h (0 Bft)
08.08.2019 05:15 13,4 °C 95 % 1010,9 hPa 0,0 mm 0,0 km/h (0 Bft) S-SW 198 ° 0 min 0,000 mm 0,0 UV-I 0 W/m² 12,6 °C 13,4 °C 0,0 km/h (0 Bft)
08.08.2019 05:16 13,4 °C 95 % 1010,9 hPa 0,0 mm 0,0 km/h (0 Bft) S-SW 198 ° 0 min 0,000 mm 0,0 UV-I 0 W/m² 12,6 °C 13,4 °C 0,0 km/h (0 Bft)
08.08.2019 05:17 13,6 °C 95 % 1010,9 hPa 0,0 mm 0,0 km/h (0 Bft) S-SW 198 ° 0 min 0,000 mm 0,0 UV-I 0 W/m² 12,8 °C 13,6 °C 0,0 km/h (0 Bft)
08.08.2019 05:18 13,6 °C 95 % 1010,9 hPa 0,0 mm 0,0 km/h (0 Bft) S-SW 198 ° 0 min 0,000 mm 0,0 UV-I 0 W/m² 12,8 °C 13,6 °C 0,0 km/h (0 Bft)
08.08.2019 05:19 13,6 °C 96 % 1011,0 hPa 0,0 mm 0,0 km/h (0 Bft) S-SW 198 ° 0 min 0,000 mm 0,0 UV-I 0 W/m² 13,0 °C 13,6 °C 0,0 km/h (0 Bft)
08.08.2019 05:20 13,6 °C 95 % 1011,0 hPa 0,0 mm 0,0 km/h (0 Bft) S-SW 198 ° 0 min 0,000 mm 0,0 UV-I 0 W/m² 12,8 °C 13,6 °C 0,0 km/h (0 Bft)
08.08.2019 05:21 13,5 °C 95 % 1011,1 hPa 0,0 mm 0,0 km/h (0 Bft) S-SW 198 ° 0 min 0,000 mm 0,0 UV-I 0 W/m² 12,7 °C 13,5 °C 0,0 km/h (0 Bft)
08.08.2019 05:22 13,4 °C 95 % 1011,1 hPa 0,0 mm 0,0 km/h (0 Bft) S-SW 198 ° 0 min 0,000 mm 0,0 UV-I 0 W/m² 12,6 °C 13,4 °C 0,0 km/h (0 Bft)
08.08.2019 05:23 13,4 °C 95 % 1011,1 hPa 0,0 mm 0,0 km/h (0 Bft) S-SW 198 ° 0 min 0,000 mm 0,0 UV-I 0 W/m² 12,6 °C 13,4 °C 0,0 km/h (0 Bft)
08.08.2019 05:24 13,3 °C 95 % 1011,1 hPa 0,0 mm 0,0 km/h (0 Bft) S-SW 198 ° 0 min 0,000 mm 0,0 UV-I 0 W/m² 12,5 °C 13,3 °C 0,0 km/h (0 Bft)
08.08.2019 05:25 13,3 °C 95 % 1011,1 hPa 0,0 mm 0,0 km/h (0 Bft) S-SW 198 ° 0 min 0,000 mm 0,0 UV-I 0 W/m² 12,5 °C 13,3 °C 0,0 km/h (0 Bft)
08.08.2019 05:26 13,3 °C 95 % 1011,1 hPa 0,0 mm 0,0 km/h (0 Bft) S-SW 198 ° 0 min 0,000 mm 0,0 UV-I 0 W/m² 12,5 °C 13,3 °C 0,0 km/h (0 Bft)
08.08.2019 05:27 13,3 °C 95 % 1011,1 hPa 0,0 mm 0,0 km/h (0 Bft) S-SW 198 ° 0 min 0,000 mm 0,0 UV-I 0 W/m² 12,5 °C 13,3 °C 0,0 km/h (0 Bft)
08.08.2019 05:28 13,4 °C 95 % 1011,1 hPa 0,0 mm 0,0 km/h (0 Bft) S-SW 198 ° 0 min 0,000 mm 0,0 UV-I 0 W/m² 12,6 °C 13,4 °C 0,0 km/h (0 Bft)
08.08.2019 05:29 13,4 °C 95 % 1011,2 hPa 0,0 mm 0,0 km/h (0 Bft) S-SW 198 ° 0 min 0,000 mm 0,0 UV-I 0 W/m² 12,6 °C 13,4 °C 0,0 km/h (0 Bft)
08.08.2019 05:30 13,4 °C 95 % 1011,2 hPa 0,0 mm 0,0 km/h (0 Bft) S-SW 198 ° 0 min 0,000 mm 0,0 UV-I 0 W/m² 12,6 °C 13,4 °C 0,0 km/h (0 Bft)
08.08.2019 05:31 13,3 °C 95 % 1011,2 hPa 0,0 mm 0,0 km/h (0 Bft) S-SW 198 ° 0 min 0,000 mm 0,0 UV-I 0 W/m² 12,5 °C 13,3 °C 0,0 km/h (0 Bft)
08.08.2019 05:32 13,3 °C 95 % 1011,2 hPa 0,0 mm 0,0 km/h (0 Bft) S-SW 198 ° 0 min 0,000 mm 0,0 UV-I 0 W/m² 12,5 °C 13,3 °C 0,0 km/h (0 Bft)
08.08.2019 05:33 13,4 °C 95 % 1011,3 hPa 0,0 mm 0,0 km/h (0 Bft) S-SW 198 ° 0 min 0,000 mm 0,0 UV-I 0 W/m² 12,6 °C 13,4 °C 0,0 km/h (0 Bft)
08.08.2019 05:34 13,4 °C 95 % 1011,3 hPa 0,0 mm 0,0 km/h (0 Bft) S-SW 198 ° 0 min 0,000 mm 0,0 UV-I 0 W/m² 12,6 °C 13,4 °C 0,0 km/h (0 Bft)
08.08.2019 05:35 13,4 °C 95 % 1011,3 hPa 0,0 mm 0,0 km/h (0 Bft) S-SW 198 ° 0 min 0,000 mm 0,0 UV-I 0 W/m² 12,6 °C 13,4 °C 0,0 km/h (0 Bft)
08.08.2019 05:36 13,4 °C 95 % 1011,3 hPa 0,0 mm 0,0 km/h (0 Bft) S-SW 198 ° 0 min 0,000 mm 0,0 UV-I 0 W/m² 12,6 °C 13,4 °C 0,0 km/h (0 Bft)
08.08.2019 05:37 13,4 °C 95 % 1011,3 hPa 0,0 mm 0,0 km/h (0 Bft) S-SW 198 ° 0 min 0,000 mm 0,0 UV-I 0 W/m² 12,6 °C 13,4 °C 0,0 km/h (0 Bft)
08.08.2019 05:38 13,4 °C 95 % 1011,3 hPa 0,0 mm 0,0 km/h (0 Bft) S-SW 198 ° 0 min 0,000 mm 0,0 UV-I 0 W/m² 12,6 °C 13,4 °C 0,0 km/h (0 Bft)
08.08.2019 05:39 13,4 °C 95 % 1011,3 hPa 0,0 mm 0,0 km/h (0 Bft) S-SW 198 ° 0 min 0,000 mm 0,0 UV-I 0 W/m² 12,6 °C 13,4 °C 0,0 km/h (0 Bft)
08.08.2019 05:40 13,4 °C 95 % 1011,3 hPa 0,0 mm 0,0 km/h (0 Bft) S-SW 198 ° 0 min 0,000 mm 0,0 UV-I 0 W/m² 12,6 °C 13,4 °C 0,0 km/h (0 Bft)
08.08.2019 05:41 13,4 °C 95 % 1011,3 hPa 0,0 mm 0,0 km/h (0 Bft) S-SW 198 ° 0 min 0,000 mm 0,0 UV-I 0 W/m² 12,6 °C 13,4 °C 0,0 km/h (0 Bft)
08.08.2019 05:42 13,4 °C 95 % 1011,3 hPa 0,0 mm 0,0 km/h (0 Bft) S-SW 198 ° 0 min 0,000 mm 0,0 UV-I 0 W/m² 12,6 °C 13,4 °C 0,0 km/h (0 Bft)
08.08.2019 05:43 13,4 °C 95 % 1011,4 hPa 0,0 mm 0,0 km/h (0 Bft) S-SW 198 ° 0 min 0,000 mm 0,0 UV-I 0 W/m² 12,6 °C 13,4 °C 0,0 km/h (0 Bft)
08.08.2019 05:44 13,4 °C 95 % 1011,4 hPa 0,0 mm 0,0 km/h (0 Bft) S-SW 198 ° 0 min 0,000 mm 0,0 UV-I 0 W/m² 12,6 °C 13,4 °C 0,0 km/h (0 Bft)
08.08.2019 05:45 13,4 °C 95 % 1011,5 hPa 0,0 mm 0,0 km/h (0 Bft) S-SW 198 ° 0 min 0,000 mm 0,0 UV-I 0 W/m² 12,6 °C 13,4 °C 0,0 km/h (0 Bft)
08.08.2019 05:46 13,4 °C 95 % 1011,5 hPa 0,0 mm 0,0 km/h (0 Bft) S-SW 198 ° 0 min 0,000 mm 0,0 UV-I 0 W/m² 12,6 °C 13,4 °C 0,0 km/h (0 Bft)
08.08.2019 05:47 13,4 °C 95 % 1011,5 hPa 0,0 mm 0,0 km/h (0 Bft) S-SW 198 ° 0 min 0,000 mm 0,0 UV-I 0 W/m² 12,6 °C 13,4 °C 0,0 km/h (0 Bft)
08.08.2019 05:48 13,4 °C 95 % 1011,5 hPa 0,0 mm 0,0 km/h (0 Bft) S-SW 198 ° 0 min 0,000 mm 0,0 UV-I 0 W/m² 12,6 °C 13,4 °C 0,0 km/h (0 Bft)
08.08.2019 05:49 13,4 °C 95 % 1011,6 hPa 0,0 mm 0,0 km/h (0 Bft) S-SW 198 ° 0 min 0,000 mm 0,0 UV-I 0 W/m² 12,6 °C 13,4 °C 0,0 km/h (0 Bft)
08.08.2019 05:50 13,4 °C 95 % 1011,6 hPa 0,0 mm 0,0 km/h (0 Bft) S-SW 198 ° 0 min 0,000 mm 0,0 UV-I 0 W/m² 12,6 °C 13,4 °C 0,0 km/h (0 Bft)
08.08.2019 05:51 13,4 °C 95 % 1011,6 hPa 0,0 mm 0,0 km/h (0 Bft) S-SW 198 ° 0 min 0,000 mm 0,0 UV-I 0 W/m² 12,6 °C 13,4 °C 0,0 km/h (0 Bft)
08.08.2019 05:52 13,4 °C 95 % 1011,6 hPa 0,0 mm 0,0 km/h (0 Bft) S-SW 198 ° 0 min 0,000 mm 0,0 UV-I 0 W/m² 12,6 °C 13,4 °C 0,0 km/h (0 Bft)
08.08.2019 05:53 13,4 °C 95 % 1011,6 hPa 0,0 mm 0,0 km/h (0 Bft) S-SW 198 ° 0 min 0,000 mm 0,0 UV-I 0 W/m² 12,6 °C 13,4 °C 0,0 km/h (0 Bft)
08.08.2019 05:54 13,4 °C 95 % 1011,6 hPa 0,0 mm 0,0 km/h (0 Bft) S-SW 198 ° 0 min 0,000 mm 0,0 UV-I 0 W/m² 12,6 °C 13,4 °C 0,0 km/h (0 Bft)
08.08.2019 05:55 13,5 °C 95 % 1011,6 hPa 0,0 mm 0,0 km/h (0 Bft) S-SW 198 ° 0 min 0,000 mm 0,0 UV-I 0 W/m² 12,7 °C 13,5 °C 0,0 km/h (0 Bft)
08.08.2019 05:56 13,5 °C 95 % 1011,6 hPa 0,0 mm 0,0 km/h (0 Bft) S-SW 198 ° 0 min 0,000 mm 0,0 UV-I 0 W/m² 12,7 °C 13,5 °C 0,0 km/h (0 Bft)
08.08.2019 05:57 13,6 °C 95 % 1011,7 hPa 0,0 mm 0,0 km/h (0 Bft) S-SW 198 ° 0 min 0,000 mm 0,0 UV-I 0 W/m² 12,8 °C 13,6 °C 0,0 km/h (0 Bft)
08.08.2019 05:58 13,5 °C 95 % 1011,7 hPa 0,0 mm 0,0 km/h (0 Bft) S-SW 198 ° 0 min 0,000 mm 0,0 UV-I 0 W/m² 12,7 °C 13,5 °C 0,0 km/h (0 Bft)
08.08.2019 05:59 13,6 °C 95 % 1011,7 hPa 0,0 mm 0,0 km/h (0 Bft) S-SW 198 ° 0 min 0,000 mm 0,0 UV-I 0 W/m² 12,8 °C 13,6 °C 0,0 km/h (0 Bft)
08.08.2019 06:00 13,6 °C 95 % 1011,7 hPa 0,0 mm 0,0 km/h (0 Bft) S-SW 198 ° 0 min 0,000 mm 0,0 UV-I 0 W/m² 12,8 °C 13,6 °C 0,0 km/h (0 Bft)
08.08.2019 06:01 13,6 °C 95 % 1011,7 hPa 0,0 mm 0,0 km/h (0 Bft) S-SW 198 ° 0 min 0,000 mm 0,0 UV-I 0 W/m² 12,8 °C 13,6 °C 0,0 km/h (0 Bft)
08.08.2019 06:02 13,6 °C 96 % 1011,8 hPa 0,0 mm 0,0 km/h (0 Bft) S-SW 198 ° 0 min 0,000 mm 0,0 UV-I 0 W/m² 13,0 °C 13,6 °C 0,0 km/h (0 Bft)
08.08.2019 06:03 13,6 °C 96 % 1011,8 hPa 0,0 mm 0,0 km/h (0 Bft) S-SW 198 ° 0 min 0,000 mm 0,0 UV-I 0 W/m² 13,0 °C 13,6 °C 0,0 km/h (0 Bft)
08.08.2019 06:04 13,6 °C 96 % 1011,8 hPa 0,0 mm 0,0 km/h (0 Bft) S-SW 198 ° 0 min 0,000 mm 0,0 UV-I 5 W/m² 13,0 °C 13,6 °C 0,0 km/h (0 Bft)
08.08.2019 06:05 13,6 °C 95 % 1011,8 hPa 0,0 mm 0,0 km/h (0 Bft) S-SW 198 ° 0 min 0,000 mm 0,0 UV-I 5 W/m² 12,8 °C 13,6 °C 0,0 km/h (0 Bft)
08.08.2019 06:06 13,6 °C 95 % 1011,8 hPa 0,0 mm 0,0 km/h (0 Bft) S-SW 198 ° 0 min 0,000 mm 0,0 UV-I 5 W/m² 12,8 °C 13,6 °C 0,0 km/h (0 Bft)
08.08.2019 06:07 13,6 °C 95 % 1011,8 hPa 0,0 mm 0,0 km/h (0 Bft) S-SW 198 ° 0 min 0,000 mm 0,0 UV-I 5 W/m² 12,8 °C 13,6 °C 0,0 km/h (0 Bft)
08.08.2019 06:08 13,5 °C 95 % 1011,7 hPa 0,0 mm 0,0 km/h (0 Bft) S-SW 198 ° 0 min 0,000 mm 0,0 UV-I 5 W/m² 12,7 °C 13,5 °C 0,0 km/h (0 Bft)
08.08.2019 06:09 13,6 °C 95 % 1011,8 hPa 0,0 mm 0,0 km/h (0 Bft) S-SW 198 ° 0 min 0,000 mm 0,0 UV-I 5 W/m² 12,8 °C 13,6 °C 0,0 km/h (0 Bft)
08.08.2019 06:10 13,6 °C 95 % 1011,8 hPa 0,0 mm 0,0 km/h (0 Bft) S-SW 198 ° 0 min 0,000 mm 0,0 UV-I 7 W/m² 12,8 °C 13,6 °C 0,0 km/h (0 Bft)
08.08.2019 06:11 13,6 °C 95 % 1011,7 hPa 0,0 mm 0,0 km/h (0 Bft) S-SW 198 ° 0 min 0,000 mm 0,0 UV-I 7 W/m² 12,8 °C 13,6 °C 0,0 km/h (0 Bft)
08.08.2019 06:12 13,6 °C 95 % 1011,8 hPa 0,0 mm 0,0 km/h (0 Bft) S-SW 198 ° 0 min 0,000 mm 0,0 UV-I 7 W/m² 12,8 °C 13,6 °C 0,0 km/h (0 Bft)
08.08.2019 06:13 13,7 °C 95 % 1011,7 hPa 0,0 mm 0,0 km/h (0 Bft) S-SW 198 ° 0 min 0,000 mm 0,0 UV-I 7 W/m² 12,9 °C 13,7 °C 0,0 km/h (0 Bft)
08.08.2019 06:14 13,7 °C 96 % 1011,8 hPa 0,0 mm 0,0 km/h (0 Bft) S-SW 198 ° 0 min 0,000 mm 0,0 UV-I 7 W/m² 13,1 °C 13,7 °C 0,0 km/h (0 Bft)
08.08.2019 06:15 13,7 °C 96 % 1011,8 hPa 0,0 mm 0,0 km/h (0 Bft) S-SW 198 ° 0 min 0,000 mm 0,0 UV-I 7 W/m² 13,1 °C 13,7 °C 0,0 km/h (0 Bft)
08.08.2019 06:16 13,7 °C 96 % 1011,8 hPa 0,0 mm 0,0 km/h (0 Bft) S-SW 198 ° 0 min 0,000 mm 0,0 UV-I 7 W/m² 13,1 °C 13,7 °C 0,0 km/h (0 Bft)
08.08.2019 06:17 13,6 °C 96 % 1011,8 hPa 0,0 mm 0,0 km/h (0 Bft) S-SW 198 ° 0 min 0,000 mm 0,0 UV-I 9 W/m² 13,0 °C 13,6 °C 0,0 km/h (0 Bft)
08.08.2019 06:18 13,6 °C 96 % 1011,8 hPa 0,0 mm 0,0 km/h (0 Bft) S-SW 198 ° 0 min 0,000 mm 0,0 UV-I 9 W/m² 13,0 °C 13,6 °C 0,0 km/h (0 Bft)
08.08.2019 06:19 13,6 °C 96 % 1011,8 hPa 0,0 mm 0,0 km/h (0 Bft) S-SW 198 ° 0 min 0,000 mm 0,0 UV-I 9 W/m² 13,0 °C 13,6 °C 0,0 km/h (0 Bft)
08.08.2019 06:20 13,6 °C 96 % 1011,8 hPa 0,0 mm 0,0 km/h (0 Bft) S-SW 198 ° 0 min 0,000 mm 0,0 UV-I 11 W/m² 13,0 °C 13,6 °C 0,0 km/h (0 Bft)
08.08.2019 06:21 13,6 °C 95 % 1011,8 hPa 0,0 mm 0,0 km/h (0 Bft) S-SW 198 ° 0 min 0,000 mm 0,0 UV-I 11 W/m² 12,8 °C 13,6 °C 0,0 km/h (0 Bft)
08.08.2019 06:22 13,6 °C 95 % 1011,8 hPa 0,0 mm 0,0 km/h (0 Bft) S-SW 198 ° 0 min 0,000 mm 0,0 UV-I 12 W/m² 12,8 °C 13,6 °C 0,0 km/h (0 Bft)
08.08.2019 06:23 13,6 °C 95 % 1011,8 hPa 0,0 mm 0,0 km/h (0 Bft) S-SW 198 ° 0 min 0,000 mm 0,0 UV-I 12 W/m² 12,8 °C 13,6 °C 0,0 km/h (0 Bft)
08.08.2019 06:24 13,6 °C 95 % 1011,8 hPa 0,0 mm 0,0 km/h (0 Bft) S-SW 198 ° 0 min 0,000 mm 0,0 UV-I 14 W/m² 12,8 °C 13,6 °C 0,0 km/h (0 Bft)
08.08.2019 06:25 13,6 °C 95 % 1011,8 hPa 0,0 mm 0,0 km/h (0 Bft) S-SW 198 ° 0 min 0,000 mm 0,0 UV-I 14 W/m² 12,8 °C 13,6 °C 0,0 km/h (0 Bft)
08.08.2019 06:26 13,6 °C 96 % 1011,8 hPa 0,0 mm 0,0 km/h (0 Bft) S-SW 198 ° 0 min 0,000 mm 0,0 UV-I 16 W/m² 13,0 °C 13,6 °C 0,0 km/h (0 Bft)
08.08.2019 06:27 13,6 °C 96 % 1011,8 hPa 0,0 mm 0,0 km/h (0 Bft) S-SW 198 ° 0 min 0,000 mm 0,0 UV-I 16 W/m² 13,0 °C 13,6 °C 0,0 km/h (0 Bft)
08.08.2019 06:28 13,5 °C 95 % 1011,9 hPa 0,0 mm 0,0 km/h (0 Bft) S-SW 198 ° 0 min 0,000 mm 0,0 UV-I 18 W/m² 12,7 °C 13,5 °C 0,0 km/h (0 Bft)
08.08.2019 06:29 13,5 °C 95 % 1011,9 hPa 0,0 mm 0,0 km/h (0 Bft) S-SW 198 ° 0 min 0,000 mm 0,0 UV-I 18 W/m² 12,7 °C 13,5 °C 0,0 km/h (0 Bft)
08.08.2019 06:30 13,5 °C 95 % 1011,8 hPa 0,0 mm 0,0 km/h (0 Bft) S-SW 198 ° 0 min 0,000 mm 0,0 UV-I 19 W/m² 12,7 °C 13,5 °C 0,0 km/h (0 Bft)
08.08.2019 06:31 13,6 °C 95 % 1011,9 hPa 0,0 mm 0,0 km/h (0 Bft) S-SW 198 ° 0 min 0,000 mm 0,0 UV-I 19 W/m² 12,8 °C 13,6 °C 0,0 km/h (0 Bft)
08.08.2019 06:32 13,6 °C 95 % 1011,9 hPa 0,0 mm 0,0 km/h (0 Bft) S-SW 198 ° 0 min 0,000 mm 0,0 UV-I 19 W/m² 12,8 °C 13,6 °C 0,0 km/h (0 Bft)
08.08.2019 06:33 13,6 °C 95 % 1011,9 hPa 0,0 mm 0,0 km/h (0 Bft) S-SW 198 ° 0 min 0,000 mm 0,0 UV-I 18 W/m² 12,8 °C 13,6 °C 0,0 km/h (0 Bft)
08.08.2019 06:34 13,6 °C 96 % 1011,9 hPa 0,0 mm 0,0 km/h (0 Bft) S-SW 198 ° 0 min 0,000 mm 0,0 UV-I 18 W/m² 13,0 °C 13,6 °C 0,0 km/h (0 Bft)
08.08.2019 06:35 13,6 °C 95 % 1011,9 hPa 0,0 mm 0,0 km/h (0 Bft) S-SW 198 ° 0 min 0,000 mm 0,0 UV-I 18 W/m² 12,8 °C 13,6 °C 0,0 km/h (0 Bft)
08.08.2019 06:36 13,6 °C 95 % 1011,9 hPa 0,0 mm 0,0 km/h (0 Bft) S-SW 198 ° 0 min 0,000 mm 0,0 UV-I 18 W/m² 12,8 °C 13,6 °C 0,0 km/h (0 Bft)
08.08.2019 06:37 13,6 °C 95 % 1011,9 hPa 0,0 mm 0,0 km/h (0 Bft) S-SW 198 ° 0 min 0,000 mm 0,0 UV-I 19 W/m² 12,8 °C 13,6 °C 0,0 km/h (0 Bft)
08.08.2019 06:38 13,5 °C 95 % 1011,9 hPa 0,0 mm 0,0 km/h (0 Bft) S-SW 198 ° 0 min 0,000 mm 0,0 UV-I 21 W/m² 12,7 °C 13,5 °C 0,0 km/h (0 Bft)
08.08.2019 06:39 13,6 °C 95 % 1011,9 hPa 0,0 mm 0,0 km/h (0 Bft) S-SW 198 ° 0 min 0,000 mm 0,0 UV-I 25 W/m² 12,8 °C 13,6 °C 0,0 km/h (0 Bft)
08.08.2019 06:40 13,6 °C 95 % 1011,9 hPa 0,0 mm 0,0 km/h (0 Bft) S-SW 198 ° 0 min 0,000 mm 0,0 UV-I 25 W/m² 12,8 °C 13,6 °C 0,0 km/h (0 Bft)
08.08.2019 06:41 13,6 °C 96 % 1011,9 hPa 0,0 mm 0,0 km/h (0 Bft) S-SW 198 ° 0 min 0,000 mm 0,0 UV-I 26 W/m² 13,0 °C 13,6 °C 0,0 km/h (0 Bft)
08.08.2019 06:42 13,6 °C 95 % 1011,9 hPa 0,0 mm 0,0 km/h (0 Bft) S-SW 198 ° 0 min 0,000 mm 0,0 UV-I 28 W/m² 12,8 °C 13,6 °C 0,0 km/h (0 Bft)
08.08.2019 06:43 13,6 °C 95 % 1012,0 hPa 0,0 mm 0,0 km/h (0 Bft) S-SW 198 ° 0 min 0,000 mm 0,0 UV-I 28 W/m² 12,8 °C 13,6 °C 0,0 km/h (0 Bft)
08.08.2019 06:44 13,5 °C 95 % 1012,0 hPa 0,0 mm 0,0 km/h (0 Bft) S-SW 198 ° 0 min 0,000 mm 0,0 UV-I 28 W/m² 12,7 °C 13,5 °C 0,0 km/h (0 Bft)
08.08.2019 06:45 13,5 °C 95 % 1012,0 hPa 0,0 mm 0,0 km/h (0 Bft) S-SW 198 ° 0 min 0,000 mm 0,0 UV-I 28 W/m² 12,7 °C 13,5 °C 0,0 km/h (0 Bft)
08.08.2019 06:46 13,4 °C 95 % 1012,0 hPa 0,0 mm 0,0 km/h (0 Bft) S-SW 198 ° 0 min 0,000 mm 0,0 UV-I 28 W/m² 12,6 °C 13,4 °C 0,0 km/h (0 Bft)
08.08.2019 06:47 13,4 °C 95 % 1012,0 hPa 0,0 mm 0,0 km/h (0 Bft) S-SW 198 ° 0 min 0,000 mm 0,0 UV-I 30 W/m² 12,6 °C 13,4 °C 0,0 km/h (0 Bft)
08.08.2019 06:48 13,4 °C 95 % 1012,0 hPa 0,0 mm 0,0 km/h (0 Bft) S-SW 198 ° 0 min 0,000 mm 0,0 UV-I 30 W/m² 12,6 °C 13,4 °C 0,0 km/h (0 Bft)
08.08.2019 06:49 13,4 °C 95 % 1012,0 hPa 0,0 mm 0,0 km/h (0 Bft) S-SW 198 ° 0 min 0,000 mm 0,0 UV-I 32 W/m² 12,6 °C 13,4 °C 0,0 km/h (0 Bft)
08.08.2019 06:50 13,4 °C 96 % 1012,0 hPa 0,0 mm 0,0 km/h (0 Bft) S-SW 198 ° 0 min 0,000 mm 0,0 UV-I 33 W/m² 12,8 °C 13,4 °C 0,0 km/h (0 Bft)
08.08.2019 06:51 13,4 °C 96 % 1012,0 hPa 0,0 mm 0,0 km/h (0 Bft) S-SW 198 ° 0 min 0,000 mm 0,0 UV-I 37 W/m² 12,8 °C 13,4 °C 0,0 km/h (0 Bft)
08.08.2019 06:52 13,5 °C 96 % 1012,0 hPa 0,0 mm 0,0 km/h (0 Bft) S-SW 198 ° 0 min 0,000 mm 0,0 UV-I 39 W/m² 12,9 °C 13,5 °C 0,0 km/h (0 Bft)
08.08.2019 06:53 13,5 °C 96 % 1012,0 hPa 0,0 mm 0,0 km/h (0 Bft) S-SW 198 ° 0 min 0,000 mm 0,0 UV-I 40 W/m² 12,9 °C 13,5 °C 0,0 km/h (0 Bft)
08.08.2019 06:54 13,4 °C 96 % 1012,0 hPa 0,0 mm 0,0 km/h (0 Bft) S-SW 198 ° 0 min 0,000 mm 0,0 UV-I 42 W/m² 12,8 °C 13,4 °C 0,0 km/h (0 Bft)
08.08.2019 06:55 13,4 °C 96 % 1012,0 hPa 0,0 mm 0,0 km/h (0 Bft) S-SW 198 ° 0 min 0,000 mm 0,0 UV-I 42 W/m² 12,8 °C 13,4 °C 0,0 km/h (0 Bft)
08.08.2019 06:56 13,4 °C 95 % 1012,0 hPa 0,0 mm 0,0 km/h (0 Bft) S-SW 198 ° 0 min 0,000 mm 0,0 UV-I 40 W/m² 12,6 °C 13,4 °C 0,0 km/h (0 Bft)
08.08.2019 06:57 13,5 °C 96 % 1012,0 hPa 0,0 mm 0,0 km/h (0 Bft) S-SW 198 ° 0 min 0,000 mm 0,0 UV-I 39 W/m² 12,9 °C 13,5 °C 0,0 km/h (0 Bft)
08.08.2019 06:58 13,5 °C 96 % 1012,0 hPa 0,0 mm 0,0 km/h (0 Bft) S-SW 198 ° 0 min 0,000 mm 0,0 UV-I 40 W/m² 12,9 °C 13,5 °C 0,0 km/h (0 Bft)
08.08.2019 06:59 13,5 °C 96 % 1012,0 hPa 0,0 mm 0,0 km/h (0 Bft) S-SW 198 ° 0 min 0,000 mm 0,0 UV-I 42 W/m² 12,9 °C 13,5 °C 0,0 km/h (0 Bft)
08.08.2019 07:00 13,5 °C 96 % 1012,0 hPa 0,0 mm 0,0 km/h (0 Bft) S-SW 198 ° 0 min 0,000 mm 0,0 UV-I 44 W/m² 12,9 °C 13,5 °C 0,0 km/h (0 Bft)
08.08.2019 07:01 13,5 °C 96 % 1012,0 hPa 0,0 mm 0,0 km/h (0 Bft) S-SW 198 ° 0 min 0,000 mm 0,0 UV-I 46 W/m² 12,9 °C 13,5 °C 0,0 km/h (0 Bft)
08.08.2019 07:02 13,5 °C 96 % 1011,9 hPa 0,0 mm 0,0 km/h (0 Bft) S-SW 198 ° 0 min 0,000 mm 0,0 UV-I 47 W/m² 12,9 °C 13,5 °C 0,0 km/h (0 Bft)
08.08.2019 07:03 13,6 °C 96 % 1011,9 hPa 0,0 mm 0,0 km/h (0 Bft) S-SW 198 ° 0 min 0,000 mm 0,0 UV-I 47 W/m² 13,0 °C 13,6 °C 0,0 km/h (0 Bft)
08.08.2019 07:04 13,6 °C 96 % 1012,0 hPa 0,0 mm 0,0 km/h (0 Bft) S-SW 198 ° 0 min 0,000 mm 0,0 UV-I 47 W/m² 13,0 °C 13,6 °C 0,0 km/h (0 Bft)
08.08.2019 07:05 13,6 °C 96 % 1011,9 hPa 0,0 mm 0,0 km/h (0 Bft) S-SW 198 ° 0 min 0,000 mm 0,0 UV-I 47 W/m² 13,0 °C 13,6 °C 0,0 km/h (0 Bft)
08.08.2019 07:06 13,7 °C 96 % 1012,0 hPa 0,0 mm 0,0 km/h (0 Bft) S-SW 198 ° 0 min 0,000 mm 0,0 UV-I 49 W/m² 13,1 °C 13,7 °C 0,0 km/h (0 Bft)
08.08.2019 07:07 13,7 °C 96 % 1011,9 hPa 0,0 mm 0,0 km/h (0 Bft) S-SW 198 ° 0 min 0,000 mm 0,0 UV-I 51 W/m² 13,1 °C 13,7 °C 0,0 km/h (0 Bft)
08.08.2019 07:08 13,7 °C 96 % 1011,9 hPa 0,0 mm 0,0 km/h (0 Bft) S-SW 198 ° 0 min 0,000 mm 0,0 UV-I 49 W/m² 13,1 °C 13,7 °C 0,0 km/h (0 Bft)
08.08.2019 07:09 13,6 °C 96 % 1011,9 hPa 0,0 mm 0,0 km/h (0 Bft) S-SW 198 ° 0 min 0,000 mm 0,0 UV-I 51 W/m² 13,0 °C 13,6 °C 0,0 km/h (0 Bft)
08.08.2019 07:10 13,6 °C 95 % 1011,9 hPa 0,0 mm 0,0 km/h (0 Bft) S-SW 198 ° 0 min 0,000 mm 0,0 UV-I 53 W/m² 12,8 °C 13,6 °C 0,0 km/h (0 Bft)
08.08.2019 07:11 13,6 °C 95 % 1011,9 hPa 0,0 mm 0,0 km/h (0 Bft) S-SW 198 ° 0 min 0,000 mm 0,0 UV-I 54 W/m² 12,8 °C 13,6 °C 0,0 km/h (0 Bft)
08.08.2019 07:12 13,6 °C 95 % 1011,9 hPa 0,0 mm 0,0 km/h (0 Bft) S-SW 198 ° 0 min 0,000 mm 0,0 UV-I 58 W/m² 12,8 °C 13,6 °C 0,0 km/h (0 Bft)
08.08.2019 07:13 13,6 °C 95 % 1011,9 hPa 0,0 mm 0,0 km/h (0 Bft) S-SW 198 ° 0 min 0,000 mm 0,0 UV-I 58 W/m² 12,8 °C 13,6 °C 0,0 km/h (0 Bft)
08.08.2019 07:14 13,6 °C 95 % 1011,8 hPa 0,0 mm 0,0 km/h (0 Bft) S-SW 198 ° 0 min 0,000 mm 0,0 UV-I 56 W/m² 12,8 °C 13,6 °C 0,0 km/h (0 Bft)
08.08.2019 07:15 13,6 °C 95 % 1011,9 hPa 0,0 mm 0,0 km/h (0 Bft) S-SW 198 ° 0 min 0,000 mm 0,0 UV-I 65 W/m² 12,8 °C 13,6 °C 0,0 km/h (0 Bft)
08.08.2019 07:16 13,6 °C 96 % 1011,8 hPa 0,0 mm 0,0 km/h (0 Bft) S-SW 198 ° 0 min 0,000 mm 0,0 UV-I 63 W/m² 13,0 °C 13,6 °C 0,0 km/h (0 Bft)
08.08.2019 07:17 13,6 °C 96 % 1011,8 hPa 0,0 mm 0,0 km/h (0 Bft) S-SW 198 ° 0 min 0,000 mm 0,0 UV-I 63 W/m² 13,0 °C 13,6 °C 0,0 km/h (0 Bft)
08.08.2019 07:18 13,7 °C 96 % 1011,8 hPa 0,0 mm 0,0 km/h (0 Bft) S-SW 198 ° 0 min 0,000 mm 0,0 UV-I 63 W/m² 13,1 °C 13,7 °C 0,0 km/h (0 Bft)
08.08.2019 07:19 13,6 °C 96 % 1011,8 hPa 0,0 mm 0,0 km/h (0 Bft) S-SW 198 ° 0 min 0,000 mm 0,0 UV-I 63 W/m² 13,0 °C 13,6 °C 0,0 km/h (0 Bft)
08.08.2019 07:20 13,7 °C 96 % 1011,8 hPa 0,0 mm 0,0 km/h (0 Bft) S-SW 198 ° 0 min 0,000 mm 0,0 UV-I 62 W/m² 13,1 °C 13,7 °C 0,0 km/h (0 Bft)
08.08.2019 07:21 13,7 °C 96 % 1011,8 hPa 0,0 mm 0,0 km/h (0 Bft) S-SW 198 ° 0 min 0,000 mm 0,5 UV-I 62 W/m² 13,1 °C 13,7 °C 0,0 km/h (0 Bft)
08.08.2019 07:22 13,7 °C 96 % 1011,8 hPa 0,0 mm 0,0 km/h (0 Bft) S-SW 198 ° 0 min 0,000 mm 0,5 UV-I 62 W/m² 13,1 °C 13,7 °C 0,0 km/h (0 Bft)
08.08.2019 07:23 13,7 °C 96 % 1011,8 hPa 0,0 mm 0,0 km/h (0 Bft) S-SW 198 ° 0 min 0,000 mm 0,5 UV-I 62 W/m² 13,1 °C 13,7 °C 0,0 km/h (0 Bft)
08.08.2019 07:24 13,6 °C 96 % 1011,8 hPa 0,0 mm 0,0 km/h (0 Bft) S-SW 198 ° 0 min 0,000 mm 0,5 UV-I 62 W/m² 13,0 °C 13,6 °C 0,0 km/h (0 Bft)
08.08.2019 07:25 13,7 °C 96 % 1011,8 hPa 0,0 mm 0,0 km/h (0 Bft) S-SW 198 ° 0 min 0,000 mm 0,5 UV-I 63 W/m² 13,1 °C 13,7 °C 0,0 km/h (0 Bft)
08.08.2019 07:26 13,7 °C 96 % 1011,7 hPa 0,0 mm 0,0 km/h (0 Bft) S-SW 198 ° 0 min 0,000 mm 0,5 UV-I 65 W/m² 13,1 °C 13,7 °C 0,0 km/h (0 Bft)
08.08.2019 07:27 13,7 °C 96 % 1011,8 hPa 0,0 mm 0,0 km/h (0 Bft) S-SW 198 ° 0 min 0,000 mm 0,5 UV-I 67 W/m² 13,1 °C 13,7 °C 0,0 km/h (0 Bft)
08.08.2019 07:28 13,7 °C 96 % 1011,8 hPa 0,0 mm 0,0 km/h (0 Bft) S-SW 198 ° 0 min 0,000 mm 0,5 UV-I 70 W/m² 13,1 °C 13,7 °C 0,0 km/h (0 Bft)
08.08.2019 07:29 13,7 °C 96 % 1011,7 hPa 0,0 mm 0,0 km/h (0 Bft) S-SW 198 ° 0 min 0,000 mm 0,5 UV-I 74 W/m² 13,1 °C 13,7 °C 0,0 km/h (0 Bft)
08.08.2019 07:30 13,8 °C 96 % 1011,8 hPa 0,0 mm 0,0 km/h (0 Bft) S-SW 198 ° 0 min 0,000 mm 0,5 UV-I 74 W/m² 13,2 °C 13,8 °C 0,0 km/h (0 Bft)
08.08.2019 07:31 13,8 °C 96 % 1011,8 hPa 0,0 mm 0,0 km/h (0 Bft) S-SW 198 ° 0 min 0,000 mm 0,5 UV-I 74 W/m² 13,2 °C 13,8 °C 0,0 km/h (0 Bft)
08.08.2019 07:32 13,8 °C 96 % 1011,8 hPa 0,0 mm 0,0 km/h (0 Bft) S-SW 198 ° 0 min 0,000 mm 0,5 UV-I 86 W/m² 13,2 °C 13,8 °C 0,0 km/h (0 Bft)
08.08.2019 07:33 13,9 °C 96 % 1011,8 hPa 0,0 mm 0,0 km/h (0 Bft) S-SW 198 ° 0 min 0,000 mm 0,6 UV-I 97 W/m² 13,3 °C 13,9 °C 0,0 km/h (0 Bft)
08.08.2019 07:34 13,9 °C 96 % 1011,8 hPa 0,0 mm 0,0 km/h (0 Bft) S-SW 198 ° 0 min 0,000 mm 0,6 UV-I 107 W/m² 13,3 °C 13,9 °C 0,0 km/h (0 Bft)
08.08.2019 07:35 13,9 °C 96 % 1011,7 hPa 0,0 mm 0,0 km/h (0 Bft) S-SW 198 ° 0 min 0,000 mm 0,6 UV-I 116 W/m² 13,3 °C 13,9 °C 0,0 km/h (0 Bft)
08.08.2019 07:36 13,9 °C 96 % 1011,8 hPa 0,0 mm 0,0 km/h (0 Bft) S-SW 198 ° 0 min 0,000 mm 0,6 UV-I 127 W/m² 13,3 °C 13,9 °C 0,0 km/h (0 Bft)
08.08.2019 07:37 14,0 °C 96 % 1011,8 hPa 0,0 mm 0,0 km/h (0 Bft) S-SW 198 ° 0 min 0,000 mm 0,6 UV-I 128 W/m² 13,4 °C 14,0 °C 0,0 km/h (0 Bft)
08.08.2019 07:38 14,0 °C 96 % 1011,8 hPa 0,0 mm 0,0 km/h (0 Bft) S-SW 198 ° 0 min 0,000 mm 0,6 UV-I 134 W/m² 13,4 °C 14,0 °C 0,0 km/h (0 Bft)
08.08.2019 07:39 14,1 °C 96 % 1011,7 hPa 0,0 mm 0,0 km/h (0 Bft) S-SW 198 ° 0 min 0,000 mm 0,7 UV-I 139 W/m² 13,5 °C 14,1 °C 0,0 km/h (0 Bft)
08.08.2019 07:40 14,2 °C 96 % 1011,8 hPa 0,0 mm 0,0 km/h (0 Bft) S-SW 198 ° 0 min 0,000 mm 0,7 UV-I 139 W/m² 13,6 °C 14,2 °C 0,0 km/h (0 Bft)
08.08.2019 07:41 14,2 °C 96 % 1011,8 hPa 0,0 mm 0,0 km/h (0 Bft) S-SW 198 ° 0 min 0,000 mm 0,7 UV-I 127 W/m² 13,6 °C 14,2 °C 0,0 km/h (0 Bft)
08.08.2019 07:42 14,2 °C 96 % 1011,8 hPa 0,0 mm 0,0 km/h (0 Bft) S-SW 198 ° 0 min 0,000 mm 0,7 UV-I 134 W/m² 13,6 °C 14,2 °C 0,0 km/h (0 Bft)
08.08.2019 07:43 14,2 °C 96 % 1011,8 hPa 0,0 mm 0,0 km/h (0 Bft) S-SW 198 ° 0 min 0,000 mm 0,7 UV-I 141 W/m² 13,6 °C 14,2 °C 0,0 km/h (0 Bft)
08.08.2019 07:44 14,3 °C 96 % 1011,8 hPa 0,0 mm 0,0 km/h (0 Bft) S-SW 198 ° 0 min 0,000 mm 0,7 UV-I 176 W/m² 13,7 °C 14,3 °C 0,0 km/h (0 Bft)
08.08.2019 07:45 14,3 °C 96 % 1011,8 hPa 0,0 mm 0,0 km/h (0 Bft) S-SW 198 ° 0 min 0,000 mm 0,8 UV-I 186 W/m² 13,7 °C 14,3 °C 0,0 km/h (0 Bft)
08.08.2019 07:46 14,3 °C 96 % 1011,8 hPa 0,0 mm 0,0 km/h (0 Bft) S-SW 198 ° 0 min 0,000 mm 0,8 UV-I 176 W/m² 13,7 °C 14,3 °C 0,0 km/h (0 Bft)
08.08.2019 07:47 14,2 °C 96 % 1011,8 hPa 0,0 mm 0,0 km/h (0 Bft) S-SW 198 ° 0 min 0,000 mm 0,8 UV-I 163 W/m² 13,6 °C 14,2 °C 0,0 km/h (0 Bft)
08.08.2019 07:48 14,2 °C 96 % 1011,8 hPa 0,0 mm 0,0 km/h (0 Bft) S-SW 198 ° 0 min 0,000 mm 0,8 UV-I 181 W/m² 13,6 °C 14,2 °C 0,0 km/h (0 Bft)
08.08.2019 07:49 14,3 °C 96 % 1011,8 hPa 0,0 mm 0,0 km/h (0 Bft) S-SW 198 ° 0 min 0,000 mm 0,8 UV-I 193 W/m² 13,7 °C 14,3 °C 0,0 km/h (0 Bft)
08.08.2019 07:50 14,4 °C 96 % 1011,9 hPa 0,0 mm 0,0 km/h (0 Bft) S-SW 198 ° 0 min 0,000 mm 0,8 UV-I 197 W/m² 13,8 °C 14,4 °C 0,0 km/h (0 Bft)
08.08.2019 07:51 14,4 °C 96 % 1011,9 hPa 0,0 mm 0,0 km/h (0 Bft) S-SW 198 ° 0 min 0,000 mm 0,9 UV-I 192 W/m² 13,8 °C 14,4 °C 0,0 km/h (0 Bft)
08.08.2019 07:52 14,5 °C 96 % 1011,9 hPa 0,0 mm 0,0 km/h (0 Bft) S-SW 198 ° 0 min 0,000 mm 0,9 UV-I 213 W/m² 13,9 °C 14,5 °C 0,0 km/h (0 Bft)
08.08.2019 07:53 14,6 °C 96 % 1011,9 hPa 0,0 mm 0,0 km/h (0 Bft) S-SW 198 ° 0 min 0,000 mm 0,9 UV-I 214 W/m² 14,0 °C 14,6 °C 0,0 km/h (0 Bft)
08.08.2019 07:54 14,7 °C 96 % 1011,9 hPa 0,0 mm 0,0 km/h (0 Bft) S-SW 198 ° 0 min 0,000 mm 0,9 UV-I 216 W/m² 14,1 °C 14,7 °C 0,0 km/h (0 Bft)
08.08.2019 07:55 14,7 °C 96 % 1011,9 hPa 0,0 mm 0,0 km/h (0 Bft) S-SW 198 ° 0 min 0,000 mm 0,9 UV-I 213 W/m² 14,1 °C 14,7 °C 0,0 km/h (0 Bft)
08.08.2019 07:56 14,7 °C 96 % 1011,7 hPa 0,0 mm 0,0 km/h (0 Bft) S-SW 198 ° 0 min 0,000 mm 0,9 UV-I 223 W/m² 14,1 °C 14,7 °C 0,0 km/h (0 Bft)
08.08.2019 07:57 14,7 °C 96 % 1011,7 hPa 0,0 mm 0,0 km/h (0 Bft) S-SW 198 ° 0 min 0,000 mm 1,0 UV-I 229 W/m² 14,1 °C 14,7 °C 0,0 km/h (0 Bft)
08.08.2019 07:58 14,8 °C 96 % 1011,8 hPa 0,0 mm 0,0 km/h (0 Bft) S-SW 198 ° 0 min 0,000 mm 1,0 UV-I 229 W/m² 14,2 °C 14,8 °C 0,0 km/h (0 Bft)
08.08.2019 07:59 14,9 °C 96 % 1011,8 hPa 0,0 mm 0,0 km/h (0 Bft) S-SW 198 ° 0 min 0,000 mm 1,0 UV-I 221 W/m² 14,3 °C 14,9 °C 0,0 km/h (0 Bft)
08.08.2019 08:00 15,1 °C 96 % 1011,8 hPa 0,0 mm 0,0 km/h (0 Bft) S-SW 198 ° 0 min 0,051 mm 1,0 UV-I 221 W/m² 14,5 °C 15,1 °C 0,0 km/h (0 Bft)
08.08.2019 08:01 15,1 °C 96 % 1011,8 hPa 0,0 mm 0,0 km/h (0 Bft) S-SW 198 ° 0 min 0,000 mm 1,0 UV-I 237 W/m² 14,5 °C 15,1 °C 0,0 km/h (0 Bft)
08.08.2019 08:02 15,1 °C 96 % 1011,8 hPa 0,0 mm 0,0 km/h (0 Bft) S-SW 198 ° 0 min 0,000 mm 1,0 UV-I 236 W/m² 14,5 °C 15,1 °C 0,0 km/h (0 Bft)
08.08.2019 08:03 15,1 °C 96 % 1011,8 hPa 0,0 mm 0,0 km/h (0 Bft) S-SW 198 ° 0 min 0,000 mm 1,1 UV-I 244 W/m² 14,5 °C 15,1 °C 0,0 km/h (0 Bft)
08.08.2019 08:04 15,1 °C 95 % 1011,8 hPa 0,0 mm 0,0 km/h (0 Bft) S-SW 198 ° 0 min 0,000 mm 1,1 UV-I 251 W/m² 14,3 °C 15,1 °C 0,0 km/h (0 Bft)
08.08.2019 08:05 15,2 °C 95 % 1011,8 hPa 0,0 mm 0,0 km/h (0 Bft) S-SW 198 ° 0 min 0,000 mm 1,1 UV-I 262 W/m² 14,4 °C 15,2 °C 0,0 km/h (0 Bft)
08.08.2019 08:06 15,2 °C 95 % 1011,8 hPa 0,0 mm 0,0 km/h (0 Bft) S-SW 198 ° 0 min 0,000 mm 1,1 UV-I 260 W/m² 14,4 °C 15,2 °C 0,0 km/h (0 Bft)
08.08.2019 08:07 15,2 °C 95 % 1011,8 hPa 0,0 mm 0,0 km/h (0 Bft) S-SW 198 ° 0 min 0,000 mm 1,1 UV-I 274 W/m² 14,4 °C 15,2 °C 0,0 km/h (0 Bft)
08.08.2019 08:08 15,3 °C 95 % 1011,8 hPa 0,0 mm 0,0 km/h (0 Bft) S-SW 198 ° 0 min 0,000 mm 1,1 UV-I 246 W/m² 14,5 °C 15,3 °C 0,0 km/h (0 Bft)
08.08.2019 08:09 15,4 °C 95 % 1011,8 hPa 0,0 mm 0,0 km/h (0 Bft) S-SW 198 ° 0 min 0,000 mm 1,1 UV-I 234 W/m² 14,6 °C 15,4 °C 0,0 km/h (0 Bft)
08.08.2019 08:10 15,5 °C 95 % 1011,8 hPa 0,0 mm 0,0 km/h (0 Bft) S-SW 198 ° 0 min 0,000 mm 1,1 UV-I 257 W/m² 14,7 °C 15,5 °C 0,0 km/h (0 Bft)
08.08.2019 08:11 15,7 °C 95 % 1011,8 hPa 0,0 mm 0,0 km/h (0 Bft) S-SW 198 ° 0 min 0,000 mm 1,1 UV-I 250 W/m² 14,9 °C 15,7 °C 0,0 km/h (0 Bft)
08.08.2019 08:12 15,7 °C 96 % 1011,8 hPa 0,0 mm 0,0 km/h (0 Bft) S-SW 198 ° 0 min 0,000 mm 1,1 UV-I 236 W/m² 15,1 °C 15,7 °C 0,0 km/h (0 Bft)
08.08.2019 08:13 15,6 °C 95 % 1011,8 hPa 0,0 mm 0,0 km/h (0 Bft) S-SW 198 ° 0 min 0,000 mm 1,1 UV-I 197 W/m² 14,8 °C 15,6 °C 0,0 km/h (0 Bft)
08.08.2019 08:14 15,7 °C 95 % 1011,9 hPa 0,0 mm 0,0 km/h (0 Bft) S-SW 198 ° 0 min 0,000 mm 1,1 UV-I 218 W/m² 14,9 °C 15,7 °C 0,0 km/h (0 Bft)
08.08.2019 08:15 15,8 °C 95 % 1011,9 hPa 0,0 mm 0,0 km/h (0 Bft) S-SW 198 ° 0 min 0,000 mm 1,2 UV-I 236 W/m² 15,0 °C 15,8 °C 0,0 km/h (0 Bft)
08.08.2019 08:16 15,8 °C 95 % 1011,8 hPa 0,0 mm 0,0 km/h (0 Bft) S-SW 198 ° 0 min 0,000 mm 1,2 UV-I 236 W/m² 15,0 °C 15,8 °C 0,0 km/h (0 Bft)
08.08.2019 08:17 15,8 °C 95 % 1011,9 hPa 0,0 mm 0,0 km/h (0 Bft) S-SW 198 ° 0 min 0,000 mm 1,2 UV-I 229 W/m² 15,0 °C 15,8 °C 0,0 km/h (0 Bft)
08.08.2019 08:18 15,8 °C 95 % 1011,9 hPa 0,0 mm 0,0 km/h (0 Bft) S-SW 198 ° 0 min 0,000 mm 1,3 UV-I 246 W/m² 15,0 °C 15,8 °C 0,0 km/h (0 Bft)
08.08.2019 08:19 15,8 °C 95 % 1011,9 hPa 0,0 mm 0,0 km/h (0 Bft) S-SW 198 ° 0 min 0,000 mm 1,3 UV-I 272 W/m² 15,0 °C 15,8 °C 0,0 km/h (0 Bft)
08.08.2019 08:20 15,8 °C 94 % 1011,9 hPa 0,0 mm 0,0 km/h (0 Bft) S-SW 198 ° 0 min 0,000 mm 1,4 UV-I 299 W/m² 14,8 °C 15,8 °C 0,0 km/h (0 Bft)
08.08.2019 08:21 15,8 °C 94 % 1011,9 hPa 0,0 mm 0,0 km/h (0 Bft) S-SW 198 ° 0 min 0,000 mm 1,4 UV-I 311 W/m² 14,8 °C 15,8 °C 0,0 km/h (0 Bft)
08.08.2019 08:22 15,8 °C 95 % 1011,9 hPa 0,0 mm 0,0 km/h (0 Bft) S-SW 198 ° 0 min 0,000 mm 1,4 UV-I 288 W/m² 15,0 °C 15,8 °C 0,0 km/h (0 Bft)
08.08.2019 08:23 15,8 °C 94 % 1011,9 hPa 0,0 mm 0,0 km/h (0 Bft) S-SW 198 ° 0 min 0,000 mm 1,4 UV-I 290 W/m² 14,8 °C 15,8 °C 0,0 km/h (0 Bft)
08.08.2019 08:24 15,8 °C 94 % 1011,9 hPa 0,0 mm 0,0 km/h (0 Bft) S-SW 198 ° 0 min 0,000 mm 1,4 UV-I 322 W/m² 14,8 °C 15,8 °C 0,0 km/h (0 Bft)
08.08.2019 08:25 15,8 °C 94 % 1011,9 hPa 0,0 mm 0,0 km/h (0 Bft) S-SW 198 ° 0 min 0,000 mm 1,4 UV-I 308 W/m² 14,8 °C 15,8 °C 0,0 km/h (0 Bft)
08.08.2019 08:26 15,8 °C 94 % 1011,9 hPa 0,0 mm 0,0 km/h (0 Bft) S-SW 198 ° 0 min 0,000 mm 1,5 UV-I 322 W/m² 14,8 °C 15,8 °C 0,0 km/h (0 Bft)
08.08.2019 08:27 15,8 °C 94 % 1011,9 hPa 0,0 mm 0,0 km/h (0 Bft) S-SW 198 ° 0 min 0,000 mm 1,5 UV-I 330 W/m² 14,8 °C 15,8 °C 0,0 km/h (0 Bft)
08.08.2019 08:28 15,8 °C 94 % 1011,9 hPa 0,0 mm 0,0 km/h (0 Bft) S-SW 198 ° 0 min 0,000 mm 1,5 UV-I 306 W/m² 14,8 °C 15,8 °C 0,0 km/h (0 Bft)
08.08.2019 08:29 15,9 °C 94 % 1011,9 hPa 0,0 mm 0,0 km/h (0 Bft) S-SW 198 ° 0 min 0,000 mm 1,5 UV-I 320 W/m² 14,9 °C 15,9 °C 0,0 km/h (0 Bft)
08.08.2019 08:30 16,1 °C 95 % 1011,8 hPa 0,0 mm 0,0 km/h (0 Bft) S-SW 198 ° 0 min 0,000 mm 1,4 UV-I 309 W/m² 15,3 °C 16,1 °C 0,0 km/h (0 Bft)
08.08.2019 08:31 16,1 °C 95 % 1011,9 hPa 0,0 mm 0,0 km/h (0 Bft) S-SW 198 ° 0 min 0,000 mm 1,4 UV-I 276 W/m² 15,3 °C 16,1 °C 0,0 km/h (0 Bft)
08.08.2019 08:32 16,1 °C 94 % 1011,9 hPa 0,0 mm 0,0 km/h (0 Bft) S-SW 198 ° 0 min 0,000 mm 1,4 UV-I 278 W/m² 15,1 °C 16,1 °C 0,0 km/h (0 Bft)
08.08.2019 08:33 16,1 °C 94 % 1011,9 hPa 0,0 mm 0,0 km/h (0 Bft) S-SW 198 ° 0 min 0,000 mm 1,5 UV-I 295 W/m² 15,1 °C 16,1 °C 0,0 km/h (0 Bft)
08.08.2019 08:34 16,1 °C 94 % 1011,9 hPa 0,0 mm 0,0 km/h (0 Bft) S-SW 198 ° 0 min 0,000 mm 1,5 UV-I 295 W/m² 15,1 °C 16,1 °C 0,0 km/h (0 Bft)
08.08.2019 08:35 16,2 °C 95 % 1011,8 hPa 0,0 mm 0,0 km/h (0 Bft) S-SW 198 ° 0 min 0,000 mm 1,6 UV-I 322 W/m² 15,4 °C 16,2 °C 0,0 km/h (0 Bft)
08.08.2019 08:36 16,3 °C 94 % 1011,9 hPa 0,0 mm 0,0 km/h (0 Bft) S-SW 198 ° 0 min 0,000 mm 1,7 UV-I 357 W/m² 15,3 °C 16,3 °C 0,0 km/h (0 Bft)
08.08.2019 08:37 16,3 °C 94 % 1011,9 hPa 0,0 mm 0,0 km/h (0 Bft) N-NW 338 ° 0 min 0,000 mm 1,7 UV-I 355 W/m² 15,3 °C 16,3 °C 0,0 km/h (0 Bft)
08.08.2019 08:38 16,4 °C 94 % 1011,9 hPa 0,0 mm 0,0 km/h (0 Bft) N-NW 338 ° 0 min 0,000 mm 1,6 UV-I 311 W/m² 15,4 °C 16,4 °C 0,0 km/h (0 Bft)
08.08.2019 08:39 16,6 °C 94 % 1011,9 hPa 0,0 mm 0,0 km/h (0 Bft) N-NW 338 ° 0 min 0,000 mm 1,7 UV-I 308 W/m² 15,6 °C 16,6 °C 0,0 km/h (0 Bft)
08.08.2019 08:40 16,7 °C 95 % 1011,9 hPa 0,0 mm 0,0 km/h (0 Bft) N-NW 338 ° 0 min 0,000 mm 1,7 UV-I 369 W/m² 15,9 °C 16,7 °C 0,0 km/h (0 Bft)
08.08.2019 08:41 16,8 °C 94 % 1011,9 hPa 0,0 mm 0,4 km/h (0 Bft) N-NW 338 ° 0 min 0,000 mm 1,8 UV-I 360 W/m² 15,8 °C 16,8 °C 3,2 km/h (1 Bft)
08.08.2019 08:42 16,9 °C 94 % 1011,9 hPa 0,0 mm 0,0 km/h (0 Bft) N-NW 338 ° 0 min 0,000 mm 1,8 UV-I 376 W/m² 15,9 °C 16,9 °C 0,0 km/h (0 Bft)
08.08.2019 08:43 16,9 °C 93 % 1011,9 hPa 0,0 mm 0,0 km/h (0 Bft) N-NW 338 ° 0 min 0,000 mm 1,8 UV-I 371 W/m² 15,8 °C 16,9 °C 0,0 km/h (0 Bft)
08.08.2019 08:44 16,9 °C 93 % 1011,9 hPa 0,0 mm 0,0 km/h (0 Bft) N-NW 338 ° 0 min 0,000 mm 1,8 UV-I 371 W/m² 15,8 °C 16,9 °C 0,0 km/h (0 Bft)
08.08.2019 08:45 17,0 °C 93 % 1011,9 hPa 0,0 mm 1,8 km/h (1 Bft) N-NW 334 ° 0 min 0,000 mm 1,9 UV-I 380 W/m² 15,9 °C 17,0 °C 4,8 km/h (1 Bft)
08.08.2019 08:46 17,1 °C 93 % 1011,9 hPa 0,0 mm 2,7 km/h (1 Bft) N-NW 334 ° 0 min 0,000 mm 1,9 UV-I 385 W/m² 16,0 °C 17,1 °C 4,8 km/h (1 Bft)
08.08.2019 08:47 17,1 °C 93 % 1011,9 hPa 0,0 mm 0,4 km/h (0 Bft) N-NW 334 ° 0 min 0,000 mm 1,9 UV-I 378 W/m² 16,0 °C 17,1 °C 1,6 km/h (1 Bft)
08.08.2019 08:48 17,0 °C 92 % 1011,9 hPa 0,0 mm 0,0 km/h (0 Bft) N-NW 334 ° 0 min 0,000 mm 1,9 UV-I 367 W/m² 15,7 °C 17,0 °C 0,0 km/h (0 Bft)
08.08.2019 08:49 17,1 °C 93 % 1011,9 hPa 0,0 mm 0,0 km/h (0 Bft) N-NW 334 ° 0 min 0,000 mm 1,9 UV-I 380 W/m² 16,0 °C 17,1 °C 0,0 km/h (0 Bft)
08.08.2019 08:50 17,1 °C 93 % 1011,9 hPa 0,0 mm 0,5 km/h (0 Bft) N-NW 334 ° 0 min 0,000 mm 2,0 UV-I 394 W/m² 16,0 °C 17,1 °C 3,2 km/h (1 Bft)
08.08.2019 08:51 17,2 °C 92 % 1011,9 hPa 0,0 mm 1,3 km/h (1 Bft) N-NW 334 ° 0 min 0,000 mm 2,0 UV-I 404 W/m² 15,9 °C 17,2 °C 3,2 km/h (1 Bft)
08.08.2019 08:52 17,3 °C 93 % 1011,9 hPa 0,0 mm 0,0 km/h (0 Bft) N-NW 335 ° 0 min 0,000 mm 2,1 UV-I 404 W/m² 16,2 °C 17,3 °C 0,0 km/h (0 Bft)
08.08.2019 08:53 17,3 °C 92 % 1011,8 hPa 0,0 mm 0,0 km/h (0 Bft) N-NW 345 ° 0 min 0,000 mm 2,1 UV-I 427 W/m² 16,0 °C 17,3 °C 0,0 km/h (0 Bft)
08.08.2019 08:54 17,3 °C 92 % 1011,8 hPa 0,0 mm 0,0 km/h (0 Bft) N-NW 343 ° 0 min 0,000 mm 2,2 UV-I 431 W/m² 16,0 °C 17,3 °C 0,0 km/h (0 Bft)
08.08.2019 08:55 17,3 °C 92 % 1011,9 hPa 0,0 mm 0,0 km/h (0 Bft) N-NW 343 ° 0 min 0,000 mm 2,2 UV-I 431 W/m² 16,0 °C 17,3 °C 0,0 km/h (0 Bft)
08.08.2019 08:56 17,3 °C 92 % 1011,9 hPa 0,0 mm 0,0 km/h (0 Bft) N-NW 344 ° 0 min 0,000 mm 2,2 UV-I 439 W/m² 16,0 °C 17,3 °C 0,0 km/h (0 Bft)
08.08.2019 08:57 17,3 °C 91 % 1011,8 hPa 0,0 mm 0,0 km/h (0 Bft) N-NW 344 ° 0 min 0,000 mm 2,2 UV-I 420 W/m² 15,8 °C 17,3 °C 0,0 km/h (0 Bft)
08.08.2019 08:58 17,3 °C 91 % 1011,9 hPa 0,0 mm 0,0 km/h (0 Bft) N-NW 344 ° 0 min 0,000 mm 2,0 UV-I 362 W/m² 15,8 °C 17,3 °C 0,0 km/h (0 Bft)
08.08.2019 08:59 17,3 °C 91 % 1011,9 hPa 0,0 mm 0,0 km/h (0 Bft) N-NW 334 ° 0 min 0,000 mm 2,1 UV-I 348 W/m² 15,8 °C 17,3 °C 0,0 km/h (0 Bft)
08.08.2019 09:00 17,4 °C 92 % 1011,9 hPa 0,0 mm 0,0 km/h (0 Bft) N-NW 334 ° 0 min 0,178 mm 2,2 UV-I 480 W/m² 16,1 °C 17,4 °C 0,0 km/h (0 Bft)
08.08.2019 09:01 17,4 °C 91 % 1011,9 hPa 0,0 mm 0,0 km/h (0 Bft) N-NW 334 ° 0 min 0,000 mm 2,4 UV-I 476 W/m² 15,9 °C 17,4 °C 0,0 km/h (0 Bft)
08.08.2019 09:02 17,5 °C 91 % 1011,9 hPa 0,0 mm 0,0 km/h (0 Bft) N-NW 334 ° 0 min 0,000 mm 2,4 UV-I 476 W/m² 16,0 °C 17,5 °C 0,0 km/h (0 Bft)
08.08.2019 09:03 17,5 °C 91 % 1011,9 hPa 0,0 mm 0,0 km/h (0 Bft) N-NW 336 ° 0 min 0,000 mm 2,3 UV-I 417 W/m² 16,0 °C 17,5 °C 0,0 km/h (0 Bft)
08.08.2019 09:04 17,6 °C 91 % 1011,9 hPa 0,0 mm 0,0 km/h (0 Bft) N-NW 336 ° 0 min 0,000 mm 2,5 UV-I 482 W/m² 16,1 °C 17,6 °C 0,0 km/h (0 Bft)
08.08.2019 09:05 17,6 °C 91 % 1011,9 hPa 0,0 mm 0,0 km/h (0 Bft) N-NW 336 ° 0 min 0,000 mm 2,5 UV-I 490 W/m² 16,1 °C 17,6 °C 0,0 km/h (0 Bft)
08.08.2019 09:06 17,6 °C 91 % 1011,9 hPa 0,0 mm 0,0 km/h (0 Bft) N-NW 336 ° 0 min 0,000 mm 2,6 UV-I 439 W/m² 16,1 °C 17,6 °C 0,0 km/h (0 Bft)
08.08.2019 09:07 17,5 °C 91 % 1011,9 hPa 0,0 mm 0,0 km/h (0 Bft) N-NW 336 ° 0 min 0,000 mm 2,7 UV-I 503 W/m² 16,0 °C 17,5 °C 0,0 km/h (0 Bft)
08.08.2019 09:08 17,5 °C 90 % 1011,9 hPa 0,0 mm 0,0 km/h (0 Bft) N-NW 336 ° 0 min 0,000 mm 2,0 UV-I 503 W/m² 15,8 °C 17,5 °C 0,0 km/h (0 Bft)
08.08.2019 09:09 17,5 °C 90 % 1011,9 hPa 0,0 mm 0,0 km/h (0 Bft) N-NW 336 ° 0 min 0,000 mm 2,0 UV-I 214 W/m² 15,8 °C 17,5 °C 0,0 km/h (0 Bft)
08.08.2019 09:10 17,5 °C 90 % 1011,9 hPa 0,0 mm 0,0 km/h (0 Bft) N-NW 336 ° 0 min 0,000 mm 2,2 UV-I 214 W/m² 15,8 °C 17,5 °C 0,0 km/h (0 Bft)
08.08.2019 09:11 17,4 °C 90 % 1011,9 hPa 0,0 mm 0,0 km/h (0 Bft) N-NW 336 ° 0 min 0,000 mm 2,7 UV-I 214 W/m² 15,7 °C 17,4 °C 0,0 km/h (0 Bft)
08.08.2019 09:12 17,5 °C 90 % 1011,9 hPa 0,0 mm 0,0 km/h (0 Bft) N-NW 336 ° 0 min 0,000 mm 2,7 UV-I 476 W/m² 15,8 °C 17,5 °C 0,0 km/h (0 Bft)
08.08.2019 09:13 17,5 °C 89 % 1011,9 hPa 0,0 mm 0,0 km/h (0 Bft) N-NW 336 ° 0 min 0,000 mm 2,7 UV-I 476 W/m² 15,7 °C 17,5 °C 0,0 km/h (0 Bft)
08.08.2019 09:14 17,4 °C 90 % 1011,9 hPa 0,0 mm 0,0 km/h (0 Bft) N-NW 336 ° 0 min 0,000 mm 2,6 UV-I 476 W/m² 15,7 °C 17,4 °C 0,0 km/h (0 Bft)
08.08.2019 09:15 17,5 °C 90 % 1011,9 hPa 0,0 mm 0,0 km/h (0 Bft) N-NW 336 ° 0 min 0,000 mm 2,6 UV-I 483 W/m² 15,8 °C 17,5 °C 0,0 km/h (0 Bft)
08.08.2019 09:16 17,6 °C 90 % 1011,9 hPa 0,0 mm 0,0 km/h (0 Bft) N-NW 336 ° 0 min 0,000 mm 2,6 UV-I 455 W/m² 15,9 °C 17,6 °C 0,0 km/h (0 Bft)
08.08.2019 09:17 17,5 °C 89 % 1011,9 hPa 0,0 mm 0,0 km/h (0 Bft) N-NW 336 ° 0 min 0,000 mm 2,4 UV-I 413 W/m² 15,7 °C 17,5 °C 0,0 km/h (0 Bft)
08.08.2019 09:18 17,4 °C 88 % 1011,9 hPa 0,0 mm 0,0 km/h (0 Bft) N-NW 336 ° 0 min 0,000 mm 2,2 UV-I 357 W/m² 15,4 °C 17,4 °C 0,0 km/h (0 Bft)
08.08.2019 09:19 17,4 °C 89 % 1011,9 hPa 0,0 mm 0,0 km/h (0 Bft) N-NW 336 ° 0 min 0,000 mm 2,5 UV-I 443 W/m² 15,6 °C 17,4 °C 0,0 km/h (0 Bft)
08.08.2019 09:20 17,5 °C 90 % 1011,9 hPa 0,0 mm 0,0 km/h (0 Bft) N-NW 336 ° 0 min 0,000 mm 2,3 UV-I 366 W/m² 15,8 °C 17,5 °C 0,0 km/h (0 Bft)
08.08.2019 09:21 17,6 °C 89 % 1011,9 hPa 0,0 mm 0,0 km/h (0 Bft) N-NW 336 ° 0 min 0,000 mm 2,2 UV-I 325 W/m² 15,8 °C 17,6 °C 0,0 km/h (0 Bft)
08.08.2019 09:22 17,6 °C 88 % 1011,9 hPa 0,0 mm 0,0 km/h (0 Bft) N-NW 336 ° 0 min 0,000 mm 2,3 UV-I 350 W/m² 15,6 °C 17,6 °C 0,0 km/h (0 Bft)
08.08.2019 09:23 17,6 °C 88 % 1011,9 hPa 0,0 mm 0,0 km/h (0 Bft) N-NW 336 ° 0 min 0,000 mm 2,3 UV-I 397 W/m² 15,6 °C 17,6 °C 0,0 km/h (0 Bft)
08.08.2019 09:24 17,6 °C 88 % 1011,9 hPa 0,0 mm 0,0 km/h (0 Bft) N-NW 336 ° 0 min 0,000 mm 2,4 UV-I 397 W/m² 15,6 °C 17,6 °C 0,0 km/h (0 Bft)
08.08.2019 09:25 17,7 °C 89 % 1011,9 hPa 0,0 mm 0,0 km/h (0 Bft) N-NW 336 ° 0 min 0,000 mm 2,4 UV-I 206 W/m² 15,9 °C 17,7 °C 0,0 km/h (0 Bft)
08.08.2019 09:26 17,7 °C 89 % 1011,8 hPa 0,0 mm 0,0 km/h (0 Bft) N-NW 336 ° 0 min 0,000 mm 2,4 UV-I 206 W/m² 15,9 °C 17,7 °C 0,0 km/h (0 Bft)
08.08.2019 09:27 17,7 °C 89 % 1011,8 hPa 0,0 mm 0,0 km/h (0 Bft) N-NW 336 ° 0 min 0,000 mm 2,4 UV-I 378 W/m² 15,9 °C 17,7 °C 0,0 km/h (0 Bft)
08.08.2019 09:28 17,7 °C 88 % 1011,8 hPa 0,0 mm 0,0 km/h (0 Bft) N-NW 336 ° 0 min 0,000 mm 2,4 UV-I 378 W/m² 15,7 °C 17,7 °C 0,0 km/h (0 Bft)
08.08.2019 09:29 17,7 °C 89 % 1011,9 hPa 0,0 mm 0,0 km/h (0 Bft) N-NW 336 ° 0 min 0,000 mm 2,4 UV-I 387 W/m² 15,9 °C 17,7 °C 0,0 km/h (0 Bft)
08.08.2019 09:30 17,8 °C 89 % 1011,8 hPa 0,0 mm 0,0 km/h (0 Bft) N-NO 32 ° 0 min 0,000 mm 2,4 UV-I 392 W/m² 16,0 °C 17,8 °C 0,0 km/h (0 Bft)
08.08.2019 09:31 17,8 °C 90 % 1011,8 hPa 0,0 mm 0,0 km/h (0 Bft) N-NO 32 ° 0 min 0,000 mm 2,4 UV-I 385 W/m² 16,1 °C 17,8 °C 0,0 km/h (0 Bft)
08.08.2019 09:32 17,8 °C 88 % 1011,9 hPa 0,0 mm 0,0 km/h (0 Bft) N-NO 32 ° 0 min 0,000 mm 2,4 UV-I 388 W/m² 15,8 °C 17,8 °C 0,0 km/h (0 Bft)
08.08.2019 09:33 17,8 °C 86 % 1011,8 hPa 0,0 mm 0,0 km/h (0 Bft) N-NO 32 ° 0 min 0,000 mm 2,4 UV-I 380 W/m² 15,4 °C 17,8 °C 0,0 km/h (0 Bft)
08.08.2019 09:34 17,8 °C 87 % 1011,8 hPa 0,0 mm 0,0 km/h (0 Bft) N-NO 32 ° 0 min 0,000 mm 2,2 UV-I 338 W/m² 15,6 °C 17,8 °C 0,0 km/h (0 Bft)
08.08.2019 09:35 17,8 °C 87 % 1011,8 hPa 0,0 mm 0,0 km/h (0 Bft) N-NO 31 ° 0 min 0,000 mm 2,1 UV-I 276 W/m² 15,6 °C 17,8 °C 0,0 km/h (0 Bft)
08.08.2019 09:36 17,8 °C 87 % 1011,9 hPa 0,0 mm 0,0 km/h (0 Bft) N-NO 31 ° 0 min 0,000 mm 2,1 UV-I 267 W/m² 15,6 °C 17,8 °C 0,0 km/h (0 Bft)
08.08.2019 09:37 17,9 °C 87 % 1011,9 hPa 0,0 mm 0,0 km/h (0 Bft) N-NO 31 ° 0 min 0,000 mm 2,1 UV-I 281 W/m² 15,7 °C 17,9 °C 0,0 km/h (0 Bft)
08.08.2019 09:38 17,9 °C 88 % 1011,9 hPa 0,0 mm 0,0 km/h (0 Bft) N-NO 31 ° 0 min 0,000 mm 2,1 UV-I 292 W/m² 15,9 °C 17,9 °C 0,0 km/h (0 Bft)
08.08.2019 09:39 17,9 °C 89 % 1011,9 hPa 0,0 mm 0,0 km/h (0 Bft) N-NO 31 ° 0 min 0,000 mm 2,1 UV-I 290 W/m² 16,1 °C 17,9 °C 0,0 km/h (0 Bft)
08.08.2019 09:40 17,9 °C 89 % 1011,9 hPa 0,0 mm 0,0 km/h (0 Bft) N-NO 31 ° 0 min 0,000 mm 2,1 UV-I 269 W/m² 16,1 °C 17,9 °C 0,0 km/h (0 Bft)
08.08.2019 09:41 17,9 °C 88 % 1011,9 hPa 0,0 mm 0,0 km/h (0 Bft) N-NO 31 ° 0 min 0,000 mm 2,0 UV-I 243 W/m² 15,9 °C 17,9 °C 0,0 km/h (0 Bft)
08.08.2019 09:42 17,8 °C 88 % 1011,8 hPa 0,0 mm 0,0 km/h (0 Bft) N-NO 31 ° 0 min 0,000 mm 1,9 UV-I 223 W/m² 15,8 °C 17,8 °C 0,0 km/h (0 Bft)
08.08.2019 09:43 17,8 °C 87 % 1011,8 hPa 0,0 mm 0,0 km/h (0 Bft) N-NO 31 ° 0 min 0,000 mm 2,0 UV-I 221 W/m² 15,6 °C 17,8 °C 0,0 km/h (0 Bft)
08.08.2019 09:44 17,8 °C 87 % 1011,9 hPa 0,0 mm 0,0 km/h (0 Bft) N-NO 31 ° 0 min 0,000 mm 2,0 UV-I 227 W/m² 15,6 °C 17,8 °C 0,0 km/h (0 Bft)
08.08.2019 09:45 17,9 °C 87 % 1011,8 hPa 0,0 mm 0,0 km/h (0 Bft) N-NO 31 ° 0 min 0,000 mm 2,0 UV-I 227 W/m² 15,7 °C 17,9 °C 0,0 km/h (0 Bft)
08.08.2019 09:46 17,8 °C 87 % 1011,9 hPa 0,0 mm 0,0 km/h (0 Bft) N-NO 31 ° 0 min 0,000 mm 2,1 UV-I 227 W/m² 15,6 °C 17,8 °C 0,0 km/h (0 Bft)
08.08.2019 09:47 17,8 °C 86 % 1011,9 hPa 0,0 mm 0,0 km/h (0 Bft) N-NO 31 ° 0 min 0,000 mm 2,2 UV-I 323 W/m² 15,4 °C 17,8 °C 0,0 km/h (0 Bft)
08.08.2019 09:48 17,9 °C 86 % 1011,8 hPa 0,0 mm 0,0 km/h (0 Bft) N-NO 31 ° 0 min 0,000 mm 2,4 UV-I 332 W/m² 15,5 °C 17,9 °C 0,0 km/h (0 Bft)
08.08.2019 09:49 17,9 °C 87 % 1011,8 hPa 0,0 mm 0,0 km/h (0 Bft) N-NO 31 ° 0 min 0,000 mm 2,4 UV-I 330 W/m² 15,7 °C 17,9 °C 0,0 km/h (0 Bft)
08.08.2019 09:50 17,9 °C 86 % 1011,8 hPa 0,0 mm 0,0 km/h (0 Bft) N-NO 31 ° 0 min 0,000 mm 2,4 UV-I 329 W/m² 15,5 °C 17,9 °C 0,0 km/h (0 Bft)
08.08.2019 09:51 17,9 °C 87 % 1011,8 hPa 0,0 mm 0,0 km/h (0 Bft) N-NO 31 ° 0 min 0,000 mm 2,5 UV-I 362 W/m² 15,7 °C 17,9 °C 0,0 km/h (0 Bft)
08.08.2019 09:52 18,1 °C 88 % 1011,8 hPa 0,0 mm 0,0 km/h (0 Bft) N-NO 31 ° 0 min 0,000 mm 2,6 UV-I 374 W/m² 16,1 °C 18,1 °C 0,0 km/h (0 Bft)
08.08.2019 09:53 18,1 °C 88 % 1011,8 hPa 0,0 mm 0,0 km/h (0 Bft) N-NO 31 ° 0 min 0,000 mm 2,7 UV-I 441 W/m² 16,1 °C 18,1 °C 0,0 km/h (0 Bft)
08.08.2019 09:54 18,1 °C 87 % 1011,8 hPa 0,0 mm 0,0 km/h (0 Bft) N-NO 31 ° 0 min 0,000 mm 2,9 UV-I 466 W/m² 15,9 °C 18,1 °C 0,0 km/h (0 Bft)
08.08.2019 09:55 18,2 °C 87 % 1011,8 hPa 0,0 mm 0,0 km/h (0 Bft) N-NO 31 ° 0 min 0,000 mm 2,9 UV-I 422 W/m² 16,0 °C 18,2 °C 0,0 km/h (0 Bft)
08.08.2019 09:56 18,3 °C 86 % 1011,8 hPa 0,0 mm 0,0 km/h (0 Bft) N-NO 31 ° 0 min 0,000 mm 3,1 UV-I 450 W/m² 15,9 °C 18,3 °C 0,0 km/h (0 Bft)
08.08.2019 09:57 18,3 °C 87 % 1011,8 hPa 0,0 mm 0,0 km/h (0 Bft) N-NO 30 ° 0 min 0,000 mm 3,2 UV-I 475 W/m² 16,1 °C 18,3 °C 0,0 km/h (0 Bft)
08.08.2019 09:58 18,3 °C 86 % 1011,9 hPa 0,0 mm 0,0 km/h (0 Bft) W 260 ° 0 min 0,000 mm 3,0 UV-I 501 W/m² 15,9 °C 18,3 °C 0,0 km/h (0 Bft)
08.08.2019 09:59 18,4 °C 86 % 1011,9 hPa 0,0 mm 0,0 km/h (0 Bft) W 260 ° 0 min 0,000 mm 3,2 UV-I 513 W/m² 16,0 °C 18,4 °C 0,0 km/h (0 Bft)
08.08.2019 10:00 18,4 °C 86 % 1011,8 hPa 0,0 mm 0,0 km/h (0 Bft) W 260 ° 0 min 0,000 mm 3,1 UV-I 468 W/m² 16,0 °C 18,4 °C 0,0 km/h (0 Bft)
08.08.2019 10:01 18,4 °C 85 % 1011,9 hPa 0,0 mm 0,0 km/h (0 Bft) W 262 ° 0 min 0,203 mm 2,8 UV-I 383 W/m² 15,8 °C 18,4 °C 0,0 km/h (0 Bft)
08.08.2019 10:02 18,4 °C 85 % 1011,9 hPa 0,0 mm 0,0 km/h (0 Bft) W 262 ° 0 min 0,000 mm 3,2 UV-I 461 W/m² 15,8 °C 18,4 °C 0,0 km/h (0 Bft)
08.08.2019 10:03 18,4 °C 86 % 1011,9 hPa 0,0 mm 0,0 km/h (0 Bft) W 262 ° 0 min 0,000 mm 3,2 UV-I 534 W/m² 16,0 °C 18,4 °C 0,0 km/h (0 Bft)
08.08.2019 10:04 18,6 °C 88 % 1011,8 hPa 0,0 mm 0,0 km/h (0 Bft) W-SW 247 ° 0 min 0,000 mm 3,1 UV-I 501 W/m² 16,6 °C 18,6 °C 0,0 km/h (0 Bft)
08.08.2019 10:05 18,6 °C 87 % 1011,8 hPa 0,0 mm 0,0 km/h (0 Bft) SO 140 ° 0 min 0,000 mm 3,5 UV-I 501 W/m² 16,4 °C 18,6 °C 0,0 km/h (0 Bft)
08.08.2019 10:06 18,3 °C 87 % 1011,8 hPa 0,0 mm 0,0 km/h (0 Bft) SO 140 ° 0 min 0,000 mm 3,0 UV-I 501 W/m² 16,1 °C 18,3 °C 0,0 km/h (0 Bft)
08.08.2019 10:07 18,2 °C 87 % 1011,9 hPa 0,0 mm 0,0 km/h (0 Bft) SO 140 ° 0 min 0,000 mm 3,0 UV-I 441 W/m² 16,0 °C 18,2 °C 0,0 km/h (0 Bft)
08.08.2019 10:08 18,2 °C 89 % 1011,9 hPa 0,0 mm 0,0 km/h (0 Bft) O 82 ° 0 min 0,000 mm 2,9 UV-I 404 W/m² 16,4 °C 18,2 °C 0,0 km/h (0 Bft)
08.08.2019 10:09 18,3 °C 89 % 1011,8 hPa 0,0 mm 2,7 km/h (1 Bft) O-NO 76 ° 0 min 0,000 mm 3,1 UV-I 441 W/m² 16,5 °C 18,3 °C 4,8 km/h (1 Bft)
08.08.2019 10:10 18,3 °C 87 % 1011,9 hPa 0,0 mm 3,0 km/h (1 Bft) O-NO 70 ° 0 min 0,000 mm 3,1 UV-I 482 W/m² 16,1 °C 18,3 °C 4,8 km/h (1 Bft)
08.08.2019 10:11 18,3 °C 87 % 1011,9 hPa 0,0 mm 5,1 km/h (1 Bft) N-NO 13 ° 0 min 0,000 mm 3,6 UV-I 536 W/m² 16,1 °C 18,3 °C 6,4 km/h (2 Bft)
08.08.2019 10:12 18,4 °C 86 % 1012,0 hPa 0,0 mm 3,8 km/h (1 Bft) O-NO 61 ° 0 min 0,000 mm 3,8 UV-I 561 W/m² 16,0 °C 18,4 °C 8,0 km/h (2 Bft)
08.08.2019 10:13 18,6 °C 86 % 1011,9 hPa 0,0 mm 3,8 km/h (1 Bft) N-NW 336 ° 1 min 0,000 mm 4,0 UV-I 629 W/m² 16,2 °C 18,6 °C 6,4 km/h (2 Bft)
08.08.2019 10:14 18,8 °C 87 % 1012,0 hPa 0,0 mm 3,3 km/h (1 Bft) NW 315 ° 1 min 0,000 mm 4,2 UV-I 684 W/m² 16,6 °C 18,8 °C 4,8 km/h (1 Bft)
08.08.2019 10:15 18,9 °C 85 % 1012,0 hPa 0,0 mm 0,5 km/h (0 Bft) NW 315 ° 1 min 0,000 mm 4,2 UV-I 687 W/m² 16,3 °C 18,9 °C 1,6 km/h (1 Bft)
08.08.2019 10:16 19,1 °C 84 % 1011,9 hPa 0,0 mm 4,9 km/h (1 Bft) NW 311 ° 1 min 0,000 mm 4,3 UV-I 708 W/m² 16,3 °C 19,1 °C 11,3 km/h (2 Bft)
08.08.2019 10:17 19,3 °C 85 % 1011,9 hPa 0,0 mm 5,4 km/h (1 Bft) W-NW 297 ° 1 min 0,000 mm 4,4 UV-I 717 W/m² 16,7 °C 19,3 °C 9,7 km/h (2 Bft)
08.08.2019 10:18 19,3 °C 83 % 1011,9 hPa 0,0 mm 5,3 km/h (1 Bft) W-SW 238 ° 1 min 0,000 mm 4,2 UV-I 684 W/m² 16,3 °C 19,3 °C 6,4 km/h (2 Bft)
08.08.2019 10:19 19,4 °C 80 % 1011,9 hPa 0,0 mm 4,8 km/h (1 Bft) W 267 ° 1 min 0,000 mm 4,1 UV-I 649 W/m² 15,9 °C 19,4 °C 6,4 km/h (2 Bft)
08.08.2019 10:20 19,4 °C 80 % 1011,9 hPa 0,0 mm 5,5 km/h (1 Bft) W-SW 238 ° 1 min 0,000 mm 4,1 UV-I 640 W/m² 15,9 °C 19,4 °C 11,3 km/h (2 Bft)
08.08.2019 10:21 19,5 °C 82 % 1011,9 hPa 0,0 mm 2,1 km/h (1 Bft) SW 236 ° 1 min 0,000 mm 4,4 UV-I 696 W/m² 16,3 °C 19,5 °C 4,8 km/h (1 Bft)
08.08.2019 10:22 19,6 °C 83 % 1011,9 hPa 0,0 mm 5,0 km/h (1 Bft) W-SW 238 ° 1 min 0,000 mm 4,3 UV-I 643 W/m² 16,6 °C 19,6 °C 6,4 km/h (2 Bft)
08.08.2019 10:23 19,5 °C 80 % 1011,9 hPa 0,0 mm 7,1 km/h (2 Bft) N-NW 328 ° 1 min 0,000 mm 4,2 UV-I 654 W/m² 16,0 °C 19,5 °C 9,7 km/h (2 Bft)
08.08.2019 10:24 19,6 °C 82 % 1011,9 hPa 0,0 mm 4,3 km/h (1 Bft) N-NW 340 ° 1 min 0,000 mm 4,1 UV-I 654 W/m² 16,4 °C 19,6 °C 6,4 km/h (2 Bft)
08.08.2019 10:25 19,6 °C 80 % 1011,9 hPa 0,0 mm 1,4 km/h (1 Bft) N-NW 341 ° 1 min 0,000 mm 4,2 UV-I 629 W/m² 16,1 °C 19,6 °C 3,2 km/h (1 Bft)
08.08.2019 10:26 19,7 °C 79 % 1011,9 hPa 0,0 mm 2,2 km/h (1 Bft) N 5 ° 1 min 0,000 mm 4,2 UV-I 629 W/m² 16,0 °C 19,7 °C 4,8 km/h (1 Bft)
08.08.2019 10:27 19,6 °C 80 % 1011,9 hPa 0,0 mm 3,4 km/h (1 Bft) N 355 ° 1 min 0,000 mm 4,1 UV-I 652 W/m² 16,1 °C 19,6 °C 4,8 km/h (1 Bft)
08.08.2019 10:28 19,7 °C 80 % 1011,9 hPa 0,0 mm 4,5 km/h (1 Bft) N-NW 344 ° 1 min 0,000 mm 4,2 UV-I 647 W/m² 16,1 °C 19,7 °C 6,4 km/h (2 Bft)
08.08.2019 10:29 19,7 °C 79 % 1012,0 hPa 0,0 mm 3,5 km/h (1 Bft) W-NW 300 ° 1 min 0,000 mm 4,0 UV-I 603 W/m² 16,0 °C 19,7 °C 6,4 km/h (2 Bft)
08.08.2019 10:30 19,6 °C 77 % 1011,9 hPa 0,0 mm 0,2 km/h (0 Bft) W-NW 300 ° 0 min 0,000 mm 3,9 UV-I 584 W/m² 15,5 °C 19,6 °C 1,6 km/h (1 Bft)
08.08.2019 10:31 19,5 °C 78 % 1012,0 hPa 0,0 mm 1,9 km/h (1 Bft) W-NW 284 ° 0 min 0,000 mm 3,6 UV-I 584 W/m² 15,6 °C 19,5 °C 6,4 km/h (2 Bft)
08.08.2019 10:32 19,4 °C 78 % 1012,0 hPa 0,0 mm 5,0 km/h (1 Bft) W-NW 282 ° 0 min 0,000 mm 2,7 UV-I 276 W/m² 15,5 °C 19,4 °C 6,4 km/h (2 Bft)
08.08.2019 10:33 19,4 °C 78 % 1012,0 hPa 0,0 mm 3,5 km/h (1 Bft) W-NW 293 ° 0 min 0,000 mm 2,4 UV-I 220 W/m² 15,5 °C 19,4 °C 4,8 km/h (1 Bft)
08.08.2019 10:34 19,3 °C 76 % 1012,0 hPa 0,0 mm 2,8 km/h (1 Bft) W 274 ° 0 min 0,000 mm 3,3 UV-I 220 W/m² 15,0 °C 19,3 °C 9,7 km/h (2 Bft)
08.08.2019 10:35 19,3 °C 78 % 1012,0 hPa 0,0 mm 5,1 km/h (1 Bft) NW 304 ° 0 min 0,000 mm 4,4 UV-I 220 W/m² 15,4 °C 19,3 °C 9,7 km/h (2 Bft)
08.08.2019 10:36 19,3 °C 77 % 1012,0 hPa 0,0 mm 3,2 km/h (1 Bft) W-NW 301 ° 1 min 0,000 mm 4,6 UV-I 701 W/m² 15,2 °C 19,3 °C 6,4 km/h (2 Bft)
08.08.2019 10:37 19,3 °C 79 % 1012,0 hPa 0,0 mm 6,6 km/h (2 Bft) W 259 ° 1 min 0,000 mm 4,6 UV-I 708 W/m² 15,6 °C 19,3 °C 11,3 km/h (2 Bft)
08.08.2019 10:38 19,3 °C 77 % 1012,0 hPa 0,0 mm 5,6 km/h (1 Bft) W-NW 293 ° 1 min 0,000 mm 4,6 UV-I 705 W/m² 15,2 °C 19,3 °C 11,3 km/h (2 Bft)
08.08.2019 10:39 19,4 °C 76 % 1012,0 hPa 0,0 mm 5,6 km/h (1 Bft) W 275 ° 1 min 0,000 mm 4,4 UV-I 668 W/m² 15,1 °C 19,4 °C 12,9 km/h (3 Bft)
08.08.2019 10:40 19,6 °C 77 % 1011,9 hPa 0,0 mm 6,4 km/h (2 Bft) W 259 ° 1 min 0,000 mm 4,4 UV-I 686 W/m² 15,5 °C 19,6 °C 11,3 km/h (2 Bft)
08.08.2019 10:41 19,7 °C 79 % 1012,0 hPa 0,0 mm 5,8 km/h (2 Bft) W 279 ° 1 min 0,000 mm 4,7 UV-I 696 W/m² 16,0 °C 19,7 °C 11,3 km/h (2 Bft)
08.08.2019 10:42 19,7 °C 77 % 1012,0 hPa 0,0 mm 5,3 km/h (1 Bft) W-NW 293 ° 1 min 0,000 mm 4,8 UV-I 703 W/m² 15,5 °C 19,7 °C 8,0 km/h (2 Bft)
08.08.2019 10:43 19,8 °C 76 % 1012,0 hPa 0,0 mm 10,7 km/h (2 Bft) W 281 ° 1 min 0,000 mm 4,9 UV-I 752 W/m² 15,4 °C 19,8 °C 16,1 km/h (3 Bft)
08.08.2019 10:44 19,8 °C 77 % 1012,0 hPa 0,0 mm 6,7 km/h (2 Bft) W-SW 254 ° 1 min 0,000 mm 4,8 UV-I 737 W/m² 15,6 °C 19,8 °C 12,9 km/h (3 Bft)
08.08.2019 10:45 19,8 °C 74 % 1012,0 hPa 0,0 mm 5,0 km/h (1 Bft) W-NW 302 ° 1 min 0,000 mm 4,7 UV-I 707 W/m² 15,0 °C 19,8 °C 8,0 km/h (2 Bft)
08.08.2019 10:46 19,8 °C 74 % 1012,0 hPa 0,0 mm 5,1 km/h (1 Bft) W-NW 290 ° 1 min 0,000 mm 4,4 UV-I 624 W/m² 15,0 °C 19,8 °C 6,4 km/h (2 Bft)
08.08.2019 10:47 19,7 °C 75 % 1012,0 hPa 0,0 mm 5,8 km/h (2 Bft) W-SW 253 ° 0 min 0,000 mm 4,2 UV-I 536 W/m² 15,1 °C 19,7 °C 8,0 km/h (2 Bft)
08.08.2019 10:48 19,7 °C 75 % 1012,0 hPa 0,0 mm 7,1 km/h (2 Bft) W 276 ° 0 min 0,000 mm 4,8 UV-I 536 W/m² 15,1 °C 19,7 °C 11,3 km/h (2 Bft)
08.08.2019 10:49 19,7 °C 76 % 1012,0 hPa 0,0 mm 1,8 km/h (1 Bft) W 276 ° 1 min 0,000 mm 4,8 UV-I 701 W/m² 15,3 °C 19,7 °C 6,4 km/h (2 Bft)
08.08.2019 10:50 19,7 °C 76 % 1012,0 hPa 0,0 mm 2,2 km/h (1 Bft) W 263 ° 1 min 0,000 mm 4,9 UV-I 738 W/m² 15,3 °C 19,7 °C 3,2 km/h (1 Bft)
08.08.2019 10:51 19,8 °C 76 % 1012,0 hPa 0,0 mm 4,8 km/h (1 Bft) W 265 ° 1 min 0,000 mm 4,8 UV-I 670 W/m² 15,4 °C 19,8 °C 6,4 km/h (2 Bft)
08.08.2019 10:52 19,9 °C 77 % 1012,0 hPa 0,0 mm 5,9 km/h (2 Bft) W 266 ° 1 min 0,000 mm 4,4 UV-I 628 W/m² 15,7 °C 19,9 °C 9,7 km/h (2 Bft)
08.08.2019 10:53 19,9 °C 77 % 1011,9 hPa 0,0 mm 6,7 km/h (2 Bft) W 259 ° 1 min 0,000 mm 4,6 UV-I 621 W/m² 15,7 °C 19,9 °C 9,7 km/h (2 Bft)
08.08.2019 10:54 19,8 °C 76 % 1011,9 hPa 0,0 mm 2,9 km/h (1 Bft) W-SW 243 ° 1 min 0,000 mm 4,6 UV-I 647 W/m² 15,4 °C 19,8 °C 6,4 km/h (2 Bft)
08.08.2019 10:55 19,9 °C 80 % 1012,0 hPa 0,0 mm 3,4 km/h (1 Bft) W-SW 242 ° 1 min 0,000 mm 4,8 UV-I 703 W/m² 16,3 °C 19,9 °C 9,7 km/h (2 Bft)
08.08.2019 10:56 19,9 °C 76 % 1011,9 hPa 0,0 mm 6,6 km/h (2 Bft) NW 316 ° 1 min 0,000 mm 5,0 UV-I 715 W/m² 15,5 °C 19,9 °C 11,3 km/h (2 Bft)
08.08.2019 10:57 20,0 °C 78 % 1011,9 hPa 0,0 mm 2,6 km/h (1 Bft) N 355 ° 1 min 0,000 mm 5,2 UV-I 795 W/m² 16,0 °C 20,0 °C 4,8 km/h (1 Bft)
08.08.2019 10:58 19,9 °C 77 % 1012,0 hPa 0,0 mm 4,6 km/h (1 Bft) W 263 ° 1 min 0,000 mm 4,8 UV-I 795 W/m² 15,7 °C 19,9 °C 9,7 km/h (2 Bft)
08.08.2019 10:59 19,8 °C 76 % 1012,0 hPa 0,0 mm 4,8 km/h (1 Bft) W-NW 292 ° 1 min 0,000 mm 5,0 UV-I 652 W/m² 15,4 °C 19,8 °C 6,4 km/h (2 Bft)
08.08.2019 11:00 19,7 °C 76 % 1012,0 hPa 0,0 mm 4,4 km/h (1 Bft) W-NW 282 ° 1 min 0,355 mm 5,0 UV-I 652 W/m² 15,3 °C 19,7 °C 6,4 km/h (2 Bft)
08.08.2019 11:01 19,6 °C 78 % 1012,0 hPa 0,0 mm 0,6 km/h (0 Bft) W-NW 287 ° 0 min 0,000 mm 4,8 UV-I 469 W/m² 15,7 °C 19,6 °C 1,6 km/h (1 Bft)
08.08.2019 11:02 19,7 °C 80 % 1012,0 hPa 0,0 mm 0,8 km/h (0 Bft) N-NO 18 ° 0 min 0,000 mm 3,0 UV-I 469 W/m² 16,1 °C 19,7 °C 3,2 km/h (1 Bft)
08.08.2019 11:03 19,7 °C 79 % 1012,0 hPa 0,0 mm 4,0 km/h (1 Bft) N 355 ° 0 min 0,000 mm 4,2 UV-I 469 W/m² 16,0 °C 19,7 °C 6,4 km/h (2 Bft)
08.08.2019 11:04 19,7 °C 75 % 1012,0 hPa 0,0 mm 2,3 km/h (1 Bft) N 5 ° 1 min 0,000 mm 5,2 UV-I 765 W/m² 15,1 °C 19,7 °C 4,8 km/h (1 Bft)
08.08.2019 11:05 19,6 °C 74 % 1012,0 hPa 0,0 mm 0,5 km/h (0 Bft) N 5 ° 1 min 0,000 mm 5,2 UV-I 763 W/m² 14,8 °C 19,6 °C 1,6 km/h (1 Bft)
08.08.2019 11:06 19,7 °C 75 % 1012,0 hPa 0,0 mm 1,2 km/h (1 Bft) N 360 ° 1 min 0,000 mm 5,2 UV-I 758 W/m² 15,1 °C 19,7 °C 1,6 km/h (1 Bft)
08.08.2019 11:07 19,8 °C 78 % 1011,9 hPa 0,0 mm 0,1 km/h (0 Bft) N 360 ° 1 min 0,000 mm 4,9 UV-I 694 W/m² 15,8 °C 19,8 °C 1,6 km/h (1 Bft)
08.08.2019 11:08 19,8 °C 77 % 1012,0 hPa 0,0 mm 0,2 km/h (0 Bft) N-NO 14 ° 1 min 0,000 mm 5,0 UV-I 691 W/m² 15,6 °C 19,8 °C 1,6 km/h (1 Bft)
08.08.2019 11:09 19,8 °C 77 % 1012,0 hPa 0,0 mm 1,9 km/h (1 Bft) W 281 ° 1 min 0,000 mm 5,1 UV-I 731 W/m² 15,6 °C 19,8 °C 6,4 km/h (2 Bft)
08.08.2019 11:10 19,8 °C 77 % 1012,0 hPa 0,0 mm 5,7 km/h (1 Bft) W-NW 286 ° 1 min 0,000 mm 5,2 UV-I 752 W/m² 15,6 °C 19,8 °C 8,0 km/h (2 Bft)
08.08.2019 11:11 19,9 °C 76 % 1012,0 hPa 0,0 mm 1,6 km/h (1 Bft) W-NW 286 ° 1 min 0,000 mm 5,2 UV-I 744 W/m² 15,5 °C 19,9 °C 4,8 km/h (1 Bft)
08.08.2019 11:12 19,9 °C 76 % 1012,0 hPa 0,0 mm 5,9 km/h (2 Bft) NW 305 ° 1 min 0,000 mm 5,2 UV-I 763 W/m² 15,5 °C 19,9 °C 9,7 km/h (2 Bft)
08.08.2019 11:13 20,0 °C 77 % 1012,0 hPa 0,0 mm 8,0 km/h (2 Bft) W-NW 294 ° 1 min 0,000 mm 4,0 UV-I 763 W/m² 15,8 °C 20,0 °C 11,3 km/h (2 Bft)
08.08.2019 11:14 20,1 °C 76 % 1012,0 hPa 0,0 mm 8,3 km/h (2 Bft) W-NW 302 ° 1 min 0,000 mm 5,1 UV-I 763 W/m² 15,7 °C 20,1 °C 12,9 km/h (3 Bft)
08.08.2019 11:15 20,1 °C 74 % 1012,0 hPa 0,0 mm 2,6 km/h (1 Bft) W-NW 296 ° 1 min 0,000 mm 5,0 UV-I 654 W/m² 15,3 °C 20,1 °C 4,8 km/h (1 Bft)
08.08.2019 11:16 20,1 °C 76 % 1012,0 hPa 0,0 mm 4,2 km/h (1 Bft) NW 325 ° 1 min 0,000 mm 4,8 UV-I 654 W/m² 15,7 °C 20,1 °C 8,0 km/h (2 Bft)
08.08.2019 11:17 20,2 °C 76 % 1012,0 hPa 0,0 mm 5,1 km/h (1 Bft) N-NW 338 ° 1 min 0,000 mm 4,9 UV-I 654 W/m² 15,8 °C 20,2 °C 8,0 km/h (2 Bft)
08.08.2019 11:18 20,3 °C 76 % 1012,0 hPa 0,0 mm 5,6 km/h (1 Bft) W-NW 284 ° 1 min 0,000 mm 5,0 UV-I 636 W/m² 15,9 °C 20,3 °C 9,7 km/h (2 Bft)
08.08.2019 11:19 20,3 °C 77 % 1012,1 hPa 0,0 mm 3,7 km/h (1 Bft) W 265 ° 1 min 0,000 mm 5,0 UV-I 636 W/m² 16,1 °C 20,3 °C 9,7 km/h (2 Bft)
08.08.2019 11:20 20,2 °C 73 % 1012,1 hPa 0,0 mm 5,1 km/h (1 Bft) N-NW 346 ° 1 min 0,000 mm 4,9 UV-I 766 W/m² 15,2 °C 20,2 °C 6,4 km/h (2 Bft)
08.08.2019 11:21 20,2 °C 76 % 1012,1 hPa 0,0 mm 3,4 km/h (1 Bft) W-NW 288 ° 1 min 0,000 mm 5,5 UV-I 761 W/m² 15,8 °C 20,2 °C 8,0 km/h (2 Bft)
08.08.2019 11:22 20,2 °C 77 % 1012,1 hPa 0,0 mm 3,8 km/h (1 Bft) N-NW 341 ° 1 min 0,000 mm 5,5 UV-I 758 W/m² 16,0 °C 20,2 °C 4,8 km/h (1 Bft)
08.08.2019 11:23 20,3 °C 76 % 1012,1 hPa 0,0 mm 4,4 km/h (1 Bft) N-NW 338 ° 1 min 0,000 mm 5,5 UV-I 765 W/m² 15,9 °C 20,3 °C 6,4 km/h (2 Bft)
08.08.2019 11:24 20,3 °C 73 % 1012,1 hPa 0,0 mm 1,8 km/h (1 Bft) NW 315 ° 1 min 0,000 mm 5,1 UV-I 719 W/m² 15,3 °C 20,3 °C 4,8 km/h (1 Bft)
08.08.2019 11:25 20,2 °C 73 % 1012,1 hPa 0,0 mm 0,1 km/h (0 Bft) NW 315 ° 1 min 0,000 mm 5,1 UV-I 691 W/m² 15,2 °C 20,2 °C 1,6 km/h (1 Bft)
08.08.2019 11:26 20,3 °C 75 % 1012,1 hPa 0,0 mm 5,2 km/h (1 Bft) W-NW 283 ° 1 min 0,000 mm 5,5 UV-I 770 W/m² 15,7 °C 20,3 °C 8,0 km/h (2 Bft)
08.08.2019 11:27 20,3 °C 74 % 1012,1 hPa 0,0 mm 2,5 km/h (1 Bft) W 274 ° 1 min 0,000 mm 5,6 UV-I 700 W/m² 15,5 °C 20,3 °C 4,8 km/h (1 Bft)
08.08.2019 11:28 20,3 °C 74 % 1012,1 hPa 0,0 mm 4,1 km/h (1 Bft) W 275 ° 1 min 0,000 mm 5,5 UV-I 759 W/m² 15,5 °C 20,3 °C 4,8 km/h (1 Bft)
08.08.2019 11:29 20,2 °C 72 % 1012,1 hPa 0,0 mm 1,0 km/h (0 Bft) W-NW 294 ° 1 min 0,000 mm 5,4 UV-I 754 W/m² 15,0 °C 20,2 °C 3,2 km/h (1 Bft)
08.08.2019 11:30 20,1 °C 76 % 1012,0 hPa 0,0 mm 7,3 km/h (2 Bft) W 279 ° 1 min 0,000 mm 5,5 UV-I 772 W/m² 15,7 °C 20,1 °C 14,5 km/h (3 Bft)
08.08.2019 11:31 20,1 °C 72 % 1012,1 hPa 0,0 mm 8,1 km/h (2 Bft) NW 324 ° 1 min 0,000 mm 5,4 UV-I 747 W/m² 14,9 °C 20,1 °C 12,9 km/h (3 Bft)
08.08.2019 11:32 20,2 °C 75 % 1012,1 hPa 0,0 mm 4,8 km/h (1 Bft) NW 309 ° 1 min 0,000 mm 5,8 UV-I 830 W/m² 15,6 °C 20,2 °C 8,0 km/h (2 Bft)
08.08.2019 11:33 20,2 °C 72 % 1012,1 hPa 0,0 mm 4,2 km/h (1 Bft) W 277 ° 1 min 0,000 mm 5,5 UV-I 745 W/m² 15,0 °C 20,2 °C 6,4 km/h (2 Bft)
08.08.2019 11:34 20,1 °C 72 % 1012,1 hPa 0,0 mm 5,6 km/h (1 Bft) W 261 ° 1 min 0,000 mm 5,1 UV-I 652 W/m² 14,9 °C 20,1 °C 8,0 km/h (2 Bft)
08.08.2019 11:35 20,1 °C 73 % 1012,1 hPa 0,0 mm 2,5 km/h (1 Bft) W 278 ° 1 min 0,000 mm 4,6 UV-I 645 W/m² 15,1 °C 20,1 °C 4,8 km/h (1 Bft)
08.08.2019 11:36 20,1 °C 75 % 1012,1 hPa 0,0 mm 2,6 km/h (1 Bft) W-SW 258 ° 1 min 0,000 mm 4,9 UV-I 645 W/m² 15,5 °C 20,1 °C 11,3 km/h (2 Bft)
08.08.2019 11:37 20,1 °C 74 % 1012,1 hPa 0,0 mm 7,2 km/h (2 Bft) W-SW 252 ° 1 min 0,000 mm 4,8 UV-I 621 W/m² 15,3 °C 20,1 °C 11,3 km/h (2 Bft)
08.08.2019 11:38 20,0 °C 73 % 1012,1 hPa 0,0 mm 4,2 km/h (1 Bft) W 267 ° 1 min 0,000 mm 5,0 UV-I 666 W/m² 15,0 °C 20,0 °C 6,4 km/h (2 Bft)
08.08.2019 11:39 20,0 °C 74 % 1012,1 hPa 0,0 mm 5,2 km/h (1 Bft) S-SW 207 ° 1 min 0,000 mm 5,2 UV-I 670 W/m² 15,2 °C 20,0 °C 6,4 km/h (2 Bft)
08.08.2019 11:40 20,0 °C 74 % 1012,1 hPa 0,0 mm 0,7 km/h (0 Bft) W 267 ° 1 min 0,000 mm 5,6 UV-I 728 W/m² 15,2 °C 20,0 °C 3,2 km/h (1 Bft)
08.08.2019 11:41 20,1 °C 75 % 1012,1 hPa 0,0 mm 5,0 km/h (1 Bft) W 281 ° 1 min 0,000 mm 5,5 UV-I 687 W/m² 15,5 °C 20,1 °C 9,7 km/h (2 Bft)
08.08.2019 11:42 20,1 °C 74 % 1012,1 hPa 0,0 mm 3,6 km/h (1 Bft) W 277 ° 1 min 0,000 mm 5,8 UV-I 770 W/m² 15,3 °C 20,1 °C 6,4 km/h (2 Bft)
08.08.2019 11:43 20,2 °C 76 % 1012,1 hPa 0,0 mm 2,8 km/h (1 Bft) W-SW 257 ° 1 min 0,000 mm 5,8 UV-I 780 W/m² 15,8 °C 20,2 °C 11,3 km/h (2 Bft)
08.08.2019 11:44 20,3 °C 74 % 1012,1 hPa 0,0 mm 6,5 km/h (2 Bft) W-SW 254 ° 1 min 0,000 mm 5,7 UV-I 724 W/m² 15,5 °C 20,3 °C 9,7 km/h (2 Bft)
08.08.2019 11:45 20,3 °C 75 % 1012,1 hPa 0,0 mm 10,3 km/h (2 Bft) W 274 ° 1 min 0,000 mm 5,7 UV-I 737 W/m² 15,7 °C 20,3 °C 12,9 km/h (3 Bft)
08.08.2019 11:46 20,3 °C 74 % 1012,1 hPa 0,0 mm 8,2 km/h (2 Bft) SW 234 ° 1 min 0,000 mm 6,0 UV-I 809 W/m² 15,5 °C 20,3 °C 12,9 km/h (3 Bft)
08.08.2019 11:47 20,4 °C 74 % 1012,1 hPa 0,0 mm 4,3 km/h (1 Bft) W 260 ° 1 min 0,000 mm 6,0 UV-I 809 W/m² 15,6 °C 20,4 °C 9,7 km/h (2 Bft)
08.08.2019 11:48 20,4 °C 74 % 1012,1 hPa 0,0 mm 6,4 km/h (2 Bft) W 274 ° 1 min 0,000 mm 5,9 UV-I 809 W/m² 15,6 °C 20,4 °C 11,3 km/h (2 Bft)
08.08.2019 11:49 20,4 °C 73 % 1012,1 hPa 0,0 mm 6,0 km/h (2 Bft) W 264 ° 1 min 0,000 mm 5,9 UV-I 809 W/m² 15,4 °C 20,4 °C 9,7 km/h (2 Bft)
08.08.2019 11:50 20,4 °C 73 % 1012,1 hPa 0,0 mm 0,8 km/h (0 Bft) W 263 ° 1 min 0,000 mm 5,9 UV-I 765 W/m² 15,4 °C 20,4 °C 4,8 km/h (1 Bft)
08.08.2019 11:51 20,5 °C 74 % 1012,0 hPa 0,0 mm 2,5 km/h (1 Bft) S-SW 207 ° 1 min 0,000 mm 5,8 UV-I 689 W/m² 15,7 °C 20,5 °C 6,4 km/h (2 Bft)
08.08.2019 11:52 20,5 °C 77 % 1012,0 hPa 0,0 mm 0,8 km/h (0 Bft) S-SW 207 ° 1 min 0,000 mm 5,8 UV-I 689 W/m² 16,3 °C 20,5 °C 3,2 km/h (1 Bft)
08.08.2019 11:53 20,4 °C 73 % 1012,1 hPa 0,0 mm 5,6 km/h (1 Bft) W-SW 250 ° 1 min 0,000 mm 5,9 UV-I 803 W/m² 15,4 °C 20,4 °C 8,0 km/h (2 Bft)
08.08.2019 11:54 20,4 °C 76 % 1012,1 hPa 0,0 mm 3,5 km/h (1 Bft) W-SW 254 ° 1 min 0,000 mm 5,7 UV-I 803 W/m² 16,0 °C 20,4 °C 6,4 km/h (2 Bft)
08.08.2019 11:55 20,6 °C 78 % 1012,1 hPa 0,0 mm 0,5 km/h (0 Bft) W-SW 254 ° 1 min 0,000 mm 5,8 UV-I 724 W/m² 16,6 °C 20,6 °C 3,2 km/h (1 Bft)
08.08.2019 11:56 20,6 °C 74 % 1012,0 hPa 0,0 mm 3,9 km/h (1 Bft) N-NW 329 ° 1 min 0,000 mm 5,7 UV-I 729 W/m² 15,8 °C 20,6 °C 4,8 km/h (1 Bft)
08.08.2019 11:57 20,7 °C 75 % 1012,1 hPa 0,0 mm 6,0 km/h (2 Bft) NW 316 ° 1 min 0,000 mm 5,8 UV-I 766 W/m² 16,1 °C 20,7 °C 11,3 km/h (2 Bft)
08.08.2019 11:58 20,8 °C 78 % 1012,1 hPa 0,0 mm 5,3 km/h (1 Bft) NW 321 ° 1 min 0,000 mm 5,5 UV-I 705 W/m² 16,8 °C 20,8 °C 6,4 km/h (2 Bft)
08.08.2019 11:59 20,9 °C 74 % 1012,1 hPa 0,0 mm 4,5 km/h (1 Bft) W-NW 292 ° 1 min 0,000 mm 5,5 UV-I 708 W/m² 16,1 °C 20,9 °C 6,4 km/h (2 Bft)
08.08.2019 12:00 20,9 °C 72 % 1012,1 hPa 0,0 mm 3,0 km/h (1 Bft) W-NW 294 ° 1 min 0,432 mm 5,5 UV-I 714 W/m² 15,7 °C 20,9 °C 4,8 km/h (1 Bft)
08.08.2019 12:01 20,8 °C 71 % 1012,1 hPa 0,0 mm 2,5 km/h (1 Bft) W-NW 294 ° 1 min 0,000 mm 5,1 UV-I 675 W/m² 15,3 °C 20,8 °C 3,2 km/h (1 Bft)
08.08.2019 12:02 20,8 °C 71 % 1012,1 hPa 0,0 mm 0,9 km/h (0 Bft) W 277 ° 1 min 0,000 mm 5,3 UV-I 728 W/m² 15,3 °C 20,8 °C 4,8 km/h (1 Bft)
08.08.2019 12:03 20,8 °C 73 % 1012,1 hPa 0,0 mm 2,9 km/h (1 Bft) W 275 ° 1 min 0,000 mm 5,5 UV-I 724 W/m² 15,8 °C 20,8 °C 4,8 km/h (1 Bft)
08.08.2019 12:04 20,8 °C 69 % 1012,1 hPa 0,0 mm 3,6 km/h (1 Bft) W-NW 286 ° 1 min 0,000 mm 5,5 UV-I 721 W/m² 14,9 °C 20,8 °C 8,0 km/h (2 Bft)
08.08.2019 12:05 20,7 °C 74 % 1012,1 hPa 0,0 mm 4,6 km/h (1 Bft) W-SW 256 ° 1 min 0,000 mm 5,8 UV-I 770 W/m² 15,9 °C 20,7 °C 6,4 km/h (2 Bft)
08.08.2019 12:06 20,6 °C 70 % 1012,2 hPa 0,0 mm 1,2 km/h (1 Bft) W-SW 255 ° 1 min 0,000 mm 5,8 UV-I 770 W/m² 14,9 °C 20,6 °C 3,2 km/h (1 Bft)
08.08.2019 12:07 20,6 °C 72 % 1012,2 hPa 0,0 mm 0,1 km/h (0 Bft) W-SW 254 ° 1 min 0,000 mm 5,9 UV-I 744 W/m² 15,4 °C 20,6 °C 1,6 km/h (1 Bft)
08.08.2019 12:08 20,6 °C 74 % 1012,2 hPa 0,0 mm 2,1 km/h (1 Bft) SW 215 ° 1 min 0,000 mm 5,8 UV-I 803 W/m² 15,8 °C 20,6 °C 3,2 km/h (1 Bft)
08.08.2019 12:09 20,6 °C 72 % 1012,2 hPa 0,0 mm 3,6 km/h (1 Bft) SW 231 ° 1 min 0,000 mm 5,8 UV-I 761 W/m² 15,4 °C 20,6 °C 4,8 km/h (1 Bft)
08.08.2019 12:10 20,6 °C 72 % 1012,2 hPa 0,0 mm 2,1 km/h (1 Bft) S 176 ° 1 min 0,000 mm 5,7 UV-I 738 W/m² 15,4 °C 20,6 °C 4,8 km/h (1 Bft)
08.08.2019 12:11 20,6 °C 72 % 1012,2 hPa 0,0 mm 4,4 km/h (1 Bft) S 175 ° 1 min 0,000 mm 5,9 UV-I 800 W/m² 15,4 °C 20,6 °C 6,4 km/h (2 Bft)
08.08.2019 12:12 20,4 °C 72 % 1012,2 hPa 0,0 mm 5,9 km/h (2 Bft) SO 134 ° 1 min 0,000 mm 5,9 UV-I 802 W/m² 15,2 °C 20,4 °C 8,0 km/h (2 Bft)
08.08.2019 12:13 20,4 °C 72 % 1012,2 hPa 0,0 mm 0,3 km/h (0 Bft) SO 134 ° 1 min 0,000 mm 5,8 UV-I 805 W/m² 15,2 °C 20,4 °C 1,6 km/h (1 Bft)
08.08.2019 12:14 20,4 °C 75 % 1012,2 hPa 0,0 mm 0,0 km/h (0 Bft) SO 134 ° 1 min 0,000 mm 5,8 UV-I 770 W/m² 15,8 °C 20,4 °C 0,0 km/h (0 Bft)
08.08.2019 12:15 20,5 °C 74 % 1012,1 hPa 0,0 mm 0,4 km/h (0 Bft) N-NO 13 ° 1 min 0,000 mm 5,6 UV-I 745 W/m² 15,7 °C 20,5 °C 3,2 km/h (1 Bft)
08.08.2019 12:16 20,8 °C 75 % 1012,1 hPa 0,0 mm 5,8 km/h (2 Bft) NW 313 ° 1 min 0,000 mm 5,6 UV-I 719 W/m² 16,2 °C 20,8 °C 8,0 km/h (2 Bft)
08.08.2019 12:17 21,0 °C 75 % 1012,1 hPa 0,0 mm 3,3 km/h (1 Bft) NW 306 ° 1 min 0,000 mm 5,1 UV-I 687 W/m² 16,4 °C 21,0 °C 4,8 km/h (1 Bft)
08.08.2019 12:18 21,0 °C 74 % 1012,1 hPa 0,0 mm 0,9 km/h (0 Bft) N-NW 330 ° 1 min 0,000 mm 4,2 UV-I 687 W/m² 16,2 °C 21,0 °C 4,8 km/h (1 Bft)
08.08.2019 12:19 20,9 °C 74 % 1012,1 hPa 0,0 mm 2,3 km/h (1 Bft) W-NW 299 ° 1 min 0,000 mm 5,1 UV-I 635 W/m² 16,1 °C 20,9 °C 3,2 km/h (1 Bft)
08.08.2019 12:20 20,9 °C 75 % 1012,1 hPa 0,0 mm 1,7 km/h (1 Bft) NW 314 ° 1 min 0,000 mm 5,5 UV-I 705 W/m² 16,3 °C 20,9 °C 3,2 km/h (1 Bft)
08.08.2019 12:21 20,9 °C 73 % 1012,1 hPa 0,0 mm 2,9 km/h (1 Bft) NW 321 ° 1 min 0,000 mm 5,1 UV-I 686 W/m² 15,9 °C 20,9 °C 8,0 km/h (2 Bft)
08.08.2019 12:22 20,9 °C 75 % 1012,1 hPa 0,0 mm 1,7 km/h (1 Bft) NW 321 ° 1 min 0,000 mm 5,0 UV-I 601 W/m² 16,3 °C 20,9 °C 4,8 km/h (1 Bft)
08.08.2019 12:23 20,9 °C 75 % 1012,1 hPa 0,0 mm 0,2 km/h (0 Bft) NW 321 ° 1 min 0,000 mm 5,0 UV-I 608 W/m² 16,3 °C 20,9 °C 1,6 km/h (1 Bft)
08.08.2019 12:24 20,9 °C 75 % 1012,1 hPa 0,0 mm 2,9 km/h (1 Bft) N 350 ° 1 min 0,000 mm 4,0 UV-I 608 W/m² 16,3 °C 20,9 °C 6,4 km/h (2 Bft)
08.08.2019 12:25 20,8 °C 73 % 1012,1 hPa 0,0 mm 0,0 km/h (0 Bft) N 350 ° 0 min 0,000 mm 4,5 UV-I 564 W/m² 15,8 °C 20,8 °C 0,0 km/h (0 Bft)
08.08.2019 12:26 20,7 °C 72 % 1012,1 hPa 0,0 mm 0,0 km/h (0 Bft) N 350 ° 1 min 0,000 mm 5,3 UV-I 638 W/m² 15,5 °C 20,7 °C 0,0 km/h (0 Bft)
08.08.2019 12:27 20,6 °C 75 % 1012,1 hPa 0,0 mm 0,0 km/h (0 Bft) N 350 ° 1 min 0,000 mm 5,6 UV-I 638 W/m² 16,0 °C 20,6 °C 0,0 km/h (0 Bft)
08.08.2019 12:28 20,5 °C 74 % 1012,1 hPa 0,0 mm 0,9 km/h (0 Bft) N 350 ° 1 min 0,000 mm 5,6 UV-I 722 W/m² 15,7 °C 20,5 °C 3,2 km/h (1 Bft)
08.08.2019 12:29 20,6 °C 75 % 1012,2 hPa 0,0 mm 0,9 km/h (0 Bft) N 350 ° 1 min 0,000 mm 4,8 UV-I 749 W/m² 16,0 °C 20,6 °C 1,6 km/h (1 Bft)
08.08.2019 12:30 20,8 °C 78 % 1012,1 hPa 0,0 mm 0,3 km/h (0 Bft) N 350 ° 1 min 0,000 mm 4,2 UV-I 749 W/m² 16,8 °C 20,8 °C 1,6 km/h (1 Bft)
08.08.2019 12:31 20,9 °C 77 % 1012,1 hPa 0,0 mm 0,6 km/h (0 Bft) N-NW 343 ° 0 min 0,000 mm 3,8 UV-I 338 W/m² 16,7 °C 20,9 °C 3,2 km/h (1 Bft)
08.08.2019 12:32 21,0 °C 77 % 1012,2 hPa 0,0 mm 1,6 km/h (1 Bft) N-NW 343 ° 0 min 0,000 mm 5,0 UV-I 397 W/m² 16,8 °C 21,0 °C 3,2 km/h (1 Bft)
08.08.2019 12:33 20,9 °C 75 % 1012,2 hPa 0,0 mm 3,5 km/h (1 Bft) W 271 ° 0 min 0,000 mm 5,0 UV-I 397 W/m² 16,3 °C 20,9 °C 6,4 km/h (2 Bft)
08.08.2019 12:34 20,8 °C 75 % 1012,1 hPa 0,0 mm 3,2 km/h (1 Bft) W-NW 289 ° 0 min 0,000 mm 3,4 UV-I 397 W/m² 16,2 °C 20,8 °C 6,4 km/h (2 Bft)
08.08.2019 12:35 20,7 °C 73 % 1012,1 hPa 0,0 mm 2,8 km/h (1 Bft) N-NW 348 ° 0 min 0,000 mm 5,3 UV-I 329 W/m² 15,7 °C 20,7 °C 4,8 km/h (1 Bft)
08.08.2019 12:36 20,7 °C 75 % 1012,1 hPa 0,0 mm 2,3 km/h (1 Bft) NO 36 ° 0 min 0,000 mm 5,5 UV-I 329 W/m² 16,1 °C 20,7 °C 3,2 km/h (1 Bft)
08.08.2019 12:37 20,7 °C 75 % 1012,1 hPa 0,0 mm 0,8 km/h (0 Bft) NO 36 ° 1 min 0,000 mm 6,3 UV-I 814 W/m² 16,1 °C 20,7 °C 3,2 km/h (1 Bft)
08.08.2019 12:38 20,7 °C 75 % 1012,1 hPa 0,0 mm 2,3 km/h (1 Bft) N 5 ° 1 min 0,000 mm 6,4 UV-I 872 W/m² 16,1 °C 20,7 °C 6,4 km/h (2 Bft)
08.08.2019 12:39 20,7 °C 75 % 1012,1 hPa 0,0 mm 2,5 km/h (1 Bft) N 360 ° 1 min 0,000 mm 6,4 UV-I 858 W/m² 16,1 °C 20,7 °C 4,8 km/h (1 Bft)
08.08.2019 12:40 20,9 °C 78 % 1012,0 hPa 0,0 mm 1,6 km/h (1 Bft) W-NW 303 ° 1 min 0,000 mm 6,4 UV-I 835 W/m² 16,9 °C 20,9 °C 4,8 km/h (1 Bft)
08.08.2019 12:41 21,1 °C 75 % 1012,1 hPa 0,0 mm 6,0 km/h (2 Bft) NW 319 ° 1 min 0,000 mm 6,6 UV-I 893 W/m² 16,5 °C 21,1 °C 8,0 km/h (2 Bft)
08.08.2019 12:42 21,2 °C 75 % 1012,1 hPa 0,0 mm 4,3 km/h (1 Bft) N-NW 334 ° 1 min 0,000 mm 6,6 UV-I 918 W/m² 16,6 °C 21,2 °C 8,0 km/h (2 Bft)
08.08.2019 12:43 21,3 °C 74 % 1012,1 hPa 0,0 mm 0,8 km/h (0 Bft) NW 322 ° 1 min 0,000 mm 6,8 UV-I 923 W/m² 16,5 °C 21,3 °C 3,2 km/h (1 Bft)
08.08.2019 12:44 21,3 °C 74 % 1012,1 hPa 0,0 mm 1,9 km/h (1 Bft) N 355 ° 1 min 0,000 mm 6,7 UV-I 932 W/m² 16,5 °C 21,3 °C 3,2 km/h (1 Bft)
08.08.2019 12:45 21,4 °C 73 % 1012,1 hPa 0,0 mm 6,1 km/h (2 Bft) N-NO 12 ° 1 min 0,000 mm 6,7 UV-I 928 W/m² 16,4 °C 21,4 °C 11,3 km/h (2 Bft)
08.08.2019 12:46 21,3 °C 71 % 1012,1 hPa 0,0 mm 2,7 km/h (1 Bft) N-NO 13 ° 1 min 0,000 mm 5,9 UV-I 928 W/m² 15,8 °C 21,3 °C 4,8 km/h (1 Bft)
08.08.2019 12:47 21,3 °C 72 % 1012,1 hPa 0,0 mm 0,0 km/h (0 Bft) N-NO 13 ° 1 min 0,000 mm 5,1 UV-I 928 W/m² 16,0 °C 21,3 °C 0,0 km/h (0 Bft)
08.08.2019 12:48 21,2 °C 72 % 1012,1 hPa 0,0 mm 2,5 km/h (1 Bft) N-NW 331 ° 1 min 0,000 mm 5,4 UV-I 687 W/m² 15,9 °C 21,2 °C 6,4 km/h (2 Bft)
08.08.2019 12:49 21,2 °C 72 % 1012,0 hPa 0,0 mm 2,7 km/h (1 Bft) N-NW 328 ° 1 min 0,000 mm 5,6 UV-I 680 W/m² 15,9 °C 21,2 °C 6,4 km/h (2 Bft)
08.08.2019 12:50 21,3 °C 71 % 1012,0 hPa 0,0 mm 1,1 km/h (1 Bft) N 360 ° 1 min 0,000 mm 6,9 UV-I 680 W/m² 15,8 °C 21,3 °C 3,2 km/h (1 Bft)
08.08.2019 12:51 21,4 °C 76 % 1012,0 hPa 0,0 mm 6,7 km/h (2 Bft) NW 304 ° 1 min 0,000 mm 6,9 UV-I 935 W/m² 17,0 °C 21,4 °C 9,7 km/h (2 Bft)
08.08.2019 12:52 21,5 °C 74 % 1012,0 hPa 0,0 mm 4,2 km/h (1 Bft) W-SW 239 ° 1 min 0,000 mm 6,9 UV-I 940 W/m² 16,7 °C 21,5 °C 6,4 km/h (2 Bft)
08.08.2019 12:53 21,4 °C 70 % 1012,0 hPa 0,0 mm 2,5 km/h (1 Bft) W-NW 284 ° 1 min 0,000 mm 7,0 UV-I 946 W/m² 15,7 °C 21,4 °C 6,4 km/h (2 Bft)
08.08.2019 12:54 21,5 °C 71 % 1012,0 hPa 0,0 mm 3,5 km/h (1 Bft) N-NW 345 ° 1 min 0,000 mm 6,9 UV-I 919 W/m² 16,0 °C 21,5 °C 6,4 km/h (2 Bft)
08.08.2019 12:55 21,6 °C 72 % 1012,0 hPa 0,0 mm 3,3 km/h (1 Bft) N-NW 348 ° 1 min 0,000 mm 6,9 UV-I 918 W/m² 16,3 °C 21,6 °C 4,8 km/h (1 Bft)
08.08.2019 12:56 21,7 °C 72 % 1012,0 hPa 0,0 mm 4,2 km/h (1 Bft) N-NO 17 ° 1 min 0,000 mm 6,9 UV-I 925 W/m² 16,4 °C 21,7 °C 6,4 km/h (2 Bft)
08.08.2019 12:57 21,7 °C 71 % 1012,0 hPa 0,0 mm 7,2 km/h (2 Bft) W-NW 288 ° 1 min 0,000 mm 6,7 UV-I 849 W/m² 16,2 °C 21,7 °C 11,3 km/h (2 Bft)
08.08.2019 12:58 21,7 °C 69 % 1012,0 hPa 0,0 mm 8,2 km/h (2 Bft) W 268 ° 1 min 0,000 mm 4,6 UV-I 849 W/m² 15,8 °C 21,7 °C 11,3 km/h (2 Bft)
08.08.2019 12:59 21,6 °C 67 % 1012,0 hPa 0,0 mm 8,2 km/h (2 Bft) W-SW 254 ° 1 min 0,000 mm 7,0 UV-I 849 W/m² 15,2 °C 21,6 °C 11,3 km/h (2 Bft)
08.08.2019 13:00 21,4 °C 68 % 1012,0 hPa 0,0 mm 6,7 km/h (2 Bft) W-NW 288 ° 1 min 0,000 mm 5,4 UV-I 849 W/m² 15,2 °C 21,4 °C 12,9 km/h (3 Bft)
08.08.2019 13:01 21,4 °C 67 % 1012,0 hPa 0,0 mm 6,2 km/h (2 Bft) W-NW 284 ° 1 min 0,432 mm 6,8 UV-I 900 W/m² 15,0 °C 21,4 °C 11,3 km/h (2 Bft)
08.08.2019 13:02 21,4 °C 68 % 1012,0 hPa 0,0 mm 6,2 km/h (2 Bft) W 280 ° 1 min 0,000 mm 6,7 UV-I 886 W/m² 15,2 °C 21,4 °C 9,7 km/h (2 Bft)
08.08.2019 13:03 21,5 °C 68 % 1012,0 hPa 0,0 mm 3,7 km/h (1 Bft) NW 315 ° 1 min 0,000 mm 6,8 UV-I 904 W/m² 15,3 °C 21,5 °C 4,8 km/h (1 Bft)
08.08.2019 13:04 21,6 °C 67 % 1012,0 hPa 0,0 mm 3,4 km/h (1 Bft) W-NW 284 ° 1 min 0,000 mm 6,8 UV-I 895 W/m² 15,2 °C 21,6 °C 6,4 km/h (2 Bft)
08.08.2019 13:05 21,6 °C 67 % 1012,0 hPa 0,0 mm 3,5 km/h (1 Bft) SO 146 ° 1 min 0,000 mm 6,8 UV-I 895 W/m² 15,2 °C 21,6 °C 6,4 km/h (2 Bft)
08.08.2019 13:06 21,7 °C 71 % 1012,0 hPa 0,0 mm 3,9 km/h (1 Bft) SW 217 ° 1 min 0,000 mm 6,8 UV-I 891 W/m² 16,2 °C 21,7 °C 6,4 km/h (2 Bft)
08.08.2019 13:07 21,7 °C 68 % 1012,0 hPa 0,0 mm 2,1 km/h (1 Bft) SW 226 ° 1 min 0,000 mm 6,8 UV-I 895 W/m² 15,5 °C 21,7 °C 3,2 km/h (1 Bft)
08.08.2019 13:08 21,6 °C 67 % 1011,9 hPa 0,0 mm 6,9 km/h (2 Bft) NW 319 ° 1 min 0,000 mm 6,9 UV-I 900 W/m² 15,2 °C 21,6 °C 14,5 km/h (3 Bft)
08.08.2019 13:09 21,6 °C 69 % 1011,9 hPa 0,0 mm 3,2 km/h (1 Bft) W-NW 284 ° 1 min 0,000 mm 6,9 UV-I 904 W/m² 15,7 °C 21,6 °C 11,3 km/h (2 Bft)
08.08.2019 13:10 21,8 °C 68 % 1011,9 hPa 0,0 mm 6,2 km/h (2 Bft) W-NW 293 ° 1 min 0,000 mm 6,9 UV-I 909 W/m² 15,6 °C 21,8 °C 11,3 km/h (2 Bft)
08.08.2019 13:11 21,8 °C 67 % 1011,9 hPa 0,0 mm 1,1 km/h (1 Bft) W-NW 293 ° 1 min 0,000 mm 6,7 UV-I 888 W/m² 15,4 °C 21,8 °C 4,8 km/h (1 Bft)
08.08.2019 13:12 21,8 °C 69 % 1012,0 hPa 0,0 mm 1,5 km/h (1 Bft) W-NW 293 ° 1 min 0,000 mm 6,3 UV-I 831 W/m² 15,9 °C 21,8 °C 3,2 km/h (1 Bft)
08.08.2019 13:13 21,8 °C 69 % 1011,9 hPa 0,0 mm 3,9 km/h (1 Bft) NW 318 ° 1 min 0,000 mm 6,2 UV-I 684 W/m² 15,9 °C 21,8 °C 6,4 km/h (2 Bft)
08.08.2019 13:14 21,9 °C 72 % 1011,9 hPa 0,0 mm 8,7 km/h (2 Bft) W 261 ° 1 min 0,000 mm 6,6 UV-I 684 W/m² 16,6 °C 21,9 °C 11,3 km/h (2 Bft)
08.08.2019 13:15 21,9 °C 70 % 1011,9 hPa 0,0 mm 5,9 km/h (2 Bft) W-SW 250 ° 1 min 0,000 mm 7,0 UV-I 923 W/m² 16,2 °C 21,9 °C 9,7 km/h (2 Bft)
08.08.2019 13:16 21,9 °C 69 % 1011,9 hPa 0,0 mm 4,0 km/h (1 Bft) W-SW 257 ° 1 min 0,000 mm 7,0 UV-I 916 W/m² 15,9 °C 21,9 °C 6,4 km/h (2 Bft)
08.08.2019 13:17 22,1 °C 75 % 1011,9 hPa 0,0 mm 2,4 km/h (1 Bft) W 262 ° 1 min 0,000 mm 6,9 UV-I 909 W/m² 17,5 °C 22,1 °C 4,8 km/h (1 Bft)
08.08.2019 13:18 22,2 °C 71 % 1012,0 hPa 0,0 mm 1,3 km/h (1 Bft) W 262 ° 1 min 0,000 mm 6,9 UV-I 900 W/m² 16,7 °C 22,2 °C 3,2 km/h (1 Bft)
08.08.2019 13:19 22,4 °C 71 % 1011,9 hPa 0,0 mm 1,9 km/h (1 Bft) W-SW 256 ° 1 min 0,000 mm 6,9 UV-I 907 W/m² 16,9 °C 22,4 °C 4,8 km/h (1 Bft)
08.08.2019 13:20 22,6 °C 74 % 1011,9 hPa 0,0 mm 2,1 km/h (1 Bft) S-SW 204 ° 1 min 0,000 mm 6,9 UV-I 905 W/m² 17,7 °C 22,6 °C 4,8 km/h (1 Bft)
08.08.2019 13:21 22,4 °C 64 % 1011,9 hPa 0,0 mm 0,2 km/h (0 Bft) S-SW 210 ° 1 min 0,000 mm 6,9 UV-I 895 W/m² 15,2 °C 22,4 °C 1,6 km/h (1 Bft)
08.08.2019 13:22 22,4 °C 70 % 1011,9 hPa 0,0 mm 1,7 km/h (1 Bft) W-SW 244 ° 1 min 0,000 mm 6,9 UV-I 904 W/m² 16,7 °C 22,4 °C 4,8 km/h (1 Bft)
08.08.2019 13:23 22,4 °C 72 % 1011,9 hPa 0,0 mm 7,3 km/h (2 Bft) W-SW 257 ° 1 min 0,000 mm 6,7 UV-I 884 W/m² 17,1 °C 22,4 °C 12,9 km/h (3 Bft)
08.08.2019 13:24 22,3 °C 68 % 1011,9 hPa 0,0 mm 3,8 km/h (1 Bft) W-NW 294 ° 1 min 0,000 mm 6,0 UV-I 884 W/m² 16,1 °C 22,3 °C 6,4 km/h (2 Bft)
08.08.2019 13:25 22,3 °C 70 % 1012,0 hPa 0,0 mm 6,0 km/h (2 Bft) N-NW 341 ° 1 min 0,000 mm 7,0 UV-I 884 W/m² 16,6 °C 22,3 °C 8,0 km/h (2 Bft)
08.08.2019 13:26 22,4 °C 70 % 1011,9 hPa 0,0 mm 4,5 km/h (1 Bft) N-NW 329 ° 1 min 0,000 mm 6,9 UV-I 905 W/m² 16,7 °C 22,4 °C 8,0 km/h (2 Bft)
08.08.2019 13:27 22,5 °C 68 % 1012,0 hPa 0,0 mm 6,8 km/h (2 Bft) N-NW 328 ° 1 min 0,000 mm 6,4 UV-I 847 W/m² 16,3 °C 22,5 °C 9,7 km/h (2 Bft)
08.08.2019 13:28 22,4 °C 67 % 1012,1 hPa 0,0 mm 7,4 km/h (2 Bft) W 272 ° 1 min 0,000 mm 6,8 UV-I 807 W/m² 16,0 °C 22,4 °C 12,9 km/h (3 Bft)
08.08.2019 13:29 22,3 °C 66 % 1012,0 hPa 0,0 mm 6,5 km/h (2 Bft) W-SW 254 ° 1 min 0,000 mm 6,6 UV-I 846 W/m² 15,6 °C 22,3 °C 9,7 km/h (2 Bft)
08.08.2019 13:30 22,1 °C 66 % 1012,0 hPa 0,0 mm 4,8 km/h (1 Bft) W-NW 296 ° 1 min 0,000 mm 6,1 UV-I 756 W/m² 15,4 °C 22,1 °C 6,4 km/h (2 Bft)
08.08.2019 13:31 22,1 °C 69 % 1012,0 hPa 0,0 mm 3,5 km/h (1 Bft) N-NW 343 ° 1 min 0,000 mm 6,5 UV-I 833 W/m² 16,1 °C 22,1 °C 6,4 km/h (2 Bft)
08.08.2019 13:32 22,0 °C 67 % 1012,0 hPa 0,0 mm 3,5 km/h (1 Bft) W-NW 296 ° 1 min 0,000 mm 6,8 UV-I 874 W/m² 15,6 °C 22,0 °C 4,8 km/h (1 Bft)
08.08.2019 13:33 22,1 °C 70 % 1011,9 hPa 0,0 mm 5,3 km/h (1 Bft) NW 323 ° 1 min 0,000 mm 6,9 UV-I 889 W/m² 16,4 °C 22,1 °C 8,0 km/h (2 Bft)
08.08.2019 13:34 22,2 °C 70 % 1011,9 hPa 0,0 mm 5,0 km/h (1 Bft) NW 325 ° 1 min 0,000 mm 6,8 UV-I 872 W/m² 16,5 °C 22,2 °C 8,0 km/h (2 Bft)
08.08.2019 13:35 22,2 °C 68 % 1011,9 hPa 0,0 mm 5,7 km/h (1 Bft) NW 323 ° 1 min 0,000 mm 6,7 UV-I 891 W/m² 16,0 °C 22,2 °C 9,7 km/h (2 Bft)
08.08.2019 13:36 22,3 °C 67 % 1011,9 hPa 0,0 mm 7,1 km/h (2 Bft) W 261 ° 1 min 0,000 mm 6,3 UV-I 891 W/m² 15,9 °C 22,3 °C 9,7 km/h (2 Bft)
08.08.2019 13:37 22,3 °C 67 % 1011,9 hPa 0,0 mm 8,0 km/h (2 Bft) W 280 ° 1 min 0,000 mm 6,1 UV-I 744 W/m² 15,9 °C 22,3 °C 11,3 km/h (2 Bft)
08.08.2019 13:38 22,2 °C 66 % 1011,9 hPa 0,0 mm 9,6 km/h (2 Bft) W 279 ° 1 min 0,000 mm 6,1 UV-I 830 W/m² 15,5 °C 22,2 °C 12,9 km/h (3 Bft)
08.08.2019 13:39 22,2 °C 68 % 1011,9 hPa 0,0 mm 7,6 km/h (2 Bft) SW 229 ° 1 min 0,000 mm 5,6 UV-I 830 W/m² 16,0 °C 22,2 °C 12,9 km/h (3 Bft)
08.08.2019 13:40 22,1 °C 66 % 1011,9 hPa 0,0 mm 2,2 km/h (1 Bft) SW 232 ° 1 min 0,000 mm 4,2 UV-I 830 W/m² 15,4 °C 22,1 °C 6,4 km/h (2 Bft)
08.08.2019 13:41 22,1 °C 68 % 1011,9 hPa 0,0 mm 1,7 km/h (1 Bft) SW 215 ° 1 min 0,000 mm 4,0 UV-I 830 W/m² 15,9 °C 22,1 °C 3,2 km/h (1 Bft)
08.08.2019 13:42 22,0 °C 70 % 1011,9 hPa 0,0 mm 1,4 km/h (1 Bft) SW 215 ° 1 min 0,000 mm 6,7 UV-I 851 W/m² 16,3 °C 22,0 °C 3,2 km/h (1 Bft)
08.08.2019 13:43 22,1 °C 70 % 1011,9 hPa 0,0 mm 3,0 km/h (1 Bft) NW 318 ° 1 min 0,000 mm 6,8 UV-I 895 W/m² 16,4 °C 22,1 °C 4,8 km/h (1 Bft)
08.08.2019 13:44 22,1 °C 68 % 1011,9 hPa 0,0 mm 8,2 km/h (2 Bft) W-NW 288 ° 1 min 0,000 mm 6,9 UV-I 926 W/m² 15,9 °C 22,1 °C 16,1 km/h (3 Bft)
08.08.2019 13:45 22,1 °C 68 % 1012,0 hPa 0,0 mm 10,1 km/h (2 Bft) W 262 ° 1 min 0,000 mm 6,9 UV-I 923 W/m² 15,9 °C 22,1 °C 14,5 km/h (3 Bft)
08.08.2019 13:46 22,2 °C 67 % 1012,0 hPa 0,0 mm 6,2 km/h (2 Bft) W-NW 302 ° 1 min 0,000 mm 6,9 UV-I 916 W/m² 15,8 °C 22,2 °C 9,7 km/h (2 Bft)
08.08.2019 13:47 22,1 °C 67 % 1012,0 hPa 0,0 mm 9,5 km/h (2 Bft) W-NW 297 ° 1 min 0,000 mm 6,8 UV-I 902 W/m² 15,7 °C 22,1 °C 17,7 km/h (3 Bft)
08.08.2019 13:48 22,2 °C 68 % 1012,0 hPa 0,0 mm 9,8 km/h (2 Bft) W-NW 286 ° 1 min 0,000 mm 6,9 UV-I 925 W/m² 16,0 °C 22,2 °C 16,1 km/h (3 Bft)
08.08.2019 13:49 22,3 °C 70 % 1012,0 hPa 0,0 mm 5,0 km/h (1 Bft) W 277 ° 1 min 0,000 mm 6,9 UV-I 919 W/m² 16,6 °C 22,3 °C 8,0 km/h (2 Bft)
08.08.2019 13:50 22,4 °C 69 % 1012,0 hPa 0,0 mm 4,3 km/h (1 Bft) W 275 ° 1 min 0,000 mm 6,9 UV-I 912 W/m² 16,4 °C 22,4 °C 6,4 km/h (2 Bft)
08.08.2019 13:51 22,6 °C 68 % 1012,0 hPa 0,0 mm 8,0 km/h (2 Bft) W-NW 300 ° 1 min 0,000 mm 6,9 UV-I 912 W/m² 16,4 °C 22,6 °C 14,5 km/h (3 Bft)
08.08.2019 13:52 22,6 °C 67 % 1011,9 hPa 0,0 mm 8,5 km/h (2 Bft) W 279 ° 1 min 0,000 mm 6,9 UV-I 914 W/m² 16,2 °C 22,6 °C 14,5 km/h (3 Bft)
08.08.2019 13:53 22,6 °C 64 % 1012,0 hPa 0,0 mm 11,8 km/h (2 Bft) W-NW 282 ° 1 min 0,000 mm 6,4 UV-I 933 W/m² 15,4 °C 22,6 °C 16,1 km/h (3 Bft)
08.08.2019 13:54 22,4 °C 64 % 1012,0 hPa 0,0 mm 6,0 km/h (2 Bft) NW 310 ° 1 min 0,000 mm 6,9 UV-I 933 W/m² 15,2 °C 22,4 °C 9,7 km/h (2 Bft)
08.08.2019 13:55 22,3 °C 64 % 1012,0 hPa 0,0 mm 5,4 km/h (1 Bft) N-NW 339 ° 1 min 0,000 mm 6,9 UV-I 932 W/m² 15,2 °C 22,3 °C 9,7 km/h (2 Bft)
08.08.2019 13:56 22,2 °C 69 % 1012,0 hPa 0,0 mm 6,6 km/h (2 Bft) W 269 ° 1 min 0,000 mm 6,9 UV-I 930 W/m² 16,2 °C 22,2 °C 12,9 km/h (3 Bft)
08.08.2019 13:57 22,2 °C 68 % 1012,0 hPa 0,0 mm 4,9 km/h (1 Bft) W 270 ° 1 min 0,000 mm 7,0 UV-I 846 W/m² 16,0 °C 22,2 °C 6,4 km/h (2 Bft)
08.08.2019 13:58 22,3 °C 70 % 1012,0 hPa 0,0 mm 5,7 km/h (1 Bft) W 274 ° 1 min 0,000 mm 6,9 UV-I 846 W/m² 16,6 °C 22,3 °C 9,7 km/h (2 Bft)
08.08.2019 13:59 22,3 °C 69 % 1012,0 hPa 0,0 mm 4,6 km/h (1 Bft) SW 232 ° 0 min 0,000 mm 4,8 UV-I 475 W/m² 16,3 °C 22,3 °C 9,7 km/h (2 Bft)
08.08.2019 14:00 22,3 °C 67 % 1011,9 hPa 0,0 mm 3,9 km/h (1 Bft) S-SW 203 ° 0 min 0,000 mm 4,2 UV-I 475 W/m² 15,9 °C 22,3 °C 6,4 km/h (2 Bft)
08.08.2019 14:01 22,2 °C 67 % 1011,9 hPa 0,0 mm 1,1 km/h (1 Bft) S-SW 202 ° 0 min 0,508 mm 6,5 UV-I 475 W/m² 15,8 °C 22,2 °C 3,2 km/h (1 Bft)
08.08.2019 14:02 22,2 °C 69 % 1012,0 hPa 0,0 mm 0,3 km/h (0 Bft) W-SW 246 ° 1 min 0,000 mm 6,6 UV-I 861 W/m² 16,2 °C 22,2 °C 1,6 km/h (1 Bft)
08.08.2019 14:03 22,1 °C 66 % 1012,0 hPa 0,0 mm 3,7 km/h (1 Bft) NW 319 ° 1 min 0,000 mm 6,7 UV-I 877 W/m² 15,4 °C 22,1 °C 6,4 km/h (2 Bft)
08.08.2019 14:04 22,2 °C 68 % 1012,0 hPa 0,0 mm 5,2 km/h (1 Bft) N-NW 333 ° 1 min 0,000 mm 6,6 UV-I 870 W/m² 16,0 °C 22,2 °C 9,7 km/h (2 Bft)
08.08.2019 14:05 22,3 °C 70 % 1012,0 hPa 0,0 mm 7,9 km/h (2 Bft) W-NW 302 ° 1 min 0,000 mm 6,6 UV-I 884 W/m² 16,6 °C 22,3 °C 12,9 km/h (3 Bft)
08.08.2019 14:06 22,3 °C 66 % 1012,0 hPa 0,0 mm 8,4 km/h (2 Bft) NW 308 ° 1 min 0,000 mm 6,7 UV-I 886 W/m² 15,6 °C 22,3 °C 14,5 km/h (3 Bft)
08.08.2019 14:07 22,4 °C 66 % 1012,0 hPa 0,0 mm 7,4 km/h (2 Bft) N-NW 338 ° 1 min 0,000 mm 6,7 UV-I 888 W/m² 15,7 °C 22,4 °C 9,7 km/h (2 Bft)
08.08.2019 14:08 22,6 °C 69 % 1012,0 hPa 0,0 mm 5,8 km/h (2 Bft) W-SW 255 ° 1 min 0,000 mm 6,7 UV-I 882 W/m² 16,6 °C 22,6 °C 9,7 km/h (2 Bft)
08.08.2019 14:09 22,7 °C 70 % 1011,9 hPa 0,0 mm 1,5 km/h (1 Bft) S 181 ° 1 min 0,000 mm 6,6 UV-I 870 W/m² 16,9 °C 22,7 °C 4,8 km/h (1 Bft)
08.08.2019 14:10 22,8 °C 66 % 1011,9 hPa 0,0 mm 8,1 km/h (2 Bft) W-SW 258 ° 1 min 0,000 mm 6,6 UV-I 858 W/m² 16,1 °C 22,8 °C 12,9 km/h (3 Bft)
08.08.2019 14:11 22,8 °C 66 % 1011,9 hPa 0,0 mm 6,7 km/h (2 Bft) S-SW 213 ° 1 min 0,000 mm 6,6 UV-I 854 W/m² 16,1 °C 22,8 °C 9,7 km/h (2 Bft)
08.08.2019 14:12 22,8 °C 65 % 1012,0 hPa 0,0 mm 3,0 km/h (1 Bft) W 278 ° 1 min 0,000 mm 6,5 UV-I 851 W/m² 15,9 °C 22,8 °C 6,4 km/h (2 Bft)
08.08.2019 14:13 22,8 °C 65 % 1012,0 hPa 0,0 mm 5,0 km/h (1 Bft) NW 317 ° 1 min 0,000 mm 6,5 UV-I 853 W/m² 15,9 °C 22,8 °C 6,4 km/h (2 Bft)
08.08.2019 14:14 22,8 °C 64 % 1011,9 hPa 0,0 mm 5,6 km/h (1 Bft) NW 322 ° 1 min 0,000 mm 6,5 UV-I 856 W/m² 15,6 °C 22,8 °C 9,7 km/h (2 Bft)
08.08.2019 14:15 22,9 °C 64 % 1011,9 hPa 0,0 mm 6,5 km/h (2 Bft) N 360 ° 1 min 0,000 mm 6,5 UV-I 851 W/m² 15,7 °C 22,9 °C 12,9 km/h (3 Bft)
08.08.2019 14:16 22,9 °C 65 % 1011,9 hPa 0,0 mm 7,6 km/h (2 Bft) N-NW 342 ° 1 min 0,000 mm 6,5 UV-I 851 W/m² 16,0 °C 22,9 °C 11,3 km/h (2 Bft)
08.08.2019 14:17 23,0 °C 65 % 1012,0 hPa 0,0 mm 7,0 km/h (2 Bft) N-NO 26 ° 1 min 0,000 mm 6,5 UV-I 851 W/m² 16,1 °C 23,0 °C 12,9 km/h (3 Bft)
08.08.2019 14:18 23,0 °C 65 % 1012,0 hPa 0,0 mm 2,0 km/h (1 Bft) N-NO 26 ° 1 min 0,000 mm 6,5 UV-I 856 W/m² 16,1 °C 23,0 °C 4,8 km/h (1 Bft)
08.08.2019 14:19 23,1 °C 66 % 1011,9 hPa 0,0 mm 3,3 km/h (1 Bft) N-NW 333 ° 1 min 0,000 mm 6,5 UV-I 861 W/m² 16,4 °C 23,1 °C 4,8 km/h (1 Bft)
08.08.2019 14:20 23,0 °C 66 % 1011,9 hPa 0,0 mm 5,1 km/h (1 Bft) N-NW 336 ° 1 min 0,000 mm 6,5 UV-I 863 W/m² 16,3 °C 23,0 °C 8,0 km/h (2 Bft)
08.08.2019 14:21 23,1 °C 64 % 1011,9 hPa 0,0 mm 7,8 km/h (2 Bft) W 272 ° 1 min 0,000 mm 6,5 UV-I 861 W/m² 15,9 °C 23,1 °C 12,9 km/h (3 Bft)
08.08.2019 14:22 23,2 °C 67 % 1011,9 hPa 0,0 mm 12,7 km/h (3 Bft) W 275 ° 1 min 0,000 mm 6,6 UV-I 882 W/m² 16,7 °C 23,2 °C 17,7 km/h (3 Bft)
08.08.2019 14:23 23,1 °C 63 % 1012,0 hPa 0,0 mm 11,6 km/h (2 Bft) W-NW 283 ° 1 min 0,000 mm 6,6 UV-I 881 W/m² 15,7 °C 23,1 °C 16,1 km/h (3 Bft)
08.08.2019 14:24 23,1 °C 63 % 1011,9 hPa 0,0 mm 6,5 km/h (2 Bft) NW 317 ° 1 min 0,000 mm 6,5 UV-I 882 W/m² 15,7 °C 23,1 °C 11,3 km/h (2 Bft)
08.08.2019 14:25 23,0 °C 67 % 1011,9 hPa 0,0 mm 4,8 km/h (1 Bft) W 264 ° 1 min 0,000 mm 6,5 UV-I 881 W/m² 16,5 °C 23,0 °C 11,3 km/h (2 Bft)
08.08.2019 14:26 22,9 °C 63 % 1011,9 hPa 0,0 mm 8,7 km/h (2 Bft) N-NW 329 ° 1 min 0,000 mm 6,5 UV-I 882 W/m² 15,5 °C 22,9 °C 12,9 km/h (3 Bft)
08.08.2019 14:27 22,9 °C 68 % 1011,9 hPa 0,0 mm 4,1 km/h (1 Bft) W-NW 294 ° 1 min 0,000 mm 6,5 UV-I 886 W/m² 16,7 °C 22,9 °C 6,4 km/h (2 Bft)
08.08.2019 14:28 23,0 °C 67 % 1011,9 hPa 0,0 mm 4,3 km/h (1 Bft) NW 321 ° 1 min 0,000 mm 6,5 UV-I 877 W/m² 16,5 °C 23,0 °C 6,4 km/h (2 Bft)
08.08.2019 14:29 23,1 °C 65 % 1012,0 hPa 0,0 mm 8,3 km/h (2 Bft) N-NW 330 ° 1 min 0,000 mm 6,5 UV-I 874 W/m² 16,2 °C 23,1 °C 12,9 km/h (3 Bft)
08.08.2019 14:30 23,2 °C 68 % 1011,9 hPa 0,0 mm 7,4 km/h (2 Bft) SW 234 ° 1 min 0,000 mm 6,5 UV-I 872 W/m² 17,0 °C 23,2 °C 11,3 km/h (2 Bft)
08.08.2019 14:31 23,2 °C 65 % 1012,0 hPa 0,0 mm 7,0 km/h (2 Bft) NW 324 ° 1 min 0,000 mm 6,4 UV-I 874 W/m² 16,2 °C 23,2 °C 12,9 km/h (3 Bft)
08.08.2019 14:32 23,2 °C 64 % 1011,9 hPa 0,0 mm 6,1 km/h (2 Bft) N-NW 327 ° 1 min 0,000 mm 6,5 UV-I 875 W/m² 16,0 °C 23,2 °C 9,7 km/h (2 Bft)
08.08.2019 14:33 23,2 °C 63 % 1012,0 hPa 0,0 mm 5,1 km/h (1 Bft) W-NW 291 ° 1 min 0,000 mm 6,5 UV-I 877 W/m² 15,8 °C 23,2 °C 11,3 km/h (2 Bft)
08.08.2019 14:34 23,1 °C 63 % 1011,9 hPa 0,0 mm 3,6 km/h (1 Bft) W-NW 300 ° 1 min 0,000 mm 6,4 UV-I 872 W/m² 15,7 °C 23,1 °C 4,8 km/h (1 Bft)
08.08.2019 14:35 22,9 °C 64 % 1011,9 hPa 0,0 mm 4,1 km/h (1 Bft) W 279 ° 1 min 0,000 mm 6,4 UV-I 874 W/m² 15,7 °C 22,9 °C 9,7 km/h (2 Bft)
08.08.2019 14:36 22,9 °C 64 % 1011,9 hPa 0,0 mm 4,7 km/h (1 Bft) W-NW 301 ° 1 min 0,000 mm 6,4 UV-I 884 W/m² 15,7 °C 22,9 °C 11,3 km/h (2 Bft)
08.08.2019 14:37 22,9 °C 66 % 1011,9 hPa 0,0 mm 3,2 km/h (1 Bft) N-NW 337 ° 1 min 0,000 mm 6,5 UV-I 912 W/m² 16,2 °C 22,9 °C 9,7 km/h (2 Bft)
08.08.2019 14:38 23,1 °C 68 % 1011,9 hPa 0,0 mm 4,4 km/h (1 Bft) N-NW 337 ° 1 min 0,000 mm 6,5 UV-I 921 W/m² 16,9 °C 23,1 °C 9,7 km/h (2 Bft)
08.08.2019 14:39 23,2 °C 64 % 1012,0 hPa 0,0 mm 10,2 km/h (2 Bft) W-NW 285 ° 1 min 0,000 mm 6,4 UV-I 919 W/m² 16,0 °C 23,2 °C 14,5 km/h (3 Bft)
08.08.2019 14:40 23,2 °C 65 % 1011,9 hPa 0,0 mm 7,6 km/h (2 Bft) W 281 ° 1 min 0,000 mm 6,4 UV-I 865 W/m² 16,2 °C 23,2 °C 11,3 km/h (2 Bft)
08.08.2019 14:41 23,2 °C 63 % 1011,9 hPa 0,0 mm 13,5 km/h (3 Bft) W 281 ° 1 min 0,000 mm 6,3 UV-I 863 W/m² 15,8 °C 23,2 °C 20,9 km/h (4 Bft)
08.08.2019 14:42 23,2 °C 61 % 1011,9 hPa 0,0 mm 11,4 km/h (2 Bft) N-NW 333 ° 1 min 0,000 mm 6,3 UV-I 860 W/m² 15,3 °C 23,2 °C 16,1 km/h (3 Bft)
08.08.2019 14:43 23,0 °C 63 % 1011,9 hPa 0,0 mm 10,2 km/h (2 Bft) W-NW 297 ° 1 min 0,000 mm 6,2 UV-I 851 W/m² 15,6 °C 23,0 °C 16,1 km/h (3 Bft)
08.08.2019 14:44 23,0 °C 64 % 1011,9 hPa 0,0 mm 9,8 km/h (2 Bft) W 274 ° 1 min 0,000 mm 6,2 UV-I 844 W/m² 15,8 °C 23,0 °C 14,5 km/h (3 Bft)
08.08.2019 14:45 22,9 °C 62 % 1011,8 hPa 0,0 mm 11,0 km/h (2 Bft) NW 308 ° 1 min 0,000 mm 6,1 UV-I 838 W/m² 15,2 °C 22,9 °C 14,5 km/h (3 Bft)
08.08.2019 14:46 22,9 °C 61 % 1011,8 hPa 0,0 mm 5,7 km/h (1 Bft) W 275 ° 1 min 0,000 mm 6,1 UV-I 853 W/m² 15,0 °C 22,9 °C 8,0 km/h (2 Bft)
08.08.2019 14:47 22,9 °C 62 % 1011,9 hPa 0,0 mm 8,4 km/h (2 Bft) NW 318 ° 1 min 0,000 mm 6,1 UV-I 846 W/m² 15,2 °C 22,9 °C 12,9 km/h (3 Bft)
08.08.2019 14:48 22,9 °C 65 % 1011,9 hPa 0,0 mm 9,9 km/h (2 Bft) W 272 ° 1 min 0,000 mm 6,0 UV-I 842 W/m² 16,0 °C 22,9 °C 14,5 km/h (3 Bft)
08.08.2019 14:49 23,1 °C 64 % 1011,9 hPa 0,0 mm 9,0 km/h (2 Bft) W 276 ° 1 min 0,000 mm 6,1 UV-I 835 W/m² 15,9 °C 23,1 °C 12,9 km/h (3 Bft)
08.08.2019 14:50 23,1 °C 64 % 1011,8 hPa 0,0 mm 10,1 km/h (2 Bft) W-NW 286 ° 1 min 0,000 mm 6,0 UV-I 856 W/m² 15,9 °C 23,1 °C 12,9 km/h (3 Bft)
08.08.2019 14:51 23,1 °C 64 % 1011,8 hPa 0,0 mm 7,6 km/h (2 Bft) W-NW 288 ° 1 min 0,000 mm 5,9 UV-I 819 W/m² 15,9 °C 23,1 °C 12,9 km/h (3 Bft)
08.08.2019 14:52 23,1 °C 64 % 1011,8 hPa 0,0 mm 6,8 km/h (2 Bft) NW 313 ° 1 min 0,000 mm 6,1 UV-I 833 W/m² 15,9 °C 23,1 °C 9,7 km/h (2 Bft)
08.08.2019 14:53 22,9 °C 63 % 1011,8 hPa 0,0 mm 2,4 km/h (1 Bft) W-NW 284 ° 1 min 0,000 mm 5,5 UV-I 729 W/m² 15,5 °C 22,9 °C 6,4 km/h (2 Bft)
08.08.2019 14:54 22,9 °C 63 % 1011,7 hPa 0,0 mm 2,0 km/h (1 Bft) NW 312 ° 1 min 0,000 mm 6,0 UV-I 729 W/m² 15,5 °C 22,9 °C 11,3 km/h (2 Bft)
08.08.2019 14:55 22,9 °C 64 % 1011,8 hPa 0,0 mm 7,0 km/h (2 Bft) W 268 ° 1 min 0,000 mm 6,0 UV-I 838 W/m² 15,7 °C 22,9 °C 12,9 km/h (3 Bft)
08.08.2019 14:56 22,9 °C 63 % 1011,7 hPa 0,0 mm 4,3 km/h (1 Bft) W-NW 302 ° 1 min 0,000 mm 6,0 UV-I 833 W/m² 15,5 °C 22,9 °C 6,4 km/h (2 Bft)
08.08.2019 14:57 22,9 °C 64 % 1011,8 hPa 0,0 mm 10,5 km/h (2 Bft) W 269 ° 1 min 0,000 mm 5,0 UV-I 661 W/m² 15,7 °C 22,9 °C 17,7 km/h (3 Bft)
08.08.2019 14:58 22,9 °C 62 % 1011,8 hPa 0,0 mm 8,3 km/h (2 Bft) W-NW 301 ° 1 min 0,000 mm 5,2 UV-I 682 W/m² 15,2 °C 22,9 °C 14,5 km/h (3 Bft)
08.08.2019 14:59 22,8 °C 64 % 1011,8 hPa 0,0 mm 6,7 km/h (2 Bft) NW 315 ° 1 min 0,000 mm 5,5 UV-I 737 W/m² 15,6 °C 22,8 °C 9,7 km/h (2 Bft)
08.08.2019 15:00 22,8 °C 63 % 1011,8 hPa 0,0 mm 4,0 km/h (1 Bft) NW 318 ° 1 min 0,000 mm 5,8 UV-I 784 W/m² 15,4 °C 22,8 °C 8,0 km/h (2 Bft)
08.08.2019 15:01 22,7 °C 62 % 1011,8 hPa 0,0 mm 4,6 km/h (1 Bft) W-NW 286 ° 1 min 0,559 mm 5,4 UV-I 742 W/m² 15,0 °C 22,7 °C 6,4 km/h (2 Bft)
08.08.2019 15:02 22,7 °C 62 % 1011,7 hPa 0,0 mm 4,8 km/h (1 Bft) W-NW 289 ° 1 min 0,000 mm 5,6 UV-I 745 W/m² 15,0 °C 22,7 °C 4,8 km/h (1 Bft)
08.08.2019 15:03 22,6 °C 64 % 1011,8 hPa 0,0 mm 4,4 km/h (1 Bft) NW 317 ° 1 min 0,000 mm 5,7 UV-I 795 W/m² 15,4 °C 22,6 °C 6,4 km/h (2 Bft)
08.08.2019 15:04 22,7 °C 64 % 1011,8 hPa 0,0 mm 3,4 km/h (1 Bft) NW 324 ° 1 min 0,000 mm 5,6 UV-I 745 W/m² 15,5 °C 22,7 °C 6,4 km/h (2 Bft)
08.08.2019 15:05 22,7 °C 62 % 1011,7 hPa 0,0 mm 7,0 km/h (2 Bft) N 355 ° 1 min 0,000 mm 5,4 UV-I 694 W/m² 15,0 °C 22,7 °C 12,9 km/h (3 Bft)
08.08.2019 15:06 22,8 °C 64 % 1011,7 hPa 0,0 mm 5,4 km/h (1 Bft) W-NW 290 ° 1 min 0,000 mm 5,4 UV-I 747 W/m² 15,6 °C 22,8 °C 11,3 km/h (2 Bft)
08.08.2019 15:07 22,8 °C 66 % 1011,7 hPa 0,0 mm 6,4 km/h (2 Bft) NW 315 ° 1 min 0,000 mm 5,3 UV-I 744 W/m² 16,1 °C 22,8 °C 12,9 km/h (3 Bft)
08.08.2019 15:08 22,8 °C 63 % 1011,7 hPa 0,0 mm 6,3 km/h (2 Bft) N-NO 13 ° 1 min 0,000 mm 4,8 UV-I 673 W/m² 15,4 °C 22,8 °C 14,5 km/h (3 Bft)
08.08.2019 15:09 22,8 °C 65 % 1011,7 hPa 0,0 mm 8,6 km/h (2 Bft) N-NW 330 ° 1 min 0,000 mm 5,2 UV-I 666 W/m² 15,9 °C 22,8 °C 12,9 km/h (3 Bft)
08.08.2019 15:10 22,9 °C 65 % 1011,7 hPa 0,0 mm 5,1 km/h (1 Bft) N-NW 343 ° 1 min 0,000 mm 5,2 UV-I 714 W/m² 16,0 °C 22,9 °C 14,5 km/h (3 Bft)
08.08.2019 15:11 22,9 °C 63 % 1011,7 hPa 0,0 mm 2,7 km/h (1 Bft) N-NW 327 ° 1 min 0,000 mm 5,1 UV-I 691 W/m² 15,5 °C 22,9 °C 6,4 km/h (2 Bft)
08.08.2019 15:12 22,9 °C 64 % 1011,7 hPa 0,0 mm 7,1 km/h (2 Bft) NW 315 ° 1 min 0,000 mm 5,2 UV-I 726 W/m² 15,7 °C 22,9 °C 14,5 km/h (3 Bft)
08.08.2019 15:13 22,9 °C 63 % 1011,7 hPa 0,0 mm 5,1 km/h (1 Bft) N-NW 331 ° 1 min 0,000 mm 5,0 UV-I 689 W/m² 15,5 °C 22,9 °C 8,0 km/h (2 Bft)
08.08.2019 15:14 22,9 °C 63 % 1011,7 hPa 0,0 mm 6,4 km/h (2 Bft) NW 309 ° 1 min 0,000 mm 4,8 UV-I 628 W/m² 15,5 °C 22,9 °C 9,7 km/h (2 Bft)
08.08.2019 15:15 22,9 °C 62 % 1011,7 hPa 0,0 mm 5,6 km/h (1 Bft) NW 322 ° 1 min 0,000 mm 5,2 UV-I 770 W/m² 15,2 °C 22,9 °C 9,7 km/h (2 Bft)
08.08.2019 15:16 22,9 °C 62 % 1011,8 hPa 0,0 mm 10,0 km/h (2 Bft) W 272 ° 1 min 0,000 mm 5,6 UV-I 772 W/m² 15,2 °C 22,9 °C 14,5 km/h (3 Bft)
08.08.2019 15:17 22,8 °C 60 % 1011,7 hPa 0,0 mm 9,0 km/h (2 Bft) W-NW 296 ° 1 min 0,000 mm 5,7 UV-I 817 W/m² 14,6 °C 22,8 °C 12,9 km/h (3 Bft)
08.08.2019 15:18 22,8 °C 62 % 1011,8 hPa 0,0 mm 6,9 km/h (2 Bft) W-NW 294 ° 1 min 0,000 mm 5,5 UV-I 761 W/m² 15,1 °C 22,8 °C 11,3 km/h (2 Bft)
08.08.2019 15:19 22,8 °C 63 % 1011,7 hPa 0,0 mm 8,4 km/h (2 Bft) NW 319 ° 1 min 0,000 mm 5,5 UV-I 782 W/m² 15,4 °C 22,8 °C 11,3 km/h (2 Bft)
08.08.2019 15:20 22,8 °C 63 % 1011,6 hPa 0,0 mm 6,8 km/h (2 Bft) NW 308 ° 1 min 0,000 mm 5,5 UV-I 775 W/m² 15,4 °C 22,8 °C 9,7 km/h (2 Bft)
08.08.2019 15:21 22,9 °C 62 % 1011,7 hPa 0,0 mm 6,3 km/h (2 Bft) N-NW 336 ° 1 min 0,000 mm 5,4 UV-I 779 W/m² 15,2 °C 22,9 °C 8,0 km/h (2 Bft)
08.08.2019 15:22 23,0 °C 64 % 1011,6 hPa 0,0 mm 1,6 km/h (1 Bft) NW 316 ° 1 min 0,000 mm 5,5 UV-I 789 W/m² 15,8 °C 23,0 °C 4,8 km/h (1 Bft)
08.08.2019 15:23 22,9 °C 61 % 1011,6 hPa 0,0 mm 0,7 km/h (0 Bft) NW 316 ° 1 min 0,000 mm 5,5 UV-I 793 W/m² 15,0 °C 22,9 °C 3,2 km/h (1 Bft)
08.08.2019 15:24 22,9 °C 64 % 1011,5 hPa 0,0 mm 0,3 km/h (0 Bft) NW 316 ° 1 min 0,000 mm 5,3 UV-I 768 W/m² 15,7 °C 22,9 °C 1,6 km/h (1 Bft)
08.08.2019 15:25 22,9 °C 66 % 1011,5 hPa 0,0 mm 0,5 km/h (0 Bft) NW 316 ° 1 min 0,000 mm 5,1 UV-I 738 W/m² 16,2 °C 22,9 °C 3,2 km/h (1 Bft)
08.08.2019 15:26 22,9 °C 63 % 1011,5 hPa 0,0 mm 3,6 km/h (1 Bft) NW 315 ° 1 min 0,000 mm 5,2 UV-I 700 W/m² 15,5 °C 22,9 °C 8,0 km/h (2 Bft)
08.08.2019 15:27 23,0 °C 63 % 1011,5 hPa 0,0 mm 9,9 km/h (2 Bft) N-NW 335 ° 1 min 0,000 mm 5,1 UV-I 679 W/m² 15,6 °C 23,0 °C 17,7 km/h (3 Bft)
08.08.2019 15:28 23,1 °C 63 % 1011,5 hPa 0,0 mm 10,7 km/h (2 Bft) W 271 ° 1 min 0,000 mm 5,0 UV-I 682 W/m² 15,7 °C 23,1 °C 17,7 km/h (3 Bft)
08.08.2019 15:29 23,1 °C 64 % 1011,5 hPa 0,0 mm 6,0 km/h (2 Bft) NW 325 ° 1 min 0,000 mm 5,2 UV-I 738 W/m² 15,9 °C 23,1 °C 8,0 km/h (2 Bft)
08.08.2019 15:30 23,1 °C 64 % 1011,5 hPa 0,0 mm 5,2 km/h (1 Bft) NW 325 ° 1 min 0,000 mm 5,1 UV-I 722 W/m² 15,9 °C 23,1 °C 11,3 km/h (2 Bft)
08.08.2019 15:31 23,1 °C 63 % 1011,4 hPa 0,0 mm 6,8 km/h (2 Bft) W 281 ° 1 min 0,000 mm 5,1 UV-I 738 W/m² 15,7 °C 23,1 °C 8,0 km/h (2 Bft)
08.08.2019 15:32 23,0 °C 60 % 1011,5 hPa 0,0 mm 5,6 km/h (1 Bft) NW 309 ° 1 min 0,000 mm 5,2 UV-I 744 W/m² 14,8 °C 23,0 °C 8,0 km/h (2 Bft)
08.08.2019 15:33 22,9 °C 62 % 1011,5 hPa 0,0 mm 1,7 km/h (1 Bft) NW 311 ° 1 min 0,000 mm 5,2 UV-I 758 W/m² 15,2 °C 22,9 °C 3,2 km/h (1 Bft)
08.08.2019 15:34 22,9 °C 61 % 1011,5 hPa 0,0 mm 5,4 km/h (1 Bft) NW 315 ° 1 min 0,000 mm 5,0 UV-I 779 W/m² 15,0 °C 22,9 °C 9,7 km/h (2 Bft)
08.08.2019 15:35 22,9 °C 64 % 1011,5 hPa 0,0 mm 6,1 km/h (2 Bft) W-NW 292 ° 1 min 0,000 mm 5,2 UV-I 788 W/m² 15,7 °C 22,9 °C 8,0 km/h (2 Bft)
08.08.2019 15:36 22,9 °C 59 % 1011,5 hPa 0,0 mm 3,4 km/h (1 Bft) W-NW 292 ° 1 min 0,000 mm 5,1 UV-I 763 W/m² 14,5 °C 22,9 °C 4,8 km/h (1 Bft)
08.08.2019 15:37 22,8 °C 61 % 1011,4 hPa 0,0 mm 0,4 km/h (0 Bft) W-NW 292 ° 1 min 0,000 mm 4,8 UV-I 759 W/m² 14,9 °C 22,8 °C 3,2 km/h (1 Bft)
08.08.2019 15:38 22,7 °C 60 % 1011,5 hPa 0,0 mm 2,0 km/h (1 Bft) W-NW 291 ° 1 min 0,000 mm 5,0 UV-I 719 W/m² 14,5 °C 22,7 °C 4,8 km/h (1 Bft)
08.08.2019 15:39 22,7 °C 60 % 1011,4 hPa 0,0 mm 8,9 km/h (2 Bft) W-NW 303 ° 1 min 0,000 mm 5,0 UV-I 738 W/m² 14,5 °C 22,7 °C 14,5 km/h (3 Bft)
08.08.2019 15:40 22,7 °C 61 % 1011,5 hPa 0,0 mm 6,8 km/h (2 Bft) NW 309 ° 1 min 0,000 mm 4,9 UV-I 714 W/m² 14,8 °C 22,7 °C 12,9 km/h (3 Bft)
08.08.2019 15:41 22,7 °C 60 % 1011,5 hPa 0,0 mm 6,2 km/h (2 Bft) N-NW 331 ° 1 min 0,000 mm 4,9 UV-I 701 W/m² 14,5 °C 22,7 °C 8,0 km/h (2 Bft)
08.08.2019 15:42 22,8 °C 60 % 1011,5 hPa 0,0 mm 7,6 km/h (2 Bft) NW 314 ° 1 min 0,000 mm 5,0 UV-I 735 W/m² 14,6 °C 22,8 °C 12,9 km/h (3 Bft)
08.08.2019 15:43 22,8 °C 60 % 1011,4 hPa 0,0 mm 5,0 km/h (1 Bft) W 279 ° 1 min 0,000 mm 5,0 UV-I 733 W/m² 14,6 °C 22,8 °C 6,4 km/h (2 Bft)
08.08.2019 15:44 22,8 °C 62 % 1011,4 hPa 0,0 mm 10,4 km/h (2 Bft) N-NO 22 ° 1 min 0,000 mm 5,0 UV-I 752 W/m² 15,1 °C 22,8 °C 17,7 km/h (3 Bft)
08.08.2019 15:45 22,9 °C 64 % 1011,4 hPa 0,0 mm 6,5 km/h (2 Bft) NW 304 ° 1 min 0,000 mm 5,0 UV-I 747 W/m² 15,7 °C 22,9 °C 11,3 km/h (2 Bft)
08.08.2019 15:46 23,1 °C 64 % 1011,4 hPa 0,0 mm 4,9 km/h (1 Bft) N 5 ° 1 min 0,000 mm 5,0 UV-I 759 W/m² 15,9 °C 23,1 °C 12,9 km/h (3 Bft)
08.08.2019 15:47 23,2 °C 64 % 1011,4 hPa 0,0 mm 6,8 km/h (2 Bft) NW 325 ° 1 min 0,000 mm 5,0 UV-I 758 W/m² 16,0 °C 23,2 °C 12,9 km/h (3 Bft)
08.08.2019 15:48 23,3 °C 59 % 1011,4 hPa 0,0 mm 8,2 km/h (2 Bft) N-NW 346 ° 1 min 0,000 mm 5,0 UV-I 756 W/m² 14,8 °C 23,3 °C 12,9 km/h (3 Bft)
08.08.2019 15:49 23,2 °C 59 % 1011,4 hPa 0,0 mm 5,2 km/h (1 Bft) N-NO 22 ° 1 min 0,000 mm 4,9 UV-I 740 W/m² 14,7 °C 23,2 °C 6,4 km/h (2 Bft)
08.08.2019 15:50 23,3 °C 61 % 1011,4 hPa 0,0 mm 5,8 km/h (2 Bft) NW 307 ° 1 min 0,000 mm 4,9 UV-I 733 W/m² 15,3 °C 23,3 °C 9,7 km/h (2 Bft)
08.08.2019 15:51 23,2 °C 60 % 1011,4 hPa 0,0 mm 6,8 km/h (2 Bft) N 360 ° 1 min 0,000 mm 4,9 UV-I 733 W/m² 15,0 °C 23,2 °C 12,9 km/h (3 Bft)
08.08.2019 15:52 23,2 °C 63 % 1011,4 hPa 0,0 mm 4,6 km/h (1 Bft) N-NW 330 ° 1 min 0,000 mm 4,8 UV-I 726 W/m² 15,8 °C 23,2 °C 6,4 km/h (2 Bft)
08.08.2019 15:53 23,2 °C 59 % 1011,4 hPa 0,0 mm 5,3 km/h (1 Bft) NW 321 ° 1 min 0,000 mm 4,8 UV-I 724 W/m² 14,7 °C 23,2 °C 8,0 km/h (2 Bft)
08.08.2019 15:54 23,2 °C 59 % 1011,4 hPa 0,0 mm 6,4 km/h (2 Bft) N 350 ° 1 min 0,000 mm 4,8 UV-I 728 W/m² 14,7 °C 23,2 °C 9,7 km/h (2 Bft)
08.08.2019 15:55 23,2 °C 61 % 1011,3 hPa 0,0 mm 7,0 km/h (2 Bft) N 11 ° 1 min 0,000 mm 4,8 UV-I 724 W/m² 15,3 °C 23,2 °C 9,7 km/h (2 Bft)
08.08.2019 15:56 23,2 °C 59 % 1011,4 hPa 0,0 mm 3,8 km/h (1 Bft) N 360 ° 1 min 0,000 mm 4,8 UV-I 735 W/m² 14,7 °C 23,2 °C 6,4 km/h (2 Bft)
08.08.2019 15:57 23,1 °C 59 % 1011,3 hPa 0,0 mm 1,7 km/h (1 Bft) N 5 ° 1 min 0,000 mm 4,7 UV-I 740 W/m² 14,6 °C 23,1 °C 3,2 km/h (1 Bft)
08.08.2019 15:58 23,1 °C 60 % 1011,3 hPa 0,0 mm 6,4 km/h (2 Bft) N 10 ° 1 min 0,000 mm 4,7 UV-I 744 W/m² 14,9 °C 23,1 °C 9,7 km/h (2 Bft)
08.08.2019 15:59 23,2 °C 59 % 1011,3 hPa 0,0 mm 3,6 km/h (1 Bft) O 94 ° 1 min 0,000 mm 4,7 UV-I 742 W/m² 14,7 °C 23,2 °C 6,4 km/h (2 Bft)
08.08.2019 16:00 23,1 °C 57 % 1011,3 hPa 0,0 mm 5,7 km/h (1 Bft) N-NO 32 ° 1 min 0,000 mm 4,6 UV-I 744 W/m² 14,1 °C 23,1 °C 12,9 km/h (3 Bft)
08.08.2019 16:01 23,1 °C 60 % 1011,4 hPa 0,0 mm 8,8 km/h (2 Bft) O-NO 65 ° 1 min 0,482 mm 4,6 UV-I 744 W/m² 14,9 °C 23,1 °C 12,9 km/h (3 Bft)
08.08.2019 16:02 23,0 °C 62 % 1011,3 hPa 0,0 mm 5,1 km/h (1 Bft) O-NO 76 ° 1 min 0,000 mm 4,5 UV-I 735 W/m² 15,3 °C 23,0 °C 8,0 km/h (2 Bft)
08.08.2019 16:03 23,0 °C 59 % 1011,4 hPa 0,0 mm 3,3 km/h (1 Bft) NO 41 ° 1 min 0,000 mm 4,4 UV-I 726 W/m² 14,5 °C 23,0 °C 6,4 km/h (2 Bft)
08.08.2019 16:04 23,1 °C 60 % 1011,4 hPa 0,0 mm 2,0 km/h (1 Bft) NO 40 ° 1 min 0,000 mm 4,3 UV-I 722 W/m² 14,9 °C 23,1 °C 3,2 km/h (1 Bft)
08.08.2019 16:05 23,2 °C 61 % 1011,4 hPa 0,0 mm 4,1 km/h (1 Bft) N-NW 346 ° 1 min 0,000 mm 4,2 UV-I 717 W/m² 15,3 °C 23,2 °C 6,4 km/h (2 Bft)
08.08.2019 16:06 23,2 °C 63 % 1011,4 hPa 0,0 mm 7,3 km/h (2 Bft) NW 306 ° 1 min 0,000 mm 4,2 UV-I 717 W/m² 15,8 °C 23,2 °C 11,3 km/h (2 Bft)
08.08.2019 16:07 23,2 °C 61 % 1011,4 hPa 0,0 mm 2,0 km/h (1 Bft) NW 304 ° 1 min 0,000 mm 4,2 UV-I 715 W/m² 15,3 °C 23,2 °C 4,8 km/h (1 Bft)
08.08.2019 16:08 23,2 °C 61 % 1011,4 hPa 0,0 mm 3,8 km/h (1 Bft) N-NW 341 ° 1 min 0,000 mm 4,1 UV-I 705 W/m² 15,3 °C 23,2 °C 8,0 km/h (2 Bft)
08.08.2019 16:09 23,2 °C 60 % 1011,3 hPa 0,0 mm 5,1 km/h (1 Bft) NW 316 ° 1 min 0,000 mm 3,4 UV-I 691 W/m² 15,0 °C 23,2 °C 8,0 km/h (2 Bft)
08.08.2019 16:10 23,3 °C 61 % 1011,3 hPa 0,0 mm 6,2 km/h (2 Bft) W-NW 288 ° 1 min 0,000 mm 3,2 UV-I 682 W/m² 15,3 °C 23,3 °C 11,3 km/h (2 Bft)
08.08.2019 16:11 23,3 °C 62 % 1011,4 hPa 0,0 mm 8,8 km/h (2 Bft) NW 304 ° 1 min 0,000 mm 3,5 UV-I 684 W/m² 15,6 °C 23,3 °C 11,3 km/h (2 Bft)
08.08.2019 16:12 23,3 °C 64 % 1011,4 hPa 0,0 mm 4,2 km/h (1 Bft) NW 321 ° 1 min 0,000 mm 3,4 UV-I 684 W/m² 16,1 °C 23,3 °C 6,4 km/h (2 Bft)
08.08.2019 16:13 23,3 °C 63 % 1011,4 hPa 0,0 mm 5,8 km/h (2 Bft) NW 305 ° 1 min 0,000 mm 3,0 UV-I 684 W/m² 15,9 °C 23,3 °C 12,9 km/h (3 Bft)
08.08.2019 16:14 23,3 °C 60 % 1011,4 hPa 0,0 mm 4,2 km/h (1 Bft) W-SW 253 ° 0 min 0,000 mm 2,2 UV-I 113 W/m² 15,1 °C 23,3 °C 8,0 km/h (2 Bft)
08.08.2019 16:15 23,3 °C 59 % 1011,4 hPa 0,0 mm 8,1 km/h (2 Bft) W-NW 290 ° 0 min 0,000 mm 2,2 UV-I 113 W/m² 14,8 °C 23,3 °C 11,3 km/h (2 Bft)
08.08.2019 16:16 23,1 °C 59 % 1011,4 hPa 0,0 mm 3,7 km/h (1 Bft) W-NW 298 ° 0 min 0,000 mm 2,2 UV-I 113 W/m² 14,6 °C 23,1 °C 6,4 km/h (2 Bft)
08.08.2019 16:17 22,9 °C 59 % 1011,4 hPa 0,0 mm 2,4 km/h (1 Bft) W-NW 294 ° 0 min 0,000 mm 2,2 UV-I 114 W/m² 14,5 °C 22,9 °C 6,4 km/h (2 Bft)
08.08.2019 16:18 22,8 °C 60 % 1011,3 hPa 0,0 mm 2,0 km/h (1 Bft) NW 311 ° 0 min 0,000 mm 2,2 UV-I 120 W/m² 14,6 °C 22,8 °C 4,8 km/h (1 Bft)
08.08.2019 16:19 22,9 °C 63 % 1011,3 hPa 0,0 mm 3,0 km/h (1 Bft) N-NW 338 ° 0 min 0,000 mm 2,2 UV-I 132 W/m² 15,5 °C 22,9 °C 6,4 km/h (2 Bft)
08.08.2019 16:20 22,9 °C 61 % 1011,3 hPa 0,0 mm 4,1 km/h (1 Bft) N-NW 337 ° 0 min 0,000 mm 2,2 UV-I 134 W/m² 15,0 °C 22,9 °C 8,0 km/h (2 Bft)
08.08.2019 16:21 23,0 °C 64 % 1011,4 hPa 0,0 mm 7,0 km/h (2 Bft) W 267 ° 0 min 0,000 mm 2,2 UV-I 139 W/m² 15,8 °C 23,0 °C 12,9 km/h (3 Bft)
08.08.2019 16:22 23,1 °C 63 % 1011,4 hPa 0,0 mm 3,8 km/h (1 Bft) W-NW 292 ° 0 min 0,000 mm 2,2 UV-I 148 W/m² 15,7 °C 23,1 °C 6,4 km/h (2 Bft)
08.08.2019 16:23 23,0 °C 61 % 1011,4 hPa 0,0 mm 3,0 km/h (1 Bft) W-NW 295 ° 0 min 0,000 mm 2,2 UV-I 146 W/m² 15,1 °C 23,0 °C 4,8 km/h (1 Bft)
08.08.2019 16:24 23,0 °C 61 % 1011,4 hPa 0,0 mm 7,8 km/h (2 Bft) W 267 ° 0 min 0,000 mm 2,2 UV-I 142 W/m² 15,1 °C 23,0 °C 12,9 km/h (3 Bft)
08.08.2019 16:25 23,0 °C 61 % 1011,4 hPa 0,0 mm 6,7 km/h (2 Bft) W-NW 301 ° 0 min 0,000 mm 2,2 UV-I 114 W/m² 15,1 °C 23,0 °C 9,7 km/h (2 Bft)
08.08.2019 16:26 23,0 °C 62 % 1011,4 hPa 0,0 mm 7,0 km/h (2 Bft) W-NW 288 ° 0 min 0,000 mm 2,1 UV-I 105 W/m² 15,3 °C 23,0 °C 12,9 km/h (3 Bft)
08.08.2019 16:27 22,9 °C 61 % 1011,4 hPa 0,0 mm 5,0 km/h (1 Bft) W-NW 295 ° 0 min 0,000 mm 2,1 UV-I 98 W/m² 15,0 °C 22,9 °C 8,0 km/h (2 Bft)
08.08.2019 16:28 22,9 °C 60 % 1011,4 hPa 0,0 mm 2,6 km/h (1 Bft) SW 218 ° 0 min 0,000 mm 2,0 UV-I 95 W/m² 14,7 °C 22,9 °C 4,8 km/h (1 Bft)
08.08.2019 16:29 22,8 °C 61 % 1011,4 hPa 0,0 mm 1,3 km/h (1 Bft) W-SW 252 ° 0 min 0,000 mm 2,0 UV-I 93 W/m² 14,9 °C 22,8 °C 3,2 km/h (1 Bft)
08.08.2019 16:30 22,8 °C 61 % 1011,5 hPa 0,0 mm 1,5 km/h (1 Bft) W-SW 252 ° 0 min 0,000 mm 2,0 UV-I 91 W/m² 14,9 °C 22,8 °C 3,2 km/h (1 Bft)
08.08.2019 16:31 22,8 °C 61 % 1011,4 hPa 0,0 mm 2,7 km/h (1 Bft) W 274 ° 0 min 0,000 mm 2,0 UV-I 88 W/m² 14,9 °C 22,8 °C 4,8 km/h (1 Bft)
08.08.2019 16:32 22,8 °C 62 % 1011,5 hPa 0,0 mm 5,8 km/h (2 Bft) NW 314 ° 0 min 0,000 mm 2,0 UV-I 84 W/m² 15,1 °C 22,8 °C 11,3 km/h (2 Bft)
08.08.2019 16:33 22,8 °C 62 % 1011,4 hPa 0,0 mm 2,2 km/h (1 Bft) N-NW 338 ° 0 min 0,000 mm 2,0 UV-I 84 W/m² 15,1 °C 22,8 °C 8,0 km/h (2 Bft)
08.08.2019 16:34 22,8 °C 60 % 1011,4 hPa 0,0 mm 6,1 km/h (2 Bft) N-NO 24 ° 0 min 0,000 mm 2,0 UV-I 86 W/m² 14,6 °C 22,8 °C 9,7 km/h (2 Bft)
08.08.2019 16:35 22,8 °C 61 % 1011,4 hPa 0,0 mm 7,2 km/h (2 Bft) N-NO 28 ° 0 min 0,000 mm 2,0 UV-I 93 W/m² 14,9 °C 22,8 °C 11,3 km/h (2 Bft)
08.08.2019 16:36 22,8 °C 62 % 1011,4 hPa 0,0 mm 3,2 km/h (1 Bft) NO 42 ° 0 min 0,000 mm 2,0 UV-I 105 W/m² 15,1 °C 22,8 °C 6,4 km/h (2 Bft)
08.08.2019 16:37 22,9 °C 64 % 1011,3 hPa 0,0 mm 1,9 km/h (1 Bft) NO 42 ° 0 min 0,000 mm 2,0 UV-I 118 W/m² 15,7 °C 22,9 °C 3,2 km/h (1 Bft)
08.08.2019 16:38 22,9 °C 62 % 1011,4 hPa 0,0 mm 0,6 km/h (0 Bft) N 351 ° 0 min 0,000 mm 2,0 UV-I 120 W/m² 15,2 °C 22,9 °C 3,2 km/h (1 Bft)
08.08.2019 16:39 23,0 °C 62 % 1011,4 hPa 0,0 mm 3,0 km/h (1 Bft) NW 317 ° 0 min 0,000 mm 1,9 UV-I 123 W/m² 15,3 °C 23,0 °C 14,5 km/h (3 Bft)
08.08.2019 16:40 22,9 °C 62 % 1011,4 hPa 0,0 mm 10,8 km/h (2 Bft) NW 305 ° 0 min 0,000 mm 1,9 UV-I 102 W/m² 15,2 °C 22,9 °C 14,5 km/h (3 Bft)
08.08.2019 16:41 22,9 °C 62 % 1011,4 hPa 0,0 mm 6,8 km/h (2 Bft) W 261 ° 0 min 0,000 mm 1,9 UV-I 111 W/m² 15,2 °C 22,9 °C 12,9 km/h (3 Bft)
08.08.2019 16:42 22,8 °C 62 % 1011,5 hPa 0,0 mm 6,2 km/h (2 Bft) N-NW 336 ° 0 min 0,000 mm 1,9 UV-I 127 W/m² 15,1 °C 22,8 °C 9,7 km/h (2 Bft)
08.08.2019 16:43 22,7 °C 64 % 1011,5 hPa 0,0 mm 4,8 km/h (1 Bft) W-NW 292 ° 0 min 0,000 mm 2,0 UV-I 121 W/m² 15,5 °C 22,7 °C 6,4 km/h (2 Bft)
08.08.2019 16:44 22,6 °C 63 % 1011,5 hPa 0,0 mm 4,0 km/h (1 Bft) NW 319 ° 0 min 0,000 mm 1,9 UV-I 123 W/m² 15,2 °C 22,6 °C 6,4 km/h (2 Bft)
08.08.2019 16:45 22,4 °C 64 % 1011,5 hPa 0,0 mm 4,2 km/h (1 Bft) NW 321 ° 0 min 0,000 mm 1,9 UV-I 144 W/m² 15,2 °C 22,4 °C 8,0 km/h (2 Bft)
08.08.2019 16:46 22,4 °C 63 % 1011,5 hPa 0,0 mm 4,8 km/h (1 Bft) NW 315 ° 0 min 0,000 mm 2,0 UV-I 139 W/m² 15,0 °C 22,4 °C 6,4 km/h (2 Bft)
08.08.2019 16:47 22,3 °C 64 % 1011,5 hPa 0,0 mm 5,3 km/h (1 Bft) W-NW 291 ° 0 min 0,000 mm 2,0 UV-I 139 W/m² 15,2 °C 22,3 °C 8,0 km/h (2 Bft)
08.08.2019 16:48 22,3 °C 67 % 1011,5 hPa 0,0 mm 4,6 km/h (1 Bft) N-NW 327 ° 0 min 0,000 mm 1,9 UV-I 130 W/m² 15,9 °C 22,3 °C 8,0 km/h (2 Bft)
08.08.2019 16:49 22,3 °C 64 % 1011,6 hPa 0,0 mm 3,4 km/h (1 Bft) NW 317 ° 0 min 0,000 mm 1,9 UV-I 132 W/m² 15,2 °C 22,3 °C 6,4 km/h (2 Bft)
08.08.2019 16:50 22,4 °C 65 % 1011,6 hPa 0,0 mm 3,9 km/h (1 Bft) NW 320 ° 0 min 0,000 mm 2,0 UV-I 139 W/m² 15,5 °C 22,4 °C 6,4 km/h (2 Bft)
08.08.2019 16:51 22,6 °C 64 % 1011,6 hPa 0,0 mm 4,7 km/h (1 Bft) W-NW 284 ° 0 min 0,000 mm 2,0 UV-I 142 W/m² 15,4 °C 22,6 °C 6,4 km/h (2 Bft)
08.08.2019 16:52 22,7 °C 63 % 1011,6 hPa 0,0 mm 3,8 km/h (1 Bft) W-NW 284 ° 0 min 0,000 mm 2,0 UV-I 132 W/m² 15,3 °C 22,7 °C 6,4 km/h (2 Bft)
08.08.2019 16:53 22,7 °C 62 % 1011,6 hPa 0,0 mm 5,1 km/h (1 Bft) NW 321 ° 0 min 0,000 mm 2,0 UV-I 120 W/m² 15,0 °C 22,7 °C 8,0 km/h (2 Bft)
08.08.2019 16:54 22,7 °C 61 % 1011,6 hPa 0,0 mm 3,9 km/h (1 Bft) NW 320 ° 0 min 0,000 mm 1,9 UV-I 116 W/m² 14,8 °C 22,7 °C 6,4 km/h (2 Bft)
08.08.2019 16:55 22,8 °C 61 % 1011,6 hPa 0,0 mm 3,0 km/h (1 Bft) NW 320 ° 0 min 0,000 mm 1,9 UV-I 130 W/m² 14,9 °C 22,8 °C 4,8 km/h (1 Bft)
08.08.2019 16:56 22,8 °C 62 % 1011,7 hPa 0,0 mm 3,7 km/h (1 Bft) N-NW 340 ° 0 min 0,000 mm 1,8 UV-I 125 W/m² 15,1 °C 22,8 °C 6,4 km/h (2 Bft)
08.08.2019 16:57 22,8 °C 61 % 1011,7 hPa 0,0 mm 4,8 km/h (1 Bft) N 5 ° 0 min 0,000 mm 1,8 UV-I 120 W/m² 14,9 °C 22,8 °C 8,0 km/h (2 Bft)
08.08.2019 16:58 22,8 °C 60 % 1011,7 hPa 0,0 mm 5,0 km/h (1 Bft) N-NO 27 ° 0 min 0,000 mm 1,7 UV-I 123 W/m² 14,6 °C 22,8 °C 8,0 km/h (2 Bft)
08.08.2019 16:59 22,8 °C 59 % 1011,7 hPa 0,0 mm 1,4 km/h (1 Bft) N-NO 30 ° 0 min 0,000 mm 1,7 UV-I 125 W/m² 14,4 °C 22,8 °C 3,2 km/h (1 Bft)
08.08.2019 17:00 22,7 °C 61 % 1011,7 hPa 0,0 mm 1,6 km/h (1 Bft) N-NO 29 ° 0 min 0,178 mm 1,7 UV-I 137 W/m² 14,8 °C 22,7 °C 3,2 km/h (1 Bft)
08.08.2019 17:01 22,7 °C 61 % 1011,7 hPa 0,0 mm 1,4 km/h (1 Bft) N-NO 29 ° 0 min 0,000 mm 1,7 UV-I 134 W/m² 14,8 °C 22,7 °C 3,2 km/h (1 Bft)
08.08.2019 17:02 22,6 °C 60 % 1011,7 hPa 0,0 mm 3,5 km/h (1 Bft) N-NO 24 ° 0 min 0,000 mm 1,8 UV-I 148 W/m² 14,4 °C 22,6 °C 4,8 km/h (1 Bft)
08.08.2019 17:03 22,6 °C 62 % 1011,6 hPa 0,0 mm 0,3 km/h (0 Bft) N-NO 24 ° 0 min 0,000 mm 1,8 UV-I 160 W/m² 14,9 °C 22,6 °C 1,6 km/h (1 Bft)
08.08.2019 17:04 22,7 °C 62 % 1011,7 hPa 0,0 mm 1,0 km/h (0 Bft) N-NO 25 ° 0 min 0,000 mm 1,8 UV-I 162 W/m² 15,0 °C 22,7 °C 3,2 km/h (1 Bft)
08.08.2019 17:05 22,7 °C 61 % 1011,7 hPa 0,0 mm 1,4 km/h (1 Bft) N-NO 25 ° 0 min 0,000 mm 1,8 UV-I 151 W/m² 14,8 °C 22,7 °C 3,2 km/h (1 Bft)
08.08.2019 17:06 22,7 °C 60 % 1011,7 hPa 0,0 mm 1,7 km/h (1 Bft) N-NO 24 ° 0 min 0,000 mm 1,8 UV-I 142 W/m² 14,5 °C 22,7 °C 4,8 km/h (1 Bft)
08.08.2019 17:07 22,8 °C 61 % 1011,6 hPa 0,0 mm 0,1 km/h (0 Bft) N-NO 24 ° 0 min 0,000 mm 1,8 UV-I 141 W/m² 14,9 °C 22,8 °C 1,6 km/h (1 Bft)
08.08.2019 17:08 22,8 °C 60 % 1011,7 hPa 0,0 mm 7,8 km/h (2 Bft) N-NW 331 ° 0 min 0,000 mm 1,8 UV-I 148 W/m² 14,6 °C 22,8 °C 12,9 km/h (3 Bft)
08.08.2019 17:09 22,8 °C 60 % 1011,7 hPa 0,0 mm 4,4 km/h (1 Bft) NW 322 ° 0 min 0,000 mm 1,8 UV-I 134 W/m² 14,6 °C 22,8 °C 9,7 km/h (2 Bft)
08.08.2019 17:10 22,8 °C 59 % 1011,6 hPa 0,0 mm 0,4 km/h (0 Bft) NW 317 ° 0 min 0,000 mm 1,8 UV-I 130 W/m² 14,4 °C 22,8 °C 1,6 km/h (1 Bft)
08.08.2019 17:11 22,7 °C 61 % 1011,6 hPa 0,0 mm 0,0 km/h (0 Bft) NW 317 ° 0 min 0,000 mm 1,7 UV-I 109 W/m² 14,8 °C 22,7 °C 0,0 km/h (0 Bft)
08.08.2019 17:12 22,7 °C 61 % 1011,6 hPa 0,0 mm 1,7 km/h (1 Bft) NW 322 ° 0 min 0,000 mm 1,7 UV-I 93 W/m² 14,8 °C 22,7 °C 3,2 km/h (1 Bft)
08.08.2019 17:13 22,8 °C 61 % 1011,6 hPa 0,0 mm 2,5 km/h (1 Bft) NW 323 ° 0 min 0,000 mm 1,6 UV-I 84 W/m² 14,9 °C 22,8 °C 4,8 km/h (1 Bft)
08.08.2019 17:14 22,9 °C 62 % 1011,6 hPa 0,0 mm 3,3 km/h (1 Bft) N 5 ° 0 min 0,000 mm 1,6 UV-I 72 W/m² 15,2 °C 22,9 °C 4,8 km/h (1 Bft)
08.08.2019 17:15 23,0 °C 59 % 1011,6 hPa 0,0 mm 5,3 km/h (1 Bft) N-NO 31 ° 0 min 0,000 mm 1,6 UV-I 69 W/m² 14,5 °C 23,0 °C 6,4 km/h (2 Bft)
08.08.2019 17:16 23,0 °C 61 % 1011,6 hPa 0,0 mm 2,8 km/h (1 Bft) N-NO 31 ° 0 min 0,000 mm 1,6 UV-I 70 W/m² 15,1 °C 23,0 °C 4,8 km/h (1 Bft)
08.08.2019 17:17 23,0 °C 60 % 1011,6 hPa 0,0 mm 2,1 km/h (1 Bft) N 350 ° 0 min 0,000 mm 1,7 UV-I 90 W/m² 14,8 °C 23,0 °C 4,8 km/h (1 Bft)
08.08.2019 17:18 23,0 °C 61 % 1011,6 hPa 0,0 mm 5,6 km/h (1 Bft) N 350 ° 0 min 0,000 mm 1,7 UV-I 76 W/m² 15,1 °C 23,0 °C 11,3 km/h (2 Bft)
08.08.2019 17:19 22,9 °C 61 % 1011,6 hPa 0,0 mm 7,0 km/h (2 Bft) N 360 ° 0 min 0,000 mm 1,6 UV-I 69 W/m² 15,0 °C 22,9 °C 12,9 km/h (3 Bft)
08.08.2019 17:20 22,9 °C 60 % 1011,6 hPa 0,0 mm 4,6 km/h (1 Bft) N 5 ° 0 min 0,000 mm 1,5 UV-I 63 W/m² 14,7 °C 22,9 °C 6,4 km/h (2 Bft)
08.08.2019 17:21 22,9 °C 59 % 1011,6 hPa 0,0 mm 7,1 km/h (2 Bft) N-NO 22 ° 0 min 0,000 mm 1,5 UV-I 62 W/m² 14,5 °C 22,9 °C 12,9 km/h (3 Bft)
08.08.2019 17:22 22,9 °C 59 % 1011,6 hPa 0,0 mm 6,2 km/h (2 Bft) N-NO 16 ° 0 min 0,000 mm 1,5 UV-I 63 W/m² 14,5 °C 22,9 °C 9,7 km/h (2 Bft)
08.08.2019 17:23 22,9 °C 61 % 1011,6 hPa 0,0 mm 4,4 km/h (1 Bft) NW 315 ° 0 min 0,000 mm 1,5 UV-I 67 W/m² 15,0 °C 22,9 °C 6,4 km/h (2 Bft)
08.08.2019 17:24 22,9 °C 60 % 1011,7 hPa 0,0 mm 11,0 km/h (2 Bft) NW 321 ° 0 min 0,000 mm 1,5 UV-I 76 W/m² 14,7 °C 22,9 °C 12,9 km/h (3 Bft)
08.08.2019 17:25 22,8 °C 59 % 1011,7 hPa 0,0 mm 4,0 km/h (1 Bft) NW 317 ° 0 min 0,000 mm 1,5 UV-I 77 W/m² 14,4 °C 22,8 °C 8,0 km/h (2 Bft)
08.08.2019 17:26 22,8 °C 60 % 1011,7 hPa 0,0 mm 0,0 km/h (0 Bft) NW 317 ° 0 min 0,000 mm 1,5 UV-I 77 W/m² 14,6 °C 22,8 °C 0,0 km/h (0 Bft)
08.08.2019 17:27 22,7 °C 59 % 1011,7 hPa 0,0 mm 4,9 km/h (1 Bft) N 351 ° 0 min 0,000 mm 1,5 UV-I 77 W/m² 14,3 °C 22,7 °C 8,0 km/h (2 Bft)
08.08.2019 17:28 22,7 °C 60 % 1011,6 hPa 0,0 mm 5,1 km/h (1 Bft) W-NW 295 ° 0 min 0,000 mm 1,5 UV-I 76 W/m² 14,5 °C 22,7 °C 8,0 km/h (2 Bft)
08.08.2019 17:29 22,7 °C 60 % 1011,6 hPa 0,0 mm 4,2 km/h (1 Bft) NW 305 ° 0 min 0,000 mm 1,5 UV-I 70 W/m² 14,5 °C 22,7 °C 6,4 km/h (2 Bft)
08.08.2019 17:30 22,8 °C 61 % 1011,6 hPa 0,0 mm 4,8 km/h (1 Bft) N-NW 327 ° 0 min 0,000 mm 1,5 UV-I 70 W/m² 14,9 °C 22,8 °C 6,4 km/h (2 Bft)
08.08.2019 17:31 22,8 °C 62 % 1011,6 hPa 0,0 mm 4,1 km/h (1 Bft) N-NW 342 ° 0 min 0,000 mm 1,5 UV-I 69 W/m² 15,1 °C 22,8 °C 6,4 km/h (2 Bft)
08.08.2019 17:32 22,8 °C 63 % 1011,6 hPa 0,0 mm 9,3 km/h (2 Bft) N 349 ° 0 min 0,000 mm 1,4 UV-I 72 W/m² 15,4 °C 22,8 °C 16,1 km/h (3 Bft)
08.08.2019 17:33 22,9 °C 60 % 1011,6 hPa 0,0 mm 1,5 km/h (1 Bft) N-NW 333 ° 0 min 0,000 mm 1,4 UV-I 69 W/m² 14,7 °C 22,9 °C 4,8 km/h (1 Bft)
08.08.2019 17:34 22,8 °C 60 % 1011,7 hPa 0,0 mm 3,6 km/h (1 Bft) N-NO 13 ° 0 min 0,000 mm 1,4 UV-I 63 W/m² 14,6 °C 22,8 °C 6,4 km/h (2 Bft)
08.08.2019 17:35 22,9 °C 61 % 1011,6 hPa 0,0 mm 5,6 km/h (1 Bft) N-NW 342 ° 0 min 0,000 mm 1,4 UV-I 58 W/m² 15,0 °C 22,9 °C 8,0 km/h (2 Bft)
08.08.2019 17:36 22,9 °C 61 % 1011,6 hPa 0,0 mm 4,8 km/h (1 Bft) NW 311 ° 0 min 0,000 mm 1,4 UV-I 56 W/m² 15,0 °C 22,9 °C 8,0 km/h (2 Bft)
08.08.2019 17:37 22,9 °C 60 % 1011,6 hPa 0,0 mm 2,9 km/h (1 Bft) NW 319 ° 0 min 0,000 mm 1,4 UV-I 56 W/m² 14,7 °C 22,9 °C 6,4 km/h (2 Bft)
08.08.2019 17:38 22,8 °C 59 % 1011,6 hPa 0,0 mm 2,4 km/h (1 Bft) NW 319 ° 0 min 0,000 mm 1,4 UV-I 83 W/m² 14,4 °C 22,8 °C 4,8 km/h (1 Bft)
08.08.2019 17:39 22,8 °C 59 % 1011,6 hPa 0,0 mm 1,2 km/h (1 Bft) NW 319 ° 0 min 0,000 mm 1,4 UV-I 86 W/m² 14,4 °C 22,8 °C 4,8 km/h (1 Bft)
08.08.2019 17:40 22,7 °C 59 % 1011,7 hPa 0,0 mm 3,2 km/h (1 Bft) NW 321 ° 0 min 0,000 mm 1,4 UV-I 69 W/m² 14,3 °C 22,7 °C 4,8 km/h (1 Bft)
08.08.2019 17:41 22,7 °C 59 % 1011,6 hPa 0,0 mm 3,0 km/h (1 Bft) NW 320 ° 0 min 0,000 mm 1,3 UV-I 54 W/m² 14,3 °C 22,7 °C 4,8 km/h (1 Bft)
08.08.2019 17:42 22,7 °C 61 % 1011,6 hPa 0,0 mm 6,4 km/h (2 Bft) NW 325 ° 0 min 0,000 mm 0,0 UV-I 54 W/m² 14,8 °C 22,7 °C 12,9 km/h (3 Bft)
08.08.2019 17:43 22,7 °C 58 % 1011,6 hPa 0,0 mm 0,2 km/h (0 Bft) NW 325 ° 0 min 0,000 mm 0,0 UV-I 54 W/m² 14,0 °C 22,7 °C 1,6 km/h (1 Bft)
08.08.2019 17:44 22,7 °C 57 % 1011,5 hPa 0,0 mm 1,7 km/h (1 Bft) NW 325 ° 0 min 0,000 mm 0,0 UV-I 54 W/m² 13,7 °C 22,7 °C 4,8 km/h (1 Bft)
08.08.2019 17:45 22,7 °C 60 % 1011,5 hPa 0,0 mm 3,2 km/h (1 Bft) N-NW 336 ° 0 min 0,000 mm 0,0 UV-I 53 W/m² 14,5 °C 22,7 °C 8,0 km/h (2 Bft)
08.08.2019 17:46 22,7 °C 59 % 1011,5 hPa 0,0 mm 3,6 km/h (1 Bft) N-NW 330 ° 0 min 0,000 mm 0,0 UV-I 53 W/m² 14,3 °C 22,7 °C 6,4 km/h (2 Bft)
08.08.2019 17:47 22,7 °C 60 % 1011,5 hPa 0,0 mm 1,1 km/h (1 Bft) N-NW 330 ° 0 min 0,000 mm 0,0 UV-I 53 W/m² 14,5 °C 22,7 °C 4,8 km/h (1 Bft)
08.08.2019 17:48 22,7 °C 59 % 1011,5 hPa 0,0 mm 3,5 km/h (1 Bft) NW 315 ° 0 min 0,000 mm 0,0 UV-I 53 W/m² 14,3 °C 22,7 °C 6,4 km/h (2 Bft)
08.08.2019 17:49 22,6 °C 58 % 1011,5 hPa 0,0 mm 4,5 km/h (1 Bft) N 360 ° 0 min 0,000 mm 0,0 UV-I 53 W/m² 13,9 °C 22,6 °C 6,4 km/h (2 Bft)
08.08.2019 17:50 22,7 °C 60 % 1011,5 hPa 0,0 mm 4,3 km/h (1 Bft) N 360 ° 0 min 0,000 mm 0,0 UV-I 53 W/m² 14,5 °C 22,7 °C 6,4 km/h (2 Bft)
08.08.2019 17:51 22,7 °C 59 % 1011,5 hPa 0,0 mm 1,4 km/h (1 Bft) N 360 ° 0 min 0,000 mm 0,0 UV-I 51 W/m² 14,3 °C 22,7 °C 4,8 km/h (1 Bft)
08.08.2019 17:52 22,7 °C 60 % 1011,5 hPa 0,0 mm 2,7 km/h (1 Bft) NW 325 ° 0 min 0,000 mm 0,0 UV-I 53 W/m² 14,5 °C 22,7 °C 6,4 km/h (2 Bft)
08.08.2019 17:53 22,6 °C 59 % 1011,6 hPa 0,0 mm 2,0 km/h (1 Bft) N-NW 335 ° 0 min 0,000 mm 0,0 UV-I 51 W/m² 14,2 °C 22,6 °C 4,8 km/h (1 Bft)
08.08.2019 17:54 22,6 °C 60 % 1011,6 hPa 0,0 mm 3,8 km/h (1 Bft) NW 325 ° 0 min 0,000 mm 0,0 UV-I 53 W/m² 14,4 °C 22,6 °C 8,0 km/h (2 Bft)
08.08.2019 17:55 22,7 °C 60 % 1011,6 hPa 0,0 mm 6,9 km/h (2 Bft) N-NW 333 ° 0 min 0,000 mm 0,0 UV-I 53 W/m² 14,5 °C 22,7 °C 9,7 km/h (2 Bft)
08.08.2019 17:56 22,7 °C 61 % 1011,6 hPa 0,0 mm 2,7 km/h (1 Bft) N-NW 335 ° 0 min 0,000 mm 0,0 UV-I 53 W/m² 14,8 °C 22,7 °C 4,8 km/h (1 Bft)
08.08.2019 17:57 22,7 °C 59 % 1011,6 hPa 0,0 mm 4,8 km/h (1 Bft) NW 324 ° 0 min 0,000 mm 0,0 UV-I 53 W/m² 14,3 °C 22,7 °C 6,4 km/h (2 Bft)
08.08.2019 17:58 22,7 °C 59 % 1011,6 hPa 0,0 mm 4,7 km/h (1 Bft) NW 321 ° 0 min 0,000 mm 1,2 UV-I 63 W/m² 14,3 °C 22,7 °C 6,4 km/h (2 Bft)
08.08.2019 17:59 22,7 °C 57 % 1011,6 hPa 0,0 mm 3,6 km/h (1 Bft) NW 325 ° 0 min 0,000 mm 1,2 UV-I 77 W/m² 13,7 °C 22,7 °C 6,4 km/h (2 Bft)
08.08.2019 18:00 22,6 °C 57 % 1011,5 hPa 0,0 mm 2,3 km/h (1 Bft) NW 324 ° 0 min 0,000 mm 1,2 UV-I 56 W/m² 13,6 °C 22,6 °C 4,8 km/h (1 Bft)
08.08.2019 18:01 22,6 °C 59 % 1011,5 hPa 0,0 mm 1,3 km/h (1 Bft) N-NW 327 ° 0 min 0,076 mm 0,0 UV-I 53 W/m² 14,2 °C 22,6 °C 3,2 km/h (1 Bft)
08.08.2019 18:02 22,6 °C 60 % 1011,5 hPa 0,0 mm 1,4 km/h (1 Bft) N-NW 327 ° 0 min 0,000 mm 0,0 UV-I 53 W/m² 14,4 °C 22,6 °C 3,2 km/h (1 Bft)
08.08.2019 18:03 22,7 °C 62 % 1011,5 hPa 0,0 mm 2,5 km/h (1 Bft) N-NW 327 ° 0 min 0,000 mm 0,0 UV-I 53 W/m² 15,0 °C 22,7 °C 4,8 km/h (1 Bft)
08.08.2019 18:04 22,7 °C 61 % 1011,5 hPa 0,0 mm 4,0 km/h (1 Bft) N-NW 334 ° 0 min 0,000 mm 1,2 UV-I 56 W/m² 14,8 °C 22,7 °C 6,4 km/h (2 Bft)
08.08.2019 18:05 22,7 °C 63 % 1011,5 hPa 0,0 mm 4,0 km/h (1 Bft) N-NW 334 ° 0 min 0,000 mm 0,0 UV-I 53 W/m² 15,3 °C 22,7 °C 4,8 km/h (1 Bft)
08.08.2019 18:06 22,7 °C 61 % 1011,5 hPa 0,0 mm 5,2 km/h (1 Bft) N-NW 332 ° 0 min 0,000 mm 0,0 UV-I 53 W/m² 14,8 °C 22,7 °C 8,0 km/h (2 Bft)
08.08.2019 18:07 22,7 °C 60 % 1011,5 hPa 0,0 mm 7,0 km/h (2 Bft) N 5 ° 0 min 0,000 mm 1,2 UV-I 60 W/m² 14,5 °C 22,7 °C 8,0 km/h (2 Bft)
08.08.2019 18:08 22,7 °C 59 % 1011,5 hPa 0,0 mm 4,3 km/h (1 Bft) N-NO 12 ° 0 min 0,000 mm 1,2 UV-I 70 W/m² 14,3 °C 22,7 °C 6,4 km/h (2 Bft)
08.08.2019 18:09 22,7 °C 60 % 1011,5 hPa 0,0 mm 3,0 km/h (1 Bft) N 360 ° 0 min 0,000 mm 1,2 UV-I 63 W/m² 14,5 °C 22,7 °C 4,8 km/h (1 Bft)
08.08.2019 18:10 22,6 °C 60 % 1011,5 hPa 0,0 mm 3,1 km/h (1 Bft) NW 326 ° 0 min 0,000 mm 1,1 UV-I 70 W/m² 14,4 °C 22,6 °C 6,4 km/h (2 Bft)
08.08.2019 18:11 22,6 °C 59 % 1011,5 hPa 0,0 mm 0,6 km/h (0 Bft) NW 325 ° 0 min 0,000 mm 1,1 UV-I 97 W/m² 14,2 °C 22,6 °C 3,2 km/h (1 Bft)
08.08.2019 18:12 22,6 °C 58 % 1011,5 hPa 0,0 mm 3,4 km/h (1 Bft) N-NO 21 ° 0 min 0,000 mm 1,2 UV-I 139 W/m² 13,9 °C 22,6 °C 6,4 km/h (2 Bft)
08.08.2019 18:13 22,6 °C 58 % 1011,5 hPa 0,0 mm 5,0 km/h (1 Bft) N-NO 23 ° 0 min 0,000 mm 1,2 UV-I 183 W/m² 13,9 °C 22,6 °C 8,0 km/h (2 Bft)
08.08.2019 18:14 22,6 °C 60 % 1011,5 hPa 0,0 mm 2,5 km/h (1 Bft) N-NW 346 ° 0 min 0,000 mm 1,1 UV-I 134 W/m² 14,4 °C 22,6 °C 4,8 km/h (1 Bft)
08.08.2019 18:15 22,6 °C 59 % 1011,5 hPa 0,0 mm 2,8 km/h (1 Bft) N-NW 346 ° 0 min 0,000 mm 1,1 UV-I 69 W/m² 14,2 °C 22,6 °C 4,8 km/h (1 Bft)
08.08.2019 18:16 22,6 °C 59 % 1011,5 hPa 0,0 mm 1,0 km/h (0 Bft) N-NW 346 ° 0 min 0,000 mm 1,1 UV-I 54 W/m² 14,2 °C 22,6 °C 3,2 km/h (1 Bft)
08.08.2019 18:17 22,6 °C 59 % 1011,4 hPa 0,0 mm 2,2 km/h (1 Bft) N-NW 346 ° 0 min 0,000 mm 0,0 UV-I 51 W/m² 14,2 °C 22,6 °C 4,8 km/h (1 Bft)
08.08.2019 18:18 22,6 °C 58 % 1011,4 hPa 0,0 mm 2,8 km/h (1 Bft) N-NW 346 ° 0 min 0,000 mm 0,0 UV-I 54 W/m² 13,9 °C 22,6 °C 4,8 km/h (1 Bft)
08.08.2019 18:19 22,6 °C 58 % 1011,4 hPa 0,0 mm 1,8 km/h (1 Bft) N-NW 346 ° 0 min 0,000 mm 1,1 UV-I 58 W/m² 13,9 °C 22,6 °C 3,2 km/h (1 Bft)
08.08.2019 18:20 22,7 °C 60 % 1011,3 hPa 0,0 mm 1,4 km/h (1 Bft) N-NW 346 ° 0 min 0,000 mm 1,1 UV-I 74 W/m² 14,5 °C 22,7 °C 3,2 km/h (1 Bft)
08.08.2019 18:21 22,7 °C 61 % 1011,4 hPa 0,0 mm 3,1 km/h (1 Bft) NW 309 ° 0 min 0,000 mm 1,0 UV-I 83 W/m² 14,8 °C 22,7 °C 6,4 km/h (2 Bft)
08.08.2019 18:22 22,7 °C 60 % 1011,4 hPa 0,0 mm 2,4 km/h (1 Bft) NW 309 ° 0 min 0,000 mm 1,1 UV-I 93 W/m² 14,5 °C 22,7 °C 6,4 km/h (2 Bft)
08.08.2019 18:23 22,6 °C 56 % 1011,3 hPa 0,0 mm 4,4 km/h (1 Bft) N-NO 20 ° 0 min 0,000 mm 1,0 UV-I 69 W/m² 13,4 °C 22,6 °C 8,0 km/h (2 Bft)
08.08.2019 18:24 22,6 °C 58 % 1011,3 hPa 0,0 mm 4,8 km/h (1 Bft) N-NW 337 ° 0 min 0,000 mm 1,0 UV-I 56 W/m² 13,9 °C 22,6 °C 6,4 km/h (2 Bft)
08.08.2019 18:25 22,6 °C 58 % 1011,3 hPa 0,0 mm 0,1 km/h (0 Bft) N-NW 337 ° 0 min 0,000 mm 0,0 UV-I 49 W/m² 13,9 °C 22,6 °C 1,6 km/h (1 Bft)
08.08.2019 18:26 22,6 °C 58 % 1011,3 hPa 0,0 mm 0,0 km/h (0 Bft) N-NW 337 ° 0 min 0,000 mm 0,0 UV-I 49 W/m² 13,9 °C 22,6 °C 0,0 km/h (0 Bft)
08.08.2019 18:27 22,6 °C 60 % 1011,3 hPa 0,0 mm 0,0 km/h (0 Bft) N-NW 337 ° 0 min 0,000 mm 0,0 UV-I 53 W/m² 14,4 °C 22,6 °C 0,0 km/h (0 Bft)
08.08.2019 18:28 22,6 °C 61 % 1011,3 hPa 0,0 mm 0,0 km/h (0 Bft) N-NW 337 ° 0 min 0,000 mm 0,0 UV-I 54 W/m² 14,7 °C 22,6 °C 0,0 km/h (0 Bft)
08.08.2019 18:29 22,6 °C 59 % 1011,3 hPa 0,0 mm 3,4 km/h (1 Bft) NW 311 ° 0 min 0,000 mm 1,0 UV-I 58 W/m² 14,2 °C 22,6 °C 6,4 km/h (2 Bft)
08.08.2019 18:30 22,7 °C 60 % 1011,3 hPa 0,0 mm 4,8 km/h (1 Bft) NW 315 ° 0 min 0,000 mm 0,0 UV-I 54 W/m² 14,5 °C 22,7 °C 6,4 km/h (2 Bft)
08.08.2019 18:31 22,7 °C 60 % 1011,3 hPa 0,0 mm 1,9 km/h (1 Bft) NW 315 ° 0 min 0,000 mm 0,9 UV-I 58 W/m² 14,5 °C 22,7 °C 3,2 km/h (1 Bft)
08.08.2019 18:32 22,7 °C 61 % 1011,3 hPa 0,0 mm 0,3 km/h (0 Bft) NW 315 ° 0 min 0,000 mm 0,9 UV-I 56 W/m² 14,8 °C 22,7 °C 1,6 km/h (1 Bft)
08.08.2019 18:33 22,7 °C 60 % 1011,2 hPa 0,0 mm 1,9 km/h (1 Bft) NW 315 ° 0 min 0,000 mm 0,0 UV-I 49 W/m² 14,5 °C 22,7 °C 4,8 km/h (1 Bft)
08.08.2019 18:34 22,7 °C 60 % 1011,2 hPa 0,0 mm 0,5 km/h (0 Bft) NW 315 ° 0 min 0,000 mm 0,0 UV-I 47 W/m² 14,5 °C 22,7 °C 3,2 km/h (1 Bft)
08.08.2019 18:35 22,7 °C 61 % 1011,2 hPa 0,0 mm 2,6 km/h (1 Bft) NW 315 ° 0 min 0,000 mm 0,0 UV-I 49 W/m² 14,8 °C 22,7 °C 4,8 km/h (1 Bft)
08.08.2019 18:36 22,7 °C 61 % 1011,1 hPa 0,0 mm 4,3 km/h (1 Bft) NW 315 ° 0 min 0,000 mm 0,0 UV-I 49 W/m² 14,8 °C 22,7 °C 6,4 km/h (2 Bft)
08.08.2019 18:37 22,7 °C 62 % 1011,1 hPa 0,0 mm 5,4 km/h (1 Bft) NW 317 ° 0 min 0,000 mm 0,0 UV-I 51 W/m² 15,0 °C 22,7 °C 9,7 km/h (2 Bft)
08.08.2019 18:38 22,7 °C 60 % 1011,1 hPa 0,0 mm 3,2 km/h (1 Bft) NW 317 ° 0 min 0,000 mm 0,0 UV-I 46 W/m² 14,5 °C 22,7 °C 8,0 km/h (2 Bft)
08.08.2019 18:39 22,7 °C 57 % 1011,2 hPa 0,0 mm 2,3 km/h (1 Bft) NW 317 ° 0 min 0,000 mm 0,0 UV-I 46 W/m² 13,7 °C 22,7 °C 3,2 km/h (1 Bft)
08.08.2019 18:40 22,7 °C 57 % 1011,2 hPa 0,0 mm 3,1 km/h (1 Bft) NW 317 ° 0 min 0,000 mm 0,0 UV-I 46 W/m² 13,7 °C 22,7 °C 4,8 km/h (1 Bft)
08.08.2019 18:41 22,6 °C 58 % 1011,2 hPa 0,0 mm 2,5 km/h (1 Bft) NW 317 ° 0 min 0,000 mm 0,0 UV-I 46 W/m² 13,9 °C 22,6 °C 4,8 km/h (1 Bft)
08.08.2019 18:42 22,6 °C 58 % 1011,2 hPa 0,0 mm 3,5 km/h (1 Bft) NW 317 ° 0 min 0,000 mm 0,0 UV-I 46 W/m² 13,9 °C 22,6 °C 4,8 km/h (1 Bft)
08.08.2019 18:43 22,6 °C 59 % 1011,2 hPa 0,0 mm 2,5 km/h (1 Bft) NW 317 ° 0 min 0,000 mm 0,0 UV-I 46 W/m² 14,2 °C 22,6 °C 3,2 km/h (1 Bft)
08.08.2019 18:44 22,6 °C 59 % 1011,2 hPa 0,0 mm 3,1 km/h (1 Bft) NW 317 ° 0 min 0,000 mm 0,0 UV-I 46 W/m² 14,2 °C 22,6 °C 4,8 km/h (1 Bft)
08.08.2019 18:45 22,6 °C 60 % 1011,3 hPa 0,0 mm 2,1 km/h (1 Bft) NW 317 ° 0 min 0,000 mm 0,0 UV-I 46 W/m² 14,4 °C 22,6 °C 3,2 km/h (1 Bft)
08.08.2019 18:46 22,6 °C 59 % 1011,3 hPa 0,0 mm 1,1 km/h (1 Bft) NW 317 ° 0 min 0,000 mm 0,0 UV-I 46 W/m² 14,2 °C 22,6 °C 3,2 km/h (1 Bft)
08.08.2019 18:47 22,4 °C 60 % 1011,3 hPa 0,0 mm 2,2 km/h (1 Bft) NW 317 ° 0 min 0,000 mm 0,0 UV-I 46 W/m² 14,2 °C 22,4 °C 3,2 km/h (1 Bft)
08.08.2019 18:48 22,4 °C 59 % 1011,3 hPa 0,0 mm 2,0 km/h (1 Bft) NW 317 ° 0 min 0,000 mm 0,0 UV-I 47 W/m² 14,0 °C 22,4 °C 4,8 km/h (1 Bft)
08.08.2019 18:49 22,4 °C 58 % 1011,2 hPa 0,0 mm 2,1 km/h (1 Bft) NW 317 ° 0 min 0,000 mm 0,0 UV-I 47 W/m² 13,7 °C 22,4 °C 3,2 km/h (1 Bft)
08.08.2019 18:50 22,4 °C 59 % 1011,2 hPa 0,0 mm 0,5 km/h (0 Bft) NW 317 ° 0 min 0,000 mm 0,0 UV-I 49 W/m² 14,0 °C 22,4 °C 3,2 km/h (1 Bft)
08.08.2019 18:51 22,4 °C 60 % 1011,2 hPa 0,0 mm 1,9 km/h (1 Bft) NW 317 ° 0 min 0,000 mm 0,0 UV-I 44 W/m² 14,2 °C 22,4 °C 3,2 km/h (1 Bft)
08.08.2019 18:52 22,4 °C 60 % 1011,2 hPa 0,0 mm 0,1 km/h (0 Bft) NW 317 ° 0 min 0,000 mm 0,0 UV-I 44 W/m² 14,2 °C 22,4 °C 1,6 km/h (1 Bft)
08.08.2019 18:53 22,4 °C 59 % 1011,2 hPa 0,0 mm 2,1 km/h (1 Bft) NW 317 ° 0 min 0,000 mm 0,0 UV-I 46 W/m² 14,0 °C 22,4 °C 4,8 km/h (1 Bft)
08.08.2019 18:54 22,4 °C 58 % 1011,2 hPa 0,0 mm 2,4 km/h (1 Bft) NW 317 ° 0 min 0,000 mm 0,0 UV-I 51 W/m² 13,7 °C 22,4 °C 3,2 km/h (1 Bft)
08.08.2019 18:55 22,4 °C 60 % 1011,2 hPa 0,0 mm 2,5 km/h (1 Bft) NW 311 ° 0 min 0,000 mm 0,0 UV-I 49 W/m² 14,2 °C 22,4 °C 4,8 km/h (1 Bft)
08.08.2019 18:56 22,4 °C 60 % 1011,3 hPa 0,0 mm 1,4 km/h (1 Bft) NW 304 ° 0 min 0,000 mm 0,0 UV-I 54 W/m² 14,2 °C 22,4 °C 4,8 km/h (1 Bft)
08.08.2019 18:57 22,4 °C 61 % 1011,2 hPa 0,0 mm 1,5 km/h (1 Bft) NW 304 ° 0 min 0,000 mm 0,0 UV-I 46 W/m² 14,5 °C 22,4 °C 3,2 km/h (1 Bft)
08.08.2019 18:58 22,4 °C 61 % 1011,3 hPa 0,0 mm 2,6 km/h (1 Bft) NW 306 ° 0 min 0,000 mm 0,0 UV-I 42 W/m² 14,5 °C 22,4 °C 4,8 km/h (1 Bft)
08.08.2019 18:59 22,3 °C 61 % 1011,3 hPa 0,0 mm 0,7 km/h (0 Bft) NW 306 ° 0 min 0,000 mm 0,0 UV-I 42 W/m² 14,4 °C 22,3 °C 3,2 km/h (1 Bft)
08.08.2019 19:00 22,3 °C 60 % 1011,3 hPa 0,0 mm 0,0 km/h (0 Bft) NW 306 ° 0 min 0,000 mm 0,0 UV-I 46 W/m² 14,2 °C 22,3 °C 0,0 km/h (0 Bft)
08.08.2019 19:01 22,2 °C 61 % 1011,3 hPa 0,0 mm 0,0 km/h (0 Bft) NW 306 ° 0 min 0,051 mm 0,7 UV-I 62 W/m² 14,3 °C 22,2 °C 0,0 km/h (0 Bft)
08.08.2019 19:02 22,2 °C 62 % 1011,3 hPa 0,0 mm 0,0 km/h (0 Bft) NW 306 ° 0 min 0,000 mm 0,7 UV-I 84 W/m² 14,6 °C 22,2 °C 0,0 km/h (0 Bft)
08.08.2019 19:03 22,3 °C 61 % 1011,3 hPa 0,0 mm 0,0 km/h (0 Bft) NW 306 ° 0 min 0,000 mm 0,7 UV-I 120 W/m² 14,4 °C 22,3 °C 0,0 km/h (0 Bft)
08.08.2019 19:04 22,3 °C 60 % 1011,3 hPa 0,0 mm 0,0 km/h (0 Bft) NW 306 ° 0 min 0,000 mm 0,7 UV-I 120 W/m² 14,2 °C 22,3 °C 0,0 km/h (0 Bft)
08.08.2019 19:05 22,3 °C 60 % 1011,3 hPa 0,0 mm 0,0 km/h (0 Bft) NW 306 ° 0 min 0,000 mm 0,7 UV-I 127 W/m² 14,2 °C 22,3 °C 0,0 km/h (0 Bft)
08.08.2019 19:06 22,3 °C 58 % 1011,3 hPa 0,0 mm 0,8 km/h (0 Bft) NW 306 ° 0 min 0,000 mm 0,7 UV-I 134 W/m² 13,6 °C 22,3 °C 3,2 km/h (1 Bft)
08.08.2019 19:07 22,2 °C 59 % 1011,3 hPa 0,0 mm 0,8 km/h (0 Bft) NW 306 ° 0 min 0,000 mm 0,7 UV-I 153 W/m² 13,8 °C 22,2 °C 1,6 km/h (1 Bft)
08.08.2019 19:08 22,2 °C 59 % 1011,3 hPa 0,0 mm 0,1 km/h (0 Bft) NW 306 ° 0 min 0,000 mm 0,7 UV-I 141 W/m² 13,8 °C 22,2 °C 1,6 km/h (1 Bft)
08.08.2019 19:09 22,2 °C 60 % 1011,3 hPa 0,0 mm 0,0 km/h (0 Bft) NW 306 ° 0 min 0,000 mm 0,7 UV-I 130 W/m² 14,1 °C 22,2 °C 0,0 km/h (0 Bft)
08.08.2019 19:10 22,2 °C 60 % 1011,3 hPa 0,0 mm 0,0 km/h (0 Bft) NW 306 ° 0 min 0,000 mm 0,6 UV-I 104 W/m² 14,1 °C 22,2 °C 0,0 km/h (0 Bft)
08.08.2019 19:11 22,2 °C 59 % 1011,3 hPa 0,0 mm 1,4 km/h (1 Bft) NW 306 ° 0 min 0,000 mm 0,6 UV-I 84 W/m² 13,8 °C 22,2 °C 4,8 km/h (1 Bft)
08.08.2019 19:12 22,2 °C 58 % 1011,4 hPa 0,0 mm 1,3 km/h (1 Bft) NW 306 ° 0 min 0,000 mm 0,6 UV-I 63 W/m² 13,5 °C 22,2 °C 3,2 km/h (1 Bft)
08.08.2019 19:13 22,2 °C 60 % 1011,3 hPa 0,0 mm 0,0 km/h (0 Bft) NW 306 ° 0 min 0,000 mm 0,6 UV-I 63 W/m² 14,1 °C 22,2 °C 0,0 km/h (0 Bft)
08.08.2019 19:14 22,1 °C 63 % 1011,4 hPa 0,0 mm 0,9 km/h (0 Bft) NW 306 ° 0 min 0,000 mm 0,6 UV-I 44 W/m² 14,7 °C 22,1 °C 3,2 km/h (1 Bft)
08.08.2019 19:15 22,0 °C 63 % 1011,3 hPa 0,0 mm 0,1 km/h (0 Bft) NW 306 ° 0 min 0,000 mm 0,0 UV-I 49 W/m² 14,6 °C 22,0 °C 1,6 km/h (1 Bft)
08.08.2019 19:16 21,9 °C 61 % 1011,3 hPa 0,0 mm 0,6 km/h (0 Bft) NW 306 ° 0 min 0,000 mm 0,0 UV-I 53 W/m² 14,0 °C 21,9 °C 3,2 km/h (1 Bft)
08.08.2019 19:17 21,9 °C 59 % 1011,4 hPa 0,0 mm 1,3 km/h (1 Bft) NW 306 ° 0 min 0,000 mm 0,0 UV-I 49 W/m² 13,5 °C 21,9 °C 3,2 km/h (1 Bft)
08.08.2019 19:18 21,9 °C 61 % 1011,4 hPa 0,0 mm 0,4 km/h (0 Bft) NW 306 ° 0 min 0,000 mm 0,0 UV-I 51 W/m² 14,0 °C 21,9 °C 3,2 km/h (1 Bft)
08.08.2019 19:19 21,9 °C 59 % 1011,4 hPa 0,0 mm 0,0 km/h (0 Bft) NW 306 ° 0 min 0,000 mm 0,5 UV-I 56 W/m² 13,5 °C 21,9 °C 0,0 km/h (0 Bft)
08.08.2019 19:20 21,9 °C 61 % 1011,4 hPa 0,0 mm 0,0 km/h (0 Bft) NW 306 ° 0 min 0,000 mm 0,0 UV-I 54 W/m² 14,0 °C 21,9 °C 0,0 km/h (0 Bft)
08.08.2019 19:21 21,8 °C 61 % 1011,3 hPa 0,0 mm 0,0 km/h (0 Bft) NW 306 ° 0 min 0,000 mm 0,0 UV-I 49 W/m² 13,9 °C 21,8 °C 0,0 km/h (0 Bft)
08.08.2019 19:22 21,8 °C 62 % 1011,5 hPa 0,0 mm 0,0 km/h (0 Bft) NW 306 ° 0 min 0,000 mm 0,5 UV-I 58 W/m² 14,2 °C 21,8 °C 0,0 km/h (0 Bft)
08.08.2019 19:23 21,8 °C 62 % 1011,5 hPa 0,0 mm 0,0 km/h (0 Bft) NW 306 ° 0 min 0,000 mm 0,0 UV-I 54 W/m² 14,2 °C 21,8 °C 0,0 km/h (0 Bft)
08.08.2019 19:24 21,7 °C 61 % 1011,5 hPa 0,0 mm 0,0 km/h (0 Bft) NW 306 ° 0 min 0,000 mm 0,0 UV-I 47 W/m² 13,8 °C 21,7 °C 0,0 km/h (0 Bft)
08.08.2019 19:25 21,8 °C 60 % 1011,5 hPa 0,0 mm 1,8 km/h (1 Bft) N-NW 331 ° 0 min 0,000 mm 0,0 UV-I 44 W/m² 13,7 °C 21,8 °C 4,8 km/h (1 Bft)
08.08.2019 19:26 21,8 °C 64 % 1011,5 hPa 0,0 mm 1,9 km/h (1 Bft) N-NW 331 ° 0 min 0,000 mm 0,0 UV-I 46 W/m² 14,7 °C 21,8 °C 3,2 km/h (1 Bft)
08.08.2019 19:27 21,7 °C 62 % 1011,5 hPa 0,0 mm 0,5 km/h (0 Bft) N-NW 331 ° 0 min 0,000 mm 0,0 UV-I 42 W/m² 14,1 °C 21,7 °C 1,6 km/h (1 Bft)
08.08.2019 19:28 21,7 °C 61 % 1011,5 hPa 0,0 mm 0,0 km/h (0 Bft) N-NW 331 ° 0 min 0,000 mm 0,0 UV-I 49 W/m² 13,8 °C 21,7 °C 0,0 km/h (0 Bft)
08.08.2019 19:29 21,7 °C 61 % 1011,5 hPa 0,0 mm 0,0 km/h (0 Bft) N-NW 331 ° 0 min 0,000 mm 0,0 UV-I 58 W/m² 13,8 °C 21,7 °C 0,0 km/h (0 Bft)
08.08.2019 19:30 21,7 °C 61 % 1011,5 hPa 0,0 mm 0,0 km/h (0 Bft) N-NW 331 ° 0 min 0,000 mm 0,0 UV-I 79 W/m² 13,8 °C 21,7 °C 0,0 km/h (0 Bft)
08.08.2019 19:31 21,6 °C 60 % 1011,5 hPa 0,0 mm 0,0 km/h (0 Bft) N-NW 331 ° 0 min 0,000 mm 0,0 UV-I 90 W/m² 13,5 °C 21,6 °C 0,0 km/h (0 Bft)
08.08.2019 19:32 21,7 °C 61 % 1011,5 hPa 0,0 mm 0,0 km/h (0 Bft) N-NW 331 ° 0 min 0,000 mm 0,0 UV-I 63 W/m² 13,8 °C 21,7 °C 0,0 km/h (0 Bft)
08.08.2019 19:33 21,7 °C 61 % 1011,5 hPa 0,0 mm 0,0 km/h (0 Bft) N-NW 331 ° 0 min 0,000 mm 0,0 UV-I 56 W/m² 13,8 °C 21,7 °C 0,0 km/h (0 Bft)
08.08.2019 19:34 21,6 °C 61 % 1011,5 hPa 0,0 mm 0,0 km/h (0 Bft) N-NW 331 ° 0 min 0,000 mm 0,0 UV-I 49 W/m² 13,7 °C 21,6 °C 0,0 km/h (0 Bft)
08.08.2019 19:35 21,6 °C 61 % 1011,5 hPa 0,0 mm 0,0 km/h (0 Bft) N-NW 331 ° 0 min 0,000 mm 0,0 UV-I 44 W/m² 13,7 °C 21,6 °C 0,0 km/h (0 Bft)
08.08.2019 19:36 21,4 °C 63 % 1011,5 hPa 0,0 mm 0,0 km/h (0 Bft) N-NW 331 ° 0 min 0,000 mm 0,0 UV-I 40 W/m² 14,1 °C 21,4 °C 0,0 km/h (0 Bft)
08.08.2019 19:37 21,4 °C 62 % 1011,6 hPa 0,0 mm 0,0 km/h (0 Bft) N-NW 331 ° 0 min 0,000 mm 0,0 UV-I 39 W/m² 13,8 °C 21,4 °C 0,0 km/h (0 Bft)
08.08.2019 19:38 21,3 °C 62 % 1011,5 hPa 0,0 mm 0,0 km/h (0 Bft) N-NW 331 ° 0 min 0,000 mm 0,0 UV-I 42 W/m² 13,7 °C 21,3 °C 0,0 km/h (0 Bft)
08.08.2019 19:39 21,3 °C 62 % 1011,6 hPa 0,0 mm 0,0 km/h (0 Bft) N-NW 331 ° 0 min 0,000 mm 0,0 UV-I 49 W/m² 13,7 °C 21,3 °C 0,0 km/h (0 Bft)
08.08.2019 19:40 21,3 °C 62 % 1011,5 hPa 0,0 mm 0,0 km/h (0 Bft) N-NW 331 ° 0 min 0,000 mm 0,0 UV-I 51 W/m² 13,7 °C 21,3 °C 0,0 km/h (0 Bft)
08.08.2019 19:41 21,2 °C 62 % 1011,6 hPa 0,0 mm 0,0 km/h (0 Bft) N-NW 331 ° 0 min 0,000 mm 0,0 UV-I 54 W/m² 13,6 °C 21,2 °C 0,0 km/h (0 Bft)
08.08.2019 19:42 21,2 °C 61 % 1011,5 hPa 0,0 mm 0,0 km/h (0 Bft) N-NW 331 ° 0 min 0,000 mm 0,0 UV-I 58 W/m² 13,4 °C 21,2 °C 0,0 km/h (0 Bft)
08.08.2019 19:43 21,2 °C 62 % 1011,5 hPa 0,0 mm 0,0 km/h (0 Bft) N-NW 331 ° 0 min 0,000 mm 0,0 UV-I 54 W/m² 13,6 °C 21,2 °C 0,0 km/h (0 Bft)
08.08.2019 19:44 21,1 °C 66 % 1011,5 hPa 0,0 mm 0,0 km/h (0 Bft) N-NW 331 ° 0 min 0,000 mm 0,0 UV-I 65 W/m² 14,5 °C 21,1 °C 0,0 km/h (0 Bft)
08.08.2019 19:45 21,0 °C 68 % 1011,5 hPa 0,0 mm 0,0 km/h (0 Bft) N-NW 331 ° 0 min 0,000 mm 0,0 UV-I 65 W/m² 14,9 °C 21,0 °C 0,0 km/h (0 Bft)
08.08.2019 19:46 20,8 °C 71 % 1011,5 hPa 0,0 mm 0,0 km/h (0 Bft) N-NW 331 ° 0 min 0,000 mm 0,0 UV-I 70 W/m² 15,3 °C 20,8 °C 0,0 km/h (0 Bft)
08.08.2019 19:47 20,7 °C 72 % 1011,5 hPa 0,0 mm 0,0 km/h (0 Bft) N-NW 331 ° 0 min 0,000 mm 0,0 UV-I 72 W/m² 15,5 °C 20,7 °C 0,0 km/h (0 Bft)
08.08.2019 19:48 20,6 °C 70 % 1011,5 hPa 0,0 mm 0,0 km/h (0 Bft) N-NW 331 ° 0 min 0,000 mm 0,0 UV-I 67 W/m² 14,9 °C 20,6 °C 0,0 km/h (0 Bft)
08.08.2019 19:49 20,5 °C 73 % 1011,5 hPa 0,0 mm 0,0 km/h (0 Bft) N-NW 331 ° 0 min 0,000 mm 0,0 UV-I 65 W/m² 15,5 °C 20,5 °C 0,0 km/h (0 Bft)
08.08.2019 19:50 20,3 °C 70 % 1011,5 hPa 0,0 mm 0,0 km/h (0 Bft) N-NW 331 ° 0 min 0,000 mm 0,0 UV-I 37 W/m² 14,6 °C 20,3 °C 0,0 km/h (0 Bft)
08.08.2019 19:51 20,3 °C 72 % 1011,5 hPa 0,0 mm 0,0 km/h (0 Bft) N-NW 331 ° 0 min 0,000 mm 0,0 UV-I 32 W/m² 15,1 °C 20,3 °C 0,0 km/h (0 Bft)
08.08.2019 19:52 20,1 °C 73 % 1011,5 hPa 0,0 mm 0,0 km/h (0 Bft) N-NW 331 ° 0 min 0,000 mm 0,0 UV-I 39 W/m² 15,1 °C 20,1 °C 0,0 km/h (0 Bft)
08.08.2019 19:53 20,0 °C 74 % 1011,5 hPa 0,0 mm 0,0 km/h (0 Bft) N-NW 331 ° 0 min 0,000 mm 0,0 UV-I 35 W/m² 15,2 °C 20,0 °C 0,0 km/h (0 Bft)
08.08.2019 19:54 19,9 °C 74 % 1011,5 hPa 0,0 mm 0,0 km/h (0 Bft) N-NW 331 ° 0 min 0,000 mm 0,0 UV-I 35 W/m² 15,1 °C 19,9 °C 0,0 km/h (0 Bft)
08.08.2019 19:55 19,8 °C 72 % 1011,5 hPa 0,0 mm 0,0 km/h (0 Bft) N-NW 331 ° 0 min 0,000 mm 0,0 UV-I 32 W/m² 14,6 °C 19,8 °C 0,0 km/h (0 Bft)
08.08.2019 19:56 19,8 °C 74 % 1011,5 hPa 0,0 mm 0,0 km/h (0 Bft) N-NW 331 ° 0 min 0,000 mm 0,0 UV-I 26 W/m² 15,0 °C 19,8 °C 0,0 km/h (0 Bft)
08.08.2019 19:57 19,8 °C 76 % 1011,6 hPa 0,0 mm 0,0 km/h (0 Bft) N-NW 331 ° 0 min 0,000 mm 0,0 UV-I 21 W/m² 15,4 °C 19,8 °C 0,0 km/h (0 Bft)
08.08.2019 19:58 19,7 °C 75 % 1011,5 hPa 0,0 mm 0,8 km/h (0 Bft) N-NW 331 ° 0 min 0,000 mm 0,0 UV-I 21 W/m² 15,1 °C 19,7 °C 3,2 km/h (1 Bft)
08.08.2019 19:59 19,7 °C 76 % 1011,6 hPa 0,0 mm 0,0 km/h (0 Bft) N-NW 331 ° 0 min 0,000 mm 0,0 UV-I 26 W/m² 15,3 °C 19,7 °C 0,0 km/h (0 Bft)
08.08.2019 20:00 19,6 °C 75 % 1011,6 hPa 0,0 mm 0,1 km/h (0 Bft) N-NW 331 ° 0 min 0,051 mm 0,0 UV-I 23 W/m² 15,0 °C 19,6 °C 1,6 km/h (1 Bft)
08.08.2019 20:01 19,5 °C 76 % 1011,5 hPa 0,0 mm 0,0 km/h (0 Bft) N-NW 331 ° 0 min 0,000 mm 0,0 UV-I 21 W/m² 15,2 °C 19,5 °C 0,0 km/h (0 Bft)
08.08.2019 20:02 19,5 °C 77 % 1011,5 hPa 0,0 mm 0,5 km/h (0 Bft) N-NW 331 ° 0 min 0,000 mm 0,0 UV-I 18 W/m² 15,4 °C 19,5 °C 1,6 km/h (1 Bft)
08.08.2019 20:03 19,4 °C 77 % 1011,6 hPa 0,0 mm 0,0 km/h (0 Bft) N-NW 331 ° 0 min 0,000 mm 0,0 UV-I 16 W/m² 15,3 °C 19,4 °C 0,0 km/h (0 Bft)
08.08.2019 20:04 19,3 °C 76 % 1011,6 hPa 0,0 mm 0,0 km/h (0 Bft) N-NW 331 ° 0 min 0,000 mm 0,0 UV-I 16 W/m² 15,0 °C 19,3 °C 0,0 km/h (0 Bft)
08.08.2019 20:05 19,2 °C 76 % 1011,6 hPa 0,0 mm 0,0 km/h (0 Bft) N-NW 331 ° 0 min 0,000 mm 0,0 UV-I 16 W/m² 14,9 °C 19,2 °C 0,0 km/h (0 Bft)
08.08.2019 20:06 19,1 °C 76 % 1011,6 hPa 0,0 mm 0,0 km/h (0 Bft) N-NW 331 ° 0 min 0,000 mm 0,0 UV-I 16 W/m² 14,8 °C 19,1 °C 0,0 km/h (0 Bft)
08.08.2019 20:07 18,9 °C 75 % 1011,6 hPa 0,0 mm 0,0 km/h (0 Bft) N-NW 331 ° 0 min 0,000 mm 0,0 UV-I 16 W/m² 14,4 °C 18,9 °C 0,0 km/h (0 Bft)
08.08.2019 20:08 18,8 °C 74 % 1011,6 hPa 0,0 mm 0,0 km/h (0 Bft) N-NW 331 ° 0 min 0,000 mm 0,0 UV-I 14 W/m² 14,1 °C 18,8 °C 0,0 km/h (0 Bft)
08.08.2019 20:09 18,8 °C 74 % 1011,6 hPa 0,0 mm 0,0 km/h (0 Bft) N-NW 331 ° 0 min 0,000 mm 0,0 UV-I 14 W/m² 14,1 °C 18,8 °C 0,0 km/h (0 Bft)
08.08.2019 20:10 18,7 °C 75 % 1011,6 hPa 0,0 mm 0,0 km/h (0 Bft) N-NW 331 ° 0 min 0,000 mm 0,0 UV-I 14 W/m² 14,2 °C 18,7 °C 0,0 km/h (0 Bft)
08.08.2019 20:11 18,7 °C 75 % 1011,6 hPa 0,0 mm 0,0 km/h (0 Bft) N-NW 331 ° 0 min 0,000 mm 0,0 UV-I 14 W/m² 14,2 °C 18,7 °C 0,0 km/h (0 Bft)
08.08.2019 20:12 18,7 °C 75 % 1011,6 hPa 0,0 mm 0,0 km/h (0 Bft) N-NW 331 ° 0 min 0,000 mm 0,0 UV-I 14 W/m² 14,2 °C 18,7 °C 0,0 km/h (0 Bft)
08.08.2019 20:13 18,6 °C 75 % 1011,6 hPa 0,0 mm 0,0 km/h (0 Bft) N-NW 331 ° 0 min 0,000 mm 0,0 UV-I 14 W/m² 14,1 °C 18,6 °C 0,0 km/h (0 Bft)
08.08.2019 20:14 18,6 °C 75 % 1011,6 hPa 0,0 mm 0,0 km/h (0 Bft) N-NW 331 ° 0 min 0,000 mm 0,0 UV-I 14 W/m² 14,1 °C 18,6 °C 0,0 km/h (0 Bft)
08.08.2019 20:15 18,6 °C 75 % 1011,6 hPa 0,0 mm 0,0 km/h (0 Bft) N-NW 331 ° 0 min 0,000 mm 0,0 UV-I 14 W/m² 14,1 °C 18,6 °C 0,0 km/h (0 Bft)
08.08.2019 20:16 18,5 °C 76 % 1011,6 hPa 0,0 mm 0,0 km/h (0 Bft) N-NW 331 ° 0 min 0,000 mm 0,0 UV-I 14 W/m² 14,2 °C 18,5 °C 0,0 km/h (0 Bft)
08.08.2019 20:17 18,4 °C 77 % 1011,6 hPa 0,0 mm 0,0 km/h (0 Bft) N-NW 331 ° 0 min 0,000 mm 0,0 UV-I 12 W/m² 14,3 °C 18,4 °C 0,0 km/h (0 Bft)
08.08.2019 20:18 18,3 °C 77 % 1011,6 hPa 0,0 mm 0,0 km/h (0 Bft) N-NW 331 ° 0 min 0,000 mm 0,0 UV-I 12 W/m² 14,2 °C 18,3 °C 0,0 km/h (0 Bft)
08.08.2019 20:19 18,2 °C 77 % 1011,6 hPa 0,0 mm 0,0 km/h (0 Bft) N-NW 331 ° 0 min 0,000 mm 0,0 UV-I 12 W/m² 14,1 °C 18,2 °C 0,0 km/h (0 Bft)
08.08.2019 20:20 18,0 °C 78 % 1011,6 hPa 0,0 mm 0,0 km/h (0 Bft) N-NW 331 ° 0 min 0,000 mm 0,0 UV-I 14 W/m² 14,1 °C 18,0 °C 0,0 km/h (0 Bft)
08.08.2019 20:21 17,9 °C 78 % 1011,6 hPa 0,0 mm 0,0 km/h (0 Bft) N-NW 331 ° 0 min 0,000 mm 0,0 UV-I 14 W/m² 14,0 °C 17,9 °C 0,0 km/h (0 Bft)
08.08.2019 20:22 17,8 °C 78 % 1011,6 hPa 0,0 mm 0,0 km/h (0 Bft) N-NW 331 ° 0 min 0,000 mm 0,0 UV-I 12 W/m² 13,9 °C 17,8 °C 0,0 km/h (0 Bft)
08.08.2019 20:23 17,8 °C 78 % 1011,6 hPa 0,0 mm 0,0 km/h (0 Bft) N-NW 331 ° 0 min 0,000 mm 0,0 UV-I 12 W/m² 13,9 °C 17,8 °C 0,0 km/h (0 Bft)
08.08.2019 20:24 17,8 °C 79 % 1011,6 hPa 0,0 mm 0,0 km/h (0 Bft) N-NW 331 ° 0 min 0,000 mm 0,0 UV-I 12 W/m² 14,1 °C 17,8 °C 0,0 km/h (0 Bft)
08.08.2019 20:25 17,7 °C 79 % 1011,6 hPa 0,0 mm 0,0 km/h (0 Bft) N-NW 331 ° 0 min 0,000 mm 0,0 UV-I 12 W/m² 14,0 °C 17,7 °C 0,0 km/h (0 Bft)
08.08.2019 20:26 17,7 °C 79 % 1011,6 hPa 0,0 mm 0,0 km/h (0 Bft) N-NW 331 ° 0 min 0,000 mm 0,0 UV-I 12 W/m² 14,0 °C 17,7 °C 0,0 km/h (0 Bft)
08.08.2019 20:27 17,6 °C 80 % 1011,7 hPa 0,0 mm 0,0 km/h (0 Bft) N-NW 331 ° 0 min 0,000 mm 0,0 UV-I 12 W/m² 14,1 °C 17,6 °C 0,0 km/h (0 Bft)
08.08.2019 20:28 17,4 °C 80 % 1011,7 hPa 0,0 mm 0,0 km/h (0 Bft) N-NW 331 ° 0 min 0,000 mm 0,0 UV-I 12 W/m² 13,9 °C 17,4 °C 0,0 km/h (0 Bft)
08.08.2019 20:29 17,3 °C 81 % 1011,7 hPa 0,0 mm 0,0 km/h (0 Bft) N-NW 331 ° 0 min 0,000 mm 0,0 UV-I 11 W/m² 14,0 °C 17,3 °C 0,0 km/h (0 Bft)
08.08.2019 20:30 17,3 °C 81 % 1011,6 hPa 0,0 mm 0,0 km/h (0 Bft) N-NW 331 ° 0 min 0,000 mm 0,0 UV-I 11 W/m² 14,0 °C 17,3 °C 0,0 km/h (0 Bft)
08.08.2019 20:31 17,2 °C 81 % 1011,6 hPa 0,0 mm 0,0 km/h (0 Bft) N-NW 331 ° 0 min 0,000 mm 0,0 UV-I 9 W/m² 13,9 °C 17,2 °C 0,0 km/h (0 Bft)
08.08.2019 20:32 17,2 °C 81 % 1011,6 hPa 0,0 mm 0,0 km/h (0 Bft) N-NW 331 ° 0 min 0,000 mm 0,0 UV-I 9 W/m² 13,9 °C 17,2 °C 0,0 km/h (0 Bft)
08.08.2019 20:33 17,2 °C 81 % 1011,7 hPa 0,0 mm 0,0 km/h (0 Bft) N-NW 331 ° 0 min 0,000 mm 0,0 UV-I 7 W/m² 13,9 °C 17,2 °C 0,0 km/h (0 Bft)
08.08.2019 20:34 17,1 °C 81 % 1011,6 hPa 0,0 mm 0,0 km/h (0 Bft) N-NW 331 ° 0 min 0,000 mm 0,0 UV-I 7 W/m² 13,8 °C 17,1 °C 0,0 km/h (0 Bft)
08.08.2019 20:35 17,1 °C 81 % 1011,6 hPa 0,0 mm 0,0 km/h (0 Bft) N-NW 331 ° 0 min 0,000 mm 0,0 UV-I 7 W/m² 13,8 °C 17,1 °C 0,0 km/h (0 Bft)
08.08.2019 20:36 17,1 °C 81 % 1011,6 hPa 0,0 mm 1,5 km/h (1 Bft) N-NW 331 ° 0 min 0,000 mm 0,0 UV-I 7 W/m² 13,8 °C 17,1 °C 3,2 km/h (1 Bft)
08.08.2019 20:37 17,1 °C 81 % 1011,6 hPa 0,0 mm 3,6 km/h (1 Bft) N-NW 331 ° 0 min 0,000 mm 0,0 UV-I 5 W/m² 13,8 °C 17,1 °C 4,8 km/h (1 Bft)
08.08.2019 20:38 17,1 °C 81 % 1011,5 hPa 0,0 mm 3,3 km/h (1 Bft) N-NW 331 ° 0 min 0,000 mm 0,0 UV-I 5 W/m² 13,8 °C 17,1 °C 4,8 km/h (1 Bft)
08.08.2019 20:39 17,2 °C 80 % 1011,4 hPa 0,0 mm 2,0 km/h (1 Bft) N-NW 331 ° 0 min 0,000 mm 0,0 UV-I 5 W/m² 13,7 °C 17,2 °C 3,2 km/h (1 Bft)
08.08.2019 20:40 17,2 °C 80 % 1011,5 hPa 0,0 mm 3,1 km/h (1 Bft) N-NW 331 ° 0 min 0,000 mm 0,0 UV-I 5 W/m² 13,7 °C 17,2 °C 4,8 km/h (1 Bft)
08.08.2019 20:41 17,2 °C 80 % 1011,5 hPa 0,0 mm 2,1 km/h (1 Bft) N-NW 331 ° 0 min 0,000 mm 0,0 UV-I 5 W/m² 13,7 °C 17,2 °C 3,2 km/h (1 Bft)
08.08.2019 20:42 17,1 °C 80 % 1011,5 hPa 0,0 mm 2,1 km/h (1 Bft) N-NW 331 ° 0 min 0,000 mm 0,0 UV-I 0 W/m² 13,6 °C 17,1 °C 4,8 km/h (1 Bft)
08.08.2019 20:43 17,0 °C 80 % 1011,5 hPa 0,0 mm 2,1 km/h (1 Bft) N-NW 331 ° 0 min 0,000 mm 0,0 UV-I 0 W/m² 13,5 °C 17,0 °C 4,8 km/h (1 Bft)
08.08.2019 20:44 16,8 °C 81 % 1011,5 hPa 0,0 mm 2,1 km/h (1 Bft) N-NW 331 ° 0 min 0,000 mm 0,0 UV-I 0 W/m² 13,5 °C 16,8 °C 3,2 km/h (1 Bft)
08.08.2019 20:45 16,7 °C 81 % 1011,5 hPa 0,0 mm 0,9 km/h (0 Bft) N-NW 331 ° 0 min 0,000 mm 0,0 UV-I 0 W/m² 13,4 °C 16,7 °C 3,2 km/h (1 Bft)
08.08.2019 20:46 16,6 °C 82 % 1011,6 hPa 0,0 mm 0,0 km/h (0 Bft) N-NW 331 ° 0 min 0,000 mm 0,0 UV-I 0 W/m² 13,5 °C 16,6 °C 0,0 km/h (0 Bft)
08.08.2019 20:47 16,5 °C 82 % 1011,5 hPa 0,0 mm 0,0 km/h (0 Bft) N-NW 331 ° 0 min 0,000 mm 0,0 UV-I 0 W/m² 13,4 °C 16,5 °C 0,0 km/h (0 Bft)
08.08.2019 20:48 16,4 °C 82 % 1011,5 hPa 0,0 mm 0,0 km/h (0 Bft) N-NW 331 ° 0 min 0,000 mm 0,0 UV-I 0 W/m² 13,3 °C 16,4 °C 0,0 km/h (0 Bft)
08.08.2019 20:49 16,4 °C 82 % 1011,6 hPa 0,0 mm 0,0 km/h (0 Bft) N-NW 331 ° 0 min 0,000 mm 0,0 UV-I 0 W/m² 13,3 °C 16,4 °C 0,0 km/h (0 Bft)
08.08.2019 20:50 16,4 °C 83 % 1011,6 hPa 0,0 mm 0,0 km/h (0 Bft) N-NW 331 ° 0 min 0,000 mm 0,0 UV-I 0 W/m² 13,5 °C 16,4 °C 0,0 km/h (0 Bft)
08.08.2019 20:51 16,4 °C 83 % 1011,6 hPa 0,0 mm 0,0 km/h (0 Bft) N-NW 331 ° 0 min 0,000 mm 0,0 UV-I 0 W/m² 13,5 °C 16,4 °C 0,0 km/h (0 Bft)
08.08.2019 20:52 16,4 °C 83 % 1011,7 hPa 0,0 mm 0,0 km/h (0 Bft) N-NW 331 ° 0 min 0,000 mm 0,0 UV-I 0 W/m² 13,5 °C 16,4 °C 0,0 km/h (0 Bft)
08.08.2019 20:53 16,3 °C 83 % 1011,7 hPa 0,0 mm 0,0 km/h (0 Bft) N-NW 331 ° 0 min 0,000 mm 0,0 UV-I 0 W/m² 13,4 °C 16,3 °C 0,0 km/h (0 Bft)
08.08.2019 20:54 16,2 °C 84 % 1011,8 hPa 0,0 mm 0,0 km/h (0 Bft) N-NW 331 ° 0 min 0,000 mm 0,0 UV-I 0 W/m² 13,5 °C 16,2 °C 0,0 km/h (0 Bft)
08.08.2019 20:55 16,1 °C 84 % 1011,8 hPa 0,0 mm 0,0 km/h (0 Bft) N-NW 331 ° 0 min 0,000 mm 0,0 UV-I 0 W/m² 13,4 °C 16,1 °C 0,0 km/h (0 Bft)
08.08.2019 20:56 16,1 °C 85 % 1011,9 hPa 0,0 mm 0,0 km/h (0 Bft) N-NW 331 ° 0 min 0,000 mm 0,0 UV-I 0 W/m² 13,6 °C 16,1 °C 0,0 km/h (0 Bft)
08.08.2019 20:57 16,1 °C 85 % 1011,9 hPa 0,0 mm 0,0 km/h (0 Bft) N-NW 331 ° 0 min 0,000 mm 0,0 UV-I 0 W/m² 13,6 °C 16,1 °C 0,0 km/h (0 Bft)
08.08.2019 20:58 16,0 °C 85 % 1011,9 hPa 0,0 mm 0,0 km/h (0 Bft) N-NW 331 ° 0 min 0,000 mm 0,0 UV-I 0 W/m² 13,5 °C 16,0 °C 0,0 km/h (0 Bft)
08.08.2019 20:59 15,9 °C 85 % 1011,9 hPa 0,0 mm 0,0 km/h (0 Bft) N-NW 331 ° 0 min 0,000 mm 0,0 UV-I 0 W/m² 13,4 °C 15,9 °C 0,0 km/h (0 Bft)
08.08.2019 21:00 15,9 °C 85 % 1011,9 hPa 0,0 mm 0,0 km/h (0 Bft) N-NW 331 ° 0 min 0,000 mm 0,0 UV-I 0 W/m² 13,4 °C 15,9 °C 0,0 km/h (0 Bft)
08.08.2019 21:01 16,1 °C 85 % 1011,9 hPa 0,0 mm 0,0 km/h (0 Bft) N-NW 331 ° 0 min 0,000 mm 0,0 UV-I 0 W/m² 13,6 °C 16,1 °C 0,0 km/h (0 Bft)
08.08.2019 21:02 16,1 °C 85 % 1011,9 hPa 0,0 mm 0,0 km/h (0 Bft) N-NW 331 ° 0 min 0,000 mm 0,0 UV-I 0 W/m² 13,6 °C 16,1 °C 0,0 km/h (0 Bft)
08.08.2019 21:03 16,1 °C 85 % 1011,9 hPa 0,0 mm 0,0 km/h (0 Bft) N-NW 331 ° 0 min 0,000 mm 0,0 UV-I 0 W/m² 13,6 °C 16,1 °C 0,0 km/h (0 Bft)
08.08.2019 21:04 16,1 °C 85 % 1011,9 hPa 0,0 mm 0,0 km/h (0 Bft) N-NW 331 ° 0 min 0,000 mm 0,0 UV-I 0 W/m² 13,6 °C 16,1 °C 0,0 km/h (0 Bft)
08.08.2019 21:05 16,1 °C 85 % 1011,9 hPa 0,0 mm 0,0 km/h (0 Bft) N-NW 331 ° 0 min 0,000 mm 0,0 UV-I 0 W/m² 13,6 °C 16,1 °C 0,0 km/h (0 Bft)
08.08.2019 21:06 16,1 °C 85 % 1012,0 hPa 0,0 mm 0,0 km/h (0 Bft) N-NW 331 ° 0 min 0,000 mm 0,0 UV-I 0 W/m² 13,6 °C 16,1 °C 0,0 km/h (0 Bft)
08.08.2019 21:07 16,2 °C 85 % 1012,0 hPa 0,0 mm 0,0 km/h (0 Bft) N-NW 331 ° 0 min 0,000 mm 0,0 UV-I 0 W/m² 13,7 °C 16,2 °C 0,0 km/h (0 Bft)
08.08.2019 21:08 16,3 °C 85 % 1012,0 hPa 0,0 mm 0,0 km/h (0 Bft) N-NW 331 ° 0 min 0,000 mm 0,0 UV-I 0 W/m² 13,8 °C 16,3 °C 0,0 km/h (0 Bft)
08.08.2019 21:09 16,2 °C 85 % 1012,0 hPa 0,0 mm 0,0 km/h (0 Bft) N-NW 331 ° 0 min 0,000 mm 0,0 UV-I 0 W/m² 13,7 °C 16,2 °C 0,0 km/h (0 Bft)
08.08.2019 21:10 16,2 °C 85 % 1012,0 hPa 0,0 mm 0,0 km/h (0 Bft) N-NW 331 ° 0 min 0,000 mm 0,0 UV-I 0 W/m² 13,7 °C 16,2 °C 0,0 km/h (0 Bft)
08.08.2019 21:11 16,2 °C 85 % 1012,0 hPa 0,0 mm 0,0 km/h (0 Bft) N-NW 331 ° 0 min 0,000 mm 0,0 UV-I 0 W/m² 13,7 °C 16,2 °C 0,0 km/h (0 Bft)
08.08.2019 21:12 16,2 °C 85 % 1012,0 hPa 0,0 mm 0,0 km/h (0 Bft) N-NW 331 ° 0 min 0,000 mm 0,0 UV-I 0 W/m² 13,7 °C 16,2 °C 0,0 km/h (0 Bft)
08.08.2019 21:13 16,3 °C 85 % 1012,0 hPa 0,0 mm 0,0 km/h (0 Bft) N-NW 331 ° 0 min 0,000 mm 0,0 UV-I 0 W/m² 13,8 °C 16,3 °C 0,0 km/h (0 Bft)
08.08.2019 21:14 16,3 °C 85 % 1012,0 hPa 0,0 mm 0,0 km/h (0 Bft) N-NW 331 ° 0 min 0,000 mm 0,0 UV-I 0 W/m² 13,8 °C 16,3 °C 0,0 km/h (0 Bft)
08.08.2019 21:15 16,4 °C 84 % 1012,0 hPa 0,0 mm 0,0 km/h (0 Bft) N-NW 331 ° 0 min 0,000 mm 0,0 UV-I 0 W/m² 13,7 °C 16,4 °C 0,0 km/h (0 Bft)
08.08.2019 21:16 16,4 °C 84 % 1012,0 hPa 0,0 mm 0,0 km/h (0 Bft) N-NW 331 ° 0 min 0,000 mm 0,0 UV-I 0 W/m² 13,7 °C 16,4 °C 0,0 km/h (0 Bft)
08.08.2019 21:17 16,5 °C 84 % 1012,0 hPa 0,0 mm 0,0 km/h (0 Bft) N-NW 331 ° 0 min 0,000 mm 0,0 UV-I 0 W/m² 13,8 °C 16,5 °C 0,0 km/h (0 Bft)
08.08.2019 21:18 16,4 °C 84 % 1011,9 hPa 0,0 mm 0,0 km/h (0 Bft) N-NW 331 ° 0 min 0,000 mm 0,0 UV-I 0 W/m² 13,7 °C 16,4 °C 0,0 km/h (0 Bft)
08.08.2019 21:19 16,4 °C 84 % 1011,9 hPa 0,0 mm 0,0 km/h (0 Bft) N-NW 331 ° 0 min 0,000 mm 0,0 UV-I 0 W/m² 13,7 °C 16,4 °C 0,0 km/h (0 Bft)
08.08.2019 21:20 16,4 °C 84 % 1011,9 hPa 0,0 mm 0,0 km/h (0 Bft) N-NW 331 ° 0 min 0,000 mm 0,0 UV-I 0 W/m² 13,7 °C 16,4 °C 0,0 km/h (0 Bft)
08.08.2019 21:21 16,3 °C 84 % 1011,9 hPa 0,0 mm 0,0 km/h (0 Bft) N-NW 331 ° 0 min 0,000 mm 0,0 UV-I 0 W/m² 13,6 °C 16,3 °C 0,0 km/h (0 Bft)
08.08.2019 21:22 16,2 °C 85 % 1012,0 hPa 0,0 mm 0,0 km/h (0 Bft) N-NW 331 ° 0 min 0,000 mm 0,0 UV-I 0 W/m² 13,7 °C 16,2 °C 0,0 km/h (0 Bft)
08.08.2019 21:23 16,1 °C 85 % 1012,0 hPa 0,0 mm 0,0 km/h (0 Bft) N-NW 331 ° 0 min 0,000 mm 0,0 UV-I 0 W/m² 13,6 °C 16,1 °C 0,0 km/h (0 Bft)
08.08.2019 21:24 16,1 °C 85 % 1012,0 hPa 0,0 mm 0,0 km/h (0 Bft) N-NW 331 ° 0 min 0,000 mm 0,0 UV-I 0 W/m² 13,6 °C 16,1 °C 0,0 km/h (0 Bft)
08.08.2019 21:25 15,9 °C 86 % 1012,0 hPa 0,0 mm 0,0 km/h (0 Bft) N-NW 331 ° 0 min 0,000 mm 0,0 UV-I 0 W/m² 13,6 °C 15,9 °C 0,0 km/h (0 Bft)
08.08.2019 21:26 15,9 °C 86 % 1012,1 hPa 0,0 mm 0,0 km/h (0 Bft) N-NW 331 ° 0 min 0,000 mm 0,0 UV-I 0 W/m² 13,6 °C 15,9 °C 0,0 km/h (0 Bft)
08.08.2019 21:27 15,8 °C 86 % 1012,1 hPa 0,0 mm 0,0 km/h (0 Bft) N-NW 331 ° 0 min 0,000 mm 0,0 UV-I 0 W/m² 13,5 °C 15,8 °C 0,0 km/h (0 Bft)
08.08.2019 21:28 15,8 °C 86 % 1012,1 hPa 0,0 mm 0,0 km/h (0 Bft) N-NW 331 ° 0 min 0,000 mm 0,0 UV-I 0 W/m² 13,5 °C 15,8 °C 0,0 km/h (0 Bft)
08.08.2019 21:29 15,8 °C 87 % 1012,1 hPa 0,0 mm 0,0 km/h (0 Bft) N-NW 331 ° 0 min 0,000 mm 0,0 UV-I 0 W/m² 13,6 °C 15,8 °C 0,0 km/h (0 Bft)
08.08.2019 21:30 15,8 °C 87 % 1012,1 hPa 0,0 mm 0,0 km/h (0 Bft) N-NW 331 ° 0 min 0,000 mm 0,0 UV-I 0 W/m² 13,6 °C 15,8 °C 0,0 km/h (0 Bft)
08.08.2019 21:31 15,8 °C 87 % 1012,0 hPa 0,0 mm 0,0 km/h (0 Bft) N-NW 331 ° 0 min 0,000 mm 0,0 UV-I 0 W/m² 13,6 °C 15,8 °C 0,0 km/h (0 Bft)
08.08.2019 21:32 15,8 °C 87 % 1012,0 hPa 0,0 mm 0,0 km/h (0 Bft) N-NW 331 ° 0 min 0,000 mm 0,0 UV-I 0 W/m² 13,6 °C 15,8 °C 0,0 km/h (0 Bft)
08.08.2019 21:33 15,8 °C 87 % 1012,1 hPa 0,0 mm 0,0 km/h (0 Bft) N-NW 331 ° 0 min 0,000 mm 0,0 UV-I 0 W/m² 13,6 °C 15,8 °C 0,0 km/h (0 Bft)
08.08.2019 21:34 15,8 °C 87 % 1012,1 hPa 0,0 mm 0,0 km/h (0 Bft) N-NW 331 ° 0 min 0,000 mm 0,0 UV-I 0 W/m² 13,6 °C 15,8 °C 0,0 km/h (0 Bft)
08.08.2019 21:35 15,8 °C 87 % 1012,1 hPa 0,0 mm 0,0 km/h (0 Bft) N-NW 331 ° 0 min 0,000 mm 0,0 UV-I 0 W/m² 13,6 °C 15,8 °C 0,0 km/h (0 Bft)
08.08.2019 21:36 15,8 °C 87 % 1012,1 hPa 0,0 mm 0,0 km/h (0 Bft) N-NW 331 ° 0 min 0,000 mm 0,0 UV-I 0 W/m² 13,6 °C 15,8 °C 0,0 km/h (0 Bft)
08.08.2019 21:37 15,8 °C 87 % 1012,1 hPa 0,0 mm 0,0 km/h (0 Bft) N-NW 331 ° 0 min 0,000 mm 0,0 UV-I 0 W/m² 13,6 °C 15,8 °C 0,0 km/h (0 Bft)
08.08.2019 21:38 15,8 °C 87 % 1012,1 hPa 0,0 mm 0,0 km/h (0 Bft) N-NW 331 ° 0 min 0,000 mm 0,0 UV-I 0 W/m² 13,6 °C 15,8 °C 0,0 km/h (0 Bft)
08.08.2019 21:39 15,7 °C 87 % 1012,1 hPa 0,0 mm 0,0 km/h (0 Bft) N-NW 331 ° 0 min 0,000 mm 0,0 UV-I 0 W/m² 13,5 °C 15,7 °C 0,0 km/h (0 Bft)
08.08.2019 21:40 15,7 °C 87 % 1012,1 hPa 0,0 mm 0,0 km/h (0 Bft) N-NW 331 ° 0 min 0,000 mm 0,0 UV-I 0 W/m² 13,5 °C 15,7 °C 0,0 km/h (0 Bft)
08.08.2019 21:41 15,7 °C 87 % 1012,2 hPa 0,0 mm 0,0 km/h (0 Bft) N-NW 331 ° 0 min 0,000 mm 0,0 UV-I 0 W/m² 13,5 °C 15,7 °C 0,0 km/h (0 Bft)
08.08.2019 21:42 15,6 °C 88 % 1012,3 hPa 0,0 mm 0,0 km/h (0 Bft) N-NW 331 ° 0 min 0,000 mm 0,0 UV-I 0 W/m² 13,6 °C 15,6 °C 0,0 km/h (0 Bft)
08.08.2019 21:43 15,6 °C 88 % 1012,2 hPa 0,0 mm 0,0 km/h (0 Bft) N-NW 331 ° 0 min 0,000 mm 0,0 UV-I 0 W/m² 13,6 °C 15,6 °C 0,0 km/h (0 Bft)
08.08.2019 21:44 15,5 °C 88 % 1012,2 hPa 0,0 mm 0,0 km/h (0 Bft) N-NW 331 ° 0 min 0,000 mm 0,0 UV-I 0 W/m² 13,5 °C 15,5 °C 0,0 km/h (0 Bft)
08.08.2019 21:45 15,4 °C 88 % 1012,3 hPa 0,0 mm 0,0 km/h (0 Bft) N-NW 331 ° 0 min 0,000 mm 0,0 UV-I 0 W/m² 13,4 °C 15,4 °C 0,0 km/h (0 Bft)
08.08.2019 21:46 15,4 °C 88 % 1012,3 hPa 0,0 mm 0,0 km/h (0 Bft) N-NW 331 ° 0 min 0,000 mm 0,0 UV-I 0 W/m² 13,4 °C 15,4 °C 0,0 km/h (0 Bft)
08.08.2019 21:47 15,4 °C 88 % 1012,3 hPa 0,0 mm 0,0 km/h (0 Bft) N-NW 331 ° 0 min 0,000 mm 0,0 UV-I 0 W/m² 13,4 °C 15,4 °C 0,0 km/h (0 Bft)
08.08.2019 21:48 15,4 °C 88 % 1012,4 hPa 0,0 mm 0,0 km/h (0 Bft) N-NW 331 ° 0 min 0,000 mm 0,0 UV-I 0 W/m² 13,4 °C 15,4 °C 0,0 km/h (0 Bft)
08.08.2019 21:49 15,3 °C 89 % 1012,3 hPa 0,0 mm 0,0 km/h (0 Bft) N-NW 331 ° 0 min 0,000 mm 0,0 UV-I 0 W/m² 13,5 °C 15,3 °C 0,0 km/h (0 Bft)
08.08.2019 21:50 15,3 °C 89 % 1012,3 hPa 0,0 mm 0,0 km/h (0 Bft) N-NW 331 ° 0 min 0,000 mm 0,0 UV-I 0 W/m² 13,5 °C 15,3 °C 0,0 km/h (0 Bft)
08.08.2019 21:51 15,3 °C 89 % 1012,3 hPa 0,0 mm 0,0 km/h (0 Bft) N-NW 331 ° 0 min 0,000 mm 0,0 UV-I 0 W/m² 13,5 °C 15,3 °C 0,0 km/h (0 Bft)
08.08.2019 21:52 15,3 °C 89 % 1012,3 hPa 0,0 mm 0,0 km/h (0 Bft) N-NW 331 ° 0 min 0,000 mm 0,0 UV-I 0 W/m² 13,5 °C 15,3 °C 0,0 km/h (0 Bft)
08.08.2019 21:53 15,3 °C 89 % 1012,3 hPa 0,0 mm 0,0 km/h (0 Bft) N-NW 331 ° 0 min 0,000 mm 0,0 UV-I 0 W/m² 13,5 °C 15,3 °C 0,0 km/h (0 Bft)
08.08.2019 21:54 15,3 °C 88 % 1012,4 hPa 0,0 mm 0,0 km/h (0 Bft) N-NW 331 ° 0 min 0,000 mm 0,0 UV-I 0 W/m² 13,3 °C 15,3 °C 0,0 km/h (0 Bft)
08.08.2019 21:55 15,3 °C 89 % 1012,4 hPa 0,0 mm 0,0 km/h (0 Bft) N-NW 331 ° 0 min 0,000 mm 0,0 UV-I 0 W/m² 13,5 °C 15,3 °C 0,0 km/h (0 Bft)
08.08.2019 21:56 15,3 °C 89 % 1012,4 hPa 0,0 mm 0,0 km/h (0 Bft) N-NW 331 ° 0 min 0,000 mm 0,0 UV-I 0 W/m² 13,5 °C 15,3 °C 0,0 km/h (0 Bft)
08.08.2019 21:57 15,3 °C 88 % 1012,4 hPa 0,0 mm 0,0 km/h (0 Bft) N-NW 331 ° 0 min 0,000 mm 0,0 UV-I 0 W/m² 13,3 °C 15,3 °C 0,0 km/h (0 Bft)
08.08.2019 21:58 15,3 °C 88 % 1012,5 hPa 0,0 mm 0,0 km/h (0 Bft) N-NW 331 ° 0 min 0,000 mm 0,0 UV-I 0 W/m² 13,3 °C 15,3 °C 0,0 km/h (0 Bft)
08.08.2019 21:59 15,3 °C 89 % 1012,4 hPa 0,0 mm 0,0 km/h (0 Bft) N-NW 331 ° 0 min 0,000 mm 0,0 UV-I 0 W/m² 13,5 °C 15,3 °C 0,0 km/h (0 Bft)
08.08.2019 22:00 15,2 °C 89 % 1012,5 hPa 0,0 mm 0,0 km/h (0 Bft) N-NW 331 ° 0 min 0,000 mm 0,0 UV-I 0 W/m² 13,4 °C 15,2 °C 0,0 km/h (0 Bft)
08.08.2019 22:01 15,2 °C 89 % 1012,5 hPa 0,0 mm 0,0 km/h (0 Bft) N-NW 331 ° 0 min 0,000 mm 0,0 UV-I 0 W/m² 13,4 °C 15,2 °C 0,0 km/h (0 Bft)
08.08.2019 22:02 15,2 °C 89 % 1012,5 hPa 0,0 mm 0,0 km/h (0 Bft) N-NW 331 ° 0 min 0,000 mm 0,0 UV-I 0 W/m² 13,4 °C 15,2 °C 0,0 km/h (0 Bft)
08.08.2019 22:03 15,1 °C 89 % 1012,5 hPa 0,0 mm 0,0 km/h (0 Bft) N-NW 331 ° 0 min 0,000 mm 0,0 UV-I 0 W/m² 13,3 °C 15,1 °C 0,0 km/h (0 Bft)
08.08.2019 22:04 15,1 °C 89 % 1012,5 hPa 0,0 mm 0,0 km/h (0 Bft) N-NW 331 ° 0 min 0,000 mm 0,0 UV-I 0 W/m² 13,3 °C 15,1 °C 0,0 km/h (0 Bft)
08.08.2019 22:05 15,1 °C 89 % 1012,5 hPa 0,0 mm 0,0 km/h (0 Bft) N-NW 331 ° 0 min 0,000 mm 0,0 UV-I 0 W/m² 13,3 °C 15,1 °C 0,0 km/h (0 Bft)
08.08.2019 22:06 15,1 °C 90 % 1012,5 hPa 0,0 mm 0,0 km/h (0 Bft) N-NW 331 ° 0 min 0,000 mm 0,0 UV-I 0 W/m² 13,5 °C 15,1 °C 0,0 km/h (0 Bft)
08.08.2019 22:07 15,1 °C 89 % 1012,5 hPa 0,0 mm 0,0 km/h (0 Bft) N-NW 331 ° 0 min 0,000 mm 0,0 UV-I 0 W/m² 13,3 °C 15,1 °C 0,0 km/h (0 Bft)
08.08.2019 22:08 15,1 °C 90 % 1012,5 hPa 0,0 mm 0,0 km/h (0 Bft) N-NW 331 ° 0 min 0,000 mm 0,0 UV-I 0 W/m² 13,5 °C 15,1 °C 0,0 km/h (0 Bft)
08.08.2019 22:09 15,1 °C 90 % 1012,5 hPa 0,0 mm 0,0 km/h (0 Bft) N-NW 331 ° 0 min 0,000 mm 0,0 UV-I 0 W/m² 13,5 °C 15,1 °C 0,0 km/h (0 Bft)
08.08.2019 22:10 15,1 °C 90 % 1012,4 hPa 0,0 mm 0,0 km/h (0 Bft) N-NW 331 ° 0 min 0,000 mm 0,0 UV-I 0 W/m² 13,5 °C 15,1 °C 0,0 km/h (0 Bft)
08.08.2019 22:11 15,1 °C 90 % 1012,4 hPa 0,0 mm 0,0 km/h (0 Bft) N-NW 331 ° 0 min 0,000 mm 0,0 UV-I 0 W/m² 13,5 °C 15,1 °C 0,0 km/h (0 Bft)
08.08.2019 22:12 15,1 °C 90 % 1012,4 hPa 0,0 mm 0,0 km/h (0 Bft) N-NW 331 ° 0 min 0,000 mm 0,0 UV-I 0 W/m² 13,5 °C 15,1 °C 0,0 km/h (0 Bft)
08.08.2019 22:13 15,1 °C 90 % 1012,4 hPa 0,0 mm 0,0 km/h (0 Bft) N-NW 331 ° 0 min 0,000 mm 0,0 UV-I 0 W/m² 13,5 °C 15,1 °C 0,0 km/h (0 Bft)
08.08.2019 22:14 15,1 °C 90 % 1012,4 hPa 0,0 mm 0,0 km/h (0 Bft) N-NW 331 ° 0 min 0,000 mm 0,0 UV-I 0 W/m² 13,5 °C 15,1 °C 0,0 km/h (0 Bft)
08.08.2019 22:15 15,1 °C 90 % 1012,4 hPa 0,0 mm 0,0 km/h (0 Bft) N-NW 331 ° 0 min 0,000 mm 0,0 UV-I 0 W/m² 13,5 °C 15,1 °C 0,0 km/h (0 Bft)
08.08.2019 22:16 15,1 °C 90 % 1012,4 hPa 0,0 mm 0,0 km/h (0 Bft) N-NW 331 ° 0 min 0,000 mm 0,0 UV-I 0 W/m² 13,5 °C 15,1 °C 0,0 km/h (0 Bft)
08.08.2019 22:17 15,1 °C 90 % 1012,4 hPa 0,0 mm 0,0 km/h (0 Bft) N-NW 331 ° 0 min 0,000 mm 0,0 UV-I 0 W/m² 13,5 °C 15,1 °C 0,0 km/h (0 Bft)
08.08.2019 22:18 15,0 °C 89 % 1012,4 hPa 0,0 mm 0,0 km/h (0 Bft) N-NW 331 ° 0 min 0,000 mm 0,0 UV-I 0 W/m² 13,2 °C 15,0 °C 0,0 km/h (0 Bft)
08.08.2019 22:19 15,0 °C 89 % 1012,4 hPa 0,0 mm 0,0 km/h (0 Bft) N-NW 331 ° 0 min 0,000 mm 0,0 UV-I 0 W/m² 13,2 °C 15,0 °C 0,0 km/h (0 Bft)
08.08.2019 22:20 14,9 °C 89 % 1012,4 hPa 0,0 mm 0,0 km/h (0 Bft) N-NW 331 ° 0 min 0,000 mm 0,0 UV-I 0 W/m² 13,1 °C 14,9 °C 0,0 km/h (0 Bft)
08.08.2019 22:21 14,9 °C 89 % 1012,4 hPa 0,0 mm 0,0 km/h (0 Bft) N-NW 331 ° 0 min 0,000 mm 0,0 UV-I 0 W/m² 13,1 °C 14,9 °C 0,0 km/h (0 Bft)
08.08.2019 22:22 14,9 °C 89 % 1012,3 hPa 0,0 mm 0,0 km/h (0 Bft) N-NW 331 ° 0 min 0,000 mm 0,0 UV-I 0 W/m² 13,1 °C 14,9 °C 0,0 km/h (0 Bft)
08.08.2019 22:23 14,9 °C 89 % 1012,3 hPa 0,0 mm 0,0 km/h (0 Bft) N-NW 331 ° 0 min 0,000 mm 0,0 UV-I 0 W/m² 13,1 °C 14,9 °C 0,0 km/h (0 Bft)
08.08.2019 22:24 14,9 °C 89 % 1012,3 hPa 0,0 mm 0,0 km/h (0 Bft) N-NW 331 ° 0 min 0,000 mm 0,0 UV-I 0 W/m² 13,1 °C 14,9 °C 0,0 km/h (0 Bft)
08.08.2019 22:25 14,8 °C 90 % 1012,3 hPa 0,0 mm 0,0 km/h (0 Bft) N-NW 331 ° 0 min 0,000 mm 0,0 UV-I 0 W/m² 13,2 °C 14,8 °C 0,0 km/h (0 Bft)
08.08.2019 22:26 14,8 °C 89 % 1012,3 hPa 0,0 mm 0,0 km/h (0 Bft) N-NW 331 ° 0 min 0,000 mm 0,0 UV-I 0 W/m² 13,0 °C 14,8 °C 0,0 km/h (0 Bft)
08.08.2019 22:27 14,8 °C 90 % 1012,3 hPa 0,0 mm 0,0 km/h (0 Bft) N-NW 331 ° 0 min 0,000 mm 0,0 UV-I 0 W/m² 13,2 °C 14,8 °C 0,0 km/h (0 Bft)
08.08.2019 22:28 14,7 °C 90 % 1012,2 hPa 0,0 mm 0,0 km/h (0 Bft) N-NW 331 ° 0 min 0,000 mm 0,0 UV-I 0 W/m² 13,1 °C 14,7 °C 0,0 km/h (0 Bft)
08.08.2019 22:29 14,7 °C 90 % 1012,3 hPa 0,0 mm 0,0 km/h (0 Bft) N-NW 331 ° 0 min 0,000 mm 0,0 UV-I 0 W/m² 13,1 °C 14,7 °C 0,0 km/h (0 Bft)
08.08.2019 22:30 14,7 °C 90 % 1012,3 hPa 0,0 mm 0,0 km/h (0 Bft) N-NW 331 ° 0 min 0,000 mm 0,0 UV-I 0 W/m² 13,1 °C 14,7 °C 0,0 km/h (0 Bft)
08.08.2019 22:31 14,7 °C 90 % 1012,2 hPa 0,0 mm 0,0 km/h (0 Bft) N-NW 331 ° 0 min 0,000 mm 0,0 UV-I 0 W/m² 13,1 °C 14,7 °C 0,0 km/h (0 Bft)
08.08.2019 22:32 14,7 °C 90 % 1012,3 hPa 0,0 mm 0,0 km/h (0 Bft) N-NW 331 ° 0 min 0,000 mm 0,0 UV-I 0 W/m² 13,1 °C 14,7 °C 0,0 km/h (0 Bft)
08.08.2019 22:33 14,6 °C 90 % 1012,3 hPa 0,0 mm 0,0 km/h (0 Bft) N-NW 331 ° 0 min 0,000 mm 0,0 UV-I 0 W/m² 13,0 °C 14,6 °C 0,0 km/h (0 Bft)
08.08.2019 22:34 14,6 °C 90 % 1012,3 hPa 0,0 mm 0,0 km/h (0 Bft) N-NW 331 ° 0 min 0,000 mm 0,0 UV-I 0 W/m² 13,0 °C 14,6 °C 0,0 km/h (0 Bft)
08.08.2019 22:35 14,6 °C 90 % 1012,3 hPa 0,0 mm 0,0 km/h (0 Bft) N-NW 331 ° 0 min 0,000 mm 0,0 UV-I 0 W/m² 13,0 °C 14,6 °C 0,0 km/h (0 Bft)
08.08.2019 22:36 14,6 °C 90 % 1012,3 hPa 0,0 mm 0,0 km/h (0 Bft) N-NW 331 ° 0 min 0,000 mm 0,0 UV-I 0 W/m² 13,0 °C 14,6 °C 0,0 km/h (0 Bft)
08.08.2019 22:37 14,6 °C 90 % 1012,3 hPa 0,0 mm 0,0 km/h (0 Bft) N-NW 331 ° 0 min 0,000 mm 0,0 UV-I 0 W/m² 13,0 °C 14,6 °C 0,0 km/h (0 Bft)
08.08.2019 22:38 14,6 °C 91 % 1012,3 hPa 0,0 mm 0,0 km/h (0 Bft) N-NW 331 ° 0 min 0,000 mm 0,0 UV-I 0 W/m² 13,1 °C 14,6 °C 0,0 km/h (0 Bft)
08.08.2019 22:39 14,5 °C 91 % 1012,3 hPa 0,0 mm 0,0 km/h (0 Bft) N-NW 331 ° 0 min 0,000 mm 0,0 UV-I 0 W/m² 13,0 °C 14,5 °C 0,0 km/h (0 Bft)
08.08.2019 22:40 14,5 °C 91 % 1012,3 hPa 0,0 mm 0,0 km/h (0 Bft) N-NW 331 ° 0 min 0,000 mm 0,0 UV-I 0 W/m² 13,0 °C 14,5 °C 0,0 km/h (0 Bft)
08.08.2019 22:41 14,5 °C 91 % 1012,3 hPa 0,0 mm 0,0 km/h (0 Bft) N-NW 331 ° 0 min 0,000 mm 0,0 UV-I 0 W/m² 13,0 °C 14,5 °C 0,0 km/h (0 Bft)
08.08.2019 22:42 14,4 °C 91 % 1012,3 hPa 0,0 mm 0,0 km/h (0 Bft) N-NW 331 ° 0 min 0,000 mm 0,0 UV-I 0 W/m² 12,9 °C 14,4 °C 0,0 km/h (0 Bft)
08.08.2019 22:43 14,4 °C 91 % 1012,3 hPa 0,0 mm 0,0 km/h (0 Bft) N-NW 331 ° 0 min 0,000 mm 0,0 UV-I 0 W/m² 12,9 °C 14,4 °C 0,0 km/h (0 Bft)
08.08.2019 22:44 14,5 °C 91 % 1012,3 hPa 0,0 mm 0,0 km/h (0 Bft) N-NW 331 ° 0 min 0,000 mm 0,0 UV-I 0 W/m² 13,0 °C 14,5 °C 0,0 km/h (0 Bft)
08.08.2019 22:45 14,4 °C 91 % 1012,3 hPa 0,0 mm 0,0 km/h (0 Bft) N-NW 331 ° 0 min 0,000 mm 0,0 UV-I 0 W/m² 12,9 °C 14,4 °C 0,0 km/h (0 Bft)
08.08.2019 22:46 14,5 °C 91 % 1012,3 hPa 0,0 mm 0,0 km/h (0 Bft) N-NW 331 ° 0 min 0,000 mm 0,0 UV-I 0 W/m² 13,0 °C 14,5 °C 0,0 km/h (0 Bft)
08.08.2019 22:47 14,5 °C 91 % 1012,4 hPa 0,0 mm 0,0 km/h (0 Bft) N-NW 331 ° 0 min 0,000 mm 0,0 UV-I 0 W/m² 13,0 °C 14,5 °C 0,0 km/h (0 Bft)
08.08.2019 22:48 14,4 °C 91 % 1012,3 hPa 0,0 mm 0,0 km/h (0 Bft) N-NW 331 ° 0 min 0,000 mm 0,0 UV-I 0 W/m² 12,9 °C 14,4 °C 0,0 km/h (0 Bft)
08.08.2019 22:49 14,5 °C 91 % 1012,3 hPa 0,0 mm 0,0 km/h (0 Bft) N-NW 331 ° 0 min 0,000 mm 0,0 UV-I 0 W/m² 13,0 °C 14,5 °C 0,0 km/h (0 Bft)
08.08.2019 22:50 14,5 °C 91 % 1012,3 hPa 0,0 mm 0,0 km/h (0 Bft) N-NW 331 ° 0 min 0,000 mm 0,0 UV-I 0 W/m² 13,0 °C 14,5 °C 0,0 km/h (0 Bft)
08.08.2019 22:51 14,5 °C 91 % 1012,3 hPa 0,0 mm 0,0 km/h (0 Bft) N-NW 331 ° 0 min 0,000 mm 0,0 UV-I 0 W/m² 13,0 °C 14,5 °C 0,0 km/h (0 Bft)
08.08.2019 22:52 14,6 °C 91 % 1012,3 hPa 0,0 mm 0,0 km/h (0 Bft) N-NW 331 ° 0 min 0,000 mm 0,0 UV-I 0 W/m² 13,1 °C 14,6 °C 0,0 km/h (0 Bft)
08.08.2019 22:53 14,6 °C 92 % 1012,3 hPa 0,0 mm 0,0 km/h (0 Bft) N-NW 331 ° 0 min 0,000 mm 0,0 UV-I 0 W/m² 13,3 °C 14,6 °C 0,0 km/h (0 Bft)
08.08.2019 22:54 14,6 °C 91 % 1012,4 hPa 0,0 mm 0,0 km/h (0 Bft) N-NW 331 ° 0 min 0,000 mm 0,0 UV-I 0 W/m² 13,1 °C 14,6 °C 0,0 km/h (0 Bft)
08.08.2019 22:55 14,6 °C 91 % 1012,3 hPa 0,0 mm 0,0 km/h (0 Bft) N-NW 331 ° 0 min 0,000 mm 0,0 UV-I 0 W/m² 13,1 °C 14,6 °C 0,0 km/h (0 Bft)
08.08.2019 22:56 14,6 °C 91 % 1012,3 hPa 0,0 mm 0,0 km/h (0 Bft) N-NW 331 ° 0 min 0,000 mm 0,0 UV-I 0 W/m² 13,1 °C 14,6 °C 0,0 km/h (0 Bft)
08.08.2019 22:57 14,6 °C 91 % 1012,3 hPa 0,0 mm 0,0 km/h (0 Bft) N-NW 331 ° 0 min 0,000 mm 0,0 UV-I 0 W/m² 13,1 °C 14,6 °C 0,0 km/h (0 Bft)
08.08.2019 22:58 14,6 °C 91 % 1012,3 hPa 0,0 mm 0,0 km/h (0 Bft) N-NW 331 ° 0 min 0,000 mm 0,0 UV-I 0 W/m² 13,1 °C 14,6 °C 0,0 km/h (0 Bft)
08.08.2019 22:59 14,6 °C 91 % 1012,3 hPa 0,0 mm 0,0 km/h (0 Bft) N-NW 331 ° 0 min 0,000 mm 0,0 UV-I 0 W/m² 13,1 °C 14,6 °C 0,0 km/h (0 Bft)
08.08.2019 23:00 14,6 °C 92 % 1012,3 hPa 0,0 mm 0,0 km/h (0 Bft) N-NW 331 ° 0 min 0,000 mm 0,0 UV-I 0 W/m² 13,3 °C 14,6 °C 0,0 km/h (0 Bft)
08.08.2019 23:01 14,6 °C 92 % 1012,4 hPa 0,0 mm 0,0 km/h (0 Bft) N-NW 331 ° 0 min 0,000 mm 0,0 UV-I 0 W/m² 13,3 °C 14,6 °C 0,0 km/h (0 Bft)
08.08.2019 23:02 14,6 °C 92 % 1012,4 hPa 0,0 mm 0,0 km/h (0 Bft) N-NW 331 ° 0 min 0,000 mm 0,0 UV-I 0 W/m² 13,3 °C 14,6 °C 0,0 km/h (0 Bft)
08.08.2019 23:03 14,6 °C 92 % 1012,3 hPa 0,0 mm 0,0 km/h (0 Bft) N-NW 331 ° 0 min 0,000 mm 0,0 UV-I 0 W/m² 13,3 °C 14,6 °C 0,0 km/h (0 Bft)
08.08.2019 23:04 14,6 °C 92 % 1012,3 hPa 0,0 mm 0,0 km/h (0 Bft) N-NW 331 ° 0 min 0,000 mm 0,0 UV-I 0 W/m² 13,3 °C 14,6 °C 0,0 km/h (0 Bft)
08.08.2019 23:05 14,6 °C 92 % 1012,3 hPa 0,0 mm 0,0 km/h (0 Bft) N-NW 331 ° 0 min 0,000 mm 0,0 UV-I 0 W/m² 13,3 °C 14,6 °C 0,0 km/h (0 Bft)
08.08.2019 23:06 14,6 °C 92 % 1012,3 hPa 0,0 mm 0,0 km/h (0 Bft) N-NW 331 ° 0 min 0,000 mm 0,0 UV-I 0 W/m² 13,3 °C 14,6 °C 0,0 km/h (0 Bft)
08.08.2019 23:07 14,5 °C 91 % 1012,4 hPa 0,0 mm 0,0 km/h (0 Bft) N-NW 331 ° 0 min 0,000 mm 0,0 UV-I 0 W/m² 13,0 °C 14,5 °C 0,0 km/h (0 Bft)
08.08.2019 23:08 14,4 °C 92 % 1012,4 hPa 0,0 mm 0,0 km/h (0 Bft) N-NW 331 ° 0 min 0,000 mm 0,0 UV-I 0 W/m² 13,1 °C 14,4 °C 0,0 km/h (0 Bft)
08.08.2019 23:09 14,4 °C 91 % 1012,4 hPa 0,0 mm 0,0 km/h (0 Bft) N-NW 331 ° 0 min 0,000 mm 0,0 UV-I 0 W/m² 12,9 °C 14,4 °C 0,0 km/h (0 Bft)
08.08.2019 23:10 14,4 °C 91 % 1012,4 hPa 0,0 mm 0,0 km/h (0 Bft) N-NW 331 ° 0 min 0,000 mm 0,0 UV-I 0 W/m² 12,9 °C 14,4 °C 0,0 km/h (0 Bft)
08.08.2019 23:11 14,4 °C 92 % 1012,4 hPa 0,0 mm 0,0 km/h (0 Bft) N-NW 331 ° 0 min 0,000 mm 0,0 UV-I 0 W/m² 13,1 °C 14,4 °C 0,0 km/h (0 Bft)
08.08.2019 23:12 14,4 °C 91 % 1012,4 hPa 0,0 mm 0,0 km/h (0 Bft) N-NW 331 ° 0 min 0,000 mm 0,0 UV-I 0 W/m² 12,9 °C 14,4 °C 0,0 km/h (0 Bft)
08.08.2019 23:13 14,3 °C 91 % 1012,4 hPa 0,0 mm 0,0 km/h (0 Bft) N-NW 331 ° 0 min 0,000 mm 0,0 UV-I 0 W/m² 12,8 °C 14,3 °C 0,0 km/h (0 Bft)
08.08.2019 23:14 14,2 °C 91 % 1012,4 hPa 0,0 mm 0,0 km/h (0 Bft) N-NW 331 ° 0 min 0,000 mm 0,0 UV-I 0 W/m² 12,8 °C 14,2 °C 0,0 km/h (0 Bft)
08.08.2019 23:15 14,2 °C 91 % 1012,4 hPa 0,0 mm 0,0 km/h (0 Bft) N-NW 331 ° 0 min 0,000 mm 0,0 UV-I 0 W/m² 12,8 °C 14,2 °C 0,0 km/h (0 Bft)
08.08.2019 23:16 14,1 °C 91 % 1012,4 hPa 0,0 mm 0,0 km/h (0 Bft) N-NW 331 ° 0 min 0,000 mm 0,0 UV-I 0 W/m² 12,7 °C 14,1 °C 0,0 km/h (0 Bft)
08.08.2019 23:17 14,1 °C 91 % 1012,4 hPa 0,0 mm 0,0 km/h (0 Bft) N-NW 331 ° 0 min 0,000 mm 0,0 UV-I 0 W/m² 12,7 °C 14,1 °C 0,0 km/h (0 Bft)
08.08.2019 23:18 14,1 °C 91 % 1012,3 hPa 0,0 mm 0,0 km/h (0 Bft) N-NW 331 ° 0 min 0,000 mm 0,0 UV-I 0 W/m² 12,7 °C 14,1 °C 0,0 km/h (0 Bft)
08.08.2019 23:19 14,1 °C 91 % 1012,4 hPa 0,0 mm 0,0 km/h (0 Bft) N-NW 331 ° 0 min 0,000 mm 0,0 UV-I 0 W/m² 12,7 °C 14,1 °C 0,0 km/h (0 Bft)
08.08.2019 23:20 14,1 °C 91 % 1012,4 hPa 0,0 mm 0,0 km/h (0 Bft) N-NW 331 ° 0 min 0,000 mm 0,0 UV-I 0 W/m² 12,7 °C 14,1 °C 0,0 km/h (0 Bft)
08.08.2019 23:21 14,1 °C 92 % 1012,4 hPa 0,0 mm 0,0 km/h (0 Bft) N-NW 331 ° 0 min 0,000 mm 0,0 UV-I 0 W/m² 12,8 °C 14,1 °C 0,0 km/h (0 Bft)
08.08.2019 23:22 14,1 °C 92 % 1012,4 hPa 0,0 mm 0,0 km/h (0 Bft) N-NW 331 ° 0 min 0,000 mm 0,0 UV-I 0 W/m² 12,8 °C 14,1 °C 0,0 km/h (0 Bft)
08.08.2019 23:23 14,1 °C 92 % 1012,4 hPa 0,0 mm 0,0 km/h (0 Bft) N-NW 331 ° 0 min 0,000 mm 0,0 UV-I 0 W/m² 12,8 °C 14,1 °C 0,0 km/h (0 Bft)
08.08.2019 23:24 14,1 °C 92 % 1012,4 hPa 0,0 mm 0,0 km/h (0 Bft) N-NW 331 ° 0 min 0,000 mm 0,0 UV-I 0 W/m² 12,8 °C 14,1 °C 0,0 km/h (0 Bft)
08.08.2019 23:25 14,1 °C 91 % 1012,4 hPa 0,0 mm 0,0 km/h (0 Bft) N-NW 331 ° 0 min 0,000 mm 0,0 UV-I 0 W/m² 12,7 °C 14,1 °C 0,0 km/h (0 Bft)
08.08.2019 23:26 14,1 °C 92 % 1012,3 hPa 0,0 mm 0,0 km/h (0 Bft) N-NW 331 ° 0 min 0,000 mm 0,0 UV-I 0 W/m² 12,8 °C 14,1 °C 0,0 km/h (0 Bft)
08.08.2019 23:27 14,1 °C 92 % 1012,4 hPa 0,0 mm 0,0 km/h (0 Bft) N-NW 331 ° 0 min 0,000 mm 0,0 UV-I 0 W/m² 12,8 °C 14,1 °C 0,0 km/h (0 Bft)
08.08.2019 23:28 14,0 °C 91 % 1012,4 hPa 0,0 mm 0,0 km/h (0 Bft) N-NW 331 ° 0 min 0,000 mm 0,0 UV-I 0 W/m² 12,6 °C 14,0 °C 0,0 km/h (0 Bft)
08.08.2019 23:29 13,9 °C 91 % 1012,4 hPa 0,0 mm 0,0 km/h (0 Bft) N-NW 331 ° 0 min 0,000 mm 0,0 UV-I 0 W/m² 12,5 °C 13,9 °C 0,0 km/h (0 Bft)
08.08.2019 23:30 13,8 °C 92 % 1012,4 hPa 0,0 mm 0,0 km/h (0 Bft) N-NW 331 ° 0 min 0,000 mm 0,0 UV-I 0 W/m² 12,5 °C 13,8 °C 0,0 km/h (0 Bft)
08.08.2019 23:31 13,8 °C 92 % 1012,4 hPa 0,0 mm 0,0 km/h (0 Bft) N-NW 331 ° 0 min 0,000 mm 0,0 UV-I 0 W/m² 12,5 °C 13,8 °C 0,0 km/h (0 Bft)
08.08.2019 23:32 13,8 °C 92 % 1012,4 hPa 0,0 mm 0,0 km/h (0 Bft) N-NW 331 ° 0 min 0,000 mm 0,0 UV-I 0 W/m² 12,5 °C 13,8 °C 0,0 km/h (0 Bft)
08.08.2019 23:33 13,8 °C 92 % 1012,4 hPa 0,0 mm 0,0 km/h (0 Bft) N-NW 331 ° 0 min 0,000 mm 0,0 UV-I 0 W/m² 12,5 °C 13,8 °C 0,0 km/h (0 Bft)
08.08.2019 23:34 13,8 °C 92 % 1012,4 hPa 0,0 mm 0,0 km/h (0 Bft) N-NW 331 ° 0 min 0,000 mm 0,0 UV-I 0 W/m² 12,5 °C 13,8 °C 0,0 km/h (0 Bft)
08.08.2019 23:35 13,8 °C 92 % 1012,4 hPa 0,0 mm 0,0 km/h (0 Bft) N-NW 331 ° 0 min 0,000 mm 0,0 UV-I 0 W/m² 12,5 °C 13,8 °C 0,0 km/h (0 Bft)
08.08.2019 23:36 13,8 °C 92 % 1012,3 hPa 0,0 mm 0,0 km/h (0 Bft) N-NW 331 ° 0 min 0,000 mm 0,0 UV-I 0 W/m² 12,5 °C 13,8 °C 0,0 km/h (0 Bft)
08.08.2019 23:37 13,8 °C 92 % 1012,5 hPa 0,0 mm 0,0 km/h (0 Bft) N-NW 331 ° 0 min 0,000 mm 0,0 UV-I 0 W/m² 12,5 °C 13,8 °C 0,0 km/h (0 Bft)
08.08.2019 23:38 13,8 °C 92 % 1012,4 hPa 0,0 mm 0,0 km/h (0 Bft) N-NW 331 ° 0 min 0,000 mm 0,0 UV-I 0 W/m² 12,5 °C 13,8 °C 0,0 km/h (0 Bft)
08.08.2019 23:39 13,8 °C 92 % 1012,5 hPa 0,0 mm 0,0 km/h (0 Bft) N-NW 331 ° 0 min 0,000 mm 0,0 UV-I 0 W/m² 12,5 °C 13,8 °C 0,0 km/h (0 Bft)
08.08.2019 23:40 13,8 °C 92 % 1012,4 hPa 0,0 mm 0,0 km/h (0 Bft) N-NW 331 ° 0 min 0,000 mm 0,0 UV-I 0 W/m² 12,5 °C 13,8 °C 0,0 km/h (0 Bft)
08.08.2019 23:41 13,8 °C 92 % 1012,4 hPa 0,0 mm 0,0 km/h (0 Bft) N-NW 331 ° 0 min 0,000 mm 0,0 UV-I 0 W/m² 12,5 °C 13,8 °C 0,0 km/h (0 Bft)
08.08.2019 23:42 13,8 °C 92 % 1012,4 hPa 0,0 mm 0,0 km/h (0 Bft) N-NW 331 ° 0 min 0,000 mm 0,0 UV-I 0 W/m² 12,5 °C 13,8 °C 0,0 km/h (0 Bft)
08.08.2019 23:43 13,8 °C 92 % 1012,4 hPa 0,0 mm 0,0 km/h (0 Bft) N-NW 331 ° 0 min 0,000 mm 0,0 UV-I 0 W/m² 12,5 °C 13,8 °C 0,0 km/h (0 Bft)
08.08.2019 23:44 13,8 °C 92 % 1012,4 hPa 0,0 mm 0,0 km/h (0 Bft) N-NW 331 ° 0 min 0,000 mm 0,0 UV-I 0 W/m² 12,5 °C 13,8 °C 0,0 km/h (0 Bft)
08.08.2019 23:45 13,9 °C 92 % 1012,4 hPa 0,0 mm 0,0 km/h (0 Bft) N-NW 331 ° 0 min 0,000 mm 0,0 UV-I 0 W/m² 12,6 °C 13,9 °C 0,0 km/h (0 Bft)
08.08.2019 23:46 13,8 °C 92 % 1012,4 hPa 0,0 mm 0,0 km/h (0 Bft) N-NW 331 ° 0 min 0,000 mm 0,0 UV-I 0 W/m² 12,5 °C 13,8 °C 0,0 km/h (0 Bft)
08.08.2019 23:47 13,8 °C 92 % 1012,4 hPa 0,0 mm 0,0 km/h (0 Bft) N-NW 331 ° 0 min 0,000 mm 0,0 UV-I 0 W/m² 12,5 °C 13,8 °C 0,0 km/h (0 Bft)
08.08.2019 23:48 13,8 °C 92 % 1012,4 hPa 0,0 mm 0,0 km/h (0 Bft) N-NW 331 ° 0 min 0,000 mm 0,0 UV-I 0 W/m² 12,5 °C 13,8 °C 0,0 km/h (0 Bft)
08.08.2019 23:49 13,9 °C 92 % 1012,4 hPa 0,0 mm 0,0 km/h (0 Bft) N-NW 331 ° 0 min 0,000 mm 0,0 UV-I 0 W/m² 12,6 °C 13,9 °C 0,0 km/h (0 Bft)
08.08.2019 23:50 13,9 °C 92 % 1012,3 hPa 0,0 mm 0,0 km/h (0 Bft) N-NW 331 ° 0 min 0,000 mm 0,0 UV-I 0 W/m² 12,6 °C 13,9 °C 0,0 km/h (0 Bft)
08.08.2019 23:51 13,9 °C 92 % 1012,3 hPa 0,0 mm 0,0 km/h (0 Bft) N-NW 331 ° 0 min 0,000 mm 0,0 UV-I 0 W/m² 12,6 °C 13,9 °C 0,0 km/h (0 Bft)
08.08.2019 23:52 13,9 °C 92 % 1012,4 hPa 0,0 mm 0,0 km/h (0 Bft) N-NW 331 ° 0 min 0,000 mm 0,0 UV-I 0 W/m² 12,6 °C 13,9 °C 0,0 km/h (0 Bft)
08.08.2019 23:53 14,0 °C 92 % 1012,4 hPa 0,0 mm 0,0 km/h (0 Bft) N-NW 331 ° 0 min 0,000 mm 0,0 UV-I 0 W/m² 12,7 °C 14,0 °C 0,0 km/h (0 Bft)
08.08.2019 23:54 14,1 °C 92 % 1012,3 hPa 0,0 mm 0,0 km/h (0 Bft) N-NW 331 ° 0 min 0,000 mm 0,0 UV-I 0 W/m² 12,8 °C 14,1 °C 0,0 km/h (0 Bft)
08.08.2019 23:55 14,1 °C 92 % 1012,4 hPa 0,0 mm 0,0 km/h (0 Bft) N-NW 331 ° 0 min 0,000 mm 0,0 UV-I 0 W/m² 12,8 °C 14,1 °C 0,0 km/h (0 Bft)
08.08.2019 23:56 14,1 °C 92 % 1012,3 hPa 0,0 mm 0,0 km/h (0 Bft) N-NW 331 ° 0 min 0,000 mm 0,0 UV-I 0 W/m² 12,8 °C 14,1 °C 0,0 km/h (0 Bft)
08.08.2019 23:57 14,1 °C 92 % 1012,4 hPa 0,0 mm 0,0 km/h (0 Bft) N-NW 331 ° 0 min 0,000 mm 0,0 UV-I 0 W/m² 12,8 °C 14,1 °C 0,0 km/h (0 Bft)
08.08.2019 23:58 14,2 °C 92 % 1012,3 hPa 0,0 mm 0,0 km/h (0 Bft) N-NW 331 ° 0 min 0,000 mm 0,0 UV-I 0 W/m² 12,9 °C 14,2 °C 0,0 km/h (0 Bft)
08.08.2019 23:59 14,2 °C 92 % 1012,4 hPa 0,0 mm 0,0 km/h (0 Bft) N-NW 331 ° 0 min 0,000 mm 0,0 UV-I 0 W/m² 12,9 °C 14,2 °C 0,0 km/h (0 Bft)
_ Min-Zeit 04:52 18:23 03:12 - 23:59 - - - - - - 04:52 04:52 23:59
Minimum _ 13,2 °C 56 % 1010,6 hPa - 0,0 km/h (0 Bft) - - - - - - 12,4 °C 13,2 °C 0,0 km/h (0 Bft)
_ Max-Zeit 16:15 08:12 23:39 00:49 14:41 - - 16:13 15:01 13:57 12:53 13:20 16:15 14:41
Maximum _ 23,3 °C 96 % 1012,5 hPa 0,2 mm 13,5 km/h
W (3 Bft)
- - 1 min 0,559 mm 7,0 UV-I 946 W/m² 17,7 °C 23,3 °C 20,9 km/h
W-NW (4 Bft)
Durchschnitt _ 17,7 °C 82 % 1011,6 hPa #1,2 mm 1,8 km/h (1 Bft) NW - #5:40 h #3,556 mm 3,8 UV-I 241 W/m² 14,3 °C 17,7 °C 3,2 km/h (1 Bft)